GFSGBSN_sfc_wetblb_003.txt.gz
Wetbulb
59.06 59.15 58.59 58.19 57.95 58.23 57.94 57.42 57.28 56.96 56.43 56.24 55.76 55.52 55.88 56.06 55.81 56.31 55.64 55.22 55.17 54.56 54.10 53.40 52.89 52.99 51.24 49.78 49.82 55.07 63.23 62.98 56.42 53.15 50.17 49.91 48.31 47.21 43.84 43.42 42.76 39.50 40.13 41.40 43.16 43.62 42.01
58.52 58.42 58.06 57.65 57.80 57.84 57.77 57.36 56.98 56.48 56.02 55.73 55.15 54.79 55.01 54.98 55.21 55.87 55.78 54.93 54.18 53.60 53.16 52.39 52.37 52.95 48.99 44.40 54.28 54.10 57.24 55.72 55.19 52.28 51.29 50.80 49.35 49.79 46.12 44.03 41.22 42.51 40.86 40.59 42.10 43.33 42.19
58.80 58.12 57.71 57.31 57.60 57.56 57.57 56.47 56.60 55.72 55.29 55.32 54.76 54.54 54.96 54.79 55.20 56.03 55.52 54.49 53.72 53.12 52.30 51.78 52.14 52.22 51.92 49.01 53.90 53.25 55.30 54.51 53.89 52.55 50.42 52.97 53.04 49.15 45.77 42.80 44.09 42.59 39.56 40.14 40.02 41.05 40.90
58.36 57.90 57.74 57.32 57.07 56.87 56.45 56.04 56.14 55.83 55.15 55.32 54.60 54.64 54.45 54.49 54.82 54.56 54.17 53.47 53.09 52.66 51.81 51.73 52.12 51.29 47.67 55.64 54.63 53.83 50.05 50.72 52.33 54.19 53.58 51.53 51.66 49.42 45.35 44.71 43.71 40.63 38.96 35.93 40.65 42.50 42.26
58.03 57.79 57.74 57.47 56.98 56.39 56.19 56.05 55.72 55.26 55.34 54.82 54.22 54.22 55.50 55.22 54.81 53.63 53.24 52.86 52.20 51.42 51.44 51.66 48.37 49.80 46.86 56.34 50.51 51.59 50.85 50.03 51.67 52.15 51.59 51.85 50.11 44.60 44.55 39.33 36.57 37.13 33.30 35.70 38.83 43.24 41.49
57.90 57.54 57.61 57.41 56.90 56.18 56.54 56.36 55.23 55.02 54.78 54.34 54.87 55.66 55.50 55.12 54.35 52.89 52.21 51.82 52.12 51.80 51.70 52.79 53.00 47.01 50.91 48.32 50.13 50.42 50.71 50.89 50.51 50.87 49.22 48.30 44.93 41.45 39.90 36.86 31.53 33.85 35.09 33.51 37.12 39.74 41.01
57.90 57.71 57.54 57.21 56.80 56.47 56.61 55.86 55.19 54.92 54.93 55.64 55.66 55.82 55.42 54.90 54.24 52.91 51.09 49.65 46.15 45.89 49.61 44.26 46.48 49.14 50.67 53.94 50.05 49.09 50.37 50.74 50.17 47.48 42.22 44.02 40.88 36.51 37.86 39.73 40.66 39.54 37.08 36.60 36.51 41.19 40.53
57.28 57.27 57.44 57.30 56.49 56.65 56.82 56.16 55.08 55.48 55.12 55.22 55.52 55.40 55.22 55.02 54.40 53.78 49.64 51.32 51.42 52.48 46.37 51.01 51.75 51.28 52.48 50.11 46.30 48.02 51.87 47.08 46.25 41.50 43.39 41.69 37.76 41.47 44.69 44.11 42.24 41.31 38.33 36.87 40.21 42.74 41.41
56.52 56.54 56.93 56.49 56.11 56.72 56.73 55.79 55.46 54.90 54.52 54.86 54.97 55.02 54.94 54.44 54.18 51.59 48.91 51.34 56.31 54.44 44.94 46.36 50.69 49.35 49.54 50.84 45.91 46.27 49.53 47.59 44.65 42.06 41.47 39.01 41.17 45.19 44.30 42.40 41.93 40.62 37.87 37.75 38.33 41.08 41.86
55.93 55.56 55.79 55.72 55.61 56.53 56.02 55.38 55.02 54.41 54.31 54.45 54.53 54.51 53.77 53.60 50.21 51.24 51.06 54.44 55.94 51.52 36.72 41.50 45.42 47.33 50.03 50.04 45.82 49.28 49.97 47.91 45.59 41.49 42.28 41.85 45.51 44.06 42.52 41.27 41.07 37.95 42.55 41.42 39.63 37.86 33.55
55.20 55.12 54.67 54.33 54.86 55.04 54.41 54.06 54.00 53.91 54.07 54.11 54.14 54.17 53.32 53.61 50.69 54.18 56.10 59.03 56.54 50.86 23.92 42.29 45.81 51.83 48.62 47.66 46.58 46.85 50.96 49.28 43.06 43.01 43.09 40.74 41.73 42.07 41.23 40.92 42.85 40.97 43.17 40.64 40.39 35.33 34.67
54.59 54.51 53.96 53.44 54.06 53.96 53.59 53.23 53.09 53.03 53.23 53.72 54.00 54.01 53.12 52.27 50.69 54.17 58.83 53.55 50.03 36.72 26.66 41.42 45.79 44.63 44.34 46.19 46.07 46.81 48.41 50.27 48.03 44.11 43.65 42.30 44.44 43.04 41.71 44.15 43.60 44.41 42.25 41.17 39.04 36.30 28.63
53.98 53.77 53.65 53.36 53.76 53.62 53.18 53.00 52.47 52.49 52.78 53.58 53.94 53.64 52.97 55.97 55.64 59.18 55.61 48.69 34.94 29.59 43.23 39.88 41.71 44.38 43.10 42.34 44.79 44.67 43.26 41.59 40.22 36.98 36.68 41.07 41.26 43.12 44.41 41.46 43.09 41.70 38.10 30.73 29.67 26.27 26.65
53.51 53.32 53.01 53.55 53.57 53.19 52.88 52.34 51.96 52.06 52.49 53.36 53.71 52.93 52.81 54.13 59.73 57.29 51.05 42.04 31.21 40.04 40.58 43.33 43.56 43.18 41.35 43.64 43.03 43.63 41.47 38.57 41.79 41.34 37.62 35.51 32.79 40.39 43.73 40.85 38.17 38.23 37.15 30.30 25.93 23.10 29.18
53.53 52.95 52.80 53.23 53.09 52.55 52.41 51.63 51.48 51.76 52.49 53.45 52.84 51.55 55.66 58.63 59.91 53.97 47.23 33.26 36.92 40.81 42.96 42.72 43.48 40.33 40.18 43.16 42.79 41.86 39.05 38.64 40.44 40.96 37.89 35.39 35.68 42.29 42.38 42.76 42.26 38.68 33.18 37.72 31.12 29.18 27.53
53.42 52.58 52.88 52.60 52.34 52.28 51.11 51.09 51.30 52.03 52.77 53.53 53.79 51.85 51.17 58.19 53.86 51.06 43.27 38.99 43.80 46.58 45.41 43.92 39.21 41.57 38.33 40.05 40.76 40.14 39.68 42.59 41.87 42.51 42.44 40.28 33.74 39.96 42.43 44.19 43.25 40.14 41.48 32.80 29.90 23.58 21.63
52.70 52.64 52.41 52.21 51.89 50.78 48.64 50.57 51.20 51.96 52.80 53.87 50.82 43.99 48.30 55.85 49.08 43.48 35.83 40.28 46.33 47.11 47.95 43.44 41.24 40.30 41.02 39.86 40.86 39.56 40.02 42.57 44.22 44.28 42.85 40.98 36.43 36.43 40.96 38.60 36.51 38.60 36.37 35.23 34.49 28.54 23.11
51.97 52.17 51.61 51.70 51.67 50.40 50.64 50.72 51.04 51.71 52.56 52.88 47.94 38.91 53.40 48.39 39.68 39.79 39.05 45.67 47.08 45.02 48.00 47.08 46.19 43.98 41.32 42.43 41.26 40.54 40.54 42.00 45.52 44.54 38.35 40.39 35.57 28.40 35.40 41.02 41.94 38.90 37.00 34.96 25.55 28.68 25.93
51.88 51.47 51.35 51.41 49.49 50.41 50.34 50.61 50.90 51.32 52.87 52.13 46.25 49.58 55.73 47.27 32.56 30.31 41.87 47.12 46.22 44.69 45.09 45.06 44.25 45.55 44.99 42.37 38.91 41.66 41.98 44.95 43.60 42.95 40.47 40.06 33.33 27.67 33.50 38.69 39.81 37.19 38.55 37.50 33.63 28.95 28.53
51.29 50.92 51.26 50.24 48.55 48.96 50.32 50.43 50.70 50.95 51.48 52.76 46.60 41.44 45.41 46.74 41.67 39.43 40.71 43.03 42.95 46.91 46.02 46.32 45.16 46.17 43.81 42.36 43.50 40.52 41.29 44.41 43.00 42.59 44.69 43.29 36.72 31.70 28.85 32.37 34.47 31.72 35.62 36.78 34.40 25.54 27.29
50.72 50.71 49.78 48.48 47.92 48.07 49.67 50.33 50.73 50.71 50.48 52.29 47.64 41.09 43.98 36.15 39.56 44.86 44.68 43.88 42.55 41.78 45.71 45.93 43.92 44.59 42.39 37.49 39.07 39.38 41.81 41.77 42.98 44.13 43.21 39.82 32.17 33.77 34.47 35.76 35.51 34.54 34.54 35.69 34.58 33.35 29.42
50.37 50.03 48.52 47.87 48.05 49.06 50.27 50.16 50.45 50.50 50.54 49.97 47.99 43.10 43.05 38.26 42.29 43.46 42.21 43.88 43.32 43.74 44.20 42.66 42.64 43.92 43.25 39.03 40.99 39.33 40.88 39.11 38.49 42.74 40.71 38.07 31.45 29.80 30.67 35.52 35.25 32.16 34.32 34.35 34.47 34.60 34.46
50.47 50.23 48.27 48.12 49.86 50.71 50.04 49.84 50.33 50.14 51.04 48.26 49.66 49.84 45.36 39.60 39.12 40.39 39.71 44.36 44.68 45.10 45.36 45.85 45.20 42.36 39.13 42.55 43.59 43.64 43.67 43.34 42.81 41.22 35.98 32.64 29.22 26.35 24.30 30.19 29.84 24.66 31.70 35.44 35.27 36.67 35.31
50.28 50.74 50.63 50.90 51.01 50.64 49.92 49.56 49.88 50.85 51.79 53.10 52.68 49.34 43.16 34.80 36.51 39.61 45.31 45.32 44.88 44.50 43.78 45.32 45.44 42.19 44.78 45.50 43.59 42.44 40.89 42.70 43.52 41.55 39.12 32.56 28.76 24.02 21.88 22.66 17.34 32.63 37.41 38.58 36.92 37.59 37.67
50.12 50.75 51.39 50.92 50.58 50.00 49.71 49.46 49.36 50.08 51.12 55.53 53.77 49.72 43.87 33.83 40.54 43.46 45.04 44.78 45.26 45.48 44.28 45.19 46.53 46.43 46.61 39.99 34.40 33.84 30.65 33.00 33.84 40.42 39.15 36.45 27.54 26.10 20.29 20.88 26.84 32.71 37.33 37.42 35.38 35.04 39.01
50.24 50.71 50.71 50.43 49.68 49.36 49.42 49.44 49.52 49.86 51.23 54.43 53.21 51.23 46.43 43.68 41.25 46.96 44.34 44.24 38.49 38.86 39.71 42.82 48.62 47.95 43.05 30.99 30.01 25.29 25.42 30.30 30.32 35.70 38.47 35.12 28.69 25.71 23.92 15.79 15.95 29.37 37.89 40.88 39.27 29.80 40.57
49.89 50.03 50.07 50.41 50.01 49.42 49.25 49.36 49.31 49.76 51.65 54.08 52.67 53.66 49.68 43.70 46.68 46.71 43.18 43.19 43.98 41.04 38.30 41.34 42.38 41.94 40.74 27.21 23.05 27.76 28.46 34.05 29.69 27.93 25.69 26.87 22.17 20.13 17.38 15.09 25.00 33.44 39.51 40.73 29.69 30.77 40.66
49.46 49.52 49.36 49.31 50.19 49.03 49.23 49.24 49.40 49.64 50.09 53.55 53.19 53.39 50.50 45.98 47.47 49.55 48.95 46.20 45.21 43.34 38.64 42.90 40.90 39.14 32.42 28.66 25.24 26.50 26.43 30.42 29.70 32.98 31.79 29.97 26.26 24.17 24.79 18.64 22.84 38.49 38.69 33.83 37.26 37.89 41.28
49.22 49.52 49.38 49.14 49.01 49.86 48.90 49.21 49.38 49.74 50.10 52.53 51.89 54.57 53.52 49.28 48.03 50.85 50.39 50.43 49.33 48.07 45.38 42.37 42.14 40.79 38.65 33.42 31.60 33.20 30.37 32.69 26.76 27.11 35.87 28.91 31.12 28.93 31.08 30.58 37.25 39.19 39.61 40.54 41.03 40.66 40.31

GFSGBSN_sfc_wetblb_006.txt.gz
Wetbulb
60.52 59.88 58.98 58.73 58.51 58.18 57.63 57.40 56.71 56.30 56.36 56.64 56.27 55.44 55.69 55.83 55.79 56.13 55.84 55.66 55.03 54.66 54.38 53.65 53.24 53.02 50.58 48.55 48.50 56.14 63.35 62.57 56.83 51.15 49.14 48.21 46.01 45.35 43.09 44.55 42.51 40.05 40.55 42.43 42.58 42.41 41.62
59.64 58.96 58.48 58.36 58.11 57.89 57.50 57.82 57.22 56.02 56.11 55.98 55.24 55.01 55.05 54.71 55.16 55.86 54.99 55.34 54.45 53.94 53.45 52.97 52.33 52.64 47.14 44.08 52.56 57.20 57.92 54.46 52.88 50.80 49.12 48.88 48.06 48.34 46.06 42.61 42.55 43.19 39.88 39.40 42.24 40.76 39.88
59.46 58.71 58.11 57.61 57.56 57.23 57.40 57.16 57.06 55.92 55.91 55.52 55.34 54.55 54.50 55.19 55.09 54.80 55.40 54.73 53.90 53.50 52.59 51.98 51.79 51.10 49.83 48.60 53.07 53.35 55.59 52.63 53.10 51.66 49.32 50.27 49.88 47.09 45.35 41.89 43.56 41.75 38.98 40.00 40.64 40.09 39.88
59.14 58.77 58.24 57.48 56.99 56.78 56.62 56.62 56.54 55.58 55.51 55.21 55.58 54.38 54.53 54.49 54.33 54.56 54.58 54.02 53.25 53.12 52.23 51.73 52.46 50.65 47.52 54.86 54.85 53.93 50.03 49.61 53.21 52.68 51.22 52.19 52.02 48.94 45.71 44.58 42.40 39.14 38.06 34.82 38.77 40.79 40.54
58.97 58.60 58.21 57.62 56.94 56.60 56.49 56.25 56.11 55.39 55.12 54.77 54.75 54.02 54.02 53.98 54.06 53.85 53.49 52.99 52.70 51.98 51.96 52.07 48.84 47.84 46.70 55.10 51.05 50.28 49.77 49.07 50.57 51.05 51.21 51.76 49.99 44.88 42.90 39.11 36.06 36.24 32.12 34.15 37.08 40.85 40.47
58.74 58.47 58.12 57.60 57.13 56.76 56.74 56.26 55.66 55.10 54.70 54.35 54.61 54.04 54.13 54.80 54.56 53.49 52.50 52.33 51.65 51.83 51.26 51.83 51.62 45.49 49.19 46.88 50.87 49.45 50.15 49.99 49.29 49.96 48.75 47.25 43.95 41.20 40.26 37.25 31.67 32.61 33.07 32.07 34.90 37.99 40.10
58.64 58.33 58.02 57.56 57.17 57.03 56.86 56.54 55.19 54.87 54.31 54.27 54.80 55.37 55.35 54.97 54.61 52.82 50.95 48.94 45.16 44.91 48.17 43.67 44.59 45.72 48.75 50.68 50.23 47.51 49.21 49.55 49.03 47.43 41.90 43.80 40.17 36.08 36.80 38.53 38.33 37.71 35.75 34.09 34.73 39.65 39.69
57.84 57.78 57.84 57.51 57.23 57.03 56.76 56.53 55.30 54.63 55.14 55.37 55.05 55.03 55.21 55.03 54.41 52.63 50.88 48.16 48.92 50.82 45.28 50.12 50.30 49.92 51.77 50.60 45.09 46.51 50.35 45.72 45.10 40.81 41.97 40.69 36.89 40.08 42.97 42.19 40.95 39.16 36.54 34.79 37.61 41.25 40.44
57.12 57.00 57.26 57.24 57.17 56.99 56.39 56.55 55.71 55.02 54.90 54.54 54.58 54.80 54.94 54.41 53.95 52.32 48.56 49.20 55.35 52.70 44.68 45.55 49.56 49.04 48.61 49.81 45.09 45.30 48.29 46.31 43.17 41.05 40.45 37.90 39.65 43.65 42.44 41.29 40.55 38.72 36.58 35.87 36.46 40.96 40.42
56.55 55.98 56.36 56.87 56.73 56.41 55.80 56.39 55.97 55.14 54.38 53.84 54.12 54.26 53.81 53.31 50.49 49.42 48.32 52.67 55.65 51.31 36.34 40.89 43.70 46.43 48.47 48.30 44.63 48.09 48.44 46.85 43.95 39.90 41.08 40.86 43.48 42.25 40.65 40.26 39.80 36.25 40.42 39.57 38.60 36.56 33.00
56.06 55.67 55.55 55.71 55.69 54.80 54.55 55.23 54.96 54.54 53.97 53.92 53.84 54.02 53.25 52.72 49.11 52.90 54.98 58.21 54.93 48.69 23.76 41.10 44.12 50.24 46.94 46.37 45.11 45.46 49.53 47.25 41.50 41.51 41.70 39.20 40.21 40.55 40.05 39.31 41.77 39.23 41.96 39.60 37.38 34.49 33.61
55.45 55.32 55.06 54.90 54.51 53.64 54.01 54.14 53.77 53.44 53.43 53.54 53.61 53.70 53.29 51.80 49.63 52.70 56.92 51.40 48.18 35.72 26.29 39.28 44.19 42.74 43.45 44.82 44.51 45.82 47.25 49.23 46.04 43.05 42.40 40.52 42.95 41.87 40.34 42.73 41.95 43.30 41.27 39.59 37.24 34.83 27.94
54.92 54.76 54.65 54.19 53.57 53.29 53.68 53.61 53.04 53.02 52.91 53.37 53.59 53.77 52.63 54.22 54.34 58.30 53.10 46.08 34.29 28.36 41.50 38.05 39.88 42.32 41.80 41.42 43.29 43.11 41.92 40.43 38.75 36.11 35.77 39.90 39.93 41.56 42.65 40.07 41.35 40.74 36.89 29.58 28.70 25.53 26.32
54.62 54.33 54.07 53.63 53.16 53.13 53.44 53.12 52.73 52.28 52.50 53.09 53.12 52.96 52.52 53.26 54.80 54.42 48.17 40.01 29.98 38.50 38.58 41.32 41.52 41.31 40.11 41.83 41.45 41.64 39.71 37.80 40.59 39.43 35.85 34.18 31.39 38.81 42.25 39.25 37.45 36.19 36.48 29.45 24.97 22.48 27.95
54.68 53.98 53.49 53.02 52.79 53.13 53.10 52.67 52.38 51.87 52.09 52.99 52.54 51.45 51.01 57.16 54.88 51.54 44.01 29.64 34.71 38.50 41.28 41.09 41.62 38.54 38.22 41.11 41.26 40.12 37.22 37.33 38.54 39.30 36.89 33.96 34.02 40.18 40.92 41.36 40.90 36.75 32.29 36.55 30.41 28.57 26.86
54.29 53.51 52.98 52.34 52.57 52.85 52.57 52.20 51.79 51.77 52.37 52.87 51.63 51.31 51.07 55.88 52.04 49.09 40.07 36.57 42.21 45.56 43.88 42.31 37.24 39.71 36.52 38.44 38.75 38.18 37.76 40.64 40.10 41.56 40.94 39.07 32.77 38.25 40.71 42.46 41.99 38.36 39.76 31.24 28.83 22.87 21.33
53.57 53.02 52.42 52.18 52.32 52.11 52.19 50.94 51.36 51.73 52.76 53.05 47.64 43.64 47.41 55.18 47.49 42.34 33.19 37.98 44.62 47.89 46.18 41.84 39.92 39.15 38.92 38.52 39.06 37.93 38.31 41.16 42.57 42.49 42.05 38.59 35.85 35.16 38.99 37.13 35.12 37.25 34.89 33.58 32.67 27.57 21.84
52.49 52.15 51.95 51.99 52.11 51.98 50.58 49.78 51.42 51.77 52.54 52.18 43.68 38.65 50.65 47.33 39.34 37.68 36.82 43.90 46.36 44.24 45.89 45.34 44.07 41.88 39.77 40.62 39.44 38.74 38.95 40.53 43.36 43.10 37.93 38.72 34.96 28.34 34.06 39.22 40.24 37.49 35.18 33.13 24.60 26.35 24.93
51.87 51.62 51.69 51.83 51.72 51.03 49.70 50.44 51.16 51.64 53.29 50.68 44.26 48.68 54.15 46.68 31.95 29.45 39.18 44.29 45.81 43.20 43.44 43.45 42.72 43.79 43.69 40.78 37.47 40.01 40.51 43.18 41.86 41.06 39.07 39.31 32.74 27.86 32.05 35.98 37.78 35.36 36.83 34.75 31.97 28.76 27.48
51.25 51.26 51.37 51.57 51.15 49.82 50.70 50.75 50.94 51.27 53.08 50.65 46.93 41.76 45.62 43.42 39.82 38.36 38.60 40.09 42.00 45.18 44.20 44.75 43.81 44.52 42.24 40.45 41.79 39.52 39.90 42.74 41.98 41.68 44.39 42.03 34.70 31.16 27.75 30.84 32.93 31.96 35.25 34.67 32.91 24.61 26.37
50.87 50.68 50.82 50.35 49.20 49.09 49.97 50.68 50.89 50.96 51.63 51.40 44.13 41.57 44.46 36.00 38.50 39.08 40.49 41.98 40.93 40.66 44.22 44.54 42.46 42.69 41.30 36.78 37.38 37.37 40.22 39.95 42.05 43.61 41.80 37.98 31.91 31.94 32.78 34.18 33.84 32.62 32.86 34.58 32.92 31.80 28.88
50.40 50.51 49.82 48.75 48.85 48.29 49.20 50.55 50.53 50.87 50.83 49.21 46.30 41.40 39.59 38.72 43.24 43.27 40.21 41.76 41.93 42.02 42.43 40.88 41.51 42.07 41.42 37.88 39.73 38.51 39.74 37.53 36.45 41.31 38.25 36.39 30.02 29.39 30.65 33.97 33.10 31.40 33.22 33.20 33.22 33.14 32.93
50.12 48.77 48.27 48.22 47.84 48.63 50.55 50.22 50.29 50.65 50.92 47.17 48.19 47.72 43.43 37.08 37.95 40.03 38.65 43.45 43.64 43.85 43.59 44.20 43.59 41.14 38.42 41.74 42.46 41.68 41.53 40.82 40.77 39.59 34.08 30.79 28.79 26.07 23.17 28.99 27.64 24.48 31.07 32.81 32.69 33.81 33.99
49.41 47.88 47.87 47.93 50.02 50.84 50.28 49.95 50.13 50.35 50.90 50.40 50.10 48.36 41.35 31.95 34.13 38.76 43.09 44.54 43.57 42.94 42.48 43.53 43.95 40.67 42.62 45.21 43.12 41.72 40.12 40.97 41.43 39.41 37.47 29.09 26.92 23.18 21.45 22.02 16.97 31.55 34.79 35.62 35.03 36.04 36.99
49.72 49.32 50.40 50.94 50.57 50.05 49.72 49.60 49.91 50.09 50.71 52.15 51.33 48.70 42.83 30.80 36.32 40.45 43.26 43.60 44.05 44.19 43.00 43.93 45.48 44.46 44.73 39.49 34.55 33.91 30.99 32.70 32.88 38.13 35.16 33.87 26.76 23.49 20.82 19.96 26.67 31.15 36.23 35.47 34.47 33.84 38.05
50.01 50.48 50.46 50.19 49.66 49.54 49.24 49.32 49.44 49.97 51.17 52.07 52.30 49.46 46.38 39.94 38.74 44.76 43.30 43.07 37.02 37.58 37.37 41.31 46.84 45.05 40.63 30.31 29.08 26.13 26.58 30.65 29.69 34.46 37.11 33.34 27.95 25.13 17.34 16.34 16.03 29.73 34.94 39.03 37.93 29.50 38.68
49.82 49.91 49.81 49.69 49.29 49.19 49.02 49.11 49.14 50.18 51.52 53.38 51.85 51.61 48.37 43.17 45.44 45.51 42.25 42.12 42.82 39.51 36.86 40.83 41.82 40.24 39.17 26.31 22.86 24.05 26.05 32.21 28.89 27.67 25.47 26.97 24.91 19.08 15.60 14.66 24.34 32.45 37.97 39.22 29.26 31.05 38.97
49.18 49.25 49.45 49.00 48.77 49.05 49.06 49.04 49.19 50.19 51.79 53.78 53.13 52.85 49.85 45.49 45.98 48.60 47.80 44.14 44.09 42.28 38.12 42.33 40.34 38.43 31.83 28.89 25.73 25.95 23.55 29.80 28.90 31.86 31.13 29.78 25.22 23.33 21.62 15.75 21.61 36.23 37.66 33.20 37.08 35.83 38.97
48.70 48.66 49.34 50.00 48.45 48.02 47.43 47.43 48.20 49.83 51.32 54.52 52.45 55.19 52.22 47.93 47.06 49.68 49.94 49.32 48.37 47.01 44.27 41.23 42.00 40.34 38.31 32.02 24.79 30.81 29.93 31.89 25.92 26.50 34.52 29.22 30.92 27.22 28.41 28.28 35.32 37.76 37.62 39.40 39.28 38.60 39.32

GFSGBSN_sfc_wetblb_009.txt.gz
Wetbulb
61.02 60.78 60.19 59.67 58.58 58.38 58.48 58.38 57.76 56.64 56.05 56.38 56.43 55.83 56.12 55.78 55.61 55.99 55.06 54.79 55.34 54.98 54.67 53.96 53.32 52.71 50.73 48.84 49.97 58.48 62.90 62.17 58.65 51.93 51.43 50.02 48.59 48.20 46.36 46.96 45.79 44.21 44.59 44.34 44.73 45.59 49.83
60.52 60.18 59.77 59.08 58.28 58.25 58.57 58.17 57.57 57.02 56.02 55.89 56.08 55.32 55.55 55.20 55.08 55.33 54.58 54.87 54.66 54.29 53.85 52.85 52.20 52.32 48.03 45.14 54.81 59.84 59.33 57.12 54.59 51.80 50.54 50.57 49.43 50.02 48.17 46.08 46.12 46.64 44.09 44.02 44.25 43.98 44.43
60.83 59.95 59.29 58.38 57.88 57.70 57.92 57.40 57.23 57.20 56.36 55.77 55.70 54.97 55.24 54.48 54.91 54.51 54.72 54.58 54.55 54.01 52.76 52.07 51.55 50.93 48.91 49.52 54.93 58.23 56.71 55.13 53.74 53.05 50.40 51.46 52.05 50.04 49.53 45.39 46.02 44.12 43.12 43.93 44.24 44.82 44.64
60.49 59.90 59.26 57.88 57.28 56.96 56.83 56.62 56.56 56.80 56.49 55.88 55.50 54.84 54.27 54.30 54.32 53.96 54.16 54.24 53.97 53.08 52.21 51.90 52.23 50.09 47.92 56.22 56.96 54.74 54.07 53.46 54.45 54.12 52.92 53.87 52.94 50.71 48.62 47.21 45.09 42.88 42.74 40.68 43.70 45.66 44.64
60.16 59.51 59.10 58.16 57.29 56.85 56.52 56.32 56.28 56.58 56.10 55.58 54.68 54.25 53.95 53.64 53.54 53.42 53.78 53.35 52.92 51.76 51.48 52.20 49.53 48.70 48.48 56.32 53.08 53.78 52.57 51.53 52.24 53.03 53.50 53.18 53.15 49.24 46.34 43.66 41.70 41.62 38.51 39.50 41.87 45.32 44.92
60.31 59.51 58.90 58.11 57.44 56.93 56.67 56.52 56.14 55.87 55.40 55.15 54.34 54.03 54.05 53.76 53.83 53.62 52.52 52.32 51.44 51.55 51.25 52.12 51.18 47.14 50.43 49.24 53.14 51.00 53.26 53.03 52.29 51.01 50.15 49.47 47.21 45.20 43.27 42.03 37.13 39.00 38.86 39.88 40.72 43.11 45.53
59.73 59.55 58.90 58.21 57.73 57.40 57.46 57.16 56.46 55.49 54.93 54.83 54.38 54.16 54.56 54.70 54.58 52.63 50.72 49.41 46.93 46.10 48.10 47.25 47.79 47.02 49.00 52.97 51.33 50.53 52.32 53.20 52.23 50.49 45.90 46.70 44.12 41.87 43.20 42.84 41.43 40.86 40.12 39.60 40.57 43.93 44.33
56.88 59.10 58.63 58.19 57.78 57.46 57.49 57.12 56.24 55.15 54.97 54.46 54.34 54.85 55.19 54.95 54.19 52.36 51.10 48.04 49.37 53.28 48.92 50.04 50.47 50.37 51.71 52.68 48.43 49.40 54.59 50.50 49.38 45.09 46.10 45.20 41.96 44.34 45.61 45.07 43.23 42.42 40.36 39.65 42.19 44.09 44.34
55.44 57.80 58.18 57.95 57.66 57.28 57.24 56.84 55.84 54.74 54.88 54.83 54.71 54.63 55.05 54.16 52.93 51.06 49.06 49.47 54.90 56.07 48.68 47.45 50.42 49.70 50.59 51.76 48.02 47.61 52.37 50.61 47.03 44.60 43.65 42.67 43.73 46.08 45.34 43.62 43.06 42.03 40.85 39.10 40.91 43.54 44.65
54.24 55.60 57.26 57.47 57.47 57.14 56.63 56.47 55.78 55.29 55.03 54.41 53.94 54.17 53.98 53.31 49.72 50.27 48.94 53.35 53.45 54.91 40.20 42.52 45.67 48.48 49.98 49.94 47.59 50.56 51.76 50.24 46.77 42.82 44.15 44.88 45.93 44.57 43.80 43.05 43.66 41.02 42.91 42.65 41.81 41.32 38.50
53.91 53.78 56.24 56.55 56.43 55.88 55.41 55.05 55.11 55.55 55.05 54.08 53.66 54.05 53.29 52.94 50.23 50.84 55.70 59.22 54.09 51.44 29.46 43.42 46.21 51.90 49.54 47.68 47.76 49.00 51.88 49.98 44.88 44.21 45.31 43.11 44.22 43.62 43.02 43.06 45.15 42.36 44.39 43.48 41.32 39.74 39.72
53.33 52.73 55.29 55.76 55.47 55.13 54.66 54.11 54.12 54.49 54.00 53.55 53.57 53.81 53.20 51.79 51.24 52.86 56.31 54.86 50.85 38.92 30.29 41.64 46.38 45.56 46.38 46.90 47.11 48.45 49.98 50.70 48.61 45.38 45.47 43.96 46.79 45.51 44.93 44.86 45.01 45.34 44.18 43.24 41.61 40.16 35.63
52.88 52.79 52.82 55.51 54.99 54.58 54.15 53.62 53.53 53.60 53.29 53.16 53.41 53.89 52.81 53.45 52.53 58.40 55.60 48.68 38.38 32.79 43.15 40.18 42.29 45.07 44.37 44.24 44.92 45.33 44.26 43.83 43.31 40.80 39.98 42.74 43.02 44.92 46.42 44.31 45.22 44.64 42.36 36.57 35.30 35.06 33.45
52.38 52.26 51.90 55.05 54.58 54.05 53.54 53.20 53.15 53.01 52.83 52.88 53.11 53.07 52.79 53.37 54.97 53.62 49.59 42.85 33.44 39.01 39.80 43.58 43.09 43.58 42.41 44.48 43.88 43.40 42.62 41.45 43.71 42.77 39.42 37.87 37.08 42.69 45.29 44.25 42.58 41.36 42.16 37.01 29.26 30.51 34.61
51.67 52.20 52.12 54.34 53.99 53.48 52.91 52.91 52.93 52.61 52.19 52.42 52.74 51.77 51.37 54.50 55.27 52.98 45.71 33.96 35.07 39.14 42.97 42.11 43.08 40.89 42.13 43.87 43.28 42.80 40.98 40.99 42.25 43.33 40.87 38.43 37.83 43.82 44.30 45.43 45.21 40.50 38.57 41.23 34.62 31.98 32.93
51.40 52.03 52.23 53.80 53.58 52.85 52.42 52.57 52.69 52.29 52.09 52.53 51.00 49.83 51.43 57.34 56.04 49.74 41.71 36.48 42.27 45.84 45.83 43.77 39.09 41.88 39.49 41.77 41.75 41.52 41.62 43.91 43.04 45.23 45.06 42.26 37.04 41.91 43.77 45.53 44.70 43.46 42.44 37.07 36.00 29.10 26.89
50.73 51.57 51.78 53.73 52.85 52.29 52.19 52.48 52.43 51.94 52.24 52.79 50.26 47.47 50.48 54.82 49.98 45.22 37.58 38.45 45.63 48.75 46.88 43.61 41.85 41.04 41.66 41.12 41.71 40.85 40.82 44.05 45.40 44.77 45.47 42.02 41.02 39.89 42.53 41.06 40.82 41.02 38.90 36.81 37.04 33.59 29.67
50.28 50.90 51.41 53.12 52.39 52.09 52.14 52.38 51.85 51.92 52.15 51.73 45.88 40.93 52.09 48.95 41.81 39.57 39.28 43.48 46.08 47.01 47.83 47.45 45.45 43.84 41.95 43.08 41.75 41.21 41.19 43.64 45.62 46.60 43.06 42.51 39.78 36.40 38.34 42.82 44.07 42.60 39.81 38.52 33.93 30.55 30.27
50.19 50.65 50.85 52.50 51.94 51.61 51.74 51.23 50.04 51.68 52.81 50.25 43.58 49.33 55.10 48.77 35.60 35.15 41.22 45.26 47.46 45.29 45.58 46.15 45.44 46.23 46.48 42.96 40.06 42.44 42.92 45.57 44.60 44.85 42.87 42.86 38.47 34.14 36.77 40.00 42.22 40.88 39.96 37.39 35.77 34.46 31.20
49.24 49.62 50.89 52.09 51.70 51.44 51.13 49.75 50.12 51.57 53.07 51.09 48.37 43.84 48.19 43.63 41.58 40.29 40.38 42.18 43.19 46.37 46.26 46.42 45.13 46.39 44.76 43.33 43.56 41.35 42.28 44.76 45.19 44.49 44.00 43.81 37.45 36.57 33.97 35.73 38.09 36.89 38.51 37.68 37.85 33.75 32.27
48.90 49.69 51.24 51.18 51.30 50.97 49.71 50.20 50.59 51.26 52.18 49.97 45.75 43.50 47.38 39.04 38.44 39.78 41.78 42.38 42.46 42.55 46.40 46.54 45.08 45.00 43.56 40.07 41.05 40.36 42.72 42.59 44.33 44.49 43.54 42.10 36.95 36.50 35.89 36.33 37.31 36.98 37.45 37.02 36.54 36.66 35.47
49.79 50.80 50.64 50.72 50.66 49.98 50.03 50.73 50.81 50.98 51.82 49.08 43.70 42.64 41.21 41.30 42.69 40.81 39.65 42.69 42.89 44.03 44.94 44.05 43.92 44.87 45.46 41.08 42.42 40.42 42.00 40.75 40.82 43.37 40.81 39.11 34.93 34.59 34.71 35.71 35.36 35.42 36.96 37.05 37.08 36.78 36.35
49.46 50.61 50.20 49.82 49.35 49.34 49.34 50.19 50.43 51.09 51.98 48.53 48.99 47.19 44.77 36.96 40.92 39.68 39.23 41.58 43.63 45.65 45.26 45.80 45.43 43.79 41.84 44.49 44.64 43.28 42.98 42.36 43.15 42.09 37.48 35.86 33.30 32.35 29.67 31.27 31.61 30.82 34.83 36.52 36.72 37.77 39.43
50.40 50.08 49.59 49.17 48.48 48.84 48.95 50.27 50.18 51.21 51.09 50.77 50.32 47.39 42.09 34.05 37.78 39.03 43.10 45.25 44.35 44.76 44.04 45.36 45.79 44.04 44.85 46.88 45.16 44.57 42.88 42.33 42.00 39.00 38.79 32.88 31.15 29.02 30.88 27.50 27.42 36.92 39.36 38.81 37.99 38.24 39.54
49.27 48.97 48.90 48.57 48.45 50.06 50.08 49.92 50.06 50.73 51.38 52.95 51.91 48.72 42.46 33.32 38.12 40.24 43.40 43.92 44.70 45.36 44.91 45.16 45.94 45.78 46.91 42.95 39.13 36.68 35.59 35.86 36.17 37.65 36.18 36.42 32.43 27.73 30.90 28.36 31.13 35.79 36.11 38.04 37.51 38.61 41.66
48.62 48.52 49.09 50.09 49.93 49.48 49.43 49.72 49.94 50.28 51.19 52.69 52.59 49.94 46.55 39.20 38.21 43.72 43.80 44.29 40.42 40.63 41.48 43.53 46.59 46.05 42.38 35.39 34.65 32.44 32.62 34.66 33.64 36.95 38.51 35.13 32.38 33.96 27.09 28.40 26.13 35.18 37.55 42.71 42.21 35.40 42.08
49.62 50.00 49.99 49.79 49.27 49.15 49.13 49.24 49.63 50.11 50.98 53.35 53.00 51.72 49.88 43.83 46.53 46.12 44.07 43.41 43.97 42.41 40.94 42.26 43.26 43.38 42.60 33.75 32.34 33.09 33.71 34.74 32.65 30.72 30.32 32.35 30.02 30.12 23.07 30.06 31.28 36.62 40.60 42.18 34.22 37.12 41.34
49.15 49.15 49.12 49.12 48.90 48.83 48.84 48.88 49.46 49.98 51.08 53.58 52.70 53.64 51.19 46.89 47.84 49.97 47.98 44.84 44.69 44.84 41.41 43.93 43.06 42.22 36.77 35.12 34.88 33.03 33.60 34.58 33.80 34.81 33.40 33.43 30.87 29.27 24.97 26.47 28.51 38.49 41.22 38.07 42.76 42.10 42.21
48.83 48.53 48.37 48.34 48.15 46.90 47.57 48.85 49.75 50.11 50.87 52.73 53.39 54.28 53.52 49.05 48.36 50.72 51.04 51.08 50.97 48.72 45.89 43.85 45.16 42.42 41.80 36.85 33.40 33.06 32.76 32.97 30.41 33.26 36.57 32.92 35.66 34.13 33.13 34.39 40.03 40.58 42.10 43.64 42.70 42.51 43.35

GFSGBSN_sfc_wetblb_012.txt.gz
Wetbulb
61.82 61.55 60.79 60.32 59.86 59.41 59.40 58.91 58.50 57.71 57.25 56.42 56.68 56.63 56.73 56.20 55.93 55.96 55.41 55.26 55.36 55.59 54.99 54.35 53.44 53.08 54.17 52.73 52.82 62.39 62.06 61.60 59.14 55.99 54.25 52.93 51.38 50.37 47.06 49.43 50.05 48.66 49.12 48.68 49.28 53.03 55.52
60.85 60.86 60.46 60.02 59.63 59.39 59.08 58.59 58.31 57.48 57.22 56.25 55.81 56.08 56.10 55.70 55.52 55.40 55.43 55.20 54.84 54.85 54.12 53.26 52.71 52.38 52.78 48.95 57.78 62.25 61.39 58.61 56.69 54.91 54.69 54.47 51.96 52.70 50.08 50.11 49.31 49.81 47.98 47.45 48.16 51.13 51.43
58.48 60.81 60.09 59.49 59.02 58.62 58.43 57.69 57.77 57.32 57.21 56.87 55.41 55.80 55.74 55.57 55.27 55.20 55.10 54.69 54.69 54.10 53.04 52.44 51.87 52.98 51.76 52.88 58.13 62.41 60.17 57.91 57.29 56.20 55.17 56.03 54.41 51.69 51.92 49.59 49.45 48.80 45.88 47.26 47.62 51.01 49.62
58.20 58.99 60.29 59.44 58.49 57.70 57.29 57.28 57.29 57.16 57.05 56.69 55.95 55.65 55.07 54.71 54.28 54.30 54.30 54.40 54.10 52.97 52.66 52.26 52.03 52.74 51.94 58.89 60.35 58.73 59.12 57.42 58.27 57.16 56.32 56.45 56.40 53.02 51.84 50.14 47.78 46.15 47.27 43.98 46.99 49.19 48.00
57.40 58.14 60.35 59.44 58.27 57.44 56.84 56.76 56.64 56.83 56.77 56.43 55.38 55.28 54.57 53.97 53.63 53.81 53.83 53.44 52.78 52.25 51.67 52.34 53.06 52.38 51.54 59.33 55.29 56.10 57.94 53.37 56.00 56.36 56.33 54.98 55.01 51.57 50.27 47.62 44.66 45.36 41.71 43.34 44.29 49.47 48.56
56.62 57.60 59.24 59.49 58.25 57.46 57.13 56.94 56.39 56.23 56.23 55.84 55.18 54.95 54.36 53.98 53.71 53.85 52.70 52.51 51.84 51.88 52.68 53.86 54.68 51.72 55.69 52.26 56.02 54.32 56.31 55.61 53.59 54.18 52.46 52.03 51.65 49.27 48.65 45.83 40.36 41.43 41.61 43.67 43.28 47.92 47.88
56.28 57.74 58.22 59.53 58.52 57.94 57.93 57.53 56.67 55.94 55.62 55.44 54.97 54.73 54.38 54.38 54.40 52.82 52.16 53.70 51.58 50.78 51.80 51.87 51.24 51.56 51.39 55.48 56.14 53.37 54.94 54.86 54.50 52.27 48.65 50.26 46.69 44.39 46.19 46.56 46.07 45.51 44.56 43.62 46.02 48.80 48.85
54.77 56.15 57.41 59.48 58.66 58.15 58.01 57.72 56.63 55.78 55.58 55.06 54.57 54.53 54.71 54.85 54.27 52.50 53.53 52.37 54.45 57.37 51.50 54.77 53.77 53.19 54.63 55.11 51.22 52.35 56.74 52.33 51.77 47.50 49.45 47.26 44.77 47.42 49.10 47.40 46.48 45.66 44.13 44.80 46.00 48.05 49.19
53.87 55.08 56.13 57.56 58.76 58.22 57.80 57.43 56.47 55.66 55.22 54.57 54.57 54.85 54.63 54.29 53.01 51.97 53.17 53.57 59.79 59.42 53.39 51.63 54.06 52.06 53.08 54.57 50.57 50.24 53.99 52.21 49.61 47.81 48.00 46.32 47.40 48.96 48.57 47.33 46.02 45.87 45.16 45.73 44.97 47.25 48.88
53.41 54.14 55.09 56.09 58.46 57.94 57.35 56.98 56.35 55.52 54.63 54.28 54.65 54.19 54.00 52.62 50.98 54.93 52.84 57.01 58.26 58.32 47.01 46.29 49.03 52.20 52.58 53.37 49.53 53.64 54.90 52.84 50.00 47.29 48.29 48.18 48.93 48.19 48.19 46.57 47.28 44.32 47.00 47.19 46.22 45.25 41.85
52.47 53.50 54.32 54.50 56.90 56.75 56.05 56.00 56.00 55.46 54.91 54.75 54.09 53.89 52.99 52.47 56.07 53.35 59.14 63.13 61.73 58.02 34.66 47.57 48.65 54.50 52.94 50.42 50.84 51.71 55.38 53.32 47.90 47.96 49.17 46.17 47.25 47.41 46.72 46.70 48.27 46.04 48.70 48.44 47.15 46.23 44.90
51.84 52.68 53.69 53.49 55.14 55.84 55.40 55.13 54.81 54.65 54.73 54.53 53.78 53.97 52.97 52.30 56.48 58.56 60.88 62.13 59.50 46.60 34.18 44.45 49.13 48.51 49.21 49.84 49.82 52.35 52.60 54.41 52.84 49.35 49.97 48.27 50.38 49.78 48.63 48.86 48.85 49.43 48.16 47.43 47.18 46.13 39.81
50.75 51.91 52.70 53.07 54.50 55.36 55.34 54.73 54.10 53.94 54.05 53.81 53.48 53.98 53.23 56.72 55.82 61.06 63.55 58.41 45.20 38.65 45.90 43.43 45.11 48.00 48.43 47.16 48.03 49.89 49.45 48.82 47.25 44.43 44.71 47.21 47.26 49.30 50.34 47.83 49.39 49.08 46.53 40.21 38.16 38.68 37.72
50.51 51.39 51.91 53.03 53.54 55.07 54.85 54.25 53.49 53.23 53.56 53.24 53.11 53.27 53.73 57.32 60.72 60.52 58.19 49.55 38.06 42.30 43.77 46.68 46.71 47.64 45.99 47.69 47.13 47.86 47.97 46.58 48.39 48.10 45.69 42.60 40.62 46.38 48.76 48.30 46.48 47.41 46.66 40.95 31.99 34.68 38.58
50.21 51.09 51.51 52.18 52.43 54.67 54.53 53.88 53.06 52.85 52.80 52.75 52.80 53.24 52.19 57.53 58.30 58.84 52.99 44.49 42.04 44.60 47.47 45.42 46.23 44.30 45.00 46.99 46.79 47.43 46.96 46.82 47.40 48.75 43.91 42.76 41.44 47.50 47.95 49.10 48.54 45.02 43.39 46.99 40.73 39.33 38.81
49.60 50.00 50.58 51.39 51.86 53.91 53.81 53.29 52.62 52.68 52.38 52.53 52.70 51.18 55.03 61.16 61.28 56.35 50.47 43.19 45.47 50.03 49.09 47.56 42.40 45.28 43.05 45.39 44.92 45.58 46.24 47.75 47.10 48.91 50.27 46.88 40.97 45.81 46.83 49.00 48.70 47.22 47.99 41.64 43.18 33.25 31.63
49.42 49.40 49.56 50.87 51.59 52.85 53.36 52.77 52.45 52.42 52.24 52.71 55.09 51.28 59.06 63.17 59.93 53.37 46.70 46.14 48.10 53.08 51.83 47.13 45.24 44.33 45.39 45.13 46.18 44.86 45.13 47.42 48.73 48.05 49.83 48.22 45.90 43.70 46.33 45.63 45.21 44.55 43.90 42.55 43.51 40.90 34.69
48.65 48.86 49.00 50.05 51.72 52.19 53.20 52.57 52.38 52.10 52.04 52.11 54.59 47.98 59.04 58.34 49.88 50.29 47.20 47.97 48.66 51.20 51.20 50.02 49.49 47.95 47.01 47.41 46.09 46.14 45.22 47.32 50.03 50.16 46.94 47.75 46.96 42.28 43.60 46.69 48.00 47.21 45.03 44.11 38.88 36.08 38.89
48.32 48.78 49.27 49.89 51.20 51.74 52.62 52.05 51.81 51.90 52.28 52.79 50.74 54.16 57.62 54.66 45.44 47.62 47.71 48.43 51.01 49.45 49.42 50.01 48.56 49.80 50.04 48.16 44.90 47.19 47.44 47.57 48.17 48.99 48.24 48.23 45.24 39.64 40.59 44.25 46.29 44.94 45.48 44.33 43.22 42.36 37.12
47.66 48.73 49.36 50.18 50.62 50.98 52.11 51.80 51.52 51.65 52.45 56.84 52.97 49.02 53.86 51.94 51.45 48.79 46.59 46.86 46.51 50.64 49.96 50.37 49.53 50.85 49.49 47.26 48.51 46.25 46.60 46.80 48.13 48.43 43.88 47.57 45.53 43.38 39.98 41.52 44.90 42.23 43.93 44.37 43.56 38.76 38.74
47.73 48.58 48.91 49.70 49.71 51.21 51.79 51.14 50.99 51.49 52.02 55.66 53.77 50.60 52.92 46.68 47.19 48.62 49.10 47.63 46.06 46.82 50.34 50.93 49.08 49.84 49.25 45.50 45.85 45.78 47.38 45.89 47.78 45.36 47.98 48.34 43.09 42.60 41.82 41.94 42.01 42.44 43.40 43.20 42.01 42.96 39.14
48.03 48.29 48.88 49.19 49.27 51.18 51.21 50.65 50.41 50.86 52.00 53.99 51.33 50.67 51.45 50.28 48.65 47.34 45.17 46.10 45.88 48.12 49.20 48.38 49.06 49.65 50.08 47.39 48.30 46.37 47.64 47.09 46.67 47.93 47.68 45.41 42.93 40.99 39.16 40.89 40.91 40.00 42.97 44.04 43.96 43.99 42.97
47.90 48.37 48.41 49.26 48.67 51.14 50.54 50.06 50.02 50.65 52.83 54.04 56.09 53.83 53.55 42.89 47.62 46.54 45.60 47.00 46.96 51.11 49.13 50.11 51.52 50.33 48.66 48.88 50.59 51.23 50.12 49.79 49.13 47.92 45.84 44.46 41.12 38.86 36.84 37.94 38.41 36.28 40.77 42.95 43.52 45.16 44.46
48.05 48.51 48.96 49.38 50.27 50.85 50.30 49.93 49.88 51.06 54.07 58.48 58.40 56.06 51.50 45.28 47.06 46.31 46.53 47.76 49.72 50.97 49.61 49.22 51.48 50.85 49.08 52.09 52.26 51.30 49.82 48.36 47.56 45.19 45.63 40.13 40.01 38.43 37.88 34.03 32.29 41.38 43.99 43.63 44.15 44.93 46.17
47.99 48.87 50.17 50.94 50.19 50.07 49.53 49.79 49.76 50.97 52.31 59.32 59.27 56.30 52.12 41.06 48.22 46.63 47.31 47.52 49.86 50.60 49.73 49.91 49.62 50.77 52.81 50.15 47.67 43.57 44.08 43.35 43.02 43.44 42.95 43.57 41.48 35.85 37.22 35.66 38.95 40.47 40.81 40.92 41.33 42.08 46.66
49.01 49.19 50.07 49.52 49.01 48.72 48.81 49.26 50.11 51.03 51.74 60.19 60.32 58.63 56.58 48.74 46.84 49.43 48.06 50.04 49.05 49.56 48.90 46.72 49.69 51.51 49.00 48.45 45.53 40.97 38.87 40.61 39.01 41.25 43.40 41.08 40.97 41.70 35.32 36.01 33.98 40.62 42.12 46.54 46.04 39.08 46.49
49.25 49.28 48.91 48.24 48.26 48.66 49.23 49.59 49.91 50.74 51.72 59.40 59.24 58.24 57.85 51.59 52.15 51.91 48.93 48.86 52.28 51.53 49.60 47.65 47.47 47.84 48.07 45.85 43.32 43.33 41.59 41.38 38.63 36.92 36.08 39.07 38.82 37.63 36.31 37.08 39.05 42.93 43.89 46.56 36.63 40.02 47.31
48.48 48.36 48.82 49.23 49.05 49.07 49.12 49.41 49.50 50.30 51.46 58.06 58.68 59.54 58.96 55.03 52.14 53.55 53.06 51.08 50.51 52.75 49.45 49.17 48.61 48.04 46.94 45.28 45.79 43.19 42.20 41.69 40.49 40.97 39.18 39.25 38.24 37.24 34.70 35.03 33.45 43.49 44.67 41.41 46.78 48.72 47.61
48.87 48.96 48.81 48.62 48.58 48.62 48.82 49.18 49.53 50.04 51.06 54.91 58.19 58.45 59.76 56.39 53.47 55.66 54.89 54.89 54.83 56.11 53.57 51.37 51.78 49.90 51.54 48.02 45.23 43.89 38.71 36.38 40.28 39.75 42.07 38.63 42.90 42.33 40.91 42.35 44.88 46.43 48.55 49.46 48.34 48.36 48.87

GFSGBSN_sfc_wetblb_015.txt.gz
Wetbulb
58.69 58.83 61.59 61.00 60.54 60.21 60.15 59.72 58.88 58.10 57.77 57.58 57.17 56.65 56.99 56.69 56.63 56.50 55.94 55.47 55.76 55.98 55.65 54.96 54.27 53.80 54.73 54.68 55.51 63.19 61.49 61.53 58.73 58.05 55.24 52.82 51.81 51.60 48.54 49.47 50.19 49.76 51.62 51.67 53.91 55.51 55.04
57.16 58.50 58.81 60.82 60.39 60.24 60.22 59.64 58.82 58.00 57.72 57.49 56.91 56.13 56.22 56.54 56.44 56.03 55.60 55.45 55.31 55.50 54.42 53.89 53.56 52.80 54.57 51.18 59.18 63.07 60.02 58.69 58.45 57.66 54.87 54.28 52.47 52.86 50.23 50.13 50.12 51.43 51.49 50.41 52.69 53.35 54.25
56.37 57.55 58.02 59.24 59.91 59.74 59.61 58.87 58.33 57.94 57.74 57.35 56.93 56.14 55.95 56.30 55.90 55.31 55.52 55.35 55.15 54.64 53.39 53.12 52.71 54.51 53.96 54.70 59.78 62.73 59.65 57.48 57.67 56.72 54.09 56.10 55.79 52.87 53.23 50.64 52.50 50.38 47.29 49.75 51.57 52.44 52.44
55.83 56.58 57.94 58.03 59.40 58.96 58.65 58.16 57.80 57.76 57.56 57.35 57.23 56.01 55.43 55.28 54.92 54.65 54.68 54.72 54.32 53.39 52.87 52.42 52.30 55.56 52.85 60.48 61.38 59.97 61.42 58.85 59.25 58.51 57.58 57.91 57.62 54.57 53.03 52.52 50.23 47.66 48.49 45.43 49.91 52.20 52.52
55.32 55.77 56.16 57.68 58.19 58.70 58.15 57.60 57.10 57.52 57.41 57.00 56.60 55.66 55.08 54.45 54.37 53.92 54.37 53.45 52.79 52.44 52.08 52.55 54.63 55.32 53.81 58.93 56.64 58.12 59.67 56.21 57.82 57.98 57.46 56.41 56.17 52.98 52.58 48.87 46.20 47.00 41.97 44.32 46.53 51.41 51.45
54.54 55.35 55.96 56.42 57.51 58.80 58.35 57.76 56.90 56.91 56.76 56.52 56.38 55.43 54.96 54.41 54.25 53.90 53.51 52.48 52.46 51.97 53.61 56.36 56.80 53.64 57.37 52.96 56.82 55.75 58.65 57.59 56.32 55.82 54.31 53.54 53.00 50.26 49.81 47.37 39.99 42.49 43.46 45.13 45.32 48.75 49.12
53.20 54.65 55.27 56.41 57.40 58.84 59.01 58.39 57.11 56.38 56.11 56.30 55.99 55.25 54.82 54.47 54.49 53.58 52.37 55.48 53.30 53.42 54.80 53.74 53.66 53.35 53.14 56.66 58.26 55.26 56.73 55.56 56.07 54.65 50.02 51.53 47.62 44.94 46.75 48.13 47.56 46.79 45.02 43.98 46.48 48.59 46.99
53.10 53.80 54.70 55.26 57.17 58.60 59.34 58.59 56.95 56.17 55.97 56.11 55.49 54.92 54.57 54.92 54.74 53.27 54.68 54.18 56.85 59.47 53.75 55.51 54.78 54.54 56.11 56.18 52.03 53.30 56.87 52.21 51.90 48.49 51.31 48.85 44.87 49.06 49.48 48.18 46.54 45.93 44.45 45.06 47.34 48.76 49.19
52.43 53.22 54.02 54.70 56.03 57.21 59.03 58.57 56.92 56.05 55.83 55.48 54.90 54.78 54.80 54.64 53.32 52.56 55.10 55.92 61.82 61.14 54.63 53.58 54.78 53.84 54.02 55.95 51.62 52.06 54.78 53.30 50.38 48.50 47.45 45.99 47.75 49.91 48.35 46.49 45.58 46.22 44.66 45.80 45.40 48.73 50.07
52.02 52.11 52.94 54.17 54.91 55.82 57.52 57.91 57.12 56.05 55.42 55.08 54.45 54.80 54.07 52.88 51.12 57.17 55.16 58.98 60.15 59.70 49.13 48.31 50.77 53.38 54.57 54.67 50.68 54.79 55.42 53.40 50.20 47.68 48.24 47.15 51.00 47.90 46.62 46.12 47.29 44.32 48.94 47.93 46.41 46.40 42.39
50.88 51.64 52.21 53.12 53.91 54.64 55.33 56.77 56.63 55.97 55.36 54.63 54.19 54.40 53.27 52.99 58.93 55.18 61.36 63.99 62.19 60.60 37.02 49.40 50.67 56.58 54.41 51.12 51.13 52.48 56.12 53.11 47.68 48.67 48.84 47.48 48.77 48.41 46.86 47.79 49.90 47.33 50.14 48.88 48.18 46.68 46.14
50.54 51.35 51.70 52.54 53.18 53.84 54.61 55.75 55.62 55.34 55.00 54.45 54.30 53.89 53.08 53.12 55.48 60.68 63.45 65.78 61.95 47.89 36.43 45.93 50.41 49.26 49.80 51.10 50.22 52.66 52.27 54.45 53.58 49.60 50.41 47.95 52.61 50.85 50.18 50.53 50.61 51.01 49.08 48.83 48.80 46.79 40.72
50.02 50.64 51.26 51.79 52.37 53.30 53.67 55.24 54.98 54.82 54.47 54.35 53.98 53.96 53.72 57.41 56.03 63.13 64.76 60.93 47.02 39.67 48.09 44.58 46.19 48.80 48.62 47.51 48.46 49.74 48.82 48.22 45.77 42.89 44.67 47.99 48.41 51.09 51.78 48.56 50.88 49.98 47.14 40.14 38.83 39.66 38.14
48.24 49.79 50.57 51.37 51.91 52.62 53.16 54.68 54.42 54.19 53.99 54.01 53.37 53.18 54.09 58.07 61.03 63.53 63.08 53.15 40.21 44.40 45.56 48.17 47.17 47.84 46.16 48.08 47.87 48.39 47.42 45.62 48.96 49.03 44.57 43.24 41.91 48.77 51.48 49.75 47.23 47.97 46.98 40.48 33.24 35.69 39.13
47.37 47.86 49.66 50.21 51.35 52.27 52.97 54.35 54.14 53.55 53.24 53.21 52.83 54.06 54.00 56.38 59.68 60.86 56.52 44.88 44.01 44.96 48.36 46.30 46.85 44.64 45.68 47.33 47.17 48.06 47.81 46.71 48.53 49.83 44.53 43.48 42.71 49.86 50.16 51.13 50.07 47.21 44.25 48.89 43.47 43.56 39.79
46.20 46.95 49.18 49.93 50.55 51.75 52.30 53.69 53.78 53.37 52.90 52.51 54.85 51.67 54.24 59.94 60.34 58.64 51.90 44.51 47.63 50.34 50.14 48.57 43.37 46.10 43.97 45.90 45.04 46.23 46.93 49.46 49.08 51.20 52.57 47.58 42.30 47.55 49.07 51.02 50.75 48.86 50.14 42.52 43.31 34.28 33.29
46.68 46.72 48.76 49.45 50.24 51.00 51.97 53.40 53.44 52.90 52.66 52.72 55.50 50.89 58.92 61.81 60.16 53.84 46.65 47.40 49.23 52.62 52.05 48.13 46.13 45.32 46.51 45.92 46.56 45.66 46.42 49.67 51.37 50.69 52.00 49.19 46.42 45.86 48.15 46.77 46.10 46.93 45.04 45.37 45.57 43.85 36.44
46.23 45.97 47.94 48.93 49.59 50.33 51.66 52.99 53.30 52.72 52.19 51.93 54.17 47.56 60.67 62.78 49.79 52.06 48.81 50.22 49.44 52.08 54.20 51.00 50.63 48.41 47.19 47.96 46.61 46.12 45.44 47.91 52.83 52.45 47.58 49.66 47.73 43.87 45.50 49.54 50.53 49.89 47.58 47.02 40.48 38.70 40.99
45.95 45.70 47.39 48.59 48.86 49.49 50.98 52.32 52.84 52.28 52.29 54.27 51.84 53.52 61.19 60.19 47.03 49.92 51.39 49.98 50.84 51.23 51.33 50.72 48.56 50.14 50.25 47.67 44.86 47.22 47.94 51.19 52.20 51.94 49.01 50.84 46.15 41.11 42.71 46.73 48.64 45.75 47.33 47.34 45.68 44.60 39.62
44.67 46.17 47.71 48.50 48.02 48.36 50.46 51.55 52.38 51.93 52.34 56.66 53.30 48.51 54.08 54.63 55.27 51.22 48.92 48.54 48.06 52.99 51.68 52.32 50.10 52.03 50.30 48.84 50.49 48.20 49.03 49.67 51.25 51.82 45.27 49.29 47.29 44.24 40.27 43.72 47.11 44.67 45.54 46.73 45.36 40.53 40.53
44.05 47.43 48.02 48.39 48.67 48.37 50.49 51.15 52.07 51.72 51.95 55.09 54.03 50.77 53.41 47.35 50.83 51.40 50.96 49.31 47.23 47.81 52.27 53.46 51.08 50.24 49.18 46.74 48.31 48.19 50.77 48.79 50.16 46.47 49.63 50.52 44.56 46.23 46.67 46.27 45.54 45.29 45.11 45.63 43.95 44.32 41.61
45.36 46.80 47.45 48.48 49.07 49.39 49.82 49.69 51.60 51.58 51.87 52.65 51.89 51.98 54.38 52.83 52.29 50.77 47.76 48.24 47.70 49.44 50.82 50.03 49.71 50.36 50.89 48.46 49.43 47.47 50.65 49.99 49.08 50.71 50.53 50.62 45.13 44.92 42.79 46.04 44.97 43.34 45.14 45.01 45.33 45.33 44.62
46.57 47.01 47.65 48.42 49.03 49.36 49.17 48.53 51.27 51.22 52.37 52.87 57.93 56.95 55.75 49.44 51.87 49.15 49.48 48.74 48.93 52.08 52.29 53.02 52.18 51.61 50.49 51.82 54.53 54.60 54.67 53.72 52.80 50.93 49.59 48.22 45.87 41.86 38.41 42.04 42.37 37.78 42.90 44.89 45.36 46.64 45.95
47.01 47.48 48.11 48.65 49.09 49.07 48.99 48.40 50.86 51.23 52.73 57.04 58.24 57.29 50.52 48.31 50.90 48.65 49.34 49.95 49.61 51.91 51.08 52.36 54.31 52.63 53.27 56.14 55.41 54.44 52.75 51.29 50.41 49.63 51.85 45.62 44.94 43.10 39.15 36.31 30.89 43.18 47.06 46.13 45.63 46.68 47.87
46.65 47.37 48.45 48.82 48.69 48.59 48.29 48.93 50.43 50.73 51.39 56.98 61.12 57.82 53.48 45.86 50.32 49.30 49.11 48.90 51.19 53.40 52.91 52.74 52.73 55.32 56.64 54.53 49.23 45.43 45.80 45.11 45.42 46.96 46.55 48.18 45.49 39.62 38.53 37.23 40.97 42.48 43.91 43.19 42.76 43.11 47.27
47.00 47.83 48.42 48.63 48.34 48.07 47.62 49.73 50.08 50.44 51.37 56.12 60.87 62.15 57.56 51.60 49.65 50.99 48.90 49.75 50.96 51.40 51.06 49.90 54.00 56.38 53.99 53.24 48.62 41.79 39.95 43.03 42.09 44.45 46.57 44.83 45.56 42.88 38.12 35.97 33.07 42.96 45.26 48.36 47.83 39.91 47.50
47.30 47.65 48.11 48.16 48.77 48.25 49.05 49.43 49.79 50.24 51.26 55.55 61.18 62.56 56.85 50.77 52.91 52.67 49.70 49.03 52.50 53.04 51.80 50.63 50.61 50.39 52.53 49.67 44.39 44.28 42.72 45.68 40.44 39.07 38.31 40.84 41.92 39.17 39.00 38.08 41.20 45.96 46.12 48.45 37.86 41.70 48.72
47.15 47.70 47.67 48.63 49.08 48.78 49.14 49.07 49.27 49.85 50.71 53.89 61.94 63.75 58.04 52.89 54.31 54.96 54.53 52.39 52.62 53.16 51.21 52.44 50.74 51.17 50.69 46.44 47.03 46.70 44.86 45.45 43.81 44.97 42.53 41.11 40.22 38.87 40.66 36.09 33.71 46.74 46.99 42.65 48.66 50.00 49.95
46.69 47.78 47.94 48.44 48.36 48.50 48.73 48.74 49.01 49.76 50.56 52.21 60.53 62.63 63.95 57.64 55.86 58.71 58.37 58.51 57.98 57.84 56.32 53.97 53.45 52.80 53.20 51.02 49.88 51.01 42.99 39.90 44.73 40.62 46.55 41.40 45.32 44.67 43.38 43.66 48.44 49.14 48.34 50.65 50.95 49.94 50.29

GFSGBSN_sfc_wetblb_018.txt.gz
Wetbulb
57.20 57.57 58.05 58.79 60.69 60.94 60.94 60.44 59.60 58.56 58.39 58.26 57.89 57.73 57.15 56.60 56.58 56.28 55.42 55.16 55.82 55.92 56.01 55.50 54.75 54.12 54.04 54.15 55.24 61.88 63.51 61.38 57.69 56.82 55.64 53.20 50.51 49.89 47.79 49.47 49.66 47.96 50.32 51.78 55.09 54.09 54.93
55.64 56.18 57.09 57.99 58.56 60.66 61.04 60.36 59.62 58.56 58.12 58.13 57.58 57.17 56.44 56.57 56.63 55.48 55.63 55.07 55.56 55.50 55.58 54.81 53.89 53.17 53.38 50.56 59.75 62.59 60.61 58.27 55.42 55.54 55.27 53.06 51.87 52.63 50.18 49.08 48.45 50.37 51.12 51.12 53.36 53.36 54.75
55.64 55.62 55.80 56.65 58.08 58.36 60.37 59.68 59.32 58.77 58.20 57.93 57.58 57.05 56.61 56.42 56.28 55.53 55.64 54.38 55.40 55.60 54.91 53.74 53.32 53.59 53.17 53.05 60.35 61.99 58.52 56.35 57.66 56.84 53.27 54.96 55.13 52.47 52.60 49.46 52.10 51.05 47.68 49.42 51.26 52.28 53.21
55.53 55.46 55.73 55.81 56.72 57.56 58.40 58.92 58.75 58.45 58.24 57.91 57.70 56.93 55.96 55.46 55.21 55.06 54.86 54.42 55.01 54.71 54.21 53.35 52.83 54.43 51.67 60.85 61.47 59.76 60.43 58.35 58.12 57.65 55.89 57.65 57.33 54.06 52.42 53.90 50.52 47.48 48.21 43.94 49.05 51.10 52.72
54.70 54.84 55.20 55.59 55.57 56.41 57.53 58.55 58.40 58.36 57.91 57.53 57.28 56.84 55.73 55.10 54.76 54.49 54.53 54.75 54.12 53.95 53.46 53.29 53.42 55.10 53.00 60.28 56.82 58.14 59.35 57.18 57.73 57.46 57.30 57.00 55.78 52.53 52.37 47.83 45.30 46.26 41.18 43.65 46.57 51.22 50.85
54.30 54.23 54.49 55.16 55.23 55.91 56.90 58.23 58.16 57.57 57.34 57.06 56.89 56.62 55.59 54.96 54.51 54.12 54.22 53.76 54.24 52.90 53.24 55.83 56.12 51.98 57.07 53.72 56.68 56.03 58.41 57.73 55.85 55.62 53.99 53.36 51.84 49.20 49.09 46.20 39.29 41.09 41.95 44.13 44.45 47.80 49.57
53.27 54.00 53.78 54.27 55.17 55.60 56.98 58.02 58.40 57.10 56.68 56.81 56.61 56.54 55.43 54.94 54.41 54.02 52.37 53.78 52.10 51.46 53.95 51.88 53.63 52.65 53.27 56.06 58.02 55.17 57.01 56.24 55.83 53.70 49.10 51.61 47.28 44.55 46.87 48.39 47.40 46.34 44.61 43.65 46.06 49.00 47.29
53.08 53.93 53.95 53.83 54.06 54.98 55.88 57.79 58.16 56.71 56.48 56.56 56.38 55.93 55.16 54.72 54.61 54.13 54.11 53.67 57.03 59.11 53.02 55.42 52.73 55.03 56.11 56.75 52.31 53.93 56.43 52.27 52.54 48.28 50.62 47.48 44.64 48.69 49.84 48.91 47.59 46.07 44.39 43.68 46.25 47.37 46.61
51.98 52.72 53.51 53.55 54.09 54.80 55.12 56.44 57.66 56.63 56.21 56.01 55.77 55.43 54.82 54.67 54.24 53.16 54.07 54.55 60.14 59.86 52.63 54.05 53.10 52.50 54.05 55.13 51.50 51.50 54.11 52.67 50.05 48.05 47.99 45.21 47.26 50.23 48.17 47.33 45.28 45.42 44.64 44.84 44.28 46.26 46.25
51.16 51.43 52.46 53.31 53.77 54.24 54.30 55.34 56.43 56.79 56.01 55.44 55.32 54.67 54.06 53.49 50.87 56.64 54.27 57.93 58.45 60.20 47.10 49.13 50.38 52.68 54.44 54.55 49.89 54.57 55.11 52.54 50.53 47.74 47.67 47.78 50.41 48.63 47.25 45.19 46.00 43.36 48.68 47.33 45.92 44.91 40.27
50.35 50.33 51.05 51.66 52.54 52.59 53.18 54.13 55.31 56.67 55.85 55.18 54.43 54.23 53.30 52.97 57.16 54.71 60.73 60.40 62.54 59.90 36.17 49.98 50.67 56.51 54.40 50.88 50.77 51.70 55.54 53.02 48.61 47.94 48.85 46.52 46.57 46.73 45.54 47.11 49.25 45.71 48.97 47.88 47.07 44.49 44.13
49.34 49.91 50.24 50.65 51.34 51.95 52.78 53.40 54.27 55.69 55.62 55.00 54.15 54.15 53.40 53.31 54.57 57.65 61.20 64.26 61.32 47.32 35.70 46.39 50.39 49.44 49.15 49.92 49.73 51.61 52.03 53.57 52.68 48.34 49.86 47.30 51.73 50.46 49.25 50.29 50.20 51.02 48.56 48.46 46.68 45.09 37.07
47.82 48.36 49.68 49.80 50.56 51.70 52.24 53.10 53.92 54.94 55.26 54.70 54.01 54.14 53.76 57.34 54.59 61.22 61.82 60.26 45.58 38.11 48.13 45.08 46.35 48.53 47.61 46.95 47.95 48.47 48.13 47.10 45.48 42.35 43.51 46.04 46.83 50.06 51.66 46.94 49.83 48.09 45.02 38.55 35.68 36.57 36.76
47.42 48.00 49.43 50.41 50.57 51.39 51.91 52.81 53.16 54.26 54.64 54.24 53.69 53.46 53.78 56.62 59.90 61.80 60.99 52.49 38.65 43.80 45.21 47.80 47.29 47.39 45.08 47.47 46.95 47.11 47.14 44.22 47.59 46.74 44.05 41.51 40.75 47.33 49.94 47.53 45.25 47.01 44.38 39.81 29.18 30.44 37.76
45.71 47.00 48.70 49.63 50.68 51.14 51.43 52.12 52.81 53.82 53.82 53.58 52.94 54.27 53.71 55.63 58.33 59.94 54.45 43.64 42.36 45.89 48.07 46.67 46.37 44.07 44.21 46.78 46.60 46.26 45.65 44.83 46.74 48.12 42.09 40.42 41.42 49.90 50.41 50.65 48.94 44.89 43.59 47.86 41.84 39.02 39.21
45.42 46.90 47.78 47.62 48.56 50.49 50.99 51.57 52.34 53.72 53.60 52.74 53.43 51.56 51.90 58.08 59.16 55.73 50.24 43.84 46.91 50.86 49.41 48.54 42.83 45.10 42.63 45.01 44.26 45.21 45.06 47.88 46.59 49.99 49.92 44.60 38.17 48.08 49.20 50.37 50.13 47.69 48.99 42.55 43.48 33.91 32.01
45.73 46.22 46.97 47.40 47.69 48.75 50.23 51.23 52.42 53.64 53.18 53.15 53.57 48.35 56.39 60.05 58.81 52.04 44.95 46.79 49.42 51.97 51.43 48.10 45.27 44.45 45.28 45.37 45.34 44.73 45.58 48.89 50.14 50.44 51.10 48.65 46.16 45.21 48.21 45.93 43.70 45.98 43.73 44.86 43.94 44.05 36.94
45.32 46.11 46.36 47.13 47.33 48.00 49.89 50.60 51.88 53.24 52.79 51.57 52.56 44.22 58.50 60.37 46.70 47.38 46.91 49.02 49.71 50.76 52.36 50.84 49.94 47.63 46.15 47.54 45.72 45.15 44.86 48.06 52.59 51.22 47.18 49.43 46.50 43.36 44.33 49.12 50.25 48.58 46.87 45.30 41.52 38.42 42.29
45.24 45.70 45.92 46.31 47.36 47.75 49.48 50.31 51.40 52.59 52.53 52.12 48.72 50.96 59.67 58.48 41.99 45.22 49.76 49.43 50.87 49.89 50.94 50.53 48.37 49.78 49.79 47.47 44.96 46.80 47.26 52.69 53.39 50.74 48.18 49.93 45.43 39.85 41.92 46.59 49.02 45.94 46.08 46.61 46.78 45.56 40.02
45.16 45.49 45.87 46.32 47.38 47.47 49.28 49.55 50.96 52.37 52.58 52.93 50.22 45.19 52.13 54.39 50.99 48.21 47.83 47.09 47.38 52.20 50.75 51.60 50.28 50.73 48.64 46.73 48.84 46.53 47.42 50.41 52.39 51.98 46.77 51.62 46.72 43.06 39.16 42.51 46.51 44.48 45.28 45.72 44.90 40.47 40.14
45.12 45.22 45.67 46.31 46.87 47.96 49.01 49.81 50.38 52.02 52.00 51.44 52.09 48.33 51.56 45.63 48.02 49.82 50.91 49.00 47.03 47.01 51.22 52.33 49.27 48.36 48.59 45.75 46.81 46.78 49.12 49.68 50.78 46.93 49.68 50.02 43.48 45.07 45.40 46.31 46.47 45.67 45.11 45.48 43.43 44.43 39.64
44.85 45.09 45.68 45.90 46.52 47.72 48.57 49.29 50.52 51.34 51.87 49.26 48.90 49.55 52.80 49.91 50.31 49.62 48.77 48.56 47.83 48.31 49.89 48.97 48.94 49.49 50.23 47.79 48.24 46.56 49.17 50.11 48.41 50.42 49.60 50.75 44.93 46.21 43.94 46.18 45.96 43.38 45.15 45.58 44.88 44.63 44.36
44.52 45.42 45.71 45.82 47.02 47.92 48.17 47.80 49.16 50.64 51.24 48.76 52.94 55.92 53.48 48.30 49.19 48.78 48.89 50.01 49.15 50.88 52.09 52.43 51.42 50.44 49.08 51.69 53.97 54.55 54.97 54.91 52.93 50.73 49.10 49.00 47.07 43.02 38.99 42.46 41.73 36.03 42.73 44.29 45.28 46.09 45.37
44.88 44.56 45.57 47.56 47.55 48.31 48.15 48.19 49.12 49.93 51.02 52.98 55.13 56.95 49.72 46.34 48.30 49.25 50.61 50.70 49.51 50.89 50.89 52.77 53.90 52.25 54.04 56.87 56.19 54.80 53.11 52.08 52.31 51.26 53.17 47.04 45.81 43.60 39.71 36.46 31.53 42.38 47.52 46.72 45.12 45.92 47.22
45.00 44.86 45.97 46.75 47.54 48.13 48.70 48.48 48.22 48.63 50.18 52.70 58.14 55.14 51.35 45.07 50.78 50.43 51.36 51.03 51.50 51.82 52.41 52.55 53.93 56.28 57.90 54.85 49.15 45.22 46.28 44.30 46.20 48.24 48.25 50.03 46.54 41.33 37.53 36.76 40.14 42.39 44.95 43.47 42.72 42.80 47.29
45.36 46.26 47.05 47.35 47.69 47.64 47.78 48.07 47.92 48.41 48.39 52.19 54.98 57.60 56.31 50.37 50.22 52.55 50.40 51.91 49.31 51.60 51.39 50.77 55.70 58.68 57.14 54.51 49.67 41.91 40.06 42.62 41.86 43.93 47.22 46.09 47.78 44.45 38.76 36.27 32.94 43.77 46.02 48.18 47.46 38.60 47.12
45.68 46.27 46.84 47.23 47.49 47.75 48.01 47.80 47.58 47.70 48.86 51.32 52.49 56.90 56.33 51.02 54.35 52.86 50.38 50.10 53.22 53.75 50.76 51.39 50.92 51.10 54.51 49.87 42.27 45.95 43.86 46.22 41.02 39.54 37.61 40.99 42.60 37.59 39.05 37.63 40.78 46.60 47.24 48.21 38.21 41.22 48.67
45.69 46.32 46.98 47.17 47.54 47.64 47.64 47.64 47.55 47.70 49.51 51.09 51.70 56.65 55.31 52.46 54.52 56.04 55.82 52.67 53.55 54.38 50.25 52.63 50.76 51.91 53.59 47.14 46.83 48.20 44.88 46.96 45.27 45.12 41.90 40.35 40.30 37.79 41.84 35.33 32.76 47.65 46.51 42.55 48.97 51.84 50.40
46.11 46.77 46.96 47.19 47.35 47.50 47.37 47.22 48.65 49.23 50.07 50.86 48.96 55.16 59.73 57.73 55.21 59.99 58.42 58.86 57.97 57.27 55.29 54.65 53.52 52.36 53.53 51.13 50.05 51.61 40.82 39.73 43.36 40.89 47.92 42.09 46.10 44.83 42.88 42.47 49.85 49.75 48.86 51.16 51.91 50.56 50.17

GFSGBSN_sfc_wetblb_021.txt.gz
Wetbulb
56.43 56.01 56.93 57.62 57.79 58.77 60.14 61.04 60.05 59.07 58.56 58.29 58.12 57.85 57.84 57.33 57.07 56.56 55.30 54.78 54.54 55.50 55.04 55.81 55.42 54.75 51.23 49.99 52.95 60.70 62.12 62.14 56.52 54.35 52.05 51.60 49.96 47.24 44.04 44.59 45.67 44.93 46.32 52.28 52.44 52.83 52.68
55.90 55.73 55.86 56.44 57.17 57.94 58.86 59.92 60.29 59.01 58.53 58.16 57.75 57.40 57.23 56.99 56.68 56.53 55.54 54.62 54.13 55.33 55.29 55.85 54.81 54.23 49.10 47.77 59.53 61.21 58.02 55.61 53.40 52.28 53.11 53.44 50.35 49.46 46.95 46.39 44.62 47.94 47.19 52.61 52.79 52.31 52.48
55.48 55.95 55.65 55.69 55.67 56.65 58.05 58.10 59.67 59.30 58.82 58.23 57.65 57.18 56.92 56.75 56.34 55.91 55.40 54.92 53.91 54.96 55.63 54.91 54.29 51.92 49.65 49.10 57.07 56.57 57.86 53.81 52.54 53.06 51.18 53.14 51.98 50.29 49.09 47.27 51.47 48.71 45.71 46.69 49.97 52.16 51.70
55.52 55.45 55.79 55.50 55.56 55.83 56.51 57.46 58.35 59.25 58.97 58.42 57.89 57.12 56.56 55.79 55.30 55.10 54.83 54.39 54.35 54.86 55.17 54.85 53.83 50.19 47.76 59.23 56.56 56.33 54.91 53.64 54.48 54.51 54.33 54.68 54.59 51.12 48.63 50.36 48.43 44.30 43.72 40.39 46.91 51.12 51.66
54.92 55.15 55.23 54.96 55.01 55.40 55.60 56.17 57.27 58.63 58.96 58.07 57.58 56.93 56.34 55.36 54.65 54.37 54.16 54.26 54.59 54.94 54.87 54.09 49.59 49.22 50.04 60.57 56.05 57.31 56.76 55.35 54.77 54.44 53.76 55.67 52.47 48.53 48.86 43.98 40.56 43.22 36.75 41.49 44.53 49.29 49.55
53.91 54.59 54.74 54.64 54.43 54.99 55.45 55.93 56.55 57.68 58.21 57.78 57.31 56.71 56.11 55.22 54.45 53.98 53.72 54.16 54.29 52.99 53.09 53.14 52.53 46.95 52.23 53.19 56.38 55.29 55.17 56.55 54.26 53.34 52.22 50.38 46.88 43.66 43.13 40.58 35.38 38.13 39.51 40.56 42.06 45.37 46.84
53.28 53.71 54.08 54.47 54.37 54.53 54.77 55.94 56.27 56.98 57.63 57.62 57.03 56.59 56.09 55.04 54.47 53.86 52.02 50.53 47.56 47.74 48.38 48.32 49.50 49.96 52.91 55.26 55.86 53.10 55.14 53.83 53.45 50.47 44.39 47.13 41.40 38.62 42.42 45.15 45.56 44.28 41.41 40.43 42.23 45.98 44.64
52.92 53.05 53.04 53.92 54.14 53.96 54.17 54.69 54.85 56.51 57.29 57.25 56.64 56.20 55.83 54.86 54.12 54.27 50.94 48.92 52.15 51.83 47.67 53.03 51.96 52.06 53.77 54.98 50.70 52.76 54.25 49.77 49.61 44.82 47.89 43.66 40.26 46.39 48.40 47.49 45.51 44.02 42.90 41.00 43.97 45.26 42.50
52.17 52.44 52.78 52.98 54.21 54.01 53.96 54.38 54.30 55.59 56.81 56.79 56.25 55.81 55.16 54.10 54.05 52.27 49.95 50.91 55.22 54.00 46.98 52.28 54.71 52.27 51.50 53.93 50.30 50.03 51.35 49.21 47.64 46.31 45.94 41.14 45.53 49.51 48.07 46.12 44.43 44.79 42.19 41.78 41.45 42.20 40.36
51.09 51.18 51.70 52.51 52.86 53.73 53.55 53.82 54.48 55.20 56.31 56.03 55.54 54.96 53.76 53.55 49.94 51.94 50.26 54.52 54.23 52.87 41.82 46.92 50.81 50.48 51.82 52.65 48.74 53.01 52.61 50.08 48.53 46.12 45.99 45.02 48.86 47.94 46.46 45.29 45.49 40.71 46.64 45.44 44.50 40.84 34.90
50.08 50.26 50.69 51.57 52.01 52.29 52.66 52.89 53.98 54.71 55.68 55.86 55.04 54.31 53.15 53.36 51.18 51.54 55.30 57.54 54.89 53.00 31.08 47.38 49.82 54.78 52.58 49.65 49.46 49.30 53.40 51.07 46.37 46.69 46.12 43.26 46.25 45.40 44.66 45.31 46.07 43.54 46.52 45.19 45.29 41.10 41.16
49.99 49.64 49.84 50.41 51.09 51.20 51.89 52.41 52.80 53.71 54.86 55.40 54.58 54.13 53.21 52.37 51.84 52.08 54.68 56.26 56.96 43.09 31.75 46.26 49.56 47.68 47.31 49.10 49.04 48.94 49.59 51.51 51.89 47.35 47.01 44.79 49.01 47.80 46.24 48.52 47.11 49.01 46.12 45.00 43.46 39.61 30.94
49.58 49.31 49.37 49.69 50.24 50.44 50.43 51.58 52.08 53.12 54.06 55.06 54.34 53.91 52.96 54.46 50.36 55.90 54.67 53.81 40.52 32.37 46.97 44.32 44.66 47.28 46.27 45.37 46.22 46.50 46.13 43.74 40.91 38.67 39.88 44.82 45.76 47.75 50.07 44.91 47.20 46.35 40.27 32.89 30.47 30.11 28.69
48.37 48.56 48.90 48.80 48.64 49.53 50.02 50.59 51.75 52.34 53.62 54.48 53.82 53.23 53.25 53.44 55.69 55.58 56.03 48.28 36.30 42.02 42.94 47.74 46.31 46.36 43.28 45.18 44.93 45.31 44.07 40.87 43.80 42.79 40.45 39.69 35.83 44.47 48.46 44.86 44.11 43.27 41.22 32.88 27.51 28.05 33.43
47.87 48.23 48.02 48.08 48.05 48.61 49.63 49.84 50.97 52.09 53.30 53.87 53.10 52.56 52.30 52.58 54.07 54.53 51.77 40.55 37.30 43.85 45.38 45.84 45.07 41.89 41.67 44.70 44.37 43.41 41.70 41.76 43.41 43.83 39.25 38.34 39.99 48.06 49.49 49.53 46.59 42.94 39.16 44.45 37.35 38.20 33.40
47.10 47.51 47.42 47.16 47.59 48.17 49.32 49.89 50.93 52.01 53.14 53.31 51.71 50.53 50.20 54.03 55.00 52.79 47.05 40.49 44.23 48.77 49.48 47.39 41.36 42.80 39.12 42.19 42.99 41.80 41.31 44.73 44.33 46.03 47.96 44.02 38.35 45.53 47.49 49.27 47.95 44.74 45.52 37.00 36.36 28.11 26.38
46.98 47.43 46.87 46.67 46.92 47.42 48.63 49.98 50.97 51.97 53.02 53.03 51.50 46.34 50.70 54.91 54.55 50.00 39.36 41.87 46.52 51.06 50.43 47.36 44.39 41.84 42.52 42.27 43.21 41.49 42.48 45.58 47.23 47.80 48.33 45.34 42.40 42.03 46.17 43.65 41.06 41.92 39.60 40.54 39.88 35.07 28.43
46.09 46.27 46.35 46.20 46.79 46.62 48.10 49.06 50.14 51.48 52.33 51.64 50.13 42.34 51.98 55.32 43.42 43.47 40.15 44.72 46.97 49.31 51.52 49.62 48.34 45.05 43.10 45.15 42.96 41.63 42.11 48.81 50.13 49.43 45.23 45.75 41.89 34.20 41.96 46.83 47.34 44.48 43.22 42.60 30.14 31.92 31.45
45.43 45.56 45.73 46.00 46.30 46.82 47.71 47.89 49.73 50.99 51.97 49.54 46.68 47.12 53.86 51.83 36.96 38.47 42.80 45.86 48.29 48.06 48.38 48.08 47.35 47.73 47.79 44.54 42.24 42.93 46.25 50.30 51.07 48.05 45.23 46.26 39.18 29.57 35.28 41.48 45.65 42.03 43.40 43.16 42.99 35.95 31.48
45.00 45.17 45.25 45.49 46.27 46.02 47.35 47.31 49.28 50.18 52.06 50.96 47.20 41.29 48.90 49.68 45.32 41.69 40.09 42.75 44.45 50.19 49.30 50.34 48.62 48.83 45.78 44.25 45.93 43.99 45.08 49.46 50.14 48.07 45.85 47.75 42.72 36.57 30.17 36.92 42.22 39.65 42.62 43.03 40.27 29.90 30.57
44.33 44.64 44.55 45.20 45.33 46.57 47.12 46.93 48.13 49.73 51.43 50.55 47.40 42.39 47.87 42.52 43.23 41.93 43.35 44.69 44.27 44.63 49.25 50.09 47.02 46.93 44.93 40.21 42.56 42.55 46.25 46.83 49.18 46.50 47.00 45.35 37.93 39.91 42.15 44.28 44.42 42.90 43.38 43.45 40.13 39.63 33.40
44.13 44.43 44.52 45.14 45.88 46.13 46.82 47.01 47.17 49.64 51.10 47.58 44.98 43.55 48.02 44.32 46.02 43.82 42.82 43.73 44.75 46.17 47.17 45.97 46.53 46.73 45.73 42.73 44.77 42.61 46.62 45.74 44.51 46.12 44.38 45.77 37.97 38.31 36.81 43.48 42.10 39.29 41.61 41.79 41.73 41.93 39.85
44.43 44.60 44.97 45.43 45.67 46.51 47.11 46.70 46.59 49.35 50.52 45.77 47.13 49.71 49.04 45.24 44.50 42.12 41.48 45.38 46.16 48.15 48.74 49.46 48.88 47.13 44.83 48.62 49.20 49.47 49.74 49.93 49.62 45.44 42.86 42.32 36.66 33.28 31.28 37.13 36.29 29.19 36.69 40.43 41.52 42.48 40.84
44.76 45.17 45.57 45.79 46.05 46.70 46.91 46.92 48.10 49.08 50.29 48.37 47.86 50.16 46.79 40.66 44.15 42.18 45.51 47.79 46.86 47.84 47.16 49.74 50.07 46.90 50.27 52.99 51.18 49.50 48.37 49.46 49.58 48.55 48.67 39.74 37.85 32.70 29.13 29.34 21.05 37.61 44.15 43.13 41.98 42.14 42.03
44.95 45.10 44.98 45.67 46.29 46.55 46.61 47.54 48.46 49.19 50.54 47.27 48.85 50.26 48.90 36.17 45.08 44.18 46.33 47.45 49.83 50.29 48.25 50.46 52.05 52.88 53.41 49.97 42.52 39.10 35.10 34.86 40.00 45.58 46.31 46.44 36.18 32.07 27.11 27.40 33.81 38.33 41.68 41.08 38.71 37.95 42.60
45.02 45.24 45.24 45.83 45.94 46.23 46.62 47.10 47.76 48.71 50.44 47.96 46.65 49.14 50.49 46.32 44.13 47.85 46.15 49.03 45.87 44.96 46.22 49.71 52.38 53.20 52.93 45.39 35.87 33.13 30.85 36.16 35.70 39.99 44.82 43.12 39.07 31.67 28.83 25.30 21.13 35.78 42.57 45.48 43.94 31.66 43.89
44.81 44.74 44.01 45.36 46.86 46.64 47.04 47.54 48.07 48.57 48.99 48.11 47.55 50.53 48.25 48.61 49.22 49.34 46.08 47.08 50.17 47.46 44.73 48.03 47.25 46.72 50.59 35.30 34.87 30.96 31.75 42.45 34.39 33.46 31.58 31.06 30.98 27.97 25.42 23.60 31.47 43.65 44.61 45.12 30.35 32.73 44.20
44.86 43.71 44.18 45.97 46.44 46.85 47.33 47.85 47.73 47.93 48.13 47.49 46.04 49.31 50.53 49.48 49.13 52.34 52.30 50.25 50.93 48.37 42.73 49.12 45.15 45.14 40.49 37.16 35.13 33.47 30.96 34.91 35.03 40.44 36.20 33.05 30.65 27.73 30.01 29.05 27.68 45.30 43.24 35.69 41.42 43.83 44.44
45.16 45.33 45.57 45.90 46.51 46.92 47.21 47.57 47.65 47.79 47.96 48.23 44.03 49.87 53.37 48.77 50.86 54.90 54.94 55.07 54.74 54.10 50.05 49.07 46.82 47.44 46.92 41.29 39.66 37.25 33.53 34.81 33.99 29.94 43.28 33.88 38.53 33.80 35.68 33.72 42.93 43.79 43.63 46.79 45.62 44.28 43.92

GFSGBSN_sfc_wetblb_024.txt.gz
Wetbulb
56.15 56.19 56.51 56.64 57.41 57.62 58.09 59.00 59.97 59.45 58.79 58.38 58.05 57.67 57.89 58.05 57.83 56.95 56.10 55.25 54.69 54.40 55.43 55.57 55.72 55.00 50.42 48.46 50.74 59.39 62.30 62.23 56.32 53.32 49.95 48.96 48.39 47.71 42.77 44.00 44.07 42.25 46.99 50.30 51.70 52.83 52.26
56.00 56.20 56.15 56.02 56.06 56.96 56.67 58.24 58.11 59.36 59.22 58.55 57.80 57.38 57.20 57.49 57.27 56.64 56.17 55.28 54.76 54.48 55.10 55.51 55.17 53.98 48.94 44.26 58.13 59.39 56.86 54.12 52.43 50.66 51.20 50.59 49.87 48.93 45.54 44.87 42.99 46.15 49.81 49.78 51.60 51.97 51.47
55.88 55.74 56.04 55.88 56.01 55.95 56.12 57.16 57.50 58.42 59.35 58.84 58.01 57.31 56.89 56.92 56.60 56.07 55.67 55.10 54.55 54.41 54.98 55.41 54.47 51.60 47.95 45.50 56.86 56.61 55.52 52.29 51.01 51.11 49.35 51.77 51.27 48.55 48.54 45.95 49.51 47.00 46.08 48.89 50.24 50.03 49.80
55.22 55.63 55.77 55.58 55.90 55.40 55.53 55.84 56.64 57.34 58.70 59.05 58.44 57.18 56.31 56.03 55.73 55.02 54.81 54.30 54.16 54.73 55.14 54.78 53.67 49.10 45.05 56.54 54.73 54.52 53.94 52.58 53.13 52.06 51.88 52.90 52.84 50.12 47.97 48.40 47.22 42.85 44.33 40.26 48.05 49.90 50.62
54.71 54.93 55.56 55.37 55.09 55.32 55.59 55.41 55.59 56.34 57.63 58.55 58.41 57.16 56.13 55.58 54.91 54.47 54.24 54.24 54.24 54.75 54.98 54.69 48.71 48.55 47.48 58.00 55.26 57.23 54.97 52.52 52.42 52.41 52.28 54.15 50.99 47.58 46.90 42.32 38.89 40.18 34.55 38.59 43.89 50.18 49.06
54.27 54.58 54.82 55.01 54.93 54.82 55.22 55.35 55.35 55.81 56.68 57.67 58.01 57.28 56.11 55.58 54.59 53.77 53.54 53.98 53.86 53.31 52.43 53.03 51.52 44.44 49.59 50.58 55.61 54.95 54.20 54.74 52.08 51.18 50.55 48.86 45.03 42.08 41.89 39.45 33.15 36.25 37.03 36.59 39.91 43.97 46.69
53.93 53.02 54.37 54.26 54.44 54.83 54.95 55.27 55.51 55.34 56.09 57.11 57.77 57.34 56.22 55.54 54.41 53.67 51.87 49.31 47.39 47.52 47.35 44.86 45.22 46.44 49.53 53.25 54.95 51.91 53.43 52.77 51.79 49.23 42.91 45.60 40.14 37.05 40.28 42.65 44.90 43.89 41.34 38.04 39.37 44.73 43.02
53.16 53.62 53.88 52.92 52.75 53.67 54.59 54.64 54.08 54.69 55.10 56.79 57.09 56.83 55.91 55.02 54.02 53.84 50.86 46.95 49.48 49.65 44.72 51.50 51.27 50.82 52.83 53.22 48.33 51.14 53.39 48.69 47.94 43.05 45.59 42.02 38.66 44.07 47.23 47.36 44.67 43.17 41.00 39.86 42.27 43.86 41.74
52.56 52.67 53.09 52.13 52.92 53.09 53.95 54.34 53.58 53.82 54.39 56.00 56.53 56.25 55.52 54.10 53.66 51.86 48.66 49.03 54.10 52.68 44.66 49.79 52.94 51.94 52.95 51.57 48.32 48.97 51.05 48.61 46.48 43.96 43.39 39.25 43.19 47.97 47.43 45.78 43.15 42.31 40.67 40.49 39.97 40.14 41.11
51.91 51.41 52.02 52.77 52.93 53.07 53.07 54.05 53.37 53.88 54.30 54.95 56.00 55.46 53.86 53.32 49.55 50.70 49.30 53.67 53.73 51.86 39.88 44.33 48.95 52.12 50.67 50.74 47.20 52.13 51.54 48.46 46.13 43.86 43.72 42.79 46.39 46.25 45.12 43.76 44.07 38.32 44.61 43.83 42.51 38.70 33.42
51.63 51.40 51.24 51.40 51.72 51.60 51.70 52.39 53.13 53.44 54.18 54.69 55.23 54.80 53.10 53.09 50.24 50.42 53.48 54.02 51.94 51.50 24.33 45.09 49.22 54.39 50.22 47.79 47.85 47.90 51.86 48.91 44.26 44.80 43.73 41.98 43.47 43.03 43.66 43.83 44.84 41.85 44.83 43.27 43.05 38.75 36.87
49.53 50.61 51.03 50.81 50.56 50.79 51.09 51.41 51.99 52.55 53.57 54.08 54.82 54.36 53.09 51.86 50.67 50.48 53.26 54.02 54.33 38.85 28.38 44.63 48.10 45.83 45.60 47.14 47.45 48.00 47.71 50.19 49.59 45.79 44.47 43.42 46.24 46.12 45.06 47.67 46.28 46.87 44.39 43.00 40.94 38.05 29.66
48.65 49.88 50.70 50.62 50.15 50.01 50.31 50.94 51.51 52.08 53.01 53.67 54.62 54.10 53.20 53.40 48.39 53.48 55.56 53.48 39.07 33.58 44.23 43.04 43.13 45.51 44.36 43.79 45.09 45.50 44.07 42.21 40.92 37.33 37.39 42.00 43.05 45.90 47.97 43.35 45.41 44.89 38.46 31.16 29.72 27.74 27.17
48.62 50.02 50.53 50.20 49.92 49.51 49.56 50.55 50.40 50.86 52.06 53.10 53.94 53.22 53.41 53.31 52.97 53.28 55.18 48.08 34.15 39.15 41.46 46.99 45.09 44.60 41.64 43.90 43.67 43.64 41.83 39.38 41.37 41.39 37.70 36.59 34.42 43.78 47.66 44.57 40.98 41.28 38.91 30.38 26.40 25.91 31.32
48.32 48.52 49.77 49.84 49.55 49.44 49.13 49.75 49.95 49.71 51.21 52.34 53.39 52.52 52.04 52.55 52.50 53.11 50.49 39.85 35.43 41.21 44.69 43.75 43.95 40.57 40.40 43.21 42.74 41.73 40.37 40.12 42.10 42.09 37.49 36.83 38.00 45.95 47.00 47.81 46.24 41.65 36.90 41.79 35.07 35.43 31.68
47.91 48.59 48.66 48.62 48.58 48.74 48.91 49.14 49.58 49.63 50.89 51.91 50.25 50.55 50.50 53.01 53.18 51.66 46.10 39.04 41.81 47.50 48.08 45.46 39.49 41.53 37.61 39.93 39.99 39.21 39.46 42.63 42.71 44.35 45.70 42.35 36.34 43.94 46.74 48.37 46.58 43.68 43.94 36.01 34.78 28.41 26.93
47.29 47.77 48.04 48.04 47.74 47.96 47.96 48.33 49.00 49.56 49.60 51.69 48.95 45.09 51.54 54.22 52.49 45.89 38.91 39.46 43.87 48.84 48.87 45.96 42.98 41.37 40.82 39.76 40.80 39.09 40.21 43.21 44.43 45.37 46.91 43.99 39.45 39.74 44.93 43.06 41.84 40.68 38.19 38.48 38.32 32.40 27.54
47.07 46.92 47.20 47.38 47.94 47.68 47.50 47.93 48.62 49.03 49.90 49.33 46.76 39.93 51.90 54.02 40.94 41.77 40.99 43.12 44.22 46.58 49.24 48.29 47.51 44.82 40.91 41.54 40.52 40.15 40.52 43.32 47.08 47.46 43.05 44.56 40.83 32.69 40.20 46.03 45.96 43.02 40.80 39.40 29.09 30.75 29.33
46.68 46.29 46.71 47.42 47.54 47.09 47.15 47.40 48.39 48.59 49.69 46.53 42.92 44.98 51.89 50.86 35.49 36.39 42.01 44.01 44.77 44.61 46.68 46.90 45.49 46.74 45.50 42.16 39.00 41.77 43.24 48.52 48.72 47.23 44.41 44.42 37.49 29.08 34.34 39.47 43.03 41.11 41.80 42.04 39.52 33.09 30.29
46.47 45.97 46.16 47.02 47.30 46.71 46.92 46.99 48.11 48.87 49.61 47.56 44.31 39.03 45.92 46.95 44.75 38.73 38.81 40.41 40.97 46.21 45.40 47.53 47.04 47.46 44.64 42.14 44.18 42.11 43.84 47.35 48.58 47.61 46.47 46.20 39.28 34.63 29.42 34.70 39.06 37.13 40.82 41.16 39.07 29.03 30.50
46.08 45.79 46.05 46.30 46.49 46.22 46.76 46.76 47.35 47.93 49.47 47.27 44.50 40.82 43.18 38.05 39.65 39.84 40.39 41.30 39.87 39.84 46.81 47.93 45.15 45.80 43.86 38.53 40.38 40.90 44.81 45.35 47.23 45.58 45.86 43.60 36.86 38.05 39.05 41.60 41.47 39.90 39.98 40.72 38.59 37.37 32.13
45.59 45.57 45.68 45.74 45.76 45.84 46.57 46.89 46.18 47.81 49.35 44.72 41.42 42.90 44.59 41.59 42.52 39.58 39.62 38.81 39.53 41.65 44.10 43.71 43.89 45.60 44.58 40.66 41.94 40.72 44.85 43.75 42.74 44.49 42.50 43.85 36.40 36.65 35.05 39.54 39.64 37.22 39.68 39.24 39.71 39.64 38.76
45.39 45.11 44.97 45.16 45.48 46.08 46.40 46.37 46.63 47.55 47.67 43.96 45.30 47.46 46.16 41.73 41.70 39.28 38.11 39.86 40.28 42.61 45.57 46.50 46.28 45.11 42.42 44.68 46.98 47.04 48.73 47.95 46.85 43.54 41.19 40.06 35.26 31.81 31.03 34.45 34.43 29.49 35.43 38.34 39.58 40.12 39.99
44.83 45.01 45.18 44.87 45.50 46.05 46.46 46.17 46.88 47.22 46.12 47.26 46.38 46.86 44.19 38.71 42.70 40.98 41.51 42.16 41.44 43.70 42.82 47.29 47.44 45.36 47.72 50.67 48.34 46.73 46.03 46.86 47.73 46.08 46.13 37.48 34.79 30.43 27.82 28.06 22.02 37.52 41.86 41.41 39.03 38.88 40.19
44.51 44.89 45.04 45.00 45.21 45.69 46.17 46.22 46.74 46.91 47.07 45.24 48.90 45.50 44.86 35.53 43.49 43.66 43.26 42.09 43.97 45.64 46.12 46.63 49.21 50.05 51.84 47.10 40.25 36.99 33.79 36.01 39.93 43.88 44.52 45.53 35.68 31.13 26.42 26.37 32.57 37.09 39.57 38.60 36.82 35.93 40.69
44.37 44.44 44.70 44.90 45.21 45.59 45.92 46.04 46.08 46.34 46.87 46.43 46.70 48.41 45.92 41.17 41.59 46.79 43.92 43.92 40.96 42.47 43.51 47.02 50.97 51.20 50.44 41.43 34.31 31.31 29.18 33.87 33.99 38.23 42.46 41.14 36.62 32.35 27.92 24.39 21.14 33.82 40.91 43.17 41.42 31.04 42.17
44.21 44.56 44.82 45.11 45.14 45.38 45.63 46.06 46.24 46.58 47.47 47.33 46.13 48.21 44.94 42.25 48.15 47.74 43.27 42.92 45.73 44.80 43.47 46.47 46.95 46.33 46.77 35.36 31.94 29.82 31.09 39.31 32.36 31.80 30.56 29.54 29.30 26.30 22.00 21.84 28.73 39.01 43.34 42.39 30.03 31.33 42.74
44.54 44.73 44.80 45.13 45.13 45.58 45.75 46.05 45.84 47.21 48.32 47.90 46.56 49.77 46.27 44.07 46.61 51.02 48.15 45.52 47.14 47.10 42.18 45.65 44.75 44.97 39.42 36.19 34.71 31.67 29.02 34.56 33.78 37.65 34.72 32.02 28.86 25.14 30.50 24.84 25.68 43.54 41.23 35.28 37.48 41.72 42.93
44.43 44.55 44.67 45.07 45.31 45.47 45.82 46.05 45.93 47.41 48.70 48.54 44.68 49.11 50.52 44.94 46.40 51.19 50.72 51.61 51.78 51.21 48.69 46.61 45.53 46.19 47.16 40.88 37.71 36.04 32.38 30.65 32.01 30.09 40.41 32.22 35.21 31.65 33.29 32.23 40.98 42.49 42.50 44.68 43.78 42.62 42.37

GFSGBSN_sfc_wetblb_027.txt.gz
Wetbulb
55.95 56.10 56.54 56.67 56.61 57.16 56.89 58.16 58.28 58.68 59.30 59.06 58.53 58.09 58.06 58.22 58.09 57.45 56.38 55.83 55.61 55.48 54.90 54.77 55.69 55.37 49.97 44.77 46.84 57.55 62.10 61.63 57.73 52.13 48.77 47.49 46.61 45.26 41.40 41.88 42.00 40.88 42.79 44.92 50.83 51.28 50.36
54.73 56.07 56.07 56.14 56.05 55.94 55.42 56.87 57.75 57.30 58.27 59.04 58.39 57.84 57.58 57.46 57.44 56.91 56.18 55.65 55.08 54.90 54.58 54.91 55.24 54.53 47.07 39.15 55.34 58.33 56.84 53.94 51.52 49.29 48.29 48.64 48.39 48.26 45.11 43.31 42.12 44.30 46.56 48.24 49.65 50.04 51.41
54.98 55.39 55.93 55.62 55.85 55.91 55.96 55.60 56.15 57.07 57.31 58.73 58.58 57.97 57.39 57.22 56.93 56.38 55.92 55.23 54.76 54.62 54.56 54.87 54.57 51.27 46.76 43.23 55.30 54.68 55.05 51.65 49.74 50.22 48.77 50.81 50.66 47.39 46.62 44.48 48.09 46.37 45.82 48.00 48.46 49.20 48.47
55.14 55.15 55.11 55.45 55.49 55.61 55.30 55.17 55.38 55.88 56.81 57.80 58.78 58.14 56.80 56.32 56.06 55.49 55.06 54.56 54.25 54.62 54.74 54.56 53.60 48.09 45.10 53.47 53.52 53.50 52.53 51.80 51.46 50.47 50.17 50.84 50.85 48.59 45.70 47.12 45.77 41.69 42.69 39.48 45.63 49.35 49.74
54.72 55.02 55.24 54.71 55.15 54.94 55.12 55.27 55.27 55.32 55.72 56.31 57.62 57.79 56.79 55.57 55.04 54.90 54.31 54.35 54.27 54.86 54.52 54.54 47.37 47.11 45.61 55.60 52.87 56.34 54.10 51.53 51.21 50.69 50.66 53.05 49.38 45.69 45.12 40.38 37.18 38.77 34.79 37.38 43.68 49.89 48.17
54.66 54.43 54.68 54.82 54.37 54.88 55.19 54.88 55.05 55.11 55.07 55.67 56.50 57.41 56.99 55.63 54.92 54.07 53.46 53.95 54.00 53.02 52.33 52.67 50.67 42.12 46.62 48.05 53.12 53.89 53.13 53.03 50.73 49.88 48.90 47.14 43.71 40.95 40.08 38.31 32.10 34.81 36.08 35.38 38.03 45.16 45.86
54.47 54.60 54.40 54.42 54.48 54.47 54.58 54.93 54.59 54.84 54.96 55.41 56.22 57.06 57.01 55.59 54.88 53.45 51.18 48.85 46.11 47.13 47.75 43.37 42.67 42.84 46.39 51.73 52.94 51.14 52.64 51.84 50.70 47.54 41.51 44.35 39.34 35.98 38.76 40.52 41.67 40.95 39.07 37.66 39.13 43.08 44.15
52.40 53.46 54.05 53.93 53.80 54.38 53.63 54.30 53.98 53.82 54.54 54.82 55.31 56.27 56.47 55.51 54.51 53.66 50.02 46.09 48.23 49.33 43.30 49.50 49.65 48.81 51.23 52.22 48.51 49.53 52.57 47.64 46.36 42.03 43.81 41.01 37.65 42.41 44.68 44.35 43.77 43.44 39.83 39.08 41.67 42.27 42.38
51.31 52.17 53.36 53.63 53.67 53.65 53.54 52.99 53.37 53.53 53.43 53.72 53.98 55.85 56.09 54.86 53.62 51.65 47.61 48.55 53.51 52.31 41.49 46.46 50.83 50.15 51.15 52.04 48.22 46.97 49.94 47.62 44.57 42.09 42.03 38.21 41.38 45.71 45.05 43.80 41.94 40.84 39.17 38.93 39.69 39.05 39.89
50.42 51.08 51.59 52.82 53.19 53.20 52.99 52.94 52.49 53.23 53.16 53.18 53.39 54.96 54.61 53.46 49.71 50.17 49.35 53.51 53.59 51.37 38.00 42.06 47.92 50.49 52.14 50.14 45.61 51.34 50.17 48.44 44.79 42.82 42.36 40.93 44.77 44.42 43.18 42.13 42.37 37.79 42.85 41.77 40.75 36.51 32.50
49.65 49.93 50.72 51.57 52.23 51.94 51.52 52.21 52.52 52.36 52.98 53.16 53.29 54.48 53.77 53.51 49.62 50.08 53.02 53.66 51.85 50.14 23.01 41.76 47.66 53.97 49.13 46.35 46.38 47.56 49.88 47.99 42.82 43.61 42.23 41.00 42.74 41.67 41.47 42.21 43.42 40.39 43.27 41.35 40.86 37.37 35.22
49.20 49.16 49.56 50.42 50.87 51.31 51.22 51.39 51.50 51.47 52.77 52.67 53.36 54.26 53.53 51.99 50.51 50.41 52.27 54.43 52.90 35.82 25.32 40.98 47.99 44.44 43.60 45.52 45.57 45.95 46.68 48.54 47.26 44.10 42.79 41.42 44.68 43.82 43.61 45.52 45.14 44.73 42.25 40.65 38.79 36.12 28.95
48.89 48.71 48.86 49.18 49.85 51.17 51.07 50.80 51.00 51.01 51.27 52.29 52.76 54.12 53.21 53.48 47.94 52.83 53.89 53.21 39.73 29.40 41.54 41.35 42.21 43.38 41.71 41.47 43.02 44.12 42.33 41.86 39.97 35.99 36.32 40.07 41.33 44.04 46.12 42.29 43.57 42.33 36.81 29.46 28.59 27.24 26.91
49.28 48.68 48.60 48.58 49.37 49.98 50.67 50.36 50.09 50.47 50.61 51.26 52.28 53.20 53.60 53.49 52.68 52.11 55.14 47.29 33.64 37.81 39.25 46.13 43.53 42.29 39.70 42.23 42.03 42.29 40.15 38.00 40.19 39.24 35.77 34.86 33.19 42.11 45.44 42.63 40.07 39.47 37.35 29.35 25.35 24.65 29.75
49.76 49.11 48.51 48.32 48.44 49.29 50.06 50.09 49.76 50.21 50.42 51.44 51.73 51.52 52.33 53.62 53.64 51.36 50.37 38.81 35.01 38.87 44.17 40.63 41.98 38.84 38.28 41.34 41.34 40.80 38.82 38.07 40.60 41.77 36.31 35.03 36.19 44.21 46.53 47.16 44.97 41.29 35.95 39.47 33.28 32.28 29.69
50.01 49.30 48.75 48.22 47.99 48.95 49.87 49.62 49.44 49.73 50.02 50.68 46.22 46.98 49.11 54.36 53.56 49.49 44.86 38.82 41.39 45.37 46.86 45.05 37.98 40.02 36.21 38.49 38.68 38.25 37.76 41.16 40.92 42.82 43.14 40.44 34.62 42.26 45.21 45.56 45.26 42.47 43.53 34.30 33.15 27.53 26.40
49.80 49.38 48.70 48.04 48.28 49.37 49.86 49.51 49.08 49.46 49.66 50.21 45.05 42.60 49.43 53.74 52.79 44.27 37.10 39.49 43.26 47.84 47.27 44.30 41.50 39.48 39.48 38.38 38.94 36.80 38.39 41.14 43.02 42.05 43.96 42.08 37.74 36.91 42.77 40.71 39.30 39.72 37.19 37.02 36.72 31.44 26.38
49.43 49.05 48.41 47.94 48.18 49.20 49.67 49.14 48.81 48.88 49.15 47.97 43.69 37.12 51.18 53.14 43.02 41.30 36.23 41.17 44.40 45.29 47.03 46.31 46.23 44.15 40.57 40.00 38.58 38.24 38.66 41.87 44.41 45.34 41.35 43.10 37.92 30.92 38.03 43.02 44.02 41.07 39.46 37.89 29.04 29.97 28.24
49.06 49.03 48.23 47.75 48.08 48.72 48.91 48.87 48.32 48.36 48.53 44.28 39.58 42.53 51.14 50.09 37.30 36.94 39.97 41.80 44.02 43.92 43.73 44.30 44.13 45.51 43.75 39.58 36.61 39.43 40.54 45.40 46.24 44.35 42.13 43.08 36.18 28.94 33.87 38.69 40.90 38.84 39.87 40.17 36.91 31.59 29.33
49.00 48.80 48.17 47.62 47.72 48.19 48.17 48.07 47.87 48.07 48.44 45.06 40.90 36.50 44.27 46.12 44.29 40.31 37.58 38.98 40.51 45.91 43.97 44.83 44.41 46.10 43.21 40.60 41.68 39.34 41.12 45.73 46.67 45.36 45.60 44.60 37.48 34.72 30.61 35.02 37.85 35.23 38.88 39.33 37.44 28.66 29.26
48.95 48.63 47.83 47.27 47.33 47.34 47.52 47.62 47.53 47.32 47.91 44.28 41.04 38.00 41.09 37.47 38.83 40.70 39.91 39.48 39.15 40.03 44.10 43.93 41.21 43.32 42.32 37.46 37.97 38.79 42.84 43.76 45.49 45.08 43.84 43.09 36.28 36.29 36.71 37.74 39.85 39.19 39.14 38.76 36.96 36.04 31.82
48.78 48.20 47.41 46.84 46.98 46.54 47.37 47.15 46.94 47.16 47.64 41.34 38.14 40.32 43.81 39.26 41.24 39.53 39.60 37.81 38.61 41.50 41.90 40.22 39.64 43.49 42.71 40.30 40.17 38.50 42.54 41.46 41.49 42.93 41.31 41.84 34.12 35.80 34.32 37.81 37.57 36.08 38.62 38.35 37.94 37.77 37.03
48.49 47.85 46.92 46.50 46.50 46.96 47.05 46.90 46.19 46.86 46.80 40.63 43.42 44.66 44.05 39.97 38.91 37.93 37.66 38.20 39.28 42.97 43.63 44.70 44.21 43.37 41.22 43.67 45.13 44.00 44.97 45.25 45.06 42.68 39.53 38.71 34.22 31.50 30.09 32.67 32.83 29.06 34.26 37.00 38.06 38.97 38.67
48.49 47.42 46.83 46.37 46.54 46.84 46.63 46.11 46.03 47.01 46.45 45.38 44.37 44.53 42.26 35.45 39.18 37.83 38.92 40.73 39.84 41.80 40.16 43.92 44.21 42.62 45.37 48.65 46.72 45.53 44.00 44.33 46.03 44.38 43.08 35.18 33.18 29.92 27.19 28.16 21.62 36.65 39.90 39.60 37.64 37.05 37.85
47.44 46.85 46.82 46.32 46.47 46.23 46.13 45.75 46.32 46.49 46.60 42.06 46.01 43.30 42.60 33.62 39.60 40.72 39.65 39.84 41.62 43.11 41.53 42.46 45.53 46.05 49.05 45.26 39.27 37.07 33.13 36.54 37.90 41.98 43.25 41.60 33.01 29.05 27.22 26.81 31.73 36.05 37.55 37.50 36.02 34.80 38.73
46.64 46.39 46.31 45.97 45.83 45.67 45.55 45.77 46.35 46.54 46.19 42.62 42.74 46.46 43.54 40.17 38.49 43.88 40.56 41.34 38.50 38.68 38.93 43.00 46.63 49.54 47.19 39.05 33.43 31.24 30.85 34.46 32.80 36.92 40.89 37.82 36.21 33.12 26.24 24.62 22.92 34.17 38.65 41.47 40.12 30.30 40.45
45.72 45.50 45.33 45.41 45.17 45.08 45.24 45.67 45.78 46.28 46.77 44.83 43.20 45.48 44.71 39.51 45.39 45.77 42.04 40.91 43.15 40.46 38.58 42.41 46.30 45.45 46.38 32.30 28.93 29.38 29.08 37.97 31.67 31.64 30.63 29.85 28.76 27.91 22.83 22.89 28.33 36.59 41.16 40.75 30.17 32.04 41.01
44.74 44.35 44.67 44.67 44.74 44.83 45.14 45.66 45.90 46.23 47.24 44.76 42.92 48.17 44.42 40.18 42.31 47.80 47.37 44.11 44.21 42.60 38.28 42.40 44.80 44.11 35.78 35.91 34.13 30.29 28.81 33.75 31.78 35.12 33.34 32.74 29.25 24.85 25.16 21.86 25.33 40.62 40.18 34.40 36.87 39.58 41.74
43.83 44.17 44.17 44.09 44.18 44.57 45.14 45.74 45.88 46.01 46.34 46.13 41.85 48.79 49.82 43.73 43.37 47.59 46.96 47.98 47.68 47.52 45.74 45.30 44.68 44.96 44.03 39.06 36.54 34.01 29.69 28.18 32.25 29.98 38.36 31.88 34.35 31.55 32.95 31.96 39.19 40.78 39.24 41.37 42.33 41.75 41.07

GFSGBSN_sfc_wetblb_030.txt.gz
Wetbulb
55.10 54.94 55.75 56.29 56.24 55.99 55.79 56.08 56.76 57.46 57.39 58.38 59.07 58.70 58.60 58.65 58.43 57.53 56.69 56.00 55.80 55.34 55.16 55.00 55.47 55.42 50.27 43.18 43.56 56.78 62.15 61.36 56.12 51.54 47.72 45.96 45.13 43.48 39.87 40.42 40.45 39.61 41.50 44.32 49.00 50.27 50.12
55.04 54.43 55.16 55.47 56.08 55.49 55.24 55.53 55.96 56.38 56.68 57.00 57.86 58.56 58.24 58.13 57.69 57.20 56.49 55.78 55.21 55.05 54.75 54.83 55.16 54.50 47.21 38.19 52.16 56.93 56.17 52.33 51.19 48.66 46.61 46.49 46.80 47.00 44.04 42.42 40.30 43.18 43.83 46.32 48.81 49.79 50.29
54.19 54.91 55.09 55.01 55.19 55.72 55.50 55.34 55.29 55.23 55.45 56.57 57.19 57.98 58.04 57.72 57.38 56.73 56.29 55.56 54.83 54.65 54.67 54.75 54.51 51.15 46.17 42.41 53.34 52.38 53.81 50.83 50.55 49.17 47.18 49.22 49.42 45.58 45.05 42.88 46.12 45.80 44.44 47.22 47.14 47.81 47.44
54.43 54.61 54.49 54.87 54.58 54.02 54.66 54.93 55.15 55.04 55.04 55.39 56.35 57.15 57.38 57.22 56.75 56.00 55.38 54.89 54.54 54.77 54.79 54.55 53.79 49.03 44.09 51.41 52.18 53.54 51.60 50.96 50.03 49.77 48.50 48.98 49.28 46.55 44.38 45.56 43.90 39.82 41.72 37.46 46.74 48.27 48.18
54.88 53.09 53.79 54.16 54.52 54.34 54.37 53.43 54.70 55.24 55.06 55.02 55.22 55.44 56.18 56.46 55.74 55.07 54.79 54.48 54.32 54.83 54.73 54.34 47.87 48.17 42.47 52.94 50.00 53.61 53.14 50.75 49.77 49.01 48.95 51.77 47.92 43.73 43.64 39.53 36.75 37.35 32.64 36.32 41.99 49.11 47.11
52.94 53.53 53.69 53.88 53.71 54.36 54.26 54.46 53.15 54.43 54.71 54.54 54.75 55.01 55.48 56.22 55.62 54.46 53.67 53.81 53.73 52.56 52.51 52.49 50.44 42.12 44.10 45.51 50.87 52.41 52.36 51.83 49.69 48.62 47.47 45.77 42.48 39.69 38.59 36.93 31.65 33.78 34.45 34.02 36.70 44.96 44.92
51.08 52.54 52.99 54.39 53.65 53.97 54.06 54.27 54.11 54.18 54.05 54.62 54.83 55.15 55.54 55.84 55.56 53.91 51.03 47.70 43.75 45.20 47.16 44.16 42.13 41.08 43.55 50.18 52.70 49.84 51.76 51.08 49.10 46.82 40.23 42.73 38.56 35.15 37.63 40.10 40.10 39.76 37.45 35.67 38.04 42.39 44.20
51.88 51.25 52.19 52.58 53.96 53.35 53.81 53.99 53.68 53.40 53.15 53.89 54.52 54.20 54.89 55.74 55.40 53.49 49.21 44.64 47.04 47.94 43.34 48.00 48.22 46.90 48.92 51.88 48.45 49.68 51.80 46.87 45.26 40.82 42.28 40.13 36.52 41.39 42.56 42.13 41.76 40.68 38.10 37.65 40.22 41.05 42.43
50.77 51.25 51.54 51.97 52.32 52.88 53.84 53.49 53.27 52.82 53.07 53.28 53.38 53.23 53.62 55.36 53.66 51.47 46.70 47.36 52.75 51.44 42.66 45.16 48.85 48.46 49.38 51.30 47.54 47.60 48.69 46.14 43.36 40.96 40.56 37.39 39.73 44.07 43.68 41.91 40.72 39.13 37.77 37.91 38.53 38.05 37.61
50.26 50.34 50.77 51.11 51.70 52.45 53.28 52.91 52.63 52.65 52.38 53.11 52.49 52.62 52.44 53.86 50.39 48.38 46.18 51.87 53.26 51.64 36.93 40.49 46.12 48.91 50.25 50.79 45.47 50.37 49.27 47.44 43.43 41.32 41.27 39.76 43.23 43.04 41.60 40.38 41.34 36.13 41.38 39.75 39.22 35.20 31.08
50.26 50.17 50.05 50.19 50.43 50.77 51.43 52.30 52.09 52.22 51.98 52.01 52.31 52.52 52.59 53.66 48.19 47.81 51.29 52.16 51.32 48.68 22.35 41.74 46.08 53.13 49.97 45.89 45.53 46.54 48.96 46.69 42.02 42.29 41.40 39.56 40.39 40.48 39.64 40.62 42.52 39.99 41.97 39.75 39.44 35.94 34.29
50.27 50.14 50.05 49.88 49.81 49.85 50.84 51.36 51.59 51.44 51.71 51.44 51.48 52.16 52.89 52.65 51.33 49.51 52.44 52.92 51.69 36.80 23.75 38.05 46.12 44.54 43.01 44.04 44.11 44.25 45.20 47.28 45.58 42.66 40.97 40.32 43.12 42.05 41.69 43.61 43.48 43.63 40.35 38.56 37.34 34.87 28.65
50.22 50.17 50.14 49.90 49.43 49.64 50.07 50.51 51.32 51.04 51.17 51.02 51.42 52.09 52.69 53.85 49.29 51.07 53.32 50.88 40.16 29.88 39.98 38.11 42.33 42.31 40.81 40.01 41.87 42.21 41.10 40.56 38.24 34.83 34.83 38.21 40.15 42.25 44.32 40.01 42.04 40.05 35.42 28.59 28.01 27.37 27.12
50.19 50.11 50.03 49.76 49.50 49.22 49.30 49.72 50.68 50.69 50.95 50.69 51.01 51.12 52.04 53.32 53.13 50.37 53.21 45.53 32.18 36.58 37.38 43.88 42.79 40.56 38.07 40.29 40.46 40.94 39.02 37.07 38.40 38.09 34.45 33.85 31.58 41.01 43.86 41.29 38.69 37.33 36.57 28.61 24.57 23.68 28.19
50.14 50.10 50.16 49.82 49.44 49.27 48.87 49.07 49.78 50.59 50.42 50.06 50.45 47.57 48.61 51.55 53.52 51.78 47.75 35.64 33.58 37.60 42.57 40.80 40.62 37.01 36.56 39.89 39.54 39.29 37.83 36.98 39.47 40.42 35.46 32.86 34.05 42.27 44.08 44.27 41.84 38.19 34.31 37.86 31.63 30.76 28.50
50.20 50.08 49.98 49.74 49.31 49.04 48.58 48.61 49.41 50.32 50.04 49.88 45.76 45.39 43.95 53.38 53.79 50.22 42.66 36.56 40.04 43.09 46.30 44.93 36.46 38.89 34.46 36.79 37.42 37.94 36.32 39.75 39.54 42.11 42.06 39.70 33.00 40.69 43.07 43.93 43.08 39.98 41.67 33.52 31.68 27.31 25.62
49.67 49.68 49.77 49.71 49.22 48.69 48.35 48.25 49.26 50.07 49.67 49.76 45.17 39.98 43.55 53.38 52.75 45.41 35.73 37.03 41.01 46.45 47.08 43.50 41.43 38.82 38.12 37.13 37.64 35.61 37.34 39.58 41.77 40.19 41.66 39.55 36.34 35.06 41.10 39.15 37.61 37.64 35.78 35.30 35.33 30.53 26.28
49.43 49.36 49.32 49.36 49.56 48.84 48.53 48.15 48.53 49.30 49.17 47.19 42.78 33.89 48.50 52.25 41.59 41.20 37.70 38.89 43.01 44.73 47.07 44.86 44.73 43.32 40.76 38.57 36.89 36.54 37.22 40.45 42.98 43.28 39.34 41.43 36.28 29.00 36.57 40.88 41.91 39.30 37.94 36.38 29.07 29.23 27.57
48.95 49.28 49.21 49.40 49.57 48.69 48.38 47.97 48.38 49.04 48.79 42.89 37.92 39.36 49.52 47.91 34.14 36.30 40.04 40.89 41.91 42.81 43.84 43.17 42.50 44.35 42.91 38.46 35.16 38.10 38.76 42.71 43.93 42.55 40.44 41.61 34.38 28.00 32.28 36.42 38.70 37.69 38.44 37.98 34.85 30.71 28.40
47.88 48.74 49.11 49.53 49.60 48.76 48.13 47.94 48.25 48.75 48.55 43.90 38.95 32.66 41.68 44.04 42.30 37.86 37.16 38.11 37.32 44.84 43.44 44.24 42.81 44.15 41.76 39.73 39.68 37.10 38.34 43.87 44.17 43.38 45.00 44.20 36.41 33.38 30.71 33.11 36.37 34.63 37.45 37.63 36.12 28.15 29.28
47.34 47.71 48.46 48.56 49.39 48.45 48.07 48.11 48.67 48.37 47.84 43.97 39.50 34.89 40.72 35.73 36.54 37.98 38.86 38.58 36.96 37.57 43.66 43.98 40.46 42.03 40.69 36.91 36.63 37.21 40.49 42.06 43.21 44.48 42.13 41.08 34.48 34.34 35.44 37.07 37.82 37.55 37.80 36.63 35.50 34.78 31.49
47.01 47.34 48.01 48.43 48.88 48.10 48.01 48.21 48.46 47.74 47.58 42.01 35.77 36.64 41.96 40.08 38.45 37.81 39.20 37.44 37.15 39.11 41.20 39.81 39.22 41.28 41.76 39.23 39.25 36.51 40.88 40.12 40.08 41.49 39.98 39.71 34.74 34.02 33.47 36.36 36.68 35.14 37.02 36.56 36.25 35.77 35.02
46.75 46.85 47.55 48.31 48.66 48.06 47.98 48.33 47.97 47.50 47.16 39.42 40.42 40.67 41.48 38.57 37.73 35.67 36.06 37.73 38.16 41.39 42.58 43.60 42.28 40.86 38.68 42.14 45.21 43.32 43.54 43.28 42.30 40.91 38.61 37.24 33.34 31.14 30.39 32.22 33.04 29.40 33.69 36.31 35.93 36.99 37.29
46.96 46.98 47.64 47.77 48.31 48.07 47.78 47.60 46.65 46.71 46.36 39.16 39.40 42.67 39.06 34.72 37.51 35.86 36.87 39.21 39.00 40.75 40.12 43.40 44.19 40.99 42.57 48.02 46.09 44.42 42.68 43.16 43.92 42.28 40.99 33.32 32.73 30.63 26.88 27.95 21.78 35.86 38.34 38.09 37.09 37.15 37.17
47.03 47.36 48.04 47.62 47.95 47.43 47.35 47.07 46.40 46.42 46.42 41.24 41.72 40.70 39.80 34.46 37.47 39.09 38.19 37.65 40.68 41.78 41.52 42.63 44.18 45.71 48.39 45.93 40.28 36.94 33.50 34.35 36.42 39.83 39.79 39.17 32.36 28.77 27.49 26.64 30.80 34.58 36.70 36.31 35.54 35.21 38.16
47.05 47.05 48.09 47.79 47.23 46.85 46.72 46.92 46.71 46.80 46.77 42.38 40.68 43.54 42.31 36.82 36.14 41.17 39.71 38.99 36.71 37.13 38.33 40.26 46.40 47.49 46.35 40.83 33.77 31.72 31.44 34.17 32.33 35.39 39.02 36.83 34.31 32.32 25.08 24.12 23.31 33.78 38.97 39.62 39.05 30.28 38.62
46.37 46.65 47.94 47.14 46.77 46.36 46.20 46.39 46.49 46.70 46.83 43.57 41.67 44.10 41.09 36.17 41.79 42.11 39.10 38.19 41.07 39.13 35.85 39.18 43.03 43.47 44.69 30.79 29.99 30.31 31.28 37.14 31.93 32.86 31.11 30.10 28.57 27.50 21.47 22.84 29.50 36.98 39.05 39.54 30.27 32.58 39.31
46.62 47.02 46.50 46.41 45.99 45.76 45.71 45.98 46.24 46.27 46.39 43.48 41.10 45.28 41.07 39.73 40.54 44.48 44.96 41.04 41.45 40.89 36.00 39.90 43.21 41.70 34.44 34.62 32.80 32.33 28.81 33.80 31.78 34.91 34.39 34.00 30.14 25.66 25.32 21.99 26.99 38.91 38.48 34.39 37.20 37.59 39.48
46.13 45.92 45.69 45.60 45.45 45.47 45.53 45.50 45.60 46.04 46.22 44.14 38.13 43.55 45.18 41.64 42.54 46.46 45.71 45.92 45.00 45.34 42.57 41.55 40.36 42.61 42.70 38.57 34.53 32.94 29.58 27.41 32.08 29.91 36.90 33.03 35.32 32.33 33.61 32.87 38.80 39.37 38.27 40.55 40.26 40.07 40.29

GFSGBSN_sfc_wetblb_033.txt.gz
Wetbulb
54.75 54.98 54.95 54.68 54.16 54.65 55.10 55.41 55.68 55.57 56.50 56.78 56.99 57.67 59.11 59.76 58.98 58.02 57.08 56.31 56.17 55.91 55.51 55.41 55.68 55.73 51.80 45.99 44.19 59.11 62.25 60.99 57.72 53.56 49.79 48.72 48.48 47.52 45.07 45.07 44.88 43.66 45.40 46.29 46.87 51.99 51.87
54.61 54.52 54.41 55.11 54.72 53.80 54.34 55.49 55.48 55.26 55.43 55.17 55.65 56.67 57.54 58.89 58.62 57.95 57.00 56.29 55.62 55.36 55.34 55.18 55.41 54.63 48.69 41.41 55.23 58.70 57.31 54.53 54.12 51.88 49.90 50.54 50.22 50.26 47.51 46.46 44.51 46.02 46.22 49.57 50.98 51.88 52.20
55.26 54.88 54.92 54.78 54.74 54.63 53.38 53.14 54.43 55.08 55.04 54.98 54.98 55.63 56.47 57.63 58.18 57.79 57.02 56.17 55.44 55.20 55.16 55.04 54.98 51.55 47.22 44.81 54.72 56.89 54.83 53.13 52.89 51.51 49.05 50.65 52.28 49.68 48.97 46.56 48.44 48.39 47.32 49.20 50.24 51.11 50.33
53.02 53.39 54.84 54.52 54.23 53.98 54.27 53.08 52.60 54.12 54.91 55.02 55.11 54.84 55.06 55.46 56.34 56.98 56.21 55.56 55.08 55.16 55.20 55.14 54.06 49.95 44.71 52.51 53.98 54.14 54.34 53.69 52.88 52.69 51.42 51.91 52.60 50.09 48.44 49.16 46.56 44.65 45.10 42.05 47.97 49.91 49.85
51.80 52.15 53.66 53.77 54.04 53.81 53.82 54.34 54.02 52.50 54.31 54.80 54.65 54.40 54.30 54.45 55.14 55.88 55.56 54.95 54.77 54.91 54.91 54.47 49.82 48.95 43.43 53.28 50.07 53.78 54.48 52.74 50.89 50.88 51.41 52.00 51.59 47.99 47.83 44.31 42.61 42.55 39.27 40.41 45.12 50.93 49.09
51.49 51.93 52.01 53.37 53.48 54.19 53.74 53.98 53.97 53.71 52.40 53.92 54.16 54.55 54.43 54.61 54.75 55.23 54.09 53.96 53.89 53.07 53.11 52.73 50.64 43.99 45.56 46.96 52.11 54.63 54.37 53.18 51.41 50.55 49.82 49.37 47.17 45.45 44.47 43.57 37.78 39.28 39.97 41.69 42.19 47.89 48.58
50.79 50.74 51.11 51.99 52.28 53.84 54.44 53.95 53.95 53.69 53.49 53.62 53.86 54.16 54.41 54.06 55.12 54.66 52.25 49.91 45.45 45.76 48.59 46.43 45.45 42.87 43.76 50.64 54.04 51.47 53.78 52.77 52.00 50.06 45.45 46.67 44.27 41.21 42.69 43.40 43.85 43.39 41.62 40.78 43.41 45.14 47.16
52.02 51.64 50.62 51.02 51.82 52.51 52.95 54.31 53.46 53.38 53.51 53.35 53.23 53.26 53.46 53.34 55.04 53.95 51.35 46.72 47.25 49.41 43.81 48.92 48.49 47.17 48.62 52.59 48.75 51.48 54.23 49.57 48.66 45.00 45.81 44.36 41.76 44.67 44.24 44.36 43.77 43.38 41.66 41.25 43.17 43.63 45.48
51.22 51.64 51.72 51.39 50.58 51.51 52.34 52.50 53.13 52.79 52.97 52.64 52.84 52.80 52.68 52.20 54.25 52.72 49.61 48.57 52.84 53.06 44.71 46.18 48.59 48.06 49.25 51.23 47.80 48.73 51.69 48.56 46.37 43.65 43.75 42.10 43.89 45.34 44.44 43.52 42.59 42.94 41.93 41.23 41.31 41.71 42.90
51.03 51.03 51.19 51.19 51.37 51.33 51.43 51.97 52.20 52.93 52.39 52.18 51.70 52.57 51.84 52.50 51.26 50.69 48.28 52.30 53.48 53.08 37.36 39.61 44.12 48.38 50.30 51.44 46.58 52.13 51.38 50.02 46.51 44.08 43.64 43.88 45.91 44.33 44.20 43.04 43.89 40.82 44.31 42.60 41.30 39.90 36.89
50.82 50.60 50.56 50.79 50.96 50.71 50.56 50.54 51.41 52.54 52.33 51.81 51.53 51.82 51.71 52.79 49.64 47.96 51.20 52.96 52.64 49.97 26.21 41.94 46.06 53.41 50.80 47.19 47.17 47.29 50.42 49.43 44.93 44.12 44.79 43.25 43.39 43.50 43.09 43.75 44.95 43.16 45.06 43.60 42.65 39.91 40.15
50.71 50.74 50.61 50.42 50.48 50.41 50.18 50.03 50.09 51.03 52.00 51.53 51.26 51.32 51.54 51.31 51.59 51.19 52.52 54.41 52.39 36.97 26.35 38.02 46.29 45.27 45.06 45.56 45.98 46.47 47.84 49.97 48.50 45.25 44.57 44.32 46.54 46.00 45.73 45.91 45.60 45.84 43.89 41.35 40.92 40.03 35.35
50.39 50.68 50.72 50.63 50.29 50.08 50.20 50.01 49.71 50.01 50.78 51.39 51.19 51.09 50.40 52.34 48.56 53.26 54.07 51.03 38.86 31.47 40.73 38.13 42.04 43.39 43.19 41.63 42.96 43.95 43.87 43.11 41.97 38.73 38.81 42.04 43.43 45.82 47.42 44.45 45.65 44.22 41.13 36.09 33.71 34.11 33.34
50.51 50.58 50.56 50.51 50.43 50.17 50.10 49.91 49.47 49.81 50.65 51.13 50.71 50.39 50.24 50.56 54.84 52.56 53.07 43.73 30.94 36.38 37.86 43.20 43.12 41.90 40.52 41.58 42.27 42.35 41.89 40.43 42.35 41.52 37.94 37.70 35.92 43.63 46.46 45.24 43.38 42.48 41.66 36.24 28.66 29.63 33.79
50.66 50.66 50.58 50.48 50.39 50.25 49.95 49.73 49.47 49.31 49.80 50.52 50.15 48.07 47.76 49.48 51.91 52.15 47.55 35.43 34.40 38.30 41.72 40.55 41.94 38.81 38.00 40.64 41.46 41.66 40.93 41.35 42.50 43.09 39.42 36.48 37.05 44.92 46.39 47.09 45.74 41.89 39.53 41.73 35.87 34.46 34.15
50.54 50.42 50.35 50.31 50.38 50.15 49.86 49.57 49.35 49.24 49.54 50.16 45.98 44.39 43.56 50.15 52.25 49.63 41.99 35.61 38.80 43.30 45.06 45.18 36.43 40.07 36.52 38.24 39.13 40.21 39.03 41.89 41.72 43.84 46.23 42.45 37.10 43.18 45.37 47.28 46.14 44.16 44.77 38.30 37.49 30.71 28.89
50.03 50.24 50.22 49.96 49.83 49.76 49.64 49.53 49.15 49.01 49.15 49.84 44.18 38.69 44.64 50.23 50.75 44.13 34.14 36.46 40.15 44.80 46.22 43.69 42.29 40.19 39.28 38.17 39.43 38.21 39.35 41.84 43.54 42.15 44.65 43.09 41.34 38.98 44.13 42.85 41.89 41.41 40.75 39.29 39.98 36.88 32.82
49.67 49.67 49.88 49.77 49.56 49.64 49.68 49.49 49.08 48.84 48.93 47.60 41.68 32.86 45.67 48.33 37.21 39.67 35.94 39.01 42.14 42.62 46.87 45.48 45.52 44.17 42.58 40.12 38.22 38.67 38.88 42.55 44.19 44.41 41.84 44.62 41.19 35.72 39.57 43.45 44.88 43.45 42.43 41.43 36.99 33.72 33.55
48.98 49.70 49.62 49.78 49.54 49.45 49.46 49.39 48.97 48.58 49.05 44.40 36.19 38.52 46.01 45.31 31.62 34.12 38.59 39.12 41.64 41.71 42.54 43.80 43.02 44.93 45.75 41.54 37.06 39.59 40.26 44.14 43.91 43.98 43.11 43.87 38.70 34.27 36.55 40.15 42.92 42.20 42.03 40.62 38.64 37.04 33.43
47.70 48.42 48.98 49.41 49.65 49.52 49.34 49.26 48.60 48.46 48.99 44.84 38.28 31.88 39.67 41.02 40.26 37.06 36.74 36.05 36.93 43.00 42.40 44.79 43.96 45.07 43.71 41.67 42.54 39.64 39.94 44.13 44.48 44.85 44.64 45.66 39.59 37.97 34.28 37.83 40.63 38.70 39.88 40.59 40.87 35.42 36.51
46.90 47.15 47.08 47.47 48.28 49.60 49.40 48.99 48.50 48.30 48.47 43.59 38.67 34.95 38.45 31.99 34.29 37.33 38.20 36.90 36.02 37.00 42.17 44.28 42.01 42.65 41.91 38.17 39.47 38.15 41.97 44.28 44.97 45.01 44.67 45.21 38.51 38.22 38.84 39.36 40.41 40.54 40.43 39.58 39.19 40.06 38.11
47.05 46.88 46.72 46.29 46.77 48.11 49.46 48.86 48.24 48.01 48.10 41.27 35.37 36.21 38.26 37.55 36.91 35.30 36.90 36.25 36.01 38.12 39.77 39.63 39.63 42.01 42.45 40.51 41.36 39.23 43.11 42.80 42.64 43.53 43.01 42.85 38.76 37.79 37.00 39.05 39.01 38.34 40.31 40.37 39.93 39.14 39.24
47.14 46.55 46.48 46.82 47.34 47.71 48.79 48.66 48.03 47.90 47.15 39.96 41.35 40.68 38.87 36.87 36.37 34.09 32.85 36.38 37.35 40.60 41.48 43.15 43.18 41.39 40.58 42.59 46.26 46.01 46.31 46.46 45.70 44.21 41.12 40.67 37.50 35.94 34.00 35.87 37.97 33.85 37.69 39.59 40.39 41.02 41.79
46.72 46.32 46.60 47.20 47.58 47.72 47.52 48.31 47.58 47.53 46.79 43.64 41.17 40.79 36.60 31.74 36.25 34.98 36.06 36.89 38.09 40.06 39.10 41.88 44.28 41.93 44.14 48.26 47.84 47.03 44.69 44.63 44.45 43.33 44.05 37.78 37.69 35.83 32.78 32.72 29.63 40.97 41.96 42.37 41.74 41.78 42.04
46.60 46.69 46.80 47.29 47.45 47.70 47.04 48.03 47.51 47.47 47.62 42.70 41.68 40.92 38.95 32.07 36.77 37.45 36.97 36.10 39.20 41.91 40.82 42.05 44.57 46.39 48.48 46.67 40.45 37.78 37.63 38.67 39.14 40.79 41.68 41.55 37.15 32.88 33.03 32.71 35.66 38.26 40.07 40.45 39.91 41.50 42.97
46.92 46.76 47.15 46.99 47.05 46.84 46.78 47.60 47.10 47.46 47.78 42.86 41.40 43.90 42.32 35.94 34.96 40.31 38.26 38.47 35.28 37.56 39.01 41.42 46.79 47.91 46.23 41.01 36.58 32.86 33.07 36.79 35.97 37.69 40.10 37.79 38.38 38.95 30.51 31.17 29.77 39.47 42.57 42.99 43.54 36.51 43.37
46.59 47.02 46.56 46.88 46.63 46.61 47.19 46.91 47.25 47.67 46.81 42.85 40.95 43.97 42.35 36.81 39.56 41.57 38.52 37.91 40.88 39.60 37.97 40.72 42.50 43.03 45.61 35.53 34.07 33.44 34.41 39.92 35.45 34.61 34.39 34.83 34.31 34.19 29.82 33.76 35.85 41.21 42.11 43.52 36.00 40.03 43.53
46.48 46.09 46.34 46.46 46.37 46.69 46.98 46.73 47.51 47.23 47.00 43.23 41.36 43.91 40.71 37.69 39.72 42.34 43.19 41.18 41.15 40.65 36.02 40.34 40.77 41.72 38.60 35.08 35.70 35.62 33.66 37.23 36.69 38.34 36.82 36.79 34.67 33.54 31.74 32.84 32.64 42.19 40.39 39.39 44.75 43.24 44.08
46.30 46.30 46.32 46.18 46.32 46.78 46.66 46.52 46.71 46.64 46.99 45.12 40.55 45.26 44.73 39.69 39.83 44.75 45.74 46.51 44.89 45.76 42.32 43.18 41.36 41.06 41.89 39.21 37.32 35.62 34.87 34.12 36.32 34.76 38.78 37.31 39.59 37.58 39.23 39.82 45.20 42.98 45.51 45.06 44.10 44.62 43.75

GFSGBSN_sfc_wetblb_036.txt.gz
Wetbulb
55.58 55.06 54.87 54.84 54.86 54.76 54.24 54.87 55.58 55.60 55.56 55.78 55.40 55.84 56.36 57.53 58.85 59.13 58.05 57.07 56.90 56.65 56.36 55.88 56.16 56.18 55.45 50.43 48.94 61.01 63.10 60.81 59.45 56.18 53.96 53.21 51.83 51.18 48.26 49.26 49.77 48.09 49.63 50.48 51.90 51.68 54.90
53.58 54.76 55.23 55.06 54.80 54.35 54.47 54.43 54.57 55.06 55.04 55.10 55.14 55.24 55.91 56.76 57.58 58.30 58.02 57.21 56.57 56.21 56.01 55.73 55.70 55.20 52.49 45.98 56.70 61.30 60.11 58.59 57.27 55.51 53.71 53.94 53.00 53.32 51.10 50.02 49.08 50.05 50.58 52.93 52.53 54.21 55.24
52.72 52.94 54.15 54.65 55.16 54.40 54.22 54.49 54.16 53.77 54.49 54.88 54.88 54.98 55.04 55.53 55.91 56.79 57.44 57.16 56.26 55.84 56.06 55.73 55.44 54.17 50.39 49.57 57.36 60.88 58.24 56.66 56.92 55.50 52.94 53.89 54.99 53.20 52.57 49.76 51.63 50.70 50.11 51.74 53.03 53.98 53.38
52.16 52.61 52.48 52.97 53.90 54.63 54.16 53.93 54.15 53.99 53.57 53.91 54.85 54.55 54.44 54.26 54.52 55.09 55.92 56.34 55.90 55.76 55.82 55.48 54.66 53.39 49.08 54.70 57.57 58.01 58.50 56.61 56.77 56.64 54.92 55.09 55.19 53.71 52.17 52.84 50.72 48.29 49.85 44.49 50.39 52.78 53.40
51.72 51.68 52.28 52.63 52.87 53.15 54.06 53.83 53.65 53.94 54.00 53.26 53.94 54.01 54.06 53.91 54.26 54.47 55.11 55.74 55.46 55.14 54.83 54.49 53.20 52.07 48.14 55.07 52.78 55.79 58.66 55.73 56.18 55.24 55.21 53.99 54.42 52.54 51.86 48.15 46.64 47.58 43.61 44.13 47.64 52.87 52.39
51.82 51.53 51.82 52.28 52.85 52.92 53.41 53.53 53.98 53.57 53.56 53.17 52.77 52.97 53.47 54.06 53.79 54.45 54.64 54.43 55.20 53.73 54.76 55.04 53.56 48.43 50.91 47.52 52.73 56.70 57.47 56.60 54.33 53.36 52.09 52.46 52.70 49.63 48.87 46.61 41.26 42.63 43.61 45.75 46.56 51.54 51.97
51.36 51.92 52.27 52.45 52.50 52.46 51.99 52.58 53.38 53.73 53.27 53.34 52.96 52.52 52.64 53.56 53.44 54.47 55.46 57.53 53.29 50.87 52.39 51.06 50.12 49.30 47.19 52.88 56.95 55.37 57.29 54.82 55.35 53.73 49.37 51.67 47.70 44.96 46.19 47.40 47.51 46.53 44.96 44.03 46.99 49.89 49.47
52.06 51.91 51.27 52.30 52.69 52.53 51.08 51.85 52.30 52.96 53.44 53.27 53.08 52.40 52.45 53.13 52.51 54.35 56.46 53.21 52.18 52.93 46.95 52.68 51.95 52.17 53.49 52.52 50.08 54.12 57.61 52.60 51.85 48.39 50.68 48.36 45.23 48.11 48.07 48.21 47.46 46.83 44.57 44.48 46.99 47.49 47.92
51.72 51.99 51.89 51.90 51.91 52.59 51.90 51.80 51.51 52.16 52.48 53.15 52.62 52.29 52.32 52.26 52.95 54.00 55.38 54.72 57.10 56.16 48.73 49.62 52.62 50.99 51.45 53.05 49.44 51.41 54.77 53.39 50.50 48.58 48.73 46.64 47.39 49.39 48.02 47.80 46.27 46.73 45.11 44.68 44.70 46.45 47.61
51.40 51.17 51.51 51.63 51.78 51.85 52.16 51.98 51.60 51.38 51.70 52.22 52.32 51.88 51.86 51.68 50.84 54.81 52.68 56.33 57.30 56.12 43.37 43.16 46.25 50.30 51.65 52.52 48.76 54.10 55.03 53.07 50.26 47.94 48.90 48.36 49.99 47.88 47.63 46.43 47.74 43.88 48.10 46.39 45.51 44.14 41.15
51.25 51.22 51.22 51.53 51.46 51.19 50.94 51.13 51.38 51.19 51.49 51.76 52.07 51.74 51.34 51.49 49.94 51.93 54.38 57.38 56.66 54.67 29.80 44.32 47.35 54.94 52.81 49.00 49.18 50.19 55.32 52.79 48.55 47.98 48.67 46.23 47.59 47.05 46.51 46.96 48.85 45.69 48.43 46.99 46.35 44.98 43.79
51.03 51.11 51.15 51.36 51.05 50.69 50.69 50.75 50.83 50.69 50.54 51.15 51.94 51.70 51.19 51.23 51.11 54.34 56.55 57.65 55.30 41.89 29.81 40.87 48.37 47.31 46.97 48.75 48.44 50.34 51.00 53.09 52.89 49.22 49.57 48.26 50.39 49.81 48.67 49.18 49.59 49.73 47.85 46.61 46.87 45.19 38.80
50.62 50.83 51.14 51.12 51.03 50.88 50.69 50.48 50.48 50.57 50.31 50.50 51.34 51.47 50.62 51.20 47.94 56.23 57.22 54.15 41.06 33.93 42.38 40.17 44.00 46.96 45.94 45.00 45.90 47.39 47.19 46.53 45.06 42.31 43.27 46.69 47.21 49.49 49.92 47.42 49.28 48.49 45.77 39.47 37.42 37.67 36.77
50.79 50.75 50.66 51.03 50.91 50.87 50.60 50.41 50.19 50.23 49.98 50.14 50.41 50.70 50.36 49.95 52.37 53.12 52.80 45.52 32.35 37.85 39.72 44.98 45.56 46.18 43.09 44.98 45.24 46.15 45.64 44.47 47.94 46.80 44.13 41.36 39.47 46.49 49.66 48.14 45.96 46.49 45.98 40.21 31.66 33.54 38.20
50.98 50.83 50.70 50.70 50.70 50.77 50.62 50.35 50.28 50.05 49.84 49.83 50.39 48.20 49.92 49.74 52.02 50.70 46.17 34.71 34.54 38.68 43.44 42.28 43.58 42.20 42.78 43.78 44.44 45.06 44.88 44.27 46.95 48.09 42.75 41.73 41.39 47.74 48.96 49.80 49.23 45.73 43.01 47.05 40.77 41.04 38.82
51.00 50.99 50.71 50.54 50.44 50.50 50.34 50.29 50.08 49.91 49.80 49.76 47.54 44.57 45.91 51.91 52.65 46.97 39.45 36.11 39.48 43.46 45.60 45.48 39.64 42.77 41.19 42.40 41.51 43.34 43.07 46.46 46.21 48.83 50.13 45.77 40.44 46.63 48.46 50.36 49.54 47.84 49.11 41.54 43.45 33.87 32.18
50.64 50.74 50.78 50.40 50.27 50.19 50.40 50.46 50.11 49.92 49.74 49.80 45.99 38.13 45.56 51.93 51.51 40.70 33.24 38.25 41.21 45.24 47.43 44.91 43.61 41.85 43.23 43.02 42.99 42.46 42.63 44.52 48.52 47.76 49.63 47.77 44.93 43.76 47.41 46.04 45.42 45.65 44.53 44.94 44.74 42.49 35.76
49.94 49.46 49.69 50.34 50.25 50.26 50.15 50.26 50.06 49.76 49.36 48.23 43.01 33.24 48.50 49.34 37.04 37.69 34.87 40.84 43.25 43.40 47.86 47.03 47.82 46.39 43.50 43.86 43.38 42.55 42.17 44.83 49.27 49.74 45.35 48.46 45.69 41.07 43.32 47.67 49.07 48.49 45.97 46.34 40.68 38.41 40.84
48.75 48.35 48.56 49.52 50.17 50.01 49.93 49.95 49.86 49.55 49.36 46.66 38.21 38.46 48.25 45.76 31.42 34.24 39.52 40.08 43.20 42.41 43.40 45.72 45.27 48.09 48.78 45.35 41.40 43.74 43.97 49.03 49.49 48.65 47.16 48.04 43.81 38.49 40.37 43.60 46.63 44.88 46.34 46.55 45.48 43.73 40.23
47.19 47.93 47.97 47.51 49.06 49.85 49.86 49.64 49.59 49.37 49.27 46.63 38.17 32.25 39.25 41.29 42.02 38.03 37.93 37.65 37.22 44.07 43.86 46.29 46.25 48.12 47.03 45.55 45.78 42.60 42.92 45.67 48.38 49.22 47.16 48.52 45.27 41.93 37.72 41.16 44.81 42.80 44.57 45.89 44.91 40.79 40.99
47.09 47.24 47.45 47.48 47.97 48.80 49.49 49.57 49.57 49.37 48.92 44.81 38.97 35.95 38.96 31.41 35.73 38.59 40.68 38.77 35.85 36.84 43.21 46.01 44.76 45.83 45.42 41.97 43.27 42.64 42.82 45.24 45.76 45.90 48.25 48.88 42.17 44.05 44.11 44.63 44.46 43.88 43.67 44.68 43.34 44.25 41.54
46.83 47.02 47.10 47.27 47.52 48.31 48.99 49.34 49.37 49.01 48.62 42.20 36.14 38.30 41.12 39.40 38.61 36.71 37.36 38.39 38.00 38.33 41.29 40.64 42.33 45.22 46.07 42.97 44.10 41.60 44.48 45.19 44.79 46.84 47.30 48.47 42.41 44.40 41.88 44.43 43.90 42.25 44.21 44.77 45.26 45.24 45.30
46.69 46.63 46.79 47.12 47.32 47.99 48.54 48.78 49.30 48.91 47.89 40.53 44.14 44.82 42.63 38.22 37.78 36.12 35.00 38.35 38.92 40.91 42.62 43.95 44.16 44.17 43.26 44.63 47.62 47.62 47.46 47.10 47.39 47.35 46.11 45.73 44.85 41.63 38.20 42.54 41.84 37.71 42.95 44.46 45.46 46.82 46.55
46.77 46.98 47.17 47.16 47.17 47.37 47.52 47.97 49.05 48.51 47.33 45.58 43.91 44.29 39.65 35.66 37.78 36.54 36.73 39.38 39.78 41.23 40.34 43.49 45.55 43.75 46.81 50.23 49.34 48.62 47.51 47.22 47.45 48.38 49.68 44.97 43.96 43.74 39.42 37.64 32.66 44.03 48.20 48.30 46.37 47.36 48.74
46.13 47.41 47.27 47.29 47.21 46.90 47.24 47.66 48.84 48.29 47.51 45.93 46.10 43.98 40.71 35.72 38.62 38.16 37.60 37.68 39.95 42.56 42.42 43.14 45.45 48.68 50.41 46.85 41.81 38.51 40.76 42.16 44.07 47.20 47.07 48.33 45.27 40.34 38.25 37.05 41.72 42.47 44.31 45.24 44.99 45.51 49.75
46.26 46.59 47.22 46.96 46.86 46.23 46.39 47.19 48.45 48.17 47.30 45.66 45.09 48.38 45.09 38.80 37.30 41.23 39.55 38.65 36.71 39.36 41.29 43.21 48.45 52.30 49.68 44.53 40.62 34.13 31.92 37.13 38.94 41.87 44.00 44.42 45.05 44.03 37.25 35.88 34.26 44.08 48.54 50.13 49.09 42.03 50.30
45.66 46.13 46.82 46.70 46.10 45.64 45.16 46.57 47.99 47.71 47.25 45.00 46.53 49.90 45.18 39.28 42.25 42.58 39.07 38.62 41.76 40.36 40.36 43.22 45.49 45.90 48.45 41.50 39.37 37.35 35.23 40.57 35.90 38.12 37.57 39.00 40.01 39.32 39.49 39.13 42.42 47.71 48.10 49.25 40.27 44.22 51.01
46.36 46.43 46.01 45.85 45.77 45.92 46.30 45.92 47.72 47.25 47.27 45.35 43.96 48.68 46.23 41.29 42.31 43.90 44.34 41.61 41.94 42.70 40.12 44.25 44.05 44.72 43.59 38.75 39.64 40.15 39.54 40.68 40.13 42.44 40.75 39.81 39.37 38.60 40.94 38.47 36.51 48.55 46.17 44.63 50.55 51.54 51.67
46.03 45.99 45.87 45.96 46.12 46.25 45.79 46.75 46.95 46.82 47.19 46.06 41.62 47.88 49.60 44.41 42.82 45.57 45.33 45.50 45.32 47.54 46.01 47.08 44.34 44.36 44.81 41.40 43.39 44.29 41.38 39.25 41.83 37.50 44.67 39.81 44.01 43.01 43.69 44.35 51.21 49.53 51.28 52.15 53.01 52.38 50.74

GFSGBSN_sfc_wetblb_039.txt.gz
Wetbulb
53.60 53.95 54.38 55.56 55.54 54.86 54.86 55.16 55.28 55.06 55.41 55.47 55.37 54.96 54.81 54.88 55.84 57.78 57.87 58.08 57.99 57.75 57.38 57.09 56.72 56.74 57.15 53.41 53.17 63.39 63.32 60.87 58.69 57.90 54.51 52.47 51.76 52.31 49.80 50.11 51.02 49.65 50.80 52.15 53.50 53.23 54.31
53.00 53.26 53.32 53.92 54.37 55.24 54.79 54.94 55.15 54.67 54.19 54.52 55.01 55.09 55.23 54.71 55.05 56.12 56.65 57.21 57.30 57.47 57.05 56.82 56.66 55.56 55.50 49.13 56.96 61.88 61.32 58.21 58.04 56.50 55.66 55.63 54.50 54.64 52.63 51.03 50.55 51.68 51.57 52.95 53.40 54.33 55.96
52.40 52.61 52.84 53.63 53.71 53.70 53.55 54.87 54.33 54.24 54.23 53.96 54.04 54.76 54.73 54.97 54.82 55.12 55.46 55.96 56.42 56.80 56.81 56.60 56.31 56.49 52.51 52.00 57.54 61.20 60.04 58.15 58.20 57.18 55.16 56.34 56.57 54.37 54.17 50.87 53.13 51.93 49.95 52.17 52.88 54.25 54.15
52.19 52.16 52.20 53.12 53.42 53.23 53.32 53.92 54.53 54.14 54.22 54.12 54.02 53.73 54.02 54.16 54.16 54.50 54.81 55.09 55.56 56.62 56.28 55.79 55.66 55.94 50.28 57.36 57.90 58.82 59.99 57.17 57.72 58.33 56.56 57.12 57.15 55.31 53.86 54.33 51.81 49.39 50.71 47.30 50.90 53.09 53.98
52.21 52.41 52.16 52.73 52.82 53.14 53.14 53.18 53.85 54.25 54.07 53.92 53.77 53.31 53.19 53.39 53.70 53.99 54.10 55.05 55.74 56.46 55.07 54.66 54.38 52.89 49.56 56.63 53.05 56.57 60.50 56.11 56.15 56.89 57.18 56.25 55.83 53.51 53.57 48.97 47.25 48.52 43.95 46.91 47.77 52.83 53.11
51.69 52.69 53.08 53.21 52.59 52.77 53.20 53.37 53.37 53.73 54.14 53.62 53.48 53.26 52.89 53.00 53.44 53.17 53.03 54.65 56.74 54.12 55.29 57.61 56.50 50.99 53.46 50.37 53.14 54.18 60.61 58.60 55.62 55.18 53.25 53.16 52.68 50.34 49.82 47.73 41.50 44.02 44.57 46.51 46.13 51.03 52.10
51.42 51.50 51.97 52.64 52.78 53.08 52.01 52.51 52.70 52.67 52.75 53.70 53.70 53.19 52.81 52.76 53.28 52.72 54.12 58.25 54.33 53.58 54.53 51.23 52.32 50.48 50.03 53.27 56.64 54.61 56.96 57.07 55.89 53.23 48.60 52.57 48.69 46.04 47.66 48.87 48.20 48.14 45.95 45.29 47.96 51.95 50.33
52.21 51.61 51.66 52.16 52.51 52.62 52.18 52.75 52.20 52.25 52.70 53.36 53.60 53.06 52.84 52.66 52.99 52.80 55.09 53.10 53.61 55.09 47.79 53.02 52.87 53.20 55.04 53.69 51.45 52.96 57.64 52.65 51.88 48.62 50.86 49.95 46.65 49.68 50.42 48.73 47.45 47.80 45.96 45.67 47.64 49.26 49.00
51.88 52.13 52.14 51.92 52.45 52.74 52.66 52.65 52.37 51.93 52.11 52.49 52.42 53.11 52.69 52.35 52.61 52.10 54.21 54.85 59.33 58.39 48.24 49.10 52.79 52.02 52.01 54.12 50.06 51.30 55.88 53.42 50.49 48.83 49.21 47.56 49.08 50.78 48.60 47.09 46.27 46.80 45.78 45.93 45.46 48.68 49.62
51.61 51.55 51.94 51.99 52.18 52.05 52.43 52.35 52.31 52.09 51.71 51.86 51.55 51.79 51.82 52.19 49.07 53.10 53.40 57.75 59.01 59.11 43.81 44.70 49.07 51.84 53.63 52.98 49.12 53.84 56.17 53.91 51.46 48.16 49.55 49.09 51.41 48.34 47.18 46.38 47.62 43.98 48.57 47.57 46.46 45.70 42.23
51.42 51.42 51.63 51.72 51.86 51.53 51.30 51.55 51.71 51.72 51.59 51.55 51.84 50.93 51.68 50.59 50.65 52.08 56.54 59.78 59.69 57.52 30.87 45.97 48.72 55.56 52.99 49.42 49.42 51.02 56.19 53.45 49.04 48.89 49.95 47.52 48.59 48.03 46.35 47.30 49.24 46.35 49.91 47.98 47.82 46.25 45.40
51.24 51.47 51.47 51.55 51.42 51.16 51.26 51.15 51.11 51.27 51.29 51.25 51.78 51.79 51.53 50.55 51.68 52.14 55.26 58.69 57.54 41.69 30.81 42.70 49.26 47.64 48.09 49.00 48.66 51.55 51.33 54.60 53.47 49.79 50.17 49.48 52.26 50.61 49.34 50.27 50.04 50.61 48.72 48.32 48.29 46.41 40.11
51.08 51.39 51.41 51.47 51.29 51.24 51.24 51.22 50.84 50.84 51.15 51.09 50.64 51.66 50.89 51.86 48.23 54.56 53.22 52.55 39.65 32.82 43.19 41.45 43.94 47.86 47.28 46.41 46.72 48.28 47.34 47.35 45.78 43.01 44.20 47.24 48.39 50.33 51.18 48.06 50.38 49.19 46.18 39.29 38.33 38.46 37.81
51.15 51.21 51.31 51.45 51.23 51.23 51.12 51.12 50.85 50.70 50.82 51.01 50.27 50.88 50.88 50.24 53.74 53.96 48.81 43.36 32.12 38.23 39.92 46.18 45.30 47.30 43.93 46.50 46.10 46.87 46.20 44.53 48.19 47.43 45.18 42.29 40.82 47.76 50.62 48.53 46.96 47.18 46.48 40.81 30.68 35.72 38.69
51.10 51.32 51.23 51.12 51.13 50.94 50.81 50.90 50.84 50.40 50.16 50.16 50.13 49.91 49.10 50.54 53.37 52.79 41.49 32.93 35.82 39.56 43.18 42.66 45.42 43.65 44.13 45.50 45.61 45.74 45.30 44.85 46.98 48.00 42.76 42.85 43.15 49.89 50.18 50.52 49.86 46.69 43.90 48.83 42.55 44.04 40.10
50.88 51.05 51.09 50.88 50.90 50.90 50.63 50.61 50.70 50.47 50.17 50.01 47.75 46.16 46.64 51.33 53.05 47.78 37.87 34.08 40.02 43.30 43.53 44.18 40.28 44.23 42.28 44.68 43.31 44.66 44.64 47.15 46.49 48.92 50.03 47.07 42.32 47.49 48.92 50.53 50.51 48.65 50.61 43.10 44.04 34.96 33.55
50.17 50.48 50.69 50.81 50.71 50.67 50.61 50.65 50.55 50.43 50.26 49.91 46.41 40.46 47.78 50.69 51.68 41.15 31.48 37.15 41.92 45.19 45.06 42.01 42.39 41.99 43.53 44.21 45.00 43.55 44.67 47.22 48.64 48.28 49.49 47.99 45.62 45.07 48.60 46.56 45.58 46.47 45.91 46.58 45.93 43.63 36.54
49.39 49.63 49.88 50.36 50.50 50.57 50.72 50.49 50.45 50.31 49.99 48.12 43.25 35.68 48.71 50.73 37.01 38.19 33.03 39.97 42.40 44.65 46.41 44.81 46.63 45.66 43.94 44.91 44.42 44.07 43.81 46.93 50.11 49.73 45.67 48.35 46.40 42.30 44.63 49.08 50.25 48.68 47.00 47.11 41.95 40.05 42.89
49.16 49.13 50.05 50.21 50.18 50.34 50.45 50.37 50.31 50.05 49.91 45.72 38.46 39.27 50.54 48.30 31.20 35.60 38.68 38.88 41.83 42.10 43.77 43.59 43.62 47.10 48.19 45.60 42.62 45.99 46.10 49.61 50.31 49.18 47.65 49.20 45.21 40.10 41.58 46.04 48.90 46.72 48.53 48.20 47.78 46.62 41.21
47.54 47.97 47.98 49.18 49.70 49.65 49.78 49.89 49.96 49.99 49.92 46.22 39.12 33.09 40.44 42.25 42.33 39.02 37.00 37.67 36.89 43.34 43.18 45.16 44.10 46.28 45.65 44.90 47.61 44.40 45.75 48.85 50.40 49.86 48.36 49.95 45.99 42.48 39.19 42.49 46.11 43.48 45.31 46.84 45.86 42.45 41.92
47.73 47.77 47.64 47.58 48.24 48.77 48.59 49.49 49.76 49.95 49.65 45.74 39.48 37.18 39.26 32.07 36.31 39.91 40.10 38.86 36.91 36.99 43.59 45.44 43.44 43.12 43.90 41.57 43.00 44.03 46.45 47.84 48.03 47.86 49.03 49.25 43.46 44.64 45.16 45.68 45.74 45.27 45.14 45.58 44.25 45.05 41.96
46.79 46.79 47.00 47.24 47.36 47.65 47.97 48.00 48.69 49.81 49.41 43.35 34.84 39.31 41.44 39.64 39.17 38.47 38.37 37.51 37.50 39.42 40.85 41.39 41.48 43.95 44.78 42.33 43.92 42.46 45.44 46.22 44.93 47.63 47.03 49.57 43.20 44.96 42.50 45.20 44.88 43.26 45.03 45.06 45.18 45.43 45.22
46.57 46.71 46.64 46.85 47.27 47.77 47.88 47.67 48.13 49.85 48.88 41.72 41.56 46.21 42.50 39.27 37.65 37.26 38.52 38.69 38.57 41.44 43.17 44.52 43.85 43.87 43.69 45.69 47.00 49.12 49.74 48.23 48.46 47.22 46.41 46.39 44.97 42.61 38.66 44.10 43.92 39.77 43.76 44.68 45.60 46.74 46.41
46.48 46.25 46.72 46.94 46.90 47.40 47.75 47.68 47.68 48.27 48.72 43.39 44.40 44.56 40.48 35.19 37.73 38.10 38.96 40.40 39.69 40.80 40.61 43.52 45.25 44.08 47.87 51.83 50.84 49.41 46.83 47.27 46.70 47.08 48.71 45.48 44.71 44.60 39.82 41.25 33.52 43.99 48.85 48.46 46.33 47.30 48.76
47.18 47.61 47.81 47.74 47.15 47.06 47.21 47.23 47.42 47.74 49.21 44.17 46.60 44.84 41.60 37.77 39.32 38.93 39.51 39.97 41.42 42.24 41.42 42.67 44.87 48.00 50.37 49.02 43.13 38.63 39.18 41.26 43.49 45.91 45.73 47.76 45.56 41.76 38.45 38.67 41.78 44.01 46.73 47.00 46.04 45.58 49.62
47.35 47.28 47.32 47.53 47.23 46.72 46.54 47.04 47.12 47.14 48.75 45.63 46.94 49.31 44.90 40.02 38.33 42.10 39.78 41.61 38.95 39.63 41.48 42.62 48.09 50.76 50.23 44.99 40.80 34.29 32.12 37.29 36.08 39.11 44.25 45.94 48.31 44.50 40.93 36.11 33.24 43.61 48.69 51.57 50.71 42.72 50.43
47.00 46.63 46.79 47.02 46.77 46.88 46.18 46.80 47.00 47.15 48.22 45.79 46.35 49.88 46.31 40.63 43.07 43.39 40.39 40.08 43.06 41.64 40.51 43.76 44.46 46.67 50.13 43.04 38.51 35.72 34.87 41.03 34.41 37.16 36.77 39.64 40.95 40.25 40.21 38.81 42.33 48.01 50.18 51.96 41.81 43.51 51.84
45.69 46.35 46.78 46.97 46.00 46.16 46.46 46.43 46.43 44.96 47.43 46.02 45.80 51.11 47.43 42.53 43.68 44.33 46.26 43.62 43.28 43.69 39.69 44.01 43.25 45.02 42.98 40.55 40.07 38.96 39.86 40.88 38.50 41.03 40.72 37.83 38.85 39.71 41.68 38.97 36.73 50.57 50.05 45.68 50.56 54.19 53.58
46.12 45.89 46.28 46.09 46.11 46.14 46.31 46.42 46.55 47.18 46.79 46.98 43.50 50.57 50.83 45.50 43.10 48.64 49.28 49.69 49.05 47.45 45.43 46.52 44.71 45.18 46.02 42.63 43.96 43.02 43.76 43.72 41.12 36.12 44.84 37.90 42.96 42.59 44.65 44.61 51.50 52.42 52.22 53.82 54.30 53.35 54.40

GFSGBSN_sfc_wetblb_042.txt.gz
Wetbulb
53.59 53.85 53.87 53.81 54.23 54.32 55.83 55.54 55.58 55.20 54.49 54.16 54.55 54.77 54.87 54.85 55.01 55.26 55.35 55.82 56.61 57.79 58.15 58.34 58.04 57.83 56.12 53.13 53.69 61.64 62.06 60.60 57.44 55.88 55.20 51.73 50.48 50.12 48.48 50.49 50.35 48.62 49.53 51.15 52.17 52.88 52.49
52.73 52.71 52.99 53.52 53.70 53.56 53.73 54.13 54.89 54.99 54.54 54.35 53.53 54.23 54.76 55.01 55.01 55.25 55.00 54.95 55.33 56.30 57.21 57.83 57.59 56.44 54.42 47.17 58.85 62.77 61.81 57.88 56.72 54.99 54.34 53.66 52.62 54.25 51.67 51.12 49.45 51.50 51.06 50.60 52.75 52.14 53.40
52.85 52.68 53.40 53.62 53.85 53.80 53.23 53.72 53.82 54.52 54.86 54.27 54.20 54.02 53.95 54.50 54.84 54.88 54.77 54.85 54.95 55.53 56.77 57.37 57.03 56.26 52.45 51.00 58.43 58.07 60.41 57.70 56.95 55.81 54.06 55.91 55.85 53.56 53.06 50.90 52.72 51.02 47.85 49.91 51.98 52.96 52.64
52.80 52.72 52.91 53.25 53.34 53.30 53.64 53.70 53.68 53.97 54.53 54.82 54.29 54.10 53.56 53.32 53.44 53.75 54.19 53.95 54.05 55.39 56.62 57.11 56.21 55.21 49.34 58.36 59.27 57.42 58.92 58.17 57.55 57.34 56.49 57.32 56.79 53.89 52.56 53.81 51.49 48.44 48.17 44.59 51.13 53.02 53.02
52.22 52.70 52.82 53.28 53.03 53.00 52.86 53.38 53.67 53.53 53.99 54.35 54.28 53.60 53.39 52.88 52.34 52.97 53.43 53.08 52.96 54.71 56.63 56.32 54.23 53.63 47.87 57.58 54.44 55.84 57.75 56.16 55.45 55.91 57.04 56.79 54.95 51.92 51.80 48.03 45.38 46.79 42.43 45.13 48.05 51.84 52.30
51.85 52.32 53.08 53.15 52.97 53.08 53.18 53.19 53.20 53.46 53.63 53.69 54.07 54.07 53.38 53.06 52.75 52.57 52.76 52.11 53.91 55.60 56.66 57.50 56.22 50.12 52.78 50.30 53.84 55.12 56.60 57.88 54.34 53.93 53.23 52.68 50.91 47.73 48.37 46.21 39.74 42.57 43.81 45.70 46.49 50.25 50.73
51.64 51.66 51.74 52.61 52.76 53.03 52.38 52.95 53.01 52.85 53.19 53.30 53.24 53.30 53.76 53.10 52.98 52.53 51.91 53.52 52.44 53.21 55.14 51.40 51.58 48.97 52.88 55.23 55.53 52.48 54.66 56.65 55.46 52.16 47.16 50.13 45.71 43.04 46.26 48.29 47.46 46.31 45.71 45.13 48.95 51.53 49.81
51.89 51.44 51.60 51.71 52.85 52.97 52.31 52.85 52.29 52.74 52.66 52.80 53.09 53.35 53.60 53.40 52.81 52.76 51.79 49.76 51.34 54.95 47.47 51.91 50.48 51.21 53.99 55.24 50.01 52.67 54.34 52.53 51.27 46.89 49.35 47.26 44.36 49.01 50.20 49.62 47.55 46.47 44.45 44.93 47.46 50.38 48.56
51.86 52.05 51.65 51.74 51.94 52.63 52.51 53.00 52.64 52.20 52.65 52.20 52.34 52.61 52.90 52.90 52.72 50.93 49.64 50.70 56.94 57.49 47.16 47.07 49.12 48.93 50.49 52.96 49.86 50.64 52.69 52.20 49.41 47.16 47.51 44.80 47.73 51.45 49.30 47.43 45.62 45.20 44.10 44.86 45.26 48.16 49.42
51.51 51.46 51.76 51.44 51.82 52.15 52.17 52.16 52.13 52.05 52.34 52.21 51.92 51.97 51.24 51.94 48.31 51.40 49.17 55.29 57.05 57.83 41.07 40.85 44.76 50.66 51.30 52.07 47.79 52.91 54.30 51.82 49.51 46.11 47.68 47.43 50.47 49.26 48.27 46.49 46.50 42.21 47.36 47.13 46.40 44.98 40.30
51.30 51.36 51.51 51.82 51.90 51.90 51.94 51.98 52.05 52.23 51.96 51.90 51.78 52.02 50.71 51.00 49.86 50.64 54.36 56.42 59.02 56.65 26.41 43.71 47.52 55.51 53.39 49.54 49.62 49.75 53.85 52.47 47.29 47.12 48.33 46.22 47.63 47.28 46.58 45.81 47.24 44.74 49.48 47.94 47.08 44.31 44.74
50.86 51.15 51.55 51.80 51.70 51.62 51.72 51.70 51.70 51.72 51.57 51.69 51.63 51.89 51.14 49.18 49.89 51.70 55.60 55.14 56.12 38.63 27.96 41.33 49.21 47.80 47.59 49.50 49.04 50.85 49.93 52.94 52.41 48.21 49.19 48.15 51.70 49.96 49.31 49.05 49.09 50.14 48.37 48.10 47.12 44.63 38.39
50.35 50.93 51.35 51.43 51.60 51.47 51.70 51.60 51.33 51.33 51.29 51.46 51.30 51.72 50.88 49.88 46.06 53.42 54.03 50.85 37.89 30.19 41.02 38.84 43.93 47.64 46.34 46.02 46.52 47.60 46.58 45.62 44.20 41.19 42.54 46.10 46.98 50.25 50.63 46.75 49.28 48.21 45.16 38.13 36.68 36.97 36.46
50.14 50.41 50.81 51.35 51.48 51.54 51.50 51.54 51.17 51.17 51.19 51.12 50.65 50.43 50.47 49.21 51.14 52.49 51.18 42.80 29.18 35.55 38.01 45.64 44.92 45.35 44.07 46.37 46.10 45.86 45.16 43.33 47.32 46.02 42.88 41.02 39.62 46.80 49.86 47.70 46.07 46.05 44.99 39.17 31.13 31.62 37.05
50.24 50.22 50.41 50.73 51.25 51.48 51.36 51.32 51.22 50.97 50.89 50.94 50.32 49.13 48.31 50.11 52.25 50.87 42.43 32.06 32.73 36.60 40.99 40.02 43.01 41.68 42.95 45.89 45.54 44.72 44.38 44.39 46.25 47.13 41.61 41.34 41.91 48.86 49.70 49.62 49.07 46.02 42.75 47.45 40.14 40.09 36.15
50.15 50.21 50.29 50.19 50.50 50.90 51.15 51.18 51.09 50.97 50.83 50.62 47.77 44.87 45.35 50.45 52.68 47.41 37.46 32.19 36.62 41.20 41.90 42.34 37.59 40.88 40.24 43.82 43.20 43.53 43.15 46.55 45.78 48.62 49.16 46.09 40.71 47.42 48.63 49.95 49.53 47.13 49.45 42.44 43.20 34.07 32.49
49.15 49.48 49.69 49.97 50.07 50.42 50.82 51.10 51.04 50.93 50.83 50.48 45.60 39.81 46.67 50.06 50.67 40.66 30.61 34.55 38.46 42.63 43.04 40.04 39.32 38.89 40.85 42.45 44.75 42.93 43.25 46.28 48.24 47.59 48.76 47.72 44.85 44.03 48.02 45.44 43.92 45.03 43.72 45.82 45.77 43.21 35.91
48.36 48.67 49.08 49.39 49.81 50.18 50.70 50.98 51.00 50.87 50.48 48.80 43.18 34.12 47.84 49.94 36.69 37.26 33.46 36.89 41.20 41.48 43.48 42.70 43.41 42.03 40.94 43.04 42.70 43.80 43.72 46.11 49.72 49.39 45.62 48.11 45.96 40.39 43.20 48.37 49.27 47.51 45.72 45.73 40.43 39.07 42.57
47.99 48.37 48.86 49.17 49.52 49.60 50.01 50.40 50.85 50.55 50.43 46.41 38.81 38.84 47.83 47.34 29.95 31.22 36.96 37.70 39.07 39.74 40.67 41.13 41.23 43.65 44.84 42.97 41.15 44.14 45.80 50.90 50.59 49.34 46.76 48.39 43.31 37.51 40.43 45.43 48.11 44.98 46.16 47.28 46.80 46.05 41.18
47.65 47.84 48.49 49.12 49.63 49.59 49.60 49.95 50.25 50.34 50.50 46.90 39.10 32.29 39.86 41.78 41.54 35.85 34.91 36.09 35.95 41.25 40.82 41.98 42.15 44.30 42.84 41.84 45.12 43.27 45.35 49.14 51.87 50.05 47.58 49.43 45.45 41.66 37.02 41.22 45.76 43.22 44.95 47.07 46.23 40.24 40.45
47.58 47.99 48.31 48.65 47.95 47.91 48.56 49.65 49.79 50.29 50.16 46.54 39.30 35.37 39.64 32.49 34.67 37.98 38.15 37.67 35.45 35.96 40.42 42.31 40.86 41.79 41.89 39.43 41.83 41.20 43.79 46.79 49.00 49.09 49.59 49.49 42.14 43.91 44.99 45.56 45.46 45.23 44.44 44.65 44.23 45.29 41.38
47.33 47.67 47.41 47.69 47.97 48.03 48.23 48.78 50.08 50.22 50.21 44.11 33.80 37.38 41.32 38.88 38.72 37.24 37.44 36.25 36.14 38.44 39.01 37.21 39.14 41.08 43.01 40.90 42.43 39.32 43.05 44.29 44.71 48.29 47.30 49.36 42.15 44.45 42.29 45.36 44.65 42.65 45.03 45.70 45.18 45.00 44.67
47.23 47.02 46.98 47.14 47.52 47.83 47.93 48.25 48.03 49.47 49.51 43.63 42.15 43.84 41.62 37.68 37.71 35.06 36.01 37.91 38.32 40.53 41.77 41.91 41.99 41.26 41.00 43.34 46.58 48.82 47.70 46.71 45.12 43.74 45.85 45.40 43.95 41.83 38.01 43.99 42.88 37.09 42.93 44.26 45.65 46.79 45.64
46.36 46.66 46.88 46.88 47.00 47.41 47.48 47.53 47.98 48.12 49.08 43.12 40.76 44.00 38.40 34.29 37.43 36.49 38.10 38.93 38.91 40.41 39.54 42.22 43.34 42.06 46.21 50.55 50.30 48.63 46.36 45.08 44.50 44.11 48.57 44.81 43.88 42.87 37.88 39.33 30.95 42.89 48.22 47.39 45.49 46.13 47.29
46.59 46.87 47.29 47.20 47.14 46.93 46.88 47.14 47.31 47.82 48.48 45.83 43.66 42.95 39.47 35.36 38.64 38.54 38.22 38.95 40.45 42.50 40.93 41.53 44.12 46.11 49.64 47.78 43.89 38.76 37.49 36.60 39.07 43.23 44.83 46.61 43.86 39.47 36.50 35.89 40.42 42.60 45.77 45.40 44.43 44.02 48.76
47.18 47.59 47.76 47.63 47.13 46.94 46.67 46.71 46.91 47.32 47.82 45.78 43.50 46.47 42.97 37.68 37.69 41.22 38.99 40.05 37.32 39.02 40.04 42.79 46.90 49.71 49.25 43.34 36.81 33.26 29.69 34.72 33.81 38.05 44.70 42.76 43.63 39.28 39.49 34.04 31.41 42.43 47.62 49.86 49.22 39.90 50.12
46.93 47.00 47.07 47.37 47.39 46.88 46.85 46.83 46.78 47.08 47.68 46.47 43.46 47.00 44.43 38.87 42.90 43.29 39.22 39.29 42.91 41.04 39.96 41.86 44.01 44.05 48.67 39.88 36.29 34.02 33.77 39.17 33.35 33.85 36.01 37.17 38.30 35.84 37.86 36.26 41.01 47.38 48.82 49.72 38.73 41.95 52.25
46.49 46.91 46.84 46.91 47.18 47.05 47.16 46.62 46.76 46.86 47.39 45.71 43.53 47.89 45.23 41.31 42.96 43.93 44.70 43.36 42.74 43.03 39.04 43.04 41.44 43.58 42.36 35.73 37.12 37.24 36.15 38.09 36.71 39.79 39.53 37.23 35.44 36.44 38.89 36.45 33.59 49.97 48.94 43.43 49.31 51.37 54.24
46.19 46.08 46.68 46.54 46.31 46.66 46.86 46.73 46.69 46.76 47.02 46.17 42.45 48.51 50.03 45.36 43.49 48.36 48.16 48.19 45.42 46.09 44.80 45.01 43.52 43.36 43.54 40.59 38.97 41.40 39.14 41.38 39.17 33.87 43.38 37.56 40.80 38.63 40.77 41.29 45.14 47.65 49.52 52.76 54.33 53.45 54.50

GFSGBSN_sfc_wetblb_045.txt.gz
Wetbulb
53.03 53.17 53.31 53.40 53.63 54.05 54.20 54.33 54.97 55.45 55.17 54.67 53.37 54.03 54.42 54.56 54.96 55.13 54.89 54.62 54.87 55.30 55.99 56.78 57.84 58.46 54.23 50.05 51.22 59.59 61.75 60.55 56.12 54.13 52.12 50.72 47.43 45.92 43.35 45.31 47.20 44.54 45.88 47.94 48.51 49.07 48.86
52.96 52.90 53.16 53.10 53.22 53.26 53.34 53.66 54.34 53.95 54.02 54.65 54.42 53.51 53.31 54.33 54.37 54.15 54.43 54.18 54.32 54.48 55.11 56.19 57.54 57.31 52.17 45.23 56.31 61.30 58.89 55.74 54.44 51.76 50.53 51.56 48.83 48.77 48.43 47.95 45.76 47.86 47.32 47.48 48.41 48.74 50.78
52.94 53.15 53.19 53.63 53.14 53.44 53.30 54.02 54.07 53.92 54.02 54.19 54.43 54.34 53.72 53.25 53.79 53.47 53.44 53.59 53.64 53.93 54.34 55.66 56.98 55.79 50.35 48.18 56.30 56.27 57.12 56.03 53.89 53.21 50.46 52.60 52.17 49.55 49.07 46.99 50.92 49.68 44.48 45.92 47.02 50.67 50.66
52.42 52.50 52.61 53.43 53.34 53.39 53.43 53.27 53.65 53.80 53.92 54.20 54.60 54.43 53.75 53.35 53.16 52.98 52.78 52.74 53.02 53.54 53.79 55.00 57.13 52.74 46.71 56.09 55.77 55.71 56.02 54.72 56.39 54.35 53.61 53.81 53.79 50.50 48.92 49.76 48.19 44.72 43.88 38.40 45.68 49.93 50.05
52.16 52.22 52.34 53.18 53.06 52.99 53.12 53.22 53.12 53.47 53.65 53.55 54.01 53.79 53.68 53.45 53.04 52.73 52.67 52.77 52.63 53.51 54.21 54.90 51.67 49.48 46.18 56.41 52.34 55.27 54.73 53.42 55.84 54.75 52.86 55.27 52.58 47.42 47.64 42.29 39.68 41.27 36.94 39.22 44.60 50.08 49.38
51.82 51.93 52.34 52.95 52.86 52.84 52.97 53.11 53.18 53.28 53.36 53.39 53.62 53.66 53.02 52.90 52.90 52.59 52.19 52.19 52.33 53.19 54.88 56.51 54.34 46.99 51.32 48.12 53.30 54.20 54.40 54.14 54.16 51.59 50.26 49.35 46.17 42.41 41.35 38.67 33.47 37.64 38.54 38.36 41.51 46.26 47.54
51.31 51.42 51.66 52.09 52.68 52.57 52.23 52.63 52.82 52.68 53.13 53.09 53.37 53.17 53.43 52.82 52.98 52.63 50.71 47.51 47.11 48.22 51.21 49.08 48.47 46.73 50.29 54.11 56.01 51.93 53.87 51.63 53.22 48.53 42.96 46.29 40.16 37.71 39.66 42.46 44.56 43.69 41.81 40.56 43.61 48.25 46.87
51.10 51.33 51.70 51.95 52.16 52.25 52.44 52.85 52.71 52.47 52.65 52.98 52.84 52.59 52.90 53.15 53.31 52.63 49.09 43.89 47.61 47.62 43.25 51.96 52.94 53.09 54.44 54.80 49.29 50.99 51.76 47.36 48.66 43.86 45.06 43.17 39.51 43.99 46.23 45.70 44.97 44.67 41.44 39.71 45.12 49.70 46.17
51.67 51.52 51.38 51.85 52.04 52.19 52.24 52.66 52.51 52.36 52.55 52.46 52.50 52.28 52.40 52.14 52.59 49.18 45.27 45.70 50.83 48.62 42.29 45.34 49.50 47.66 48.00 48.79 45.28 47.06 49.62 47.64 47.03 44.58 44.04 40.75 43.71 47.67 46.32 45.44 44.39 43.44 40.55 40.52 41.87 45.35 46.46
51.04 51.23 51.50 51.56 51.55 51.96 52.17 52.25 52.30 52.27 52.17 52.07 51.92 51.91 51.51 50.92 47.23 46.16 44.30 52.82 53.73 51.49 38.02 39.21 42.16 45.88 47.60 48.10 44.91 50.40 52.16 48.05 47.23 44.24 45.02 43.46 47.37 46.16 45.35 44.90 44.77 39.20 44.49 45.10 44.41 41.17 36.08
50.37 50.71 51.26 51.72 51.74 51.66 51.47 51.80 51.97 52.21 52.09 52.07 51.85 51.82 51.27 50.84 46.22 44.38 49.18 51.34 52.00 52.08 17.92 39.91 43.39 49.61 48.36 44.67 47.31 47.65 51.94 48.00 43.91 44.60 44.42 42.23 44.06 44.30 43.94 45.41 46.88 42.91 46.95 45.32 44.93 40.80 37.72
50.03 50.17 50.69 50.99 51.22 51.37 51.33 51.46 51.76 51.79 51.72 51.84 51.66 51.70 51.13 47.74 46.86 47.52 50.36 50.87 50.33 35.20 25.91 38.31 47.29 46.21 45.91 45.19 45.97 48.00 47.33 48.83 48.83 45.40 45.58 44.29 48.42 46.94 45.94 48.53 47.88 47.08 46.34 45.05 43.57 39.83 31.20
49.44 49.74 50.25 50.43 50.95 51.16 51.45 51.37 51.35 51.59 51.52 51.46 51.60 51.52 50.17 48.26 41.67 48.39 50.95 47.31 34.23 27.13 38.28 35.72 42.96 45.85 44.47 43.66 44.50 44.85 43.58 41.56 39.43 37.65 38.32 43.22 44.08 47.55 48.60 44.83 46.65 44.52 40.75 33.04 30.49 29.34 28.85
49.04 49.41 49.69 50.09 50.29 50.49 50.99 51.21 51.30 51.39 51.35 51.34 50.91 50.66 49.76 48.27 47.35 49.19 48.15 39.70 27.40 32.62 33.77 41.17 41.12 41.84 41.28 43.48 43.76 44.48 42.68 39.58 42.57 42.18 38.50 36.66 35.11 44.16 47.73 45.26 42.51 42.16 40.54 32.22 26.14 27.05 33.22
49.02 49.21 49.27 49.47 50.04 50.41 50.79 51.01 51.10 51.13 51.21 50.95 50.70 48.16 46.66 47.51 47.63 48.78 42.00 30.85 28.35 33.32 37.51 35.93 37.39 35.53 40.02 43.60 43.31 43.10 41.13 40.48 42.78 43.47 37.83 36.73 37.77 46.57 47.41 47.87 46.04 43.37 38.96 43.29 37.84 38.59 32.68
48.50 48.63 49.01 49.14 49.64 50.02 50.34 50.55 50.98 51.27 51.15 51.00 46.82 45.16 43.89 48.20 47.41 45.55 36.98 31.31 33.85 39.83 39.22 38.03 32.73 37.31 35.17 39.70 40.56 41.01 40.46 43.69 43.02 45.63 46.45 41.97 36.89 45.21 47.41 47.40 46.63 44.71 46.73 38.32 39.23 29.96 28.32
48.08 48.53 48.53 48.88 49.28 49.53 49.87 50.31 50.65 51.06 51.13 50.79 45.70 39.86 44.59 47.81 48.00 39.36 29.98 31.74 35.12 40.71 41.32 37.51 34.92 34.49 35.57 36.02 37.95 39.67 41.52 44.75 45.32 45.40 46.62 44.25 40.55 40.33 46.03 42.81 41.33 42.05 40.57 41.54 42.72 39.83 30.62
47.65 47.76 47.87 48.29 48.90 49.35 49.57 50.03 50.48 50.71 50.93 49.11 43.50 34.15 44.91 46.92 35.90 35.63 31.09 34.25 39.09 38.36 41.04 39.09 39.31 37.96 36.38 37.42 36.15 37.38 40.66 44.30 47.85 46.74 42.88 45.19 41.11 35.77 40.13 46.45 47.66 45.32 42.17 41.74 34.56 35.00 36.14
47.18 47.43 47.76 48.33 48.54 48.69 49.07 49.58 50.09 50.47 50.60 46.82 39.19 38.57 45.96 44.30 29.61 30.19 33.96 34.18 36.00 35.93 37.58 38.38 37.09 39.15 39.72 37.19 34.13 40.35 43.69 48.16 48.58 47.23 43.66 44.60 40.05 33.13 37.68 42.17 44.77 42.46 43.25 43.62 42.79 40.34 35.94
47.07 47.06 47.50 47.94 48.27 48.44 48.85 49.12 49.71 50.21 50.64 47.65 38.19 32.09 39.19 40.98 37.58 33.45 31.14 32.12 32.21 38.70 37.47 38.21 37.59 39.58 37.05 35.51 39.46 39.27 41.72 46.72 47.60 47.39 46.33 46.67 41.66 37.82 32.97 37.59 42.07 39.83 42.72 43.67 41.80 33.66 35.04
46.53 46.88 47.12 47.50 47.91 48.27 48.48 48.82 49.48 49.80 50.10 47.36 38.04 33.62 37.21 32.42 33.41 34.30 34.11 33.91 32.57 32.06 37.68 38.83 35.54 36.24 35.93 32.81 35.73 36.38 42.34 43.65 45.21 46.10 46.80 45.50 38.64 40.29 41.47 43.24 43.50 43.57 43.11 42.64 40.89 41.58 38.32
46.41 46.69 46.95 47.64 47.95 48.16 48.67 48.74 48.83 49.41 49.76 45.55 32.49 35.81 38.18 35.09 37.04 34.18 34.52 31.93 32.16 35.11 35.22 35.09 34.33 36.46 37.19 34.23 35.64 35.16 40.38 42.31 41.50 45.22 43.13 44.97 37.70 40.22 37.74 42.01 43.17 40.76 42.88 43.11 43.06 42.53 43.12
46.50 46.81 47.25 47.50 47.66 48.35 48.86 48.47 48.28 48.65 49.00 43.93 42.18 41.07 38.84 35.77 35.14 33.72 32.22 33.04 33.68 36.13 37.74 39.36 38.20 36.26 35.22 38.20 40.66 43.04 44.86 45.28 45.06 42.39 40.92 40.36 38.66 36.53 33.64 39.51 39.65 34.09 40.08 41.94 42.64 44.61 43.67
46.75 47.11 47.23 47.24 47.33 47.71 47.88 47.88 48.03 48.15 47.96 45.12 43.45 41.46 36.19 33.00 33.51 33.58 34.93 35.45 34.83 37.35 34.90 39.21 40.43 37.17 39.94 44.16 47.42 45.79 43.88 44.21 44.38 43.66 44.14 39.44 38.48 37.30 30.31 35.26 28.81 39.88 45.75 44.83 42.82 44.18 44.84
46.24 46.43 46.98 46.89 46.95 46.96 46.98 47.17 47.31 47.79 48.16 45.01 43.21 41.65 37.69 32.38 34.75 35.28 35.33 35.39 37.16 38.30 37.94 38.58 41.07 43.07 43.40 41.05 39.34 35.29 31.43 35.23 38.23 41.94 42.27 42.05 38.14 34.17 31.63 32.46 36.76 40.30 42.74 42.03 40.93 40.63 45.35
46.44 46.57 46.99 47.07 47.06 47.02 46.95 46.77 46.94 47.32 48.07 45.11 41.19 44.88 41.68 35.06 34.37 38.33 35.99 37.16 33.90 34.31 34.94 37.14 43.01 43.88 41.50 37.08 33.86 27.82 26.23 32.48 32.31 35.52 42.11 41.09 38.87 33.89 31.65 29.67 28.33 38.00 44.55 47.40 46.07 36.01 45.81
47.02 47.05 47.03 47.14 47.00 46.76 46.89 46.85 46.80 47.03 47.58 45.88 43.00 43.86 41.90 36.20 39.16 39.99 35.97 35.76 39.13 37.18 34.73 37.16 38.99 38.77 41.13 32.83 30.11 30.36 28.12 36.87 30.83 30.27 32.44 32.88 31.93 31.57 30.70 31.61 33.78 43.61 46.48 47.92 35.68 36.32 46.99
46.80 46.92 46.87 46.96 46.89 47.17 47.24 46.97 46.81 46.80 47.22 45.71 43.59 44.86 40.93 34.61 39.43 43.33 43.33 39.36 39.66 39.28 34.07 37.05 37.64 38.33 34.82 30.97 30.59 30.35 27.13 33.50 33.45 35.68 36.17 34.00 32.30 31.87 33.98 31.06 29.19 45.04 46.08 40.06 42.57 47.15 48.81
46.61 46.70 46.43 46.52 46.47 46.48 46.69 46.73 46.76 46.83 46.89 46.65 41.33 45.04 44.38 40.50 41.20 46.47 46.91 46.92 45.62 45.15 42.04 40.65 38.43 37.97 38.04 33.96 33.27 33.63 28.08 33.00 33.21 29.08 39.34 33.09 37.03 35.31 37.06 35.95 44.08 45.12 46.47 47.31 47.27 46.20 49.83

GFSGBSN_sfc_wetblb_048.txt.gz
Wetbulb
53.37 53.29 53.27 53.49 53.32 53.41 53.15 53.45 54.30 54.62 54.71 54.21 54.32 54.95 54.75 54.51 54.59 54.29 54.00 53.76 54.11 54.21 53.95 54.27 55.11 57.20 54.23 48.88 49.26 57.33 61.11 60.36 55.48 52.57 50.17 49.01 47.05 43.80 41.40 42.77 44.18 43.32 44.72 46.57 47.12 48.96 50.90
52.96 53.30 53.46 53.53 53.35 53.26 53.23 53.25 53.57 54.18 54.17 54.32 54.40 54.60 54.70 54.62 54.34 54.10 53.80 53.37 53.17 53.57 53.96 53.85 54.32 56.74 51.14 43.59 52.79 56.15 57.60 54.81 52.61 49.90 49.10 49.69 48.85 47.12 44.42 45.48 43.94 46.78 46.95 45.89 46.79 46.46 51.12
52.51 52.66 52.86 53.47 53.75 53.28 53.01 53.44 53.90 53.81 53.79 54.13 54.17 54.39 54.62 54.42 54.35 54.01 53.78 53.37 53.04 53.14 53.74 53.48 54.12 54.27 48.85 46.28 53.56 53.11 54.69 53.27 52.14 51.71 48.51 50.48 50.94 47.06 47.69 45.32 48.78 47.69 43.07 44.65 45.39 44.99 48.30
52.47 52.42 52.59 53.15 53.39 53.30 53.34 53.34 53.54 53.55 53.52 53.73 53.83 53.90 53.86 53.65 53.49 53.45 53.43 53.01 53.08 53.31 53.44 53.96 53.94 52.83 44.92 54.77 53.62 53.50 53.78 53.05 54.44 53.74 52.46 52.32 51.54 49.21 46.89 47.79 46.23 42.93 41.73 37.14 43.89 45.18 48.68
51.92 52.04 52.24 53.05 53.05 53.04 53.03 53.15 53.15 53.03 53.32 53.45 53.49 53.63 53.79 53.16 52.76 52.62 52.79 52.99 52.85 53.14 53.66 54.32 51.84 48.93 43.90 56.26 51.99 54.28 53.51 51.28 53.09 54.21 52.40 54.03 50.20 46.57 46.07 40.76 37.53 38.73 34.79 37.55 40.82 46.23 48.06
51.22 51.61 51.62 52.06 52.97 53.04 52.99 53.22 52.94 53.27 53.06 53.32 53.41 53.26 53.49 53.08 52.73 52.46 52.40 52.37 51.99 52.66 52.00 55.14 54.34 46.50 48.72 46.27 51.38 52.46 52.72 53.11 50.43 51.92 50.24 47.62 44.89 41.63 39.46 36.92 31.19 34.81 35.93 34.94 37.89 44.49 46.90
50.86 51.33 51.47 51.52 52.28 52.03 52.38 52.75 53.04 52.91 52.95 53.16 53.14 53.28 52.99 52.85 52.48 52.55 50.56 46.56 43.05 45.62 48.65 48.05 47.88 46.88 47.33 52.94 55.73 51.13 52.47 51.04 49.62 47.54 41.71 44.95 39.63 36.88 38.37 40.02 41.49 41.03 39.20 38.00 40.72 46.22 46.01
50.28 50.24 51.28 51.51 51.85 52.16 52.52 52.80 52.98 52.72 53.08 53.14 52.83 52.95 52.85 52.72 52.27 52.42 49.00 42.70 43.83 43.27 37.93 46.45 49.29 50.77 52.50 53.60 49.46 51.87 51.05 45.61 45.40 41.92 43.09 40.78 38.07 42.98 43.99 43.29 41.86 41.03 39.23 39.34 41.49 46.34 45.89
49.44 49.74 50.32 50.85 51.34 51.75 52.24 52.55 52.64 52.43 52.41 52.47 52.49 52.35 52.46 51.94 51.55 48.77 45.65 45.11 49.31 48.70 39.59 43.49 47.21 47.69 49.28 51.39 48.33 48.62 47.45 45.52 44.52 42.66 41.66 38.99 41.97 46.02 43.99 42.31 41.06 41.08 39.48 39.68 39.38 43.44 42.88
49.07 49.75 50.07 50.31 50.96 51.33 51.87 51.93 52.27 52.31 52.22 52.13 52.19 52.02 51.53 50.94 46.45 45.87 43.91 49.54 49.08 49.71 35.84 37.89 42.11 44.46 47.18 47.30 42.21 49.25 47.75 45.74 43.74 42.78 43.40 41.21 45.19 44.02 42.93 41.75 42.40 38.05 44.62 42.83 42.47 39.18 34.05
49.00 49.61 49.80 49.50 50.25 51.10 51.38 51.90 52.11 51.94 51.98 52.12 52.01 52.09 51.42 51.10 43.85 42.77 47.32 48.69 50.91 46.51 17.16 36.89 42.00 49.27 47.65 42.68 43.91 44.39 48.49 46.05 41.48 43.73 43.47 40.70 42.10 42.29 41.43 42.46 44.49 41.70 45.49 43.63 42.78 38.67 35.93
48.66 48.73 48.75 49.36 50.14 50.71 50.97 51.28 51.53 51.53 51.63 51.90 51.89 51.85 51.45 48.02 45.72 45.76 48.36 48.76 48.26 35.12 22.09 36.81 43.73 41.86 41.06 42.41 44.07 46.15 44.74 47.56 46.33 42.91 44.02 42.70 45.73 43.74 43.07 45.86 45.86 46.87 44.13 43.06 41.43 38.13 30.66
48.27 48.29 48.17 48.94 49.51 50.10 50.46 50.97 51.07 51.25 51.33 51.55 51.51 51.64 50.37 48.15 40.48 45.25 47.19 46.20 32.56 23.69 36.43 34.29 40.85 44.58 42.04 38.92 40.81 42.71 41.34 39.91 37.62 34.70 35.49 40.64 42.13 45.32 46.00 42.39 44.94 43.11 38.85 31.76 30.17 29.19 28.53
47.70 47.97 48.01 48.47 49.28 49.75 50.13 50.49 50.34 50.59 51.05 51.35 51.05 50.94 50.01 48.33 45.94 45.66 45.63 39.69 26.43 31.64 32.27 39.77 38.84 38.93 39.69 41.75 40.93 41.52 39.54 36.29 39.87 38.94 36.14 34.42 32.28 42.08 45.44 43.18 41.03 40.45 38.94 31.20 25.39 26.63 31.07
46.76 48.01 48.09 48.81 48.97 49.42 49.72 49.84 50.22 50.34 50.78 50.84 50.58 48.28 46.64 46.23 46.09 46.08 39.12 30.24 29.94 32.75 36.88 35.16 36.61 33.48 33.45 41.41 41.50 41.28 38.97 38.74 40.00 40.69 35.44 34.32 35.26 44.35 45.06 45.56 44.26 40.45 36.39 41.52 35.75 36.41 30.92
46.37 47.52 47.86 48.18 48.72 48.90 48.95 49.52 49.74 50.23 50.66 50.78 46.83 45.37 44.24 46.30 46.14 43.92 35.03 30.37 33.33 38.03 38.86 38.10 31.17 35.10 31.98 33.74 36.59 37.68 38.22 41.82 41.58 43.42 43.58 39.98 34.14 42.74 44.59 45.08 44.75 43.11 44.36 36.47 36.37 28.85 26.32
47.32 46.92 47.78 48.02 48.13 48.07 48.66 49.06 49.53 50.07 50.58 50.79 46.07 39.97 45.40 47.06 47.21 37.90 28.44 30.18 34.34 39.27 39.50 36.30 34.71 33.24 33.93 33.89 36.15 35.49 37.07 42.21 43.51 43.50 43.83 41.54 38.06 38.70 42.81 40.55 40.04 39.91 38.86 40.25 40.14 35.97 28.69
46.75 46.80 47.32 47.43 47.86 48.36 48.54 48.99 49.67 49.92 50.25 48.87 44.05 34.41 44.74 46.81 34.52 35.20 28.95 33.64 38.02 36.54 39.65 37.27 37.77 36.74 34.86 35.84 34.77 34.93 36.25 40.71 47.24 46.25 39.81 42.36 38.82 34.03 37.62 43.79 45.25 42.98 40.76 40.51 34.42 33.35 34.03
46.34 46.69 47.10 47.48 47.83 48.09 48.26 48.49 49.21 49.77 50.13 46.56 39.69 38.11 45.24 42.87 29.26 30.48 33.67 32.77 35.62 35.11 36.07 36.32 35.76 36.99 37.56 35.13 31.25 36.25 38.76 44.99 46.11 45.81 41.57 43.66 37.14 29.75 33.76 39.35 42.68 40.39 41.69 41.81 40.62 37.71 33.10
46.00 46.38 46.86 47.45 47.69 47.94 48.04 48.49 48.84 49.22 50.03 46.71 36.12 31.83 38.49 39.56 36.45 32.13 31.00 30.66 30.93 37.07 35.32 36.23 35.12 36.71 34.62 33.56 36.36 33.51 35.35 42.38 46.38 46.38 46.27 45.99 40.06 35.60 31.73 35.69 40.05 38.35 41.42 41.93 40.23 30.72 32.33
45.70 46.32 46.64 46.85 47.31 47.52 47.73 48.12 48.55 48.90 49.56 46.42 36.18 33.55 37.21 31.62 32.34 33.60 33.92 33.55 30.65 30.12 36.45 37.53 34.46 33.95 33.20 29.67 31.78 32.08 36.25 41.20 45.15 46.30 46.35 45.17 36.88 38.40 39.32 41.05 42.06 41.07 41.57 41.65 39.22 38.56 34.47
45.89 46.17 46.24 46.67 47.14 47.22 47.58 47.93 48.12 48.57 49.19 44.06 32.57 34.70 37.57 34.06 36.26 33.79 33.11 31.21 31.13 32.54 34.14 32.32 32.01 35.22 34.57 31.31 32.70 30.89 34.47 35.96 39.94 44.95 43.09 44.08 37.10 38.03 35.60 40.40 40.52 39.35 41.43 42.22 42.29 41.10 39.66
46.02 46.25 46.39 46.48 46.82 47.35 47.77 47.90 48.12 48.53 48.44 42.28 42.89 40.51 38.74 35.86 34.29 33.39 31.44 31.52 32.85 34.98 36.11 36.96 35.72 34.21 33.42 35.29 38.31 39.43 39.70 41.03 43.36 42.91 41.04 40.96 38.23 35.32 30.22 37.42 38.07 32.54 39.09 40.90 40.55 41.66 42.35
45.81 46.30 46.76 46.93 47.23 47.48 47.92 48.09 48.29 48.34 48.09 45.38 43.82 41.88 36.14 32.03 32.55 32.50 34.34 35.14 33.59 35.39 32.94 36.57 37.70 34.99 38.67 42.37 44.04 43.40 42.11 42.03 42.49 43.39 44.47 38.47 36.35 36.54 30.43 32.42 28.45 39.07 43.67 43.36 41.67 42.67 42.69
46.09 46.67 47.22 47.19 47.20 47.34 46.95 47.40 47.24 47.73 48.70 45.95 45.34 41.80 37.66 32.03 34.08 33.63 34.43 34.60 35.49 36.21 35.49 36.09 37.98 40.52 41.78 38.47 34.05 33.05 29.25 32.73 36.31 41.14 42.26 42.07 36.92 31.94 30.11 30.69 35.52 38.53 41.77 40.68 39.98 40.45 44.19
46.22 46.44 46.60 46.67 46.65 46.56 46.56 46.72 46.94 47.05 48.13 45.63 44.47 44.82 41.16 35.19 33.42 36.99 34.14 35.65 32.44 32.40 33.19 35.49 41.08 41.82 39.20 35.13 31.73 26.03 24.98 30.03 30.67 34.79 42.40 39.50 39.13 34.10 31.50 27.82 26.75 36.30 42.76 46.41 44.23 33.40 43.68
46.32 46.67 46.83 46.95 46.94 46.62 46.49 46.62 46.81 47.03 47.58 45.96 42.79 44.50 40.80 34.20 36.94 38.68 33.98 34.33 37.06 34.73 32.32 34.80 36.55 36.83 39.71 29.55 27.11 24.81 25.19 35.31 28.51 29.02 32.51 32.06 31.94 30.28 30.31 29.59 34.03 41.37 44.09 45.75 35.30 35.17 44.62
46.75 47.17 47.14 47.00 47.10 47.10 46.89 46.80 46.76 46.95 47.24 45.54 42.85 43.33 39.72 32.96 36.86 41.14 41.42 36.72 37.31 36.92 32.11 35.23 35.38 34.94 33.09 28.92 27.81 26.94 24.23 31.65 30.52 34.09 33.01 31.26 30.58 29.69 31.83 30.63 28.10 44.97 43.64 38.52 41.78 44.16 45.63
46.52 46.64 46.73 46.77 46.85 46.96 46.87 46.73 46.90 46.97 47.03 46.58 40.90 43.30 43.97 38.35 37.38 44.84 45.57 44.53 43.49 42.68 39.19 38.00 36.22 36.47 37.39 32.95 30.98 30.41 27.19 25.58 29.54 26.55 36.89 31.68 35.22 32.77 35.64 34.02 43.77 45.82 44.22 47.21 46.51 44.77 46.31

GFSGBSN_sfc_wetblb_051.txt.gz
Wetbulb
53.41 53.54 53.59 53.66 53.64 53.37 53.16 53.36 53.63 54.12 53.67 53.59 53.67 53.82 53.65 54.10 54.18 55.02 54.36 54.01 54.00 53.98 53.76 53.31 53.86 54.43 53.09 47.14 47.74 54.42 60.61 59.92 54.79 50.53 48.23 47.52 45.25 42.84 40.22 41.17 42.05 40.77 43.26 45.42 45.67 46.56 48.16
52.17 52.69 52.94 53.00 53.14 53.22 53.42 53.03 52.87 53.56 53.64 53.93 54.01 54.15 54.22 53.84 53.85 54.38 54.17 53.89 53.66 53.78 53.91 53.41 53.67 54.04 50.13 41.77 50.66 54.12 56.50 54.15 50.85 48.91 48.28 48.00 45.79 46.26 43.19 42.39 42.97 45.19 45.07 45.15 44.91 48.59 51.24
51.96 52.32 52.41 53.08 53.06 53.04 52.95 53.47 52.89 52.86 53.25 53.31 53.52 53.58 53.84 54.05 54.19 53.97 53.45 53.18 53.12 53.41 53.70 53.64 53.37 51.66 47.48 43.62 52.20 51.51 51.60 51.00 50.64 49.81 47.11 48.46 48.94 45.90 45.65 43.75 47.05 45.69 41.47 42.89 43.83 45.02 47.34
51.46 51.80 51.99 52.96 52.96 53.14 53.19 53.36 53.44 52.97 53.23 52.74 52.37 53.43 53.26 53.41 53.47 53.18 52.71 52.58 52.81 53.29 53.66 54.00 53.56 51.14 44.56 52.97 51.62 52.17 51.47 51.45 53.01 52.35 50.97 50.56 49.87 47.15 45.08 46.35 44.63 41.40 39.66 35.52 41.52 44.70 47.08
51.13 51.47 51.48 51.69 52.36 52.68 52.92 53.04 53.27 52.86 53.34 53.43 53.31 53.39 53.14 52.98 52.88 52.52 52.21 52.32 52.87 53.51 53.69 53.65 50.24 49.30 43.47 54.71 51.25 53.61 52.39 49.59 51.14 52.14 50.80 52.94 48.75 44.92 44.45 39.74 36.71 36.87 32.55 35.71 39.60 43.60 45.27
51.17 51.30 50.99 51.34 52.09 52.16 52.58 52.87 53.01 53.17 53.27 53.24 53.24 52.93 53.06 52.83 52.42 51.97 51.72 52.08 52.44 51.86 51.39 52.54 53.23 44.82 47.30 46.55 50.11 52.24 52.50 51.38 48.87 49.63 48.69 47.19 43.83 40.34 37.75 36.60 30.53 32.36 33.91 32.27 34.87 40.66 43.72
50.52 50.69 50.75 50.86 51.49 51.73 52.17 52.36 53.07 52.89 53.00 53.14 53.18 53.10 52.91 52.61 52.57 52.05 49.80 46.85 39.82 42.66 44.04 45.29 46.35 46.61 48.26 51.49 54.98 51.07 51.40 49.65 48.36 46.64 40.98 42.64 38.24 35.65 38.54 39.41 39.55 38.44 36.77 35.50 37.71 42.15 42.16
49.77 49.96 50.11 50.11 50.22 50.96 51.50 51.83 52.67 52.73 52.93 52.83 52.77 52.75 52.75 52.77 52.36 51.89 48.42 42.96 42.83 44.27 39.07 45.63 44.80 45.83 50.72 52.00 46.98 49.46 51.37 45.40 43.91 39.10 42.27 39.41 37.00 41.71 42.58 41.43 39.95 38.70 36.41 36.29 39.69 42.87 43.24
48.79 49.10 49.37 49.24 50.55 50.92 51.08 51.50 52.08 52.17 52.25 52.30 52.40 52.63 52.36 52.22 51.84 47.15 44.41 45.14 49.52 48.47 40.39 43.02 45.16 43.91 44.27 49.46 45.96 46.53 49.49 44.43 41.81 40.00 39.71 37.95 40.50 44.65 42.46 40.33 38.79 38.14 36.25 37.10 37.70 41.21 41.88
48.68 49.03 49.29 49.21 49.38 49.86 50.19 50.61 51.08 51.88 52.24 52.07 52.07 52.12 51.79 51.34 45.05 44.49 42.74 46.97 47.71 49.28 32.91 35.38 40.78 42.86 45.84 47.28 42.59 49.79 50.47 45.09 42.15 40.04 41.09 39.28 44.07 41.95 40.74 39.97 40.01 35.37 41.48 41.36 39.94 36.96 33.34
48.25 48.49 48.09 48.31 48.87 49.29 49.86 49.95 50.66 51.40 51.97 51.89 51.77 51.85 51.67 51.27 42.69 42.14 45.01 46.83 48.13 45.96 17.43 36.11 40.89 47.48 46.35 41.56 42.15 43.68 48.44 44.14 39.68 41.98 42.15 39.72 40.33 39.60 39.41 40.77 42.03 38.66 42.94 41.30 40.72 37.11 34.74
47.70 47.59 47.65 48.25 48.45 49.27 49.43 49.97 50.54 51.00 51.38 51.50 51.71 51.68 51.48 48.02 46.25 45.65 46.59 46.30 46.46 34.12 21.27 34.12 41.74 40.93 39.98 41.11 41.17 44.05 42.91 45.80 44.67 40.83 41.50 42.34 44.23 42.72 41.66 43.81 43.63 44.73 41.65 40.09 38.79 36.08 29.86
47.25 47.13 47.58 47.35 48.09 48.71 48.80 49.72 50.19 50.44 50.97 51.02 51.21 51.55 50.31 47.24 40.05 43.82 44.91 43.29 35.56 25.35 35.16 32.44 36.39 40.58 39.79 38.02 38.95 41.79 38.91 39.24 37.37 33.71 33.90 38.73 40.58 42.36 43.97 39.79 42.43 40.98 36.29 29.33 27.99 27.64 28.06
46.81 46.71 46.60 46.65 47.77 48.56 48.70 49.36 49.65 50.09 50.47 50.63 50.82 50.76 49.89 48.00 46.13 45.33 42.00 36.89 28.43 31.52 31.59 37.41 36.50 36.56 38.68 38.80 38.91 40.45 38.31 34.29 38.37 38.17 34.06 32.98 30.57 39.53 43.16 41.33 38.78 38.23 37.65 29.70 24.18 25.13 29.47
46.47 46.15 46.14 47.33 47.94 47.79 48.39 48.86 49.52 49.84 49.88 50.35 50.26 48.44 47.20 45.11 45.15 44.42 36.08 27.62 30.17 32.51 36.25 35.04 35.86 32.91 33.50 37.99 40.32 39.34 37.56 36.66 38.49 38.80 34.61 32.07 33.17 42.07 43.21 44.00 42.84 38.25 34.67 39.60 33.21 33.62 30.14
46.16 45.78 46.59 47.07 47.56 47.48 48.00 48.76 49.14 49.06 49.92 49.82 46.21 45.61 44.49 45.72 45.78 42.84 33.36 28.25 33.39 38.14 37.28 37.08 30.04 33.70 30.39 33.09 35.56 35.46 37.27 40.58 39.76 41.16 41.81 37.84 32.76 40.93 42.40 42.91 42.69 41.20 42.41 34.32 33.58 27.37 26.39
45.25 45.30 45.58 46.53 47.22 47.20 47.74 48.57 48.41 48.68 49.33 49.78 44.96 40.19 45.33 46.27 46.70 38.07 27.45 28.25 33.13 38.00 37.75 34.38 33.47 32.43 33.04 31.96 34.12 34.21 35.07 40.92 43.20 42.75 41.75 39.58 36.20 35.99 40.49 37.97 37.71 37.69 36.33 37.81 37.75 33.24 27.51
45.46 45.69 45.95 46.58 46.58 47.07 47.67 47.95 47.94 48.38 48.88 47.46 42.81 34.11 45.13 46.53 34.26 34.48 29.10 31.89 36.96 35.37 38.86 36.73 36.21 35.35 33.77 33.36 32.84 33.79 34.57 39.12 45.62 44.92 39.12 40.26 36.43 32.77 36.45 41.42 42.68 40.13 38.63 38.85 32.47 31.82 32.38
45.48 45.89 45.96 46.46 46.39 47.07 47.35 47.53 47.82 48.39 48.73 45.25 38.30 36.56 45.41 43.25 29.30 29.98 33.42 32.44 33.90 34.83 34.92 35.67 34.67 35.32 36.26 32.99 29.85 34.08 36.04 42.24 44.19 44.83 41.52 42.57 35.37 28.43 33.73 36.75 39.46 36.95 39.48 39.93 39.10 36.49 32.85
45.10 45.57 45.67 46.08 46.31 46.85 47.05 47.35 47.79 48.29 48.53 45.42 34.63 30.99 37.51 39.66 35.63 32.39 31.02 31.28 30.11 35.59 34.27 35.82 34.56 35.29 33.88 32.10 35.20 32.32 34.48 39.61 41.29 46.25 46.17 45.09 39.26 33.73 28.61 32.84 37.37 35.15 38.82 39.82 39.25 31.53 32.27
44.71 45.08 45.26 45.55 45.93 46.41 46.74 47.53 47.67 48.12 48.26 44.91 35.86 32.09 36.82 30.48 32.58 33.63 33.48 32.78 30.51 30.08 35.17 36.07 32.70 32.77 31.70 28.19 29.91 30.17 35.56 37.70 42.01 45.98 45.81 43.48 35.99 38.06 38.40 39.84 39.69 38.60 38.69 39.36 37.71 37.40 34.10
45.05 44.83 44.85 45.15 45.74 46.17 46.96 47.15 47.26 47.51 47.91 42.51 31.74 34.96 38.49 34.12 36.05 33.78 33.54 31.10 30.72 32.31 33.22 31.76 30.99 33.79 33.26 29.77 31.15 29.01 32.49 33.45 34.99 40.93 40.30 43.35 36.16 37.46 35.31 39.29 39.05 36.73 39.03 39.89 39.93 39.25 38.35
46.26 45.78 45.38 45.57 45.72 46.61 46.84 46.79 46.92 47.21 46.70 40.83 41.12 40.60 38.86 36.15 34.10 31.72 30.93 32.03 32.16 34.83 35.88 35.43 34.46 32.86 31.48 33.49 35.73 36.72 37.15 37.17 37.26 37.50 38.51 39.30 35.47 32.43 29.84 35.83 35.57 31.17 36.43 38.73 39.61 41.78 41.16
46.85 46.73 46.01 46.06 46.20 46.69 46.83 46.85 46.90 47.03 46.97 43.10 42.31 41.20 36.11 31.48 33.04 32.44 33.94 34.14 33.14 34.35 32.54 35.62 36.20 33.26 36.81 40.56 38.92 39.68 40.12 40.67 41.61 41.52 41.74 37.24 35.72 34.04 29.95 30.68 27.09 35.88 40.25 42.06 40.61 42.02 42.56
45.94 45.83 45.83 46.46 46.45 46.62 46.74 46.78 46.92 47.12 47.39 44.21 43.76 41.34 37.40 31.25 34.57 33.83 34.27 34.23 34.83 35.73 34.54 34.79 36.52 39.49 40.98 37.15 32.09 29.36 28.19 32.14 35.21 39.68 40.69 39.84 34.44 29.99 25.11 28.31 32.38 34.94 40.46 38.33 37.72 37.81 42.97
45.75 46.24 46.33 46.34 46.27 46.62 46.83 46.85 46.96 47.47 47.77 45.69 44.27 45.90 40.61 34.86 33.03 37.28 34.28 35.43 31.89 31.40 31.91 34.23 39.66 41.72 38.37 33.44 31.24 26.51 23.48 28.42 29.35 34.97 41.09 38.07 36.94 29.47 30.75 26.39 22.95 32.18 40.74 44.37 44.55 34.71 43.34
45.69 46.24 46.40 46.36 46.29 46.38 46.34 46.62 46.67 47.03 47.56 45.83 44.58 46.02 41.44 35.77 38.66 38.68 34.41 33.29 35.84 33.63 30.64 33.27 35.42 35.49 37.44 28.55 26.93 25.28 25.15 32.00 27.01 29.24 31.04 30.94 32.51 30.59 28.94 28.31 30.84 37.86 42.22 44.89 33.30 33.89 44.33
46.27 46.50 46.57 46.70 46.45 46.54 46.43 46.43 46.52 46.70 46.77 44.39 42.87 45.24 39.71 34.91 36.92 40.59 41.04 36.67 36.25 35.67 30.46 34.15 34.97 33.85 30.95 26.92 26.99 26.91 22.53 28.93 29.50 32.63 31.65 30.03 29.91 29.79 31.67 28.56 24.58 43.80 42.24 36.32 40.13 43.03 44.47
46.36 46.50 46.72 46.54 46.55 46.82 46.79 46.63 46.66 46.62 46.79 45.59 40.40 44.58 44.31 38.62 38.26 42.37 42.10 43.29 42.23 41.34 37.89 38.02 36.31 36.01 35.90 30.61 28.63 28.67 24.33 23.57 28.75 25.00 35.55 29.24 32.50 29.98 32.73 32.07 40.26 44.33 42.88 44.97 44.84 45.11 45.68

GFSGBSN_sfc_wetblb_054.txt.gz
Wetbulb
52.22 52.39 52.87 53.19 53.09 53.15 53.21 53.21 53.16 53.20 52.95 52.98 53.14 53.33 53.06 52.94 53.06 53.48 54.16 53.85 53.62 53.49 53.29 53.67 53.95 53.97 51.29 45.63 46.60 52.75 60.81 61.05 55.05 49.87 47.28 46.47 43.97 41.85 38.72 39.28 40.52 38.48 40.99 42.98 44.44 44.81 45.48
51.92 51.90 52.00 52.22 52.41 52.37 52.38 52.54 52.54 53.12 52.91 52.80 53.27 53.52 53.71 53.10 52.96 53.14 53.60 53.17 52.63 52.77 53.00 53.16 53.73 53.26 47.54 38.66 49.82 52.53 51.66 53.22 49.77 47.44 47.37 46.58 44.88 44.96 41.46 40.80 40.70 43.61 43.34 43.81 43.60 44.46 47.26
50.92 51.24 52.05 52.19 52.23 52.14 52.08 52.27 52.54 52.85 53.15 53.19 53.11 53.06 53.31 52.96 53.36 53.37 53.25 52.69 52.23 52.42 52.84 52.99 53.54 50.93 45.05 42.34 50.69 50.74 51.41 49.43 49.28 47.83 46.23 47.67 47.12 44.42 43.70 41.67 45.22 44.32 40.02 41.47 42.29 41.97 46.18
50.56 50.90 50.90 51.15 51.68 52.29 52.22 52.09 52.28 52.43 52.87 53.26 53.36 53.33 53.23 53.35 53.21 53.10 52.88 52.42 52.05 52.19 52.96 53.13 53.33 49.28 41.95 52.61 50.96 51.70 50.45 49.89 51.31 50.66 49.41 49.58 47.83 45.04 43.56 44.53 42.94 39.24 38.23 34.22 40.56 44.40 44.52
50.24 50.20 50.88 50.94 51.47 51.77 52.06 52.46 52.86 52.47 52.82 53.33 53.54 53.29 52.94 52.71 52.59 52.74 52.58 52.26 51.88 52.23 53.52 53.71 48.73 46.73 41.02 54.17 50.22 52.75 51.80 47.55 48.96 50.40 49.64 52.22 47.41 43.72 42.84 38.49 35.58 35.82 30.94 33.31 37.66 42.05 43.67
50.33 50.66 50.22 50.81 50.35 50.95 51.74 52.08 52.59 52.79 52.96 53.00 53.25 53.21 53.08 52.86 52.53 52.25 51.95 51.47 50.91 51.94 51.15 51.15 51.14 40.79 44.29 41.82 49.93 51.41 52.10 50.58 47.17 48.31 47.11 45.58 42.70 38.37 37.07 35.55 30.10 32.09 31.96 31.26 33.98 37.77 41.75
49.84 50.02 49.98 50.19 49.82 50.05 50.53 51.05 52.03 52.34 52.57 52.61 52.67 52.80 52.80 52.74 52.66 52.36 49.67 44.69 40.93 39.99 42.50 42.37 43.43 42.82 45.90 51.90 53.73 50.18 50.71 48.47 46.37 45.29 39.98 42.28 37.33 35.58 37.78 39.39 38.25 37.00 35.18 33.63 35.82 39.60 38.44
49.23 49.03 49.02 49.52 49.19 49.42 50.86 51.20 51.59 51.80 51.78 52.48 52.53 52.47 52.41 52.51 52.53 52.03 46.22 41.61 43.16 43.57 37.52 43.92 43.78 43.65 46.99 49.68 43.87 47.01 51.56 44.32 42.35 38.53 41.62 38.02 36.57 40.65 42.73 40.53 39.10 37.61 34.79 33.90 37.70 40.77 39.47
48.48 48.80 49.09 49.09 49.05 48.86 49.76 50.15 50.23 51.27 51.61 52.01 52.25 52.45 52.41 52.01 51.67 45.91 44.09 43.83 48.06 46.18 39.09 40.65 43.42 42.92 43.80 45.41 41.81 43.01 48.25 44.35 40.92 38.20 40.03 37.57 39.08 43.07 42.11 38.68 37.57 36.08 34.52 34.56 35.83 38.15 39.17
48.38 48.47 48.60 48.92 48.06 48.84 49.20 49.33 49.46 49.84 51.03 51.30 51.72 51.73 51.73 51.34 44.85 43.39 40.59 46.97 47.36 47.08 33.72 33.99 39.98 42.29 44.36 45.80 41.03 47.69 48.84 45.00 41.47 38.45 39.09 38.79 43.06 40.65 38.73 38.15 38.90 33.83 39.16 39.11 37.64 34.87 31.00
48.43 48.11 48.25 48.43 47.74 48.21 48.32 48.70 48.96 49.65 50.00 50.97 51.27 51.44 51.36 51.45 43.04 40.92 43.07 46.56 46.83 46.41 17.03 35.62 40.14 46.79 46.52 40.06 40.47 43.21 48.97 43.88 39.18 39.97 40.50 37.61 39.45 39.36 37.53 38.60 40.30 37.62 41.06 39.13 38.01 34.68 32.14
47.85 47.80 48.15 47.28 47.37 48.07 47.61 48.12 48.89 49.26 49.86 50.47 50.98 50.96 51.30 47.50 46.45 45.04 45.68 43.99 45.77 34.42 22.72 33.25 39.48 39.79 40.05 41.58 40.67 43.16 42.55 44.08 43.88 40.86 40.03 40.15 42.99 41.39 41.64 42.23 41.93 42.74 39.59 38.14 36.84 34.01 27.63
47.32 47.51 47.83 46.96 47.16 47.09 47.14 48.15 48.63 48.98 49.63 49.77 50.66 50.77 49.20 47.69 42.36 43.45 43.34 41.30 31.88 25.33 35.63 30.94 33.94 38.46 38.17 37.71 38.14 39.05 37.34 36.77 34.49 31.78 32.03 37.21 39.54 42.07 42.82 39.02 40.36 39.37 34.79 28.15 26.89 26.92 27.01
46.70 47.26 47.18 46.76 46.40 46.65 46.88 47.94 48.36 48.94 49.42 49.87 50.13 49.64 48.04 48.57 45.89 45.05 41.26 34.24 24.02 30.90 31.14 36.80 35.57 35.81 34.42 37.05 37.79 38.23 34.59 31.55 36.98 37.14 33.59 31.68 29.80 39.44 42.14 40.31 37.56 36.47 35.73 28.46 23.85 24.67 27.78
46.70 46.56 46.24 46.45 46.47 46.63 46.76 47.44 47.73 48.56 49.12 49.57 49.20 43.67 44.64 45.11 46.25 44.58 36.98 25.19 26.24 31.36 34.40 33.46 34.31 31.68 32.91 35.87 36.91 38.02 35.54 33.34 36.09 39.46 34.62 32.32 32.89 41.02 41.92 43.11 42.58 36.94 33.29 38.17 31.51 31.35 28.89
45.51 46.06 46.16 46.27 46.04 46.30 46.54 46.95 47.20 47.68 49.01 49.08 41.12 41.38 42.00 46.97 47.58 43.62 33.73 26.54 30.78 38.08 35.70 34.95 28.82 32.97 29.79 32.31 33.21 33.52 36.08 40.21 38.78 39.96 41.37 38.07 32.33 40.00 41.39 42.01 40.90 39.60 40.80 33.01 31.43 26.60 25.40
45.23 45.49 45.91 45.78 45.49 45.88 45.46 46.08 46.41 47.07 48.39 48.53 39.81 37.38 44.76 47.84 46.95 38.28 28.12 29.03 30.71 35.48 35.89 33.14 32.06 30.94 32.14 31.34 33.17 32.57 33.82 39.55 41.35 42.90 40.92 37.03 34.54 35.00 39.38 36.84 35.88 36.39 34.77 35.91 35.78 31.39 26.33
44.69 45.10 45.54 45.54 45.40 45.24 45.14 45.59 46.30 47.52 47.78 45.57 40.59 32.11 45.14 46.51 34.39 34.14 29.89 32.28 36.05 33.31 36.67 36.08 35.49 33.58 32.48 32.80 30.71 32.75 33.45 37.68 39.41 43.40 38.66 40.85 35.59 30.44 34.73 39.93 41.13 38.91 36.88 37.31 30.27 29.91 30.39
44.28 44.90 44.73 45.07 45.03 45.69 45.90 45.53 46.25 47.39 47.36 43.06 36.73 36.39 45.25 44.38 29.78 30.47 34.19 32.67 33.36 32.74 33.97 34.27 33.66 34.33 34.84 31.24 28.20 33.02 35.45 40.88 40.13 42.77 40.63 41.45 35.34 27.75 31.79 35.91 37.87 35.09 36.88 37.96 37.03 33.92 29.70
44.81 44.54 44.59 44.96 44.59 45.31 45.96 45.67 46.01 47.22 47.09 43.64 35.46 30.16 37.40 39.66 37.72 32.82 31.71 31.01 29.94 34.23 32.89 34.68 33.73 34.76 32.84 30.85 33.08 31.07 33.22 38.34 40.85 43.14 45.91 43.78 38.01 34.49 29.18 33.01 37.41 34.32 37.01 37.03 36.55 29.57 29.92
44.23 44.66 44.86 45.07 45.10 45.41 45.72 45.91 46.07 46.80 47.23 43.29 36.32 31.37 36.20 29.82 31.76 33.17 33.60 32.85 29.69 29.43 33.34 34.44 31.61 32.18 30.86 27.54 28.63 28.86 34.07 35.28 37.58 42.00 43.98 41.60 33.23 37.78 38.37 38.70 38.61 36.58 36.50 37.03 35.01 34.94 32.44
44.47 44.88 45.12 45.42 45.54 45.45 45.54 45.86 46.00 46.63 46.89 40.56 31.65 33.58 38.10 35.78 35.71 34.00 33.31 30.65 30.79 31.75 32.98 30.24 29.85 32.47 32.13 28.86 30.07 28.31 31.54 31.56 32.30 38.14 38.93 41.00 33.68 35.01 33.63 38.29 35.70 34.05 36.89 36.70 37.03 36.61 36.47
45.06 45.30 45.58 46.10 46.24 46.27 45.99 45.66 45.87 46.45 45.94 39.45 39.76 39.79 38.69 35.26 34.62 32.13 31.48 32.36 31.46 34.25 34.83 34.83 33.47 31.57 30.07 32.37 34.95 35.58 35.84 35.48 35.37 34.07 33.72 37.43 34.46 30.88 28.20 33.65 33.88 29.19 32.81 33.73 36.30 38.53 38.69
45.16 45.66 46.05 46.24 46.41 47.01 46.22 45.64 45.92 46.30 46.13 42.33 41.36 40.26 35.00 30.06 32.88 32.43 33.76 34.13 33.36 33.71 32.00 35.83 36.00 32.40 35.48 38.94 37.93 36.31 34.62 34.80 35.19 36.11 38.83 36.47 34.53 31.24 28.48 28.99 22.72 33.81 39.37 39.76 36.40 37.80 38.34
45.57 45.91 45.77 46.46 46.23 46.46 46.43 45.91 45.91 46.31 46.65 42.76 42.44 40.33 36.14 30.28 34.22 33.97 34.39 33.70 34.93 35.65 34.28 34.64 36.90 39.10 39.85 35.93 32.25 29.11 26.99 31.47 33.50 36.55 37.78 39.71 35.20 27.32 23.92 25.14 30.29 33.07 38.15 37.82 36.07 34.96 39.33
45.64 45.98 46.22 46.22 45.89 45.77 45.70 46.10 46.17 46.55 46.50 44.15 42.39 44.13 40.28 33.66 31.98 37.25 34.97 35.16 31.69 31.47 32.38 34.33 39.54 39.62 37.80 33.15 31.59 26.22 23.16 27.45 28.36 33.23 38.80 36.46 35.84 30.86 29.44 21.81 19.90 29.10 37.28 42.40 42.09 30.44 42.19
45.50 45.79 45.70 45.66 45.86 45.86 45.77 45.80 46.15 46.33 46.78 44.55 42.46 44.08 40.82 34.55 37.56 38.38 35.06 34.57 36.58 34.02 31.05 33.30 35.34 33.83 36.45 31.07 29.22 27.30 27.02 30.50 25.45 28.51 30.54 30.54 32.32 30.61 29.13 27.55 28.23 35.81 40.85 43.97 30.59 29.36 41.18
45.27 45.48 45.64 45.75 46.15 46.00 46.22 45.84 45.87 46.26 46.68 45.00 41.81 45.22 40.99 33.30 37.79 40.09 40.93 37.47 37.17 35.74 30.41 33.93 34.74 32.71 30.11 27.54 27.54 26.97 22.61 28.14 27.21 31.21 30.65 29.20 27.86 26.01 30.24 28.57 22.23 40.48 40.66 35.44 38.36 40.68 42.08
45.59 46.10 46.51 46.67 46.63 46.33 46.47 46.40 46.21 46.10 46.13 46.54 40.38 45.29 45.24 38.59 38.45 42.88 43.94 43.92 42.39 41.14 37.82 37.94 34.41 32.91 32.92 28.53 26.94 27.37 23.80 23.43 28.27 24.20 33.71 28.09 31.07 28.55 30.54 29.78 37.09 41.85 40.32 43.16 44.02 42.57 43.74

GFSGBSN_sfc_wetblb_057.txt.gz
Wetbulb
51.77 51.98 51.84 52.06 52.29 52.65 52.60 52.74 52.87 52.98 52.79 52.73 52.66 52.63 52.65 52.98 53.04 53.17 53.58 53.58 53.60 52.95 52.69 52.64 53.29 53.95 50.78 44.57 43.52 53.29 57.59 60.84 58.62 52.76 49.51 48.50 47.94 45.83 43.95 43.95 43.70 42.99 44.70 44.98 46.50 46.56 47.08
51.16 51.55 51.67 51.98 52.49 52.47 52.48 52.37 52.31 52.99 52.86 52.80 53.15 53.03 52.64 52.56 52.53 52.77 53.17 53.02 53.02 53.06 53.19 52.46 53.10 52.97 47.63 38.07 49.56 53.29 51.80 53.35 52.59 49.89 49.41 48.97 48.07 47.93 45.31 44.51 44.52 46.01 45.05 46.84 47.68 47.49 48.44
51.29 51.07 51.15 51.23 51.30 51.46 51.25 51.53 51.96 52.10 52.64 53.03 53.34 53.39 53.45 52.90 52.92 53.31 53.10 52.71 52.67 52.57 53.06 52.27 52.72 50.65 44.10 40.93 50.61 51.61 51.59 51.24 52.37 50.21 48.84 49.99 49.88 47.45 47.28 44.96 47.25 47.31 44.59 45.37 46.07 46.53 47.91
50.85 51.05 50.83 51.06 51.16 51.61 51.77 51.73 51.62 52.02 52.37 52.80 52.91 53.48 53.17 53.39 53.31 53.21 52.98 52.51 52.30 52.59 52.78 53.03 53.14 49.07 40.30 50.58 53.14 51.50 51.74 50.40 51.82 51.93 50.61 51.47 50.77 48.37 47.36 48.35 45.82 44.50 43.13 40.25 44.39 47.20 47.43
50.51 50.39 50.74 50.56 50.99 50.94 51.20 51.93 52.17 52.07 52.38 52.53 52.73 53.06 52.94 52.78 52.72 52.78 52.79 52.41 52.20 52.21 53.55 53.40 49.25 46.35 39.60 52.39 49.98 52.91 52.07 48.58 49.71 51.41 51.82 52.61 50.39 47.22 46.53 43.63 41.59 40.72 38.30 38.57 41.04 46.19 47.26
50.15 49.89 50.54 50.46 50.42 50.45 50.12 50.58 51.51 52.11 52.52 52.15 52.28 52.75 52.67 52.43 52.38 52.34 52.18 51.90 51.04 51.75 51.43 51.29 49.62 41.30 43.86 40.98 50.22 52.04 52.97 51.56 47.74 49.11 48.32 48.44 46.13 43.44 42.17 41.62 34.88 37.31 37.31 38.28 39.85 44.92 46.44
50.05 50.07 49.99 49.36 49.28 49.70 49.10 50.04 51.49 51.58 51.33 51.56 51.59 51.86 52.49 52.39 52.35 52.05 50.21 45.26 42.72 41.60 42.99 42.26 42.57 41.69 43.90 50.47 53.20 51.95 52.19 50.15 48.58 46.73 42.45 45.17 41.86 38.48 40.75 43.42 41.99 41.02 38.91 38.51 40.65 43.24 42.66
48.91 49.60 49.02 49.04 48.70 49.31 49.59 49.34 49.96 50.64 50.28 50.91 51.25 51.83 52.25 52.23 51.95 51.72 46.84 43.17 42.88 42.36 36.47 42.99 42.70 42.88 46.22 48.62 42.36 47.62 51.84 46.33 44.13 39.76 43.41 41.12 38.69 43.71 43.79 42.96 41.95 40.91 38.93 39.31 41.81 42.50 42.32
48.86 48.56 48.64 49.31 48.79 49.43 48.59 49.43 49.38 49.31 49.64 50.31 50.68 51.16 51.74 51.73 51.71 45.82 43.98 43.69 47.77 46.30 37.31 40.50 43.51 41.97 42.68 45.16 40.97 42.26 48.80 46.43 42.80 40.11 41.23 39.74 41.55 44.47 42.86 41.01 39.61 40.52 39.21 38.87 39.45 41.12 43.21
48.77 48.19 48.82 48.81 47.58 48.65 47.78 47.57 48.68 48.73 48.95 49.93 50.65 51.02 51.24 50.93 44.78 44.18 42.11 47.18 47.82 46.62 33.66 34.28 39.43 42.63 44.58 44.81 39.56 46.44 47.20 46.27 42.89 39.72 41.08 41.06 44.16 41.91 41.29 40.24 41.24 37.22 41.53 41.32 39.39 38.51 35.73
48.62 47.92 48.19 48.39 48.29 47.92 48.01 47.92 48.26 48.14 48.65 49.32 50.32 50.38 50.77 50.82 46.05 42.29 44.65 47.63 46.76 45.85 19.63 36.41 39.98 47.21 45.88 40.22 40.88 43.32 48.09 44.81 41.69 40.49 41.80 39.13 40.27 40.33 39.27 40.56 42.61 40.29 43.18 41.55 40.89 38.74 38.02
47.73 47.97 47.46 47.79 48.45 47.81 47.86 47.74 47.29 47.70 48.37 49.03 49.65 49.94 50.47 47.14 47.43 46.46 46.57 45.25 45.49 32.51 21.45 33.78 40.25 40.00 39.28 41.24 41.08 44.22 43.75 46.52 45.94 42.22 42.92 41.30 45.42 43.97 43.07 43.06 43.58 44.15 42.22 41.35 40.30 38.95 32.94
46.69 47.15 47.38 47.06 47.65 47.41 46.82 47.05 47.24 47.65 48.04 48.48 49.26 49.84 48.56 49.13 43.25 45.95 45.77 41.81 30.96 23.64 36.00 32.56 33.87 37.65 36.75 36.46 38.76 39.84 38.94 38.70 37.13 34.14 35.65 39.89 40.87 43.77 44.48 41.40 42.86 42.52 39.71 33.33 32.00 32.03 32.00
46.39 46.62 47.13 47.07 47.30 46.83 46.46 46.73 47.41 47.68 47.77 47.92 48.92 49.05 47.16 48.24 48.10 47.75 43.54 34.76 23.07 30.08 32.32 37.26 36.32 36.10 33.41 37.86 38.16 38.09 36.19 34.84 39.12 38.56 35.64 34.15 32.05 41.23 44.50 42.33 39.60 39.81 39.66 34.24 28.35 29.51 33.58
45.96 46.05 46.19 46.85 46.62 46.42 46.75 46.34 46.58 47.19 47.68 48.28 48.27 43.88 44.27 45.50 48.63 46.81 37.90 25.91 26.46 30.34 34.73 32.80 34.88 32.24 33.02 36.03 35.94 37.75 35.88 34.57 36.92 39.17 35.39 33.96 34.37 42.17 43.24 44.25 44.46 38.89 36.23 41.84 35.17 35.45 33.28
45.67 45.64 45.91 45.88 46.63 46.64 46.41 46.10 46.07 46.18 46.70 47.46 41.94 40.82 40.71 46.49 48.09 44.23 33.61 28.30 29.42 36.13 35.18 34.64 29.48 33.31 29.66 32.42 32.97 34.70 36.84 37.44 37.28 40.26 42.88 39.54 34.10 41.15 42.10 44.37 44.05 42.82 43.56 36.17 35.82 29.22 27.85
44.80 44.87 44.89 45.21 46.25 46.32 45.74 45.68 45.44 45.41 46.20 47.24 41.49 36.46 41.84 46.99 47.02 38.57 28.44 29.67 32.07 35.88 35.85 32.67 31.31 30.59 31.83 31.12 32.65 32.35 35.61 37.87 38.71 40.71 41.71 40.55 38.15 37.16 41.48 39.27 38.64 39.56 38.94 39.50 39.33 35.94 31.36
44.33 44.54 44.60 44.94 45.06 45.38 45.61 45.64 45.27 45.33 46.49 44.20 39.99 30.57 44.09 47.04 34.52 34.68 30.93 32.52 35.74 33.76 36.29 35.39 35.93 33.94 32.19 32.73 31.44 31.98 32.92 37.29 40.75 42.66 40.05 42.19 37.18 32.60 35.98 41.42 43.18 42.35 40.10 40.60 34.77 32.78 34.40
44.20 44.11 44.23 44.50 44.75 45.08 45.38 45.17 45.24 45.28 45.53 42.53 35.69 35.65 44.53 44.31 28.37 28.99 34.53 33.69 34.14 32.56 34.27 34.15 33.53 34.65 35.58 32.53 29.38 33.26 35.17 40.63 40.58 39.62 42.02 43.08 37.36 31.66 34.03 38.50 40.95 38.43 39.08 40.72 39.58 37.36 34.00
44.20 43.92 43.87 44.23 44.35 44.66 45.09 44.94 44.91 45.22 45.46 42.37 35.86 29.43 35.56 39.10 36.82 32.02 31.59 31.66 30.39 34.70 33.71 34.83 33.66 35.32 33.43 31.64 34.37 31.70 33.45 38.33 40.56 39.56 45.54 44.85 39.50 35.27 31.22 34.57 39.15 37.18 39.27 40.24 38.39 33.45 34.75
43.52 43.68 44.20 43.80 44.02 44.26 44.64 44.78 44.83 45.30 45.78 41.71 35.84 31.35 35.73 28.84 31.43 32.64 33.47 32.84 29.90 29.28 33.86 34.53 32.02 32.58 31.96 28.66 29.90 30.19 34.18 35.85 37.93 40.96 43.02 42.99 35.39 37.69 38.93 39.14 39.26 37.64 37.55 38.66 37.16 37.78 34.44
43.52 43.66 43.88 43.83 44.44 45.17 45.31 45.22 45.15 45.26 45.87 39.12 32.01 33.40 35.85 33.90 34.85 33.37 34.29 31.67 30.99 31.50 32.53 30.61 30.85 33.26 33.42 29.99 31.29 29.65 32.47 32.78 32.43 37.14 36.42 38.25 36.01 36.95 34.13 37.99 37.35 34.76 37.80 36.62 38.27 38.50 38.42
43.14 43.98 44.35 44.64 44.94 44.59 45.26 45.68 45.75 45.64 45.09 37.59 38.96 39.15 37.12 33.34 32.17 32.02 31.10 32.19 32.20 34.47 35.43 35.92 34.57 32.75 31.07 33.06 36.26 36.90 37.38 36.92 36.16 33.49 32.73 34.12 36.02 33.06 29.83 34.85 34.22 30.73 36.13 36.64 37.94 39.23 39.14
43.92 43.92 44.18 44.68 45.16 45.25 45.82 46.03 46.24 45.99 45.40 39.87 40.25 39.36 33.31 28.05 32.09 31.28 33.47 33.95 33.18 34.29 32.69 35.49 36.50 33.61 36.81 40.99 40.14 38.76 36.45 35.41 35.52 35.55 37.17 33.14 34.66 33.13 30.18 31.39 23.68 35.36 40.83 40.48 40.21 40.77 40.89
44.27 44.12 44.33 44.47 45.47 45.98 45.99 46.06 46.40 46.56 46.09 41.61 41.23 39.48 35.52 28.80 31.79 33.54 33.75 33.86 35.37 36.47 34.42 34.75 37.01 39.26 41.11 37.76 32.97 30.61 30.21 32.35 33.41 35.29 35.96 37.99 35.60 31.51 28.98 28.58 31.99 35.42 38.06 38.66 38.48 37.16 41.76
44.01 44.12 44.67 45.47 45.58 45.82 45.78 45.77 45.96 46.40 46.47 43.16 41.30 42.70 38.81 32.30 30.20 34.87 34.48 35.43 32.61 33.09 33.91 35.19 39.77 41.79 40.28 34.71 32.17 25.91 24.88 28.66 29.03 33.45 38.72 37.88 38.49 34.60 29.96 26.41 23.21 33.37 39.04 44.11 42.48 32.77 43.20
44.64 45.18 45.52 45.80 45.84 45.84 45.84 46.10 45.91 46.70 46.49 43.62 41.27 43.36 39.15 33.09 36.93 36.68 33.79 34.43 37.34 35.09 32.93 34.46 35.73 35.82 39.23 32.92 28.49 27.05 27.38 31.91 27.07 28.41 28.77 32.37 32.92 30.54 30.18 28.79 31.69 38.17 40.77 43.74 31.21 33.95 43.61
45.43 45.60 45.67 45.64 45.62 45.64 45.73 45.91 45.84 46.44 46.15 43.90 41.63 44.04 39.51 33.12 37.55 40.20 40.48 37.59 37.36 36.29 31.74 35.11 34.62 34.10 34.42 30.42 29.34 29.46 28.68 31.19 30.47 33.52 32.16 30.13 29.35 29.80 32.06 28.33 25.57 40.30 42.69 37.25 40.65 44.15 44.37
45.08 45.30 45.55 45.78 45.85 46.03 45.92 45.89 45.80 45.96 46.01 45.54 39.97 44.30 43.73 37.59 38.02 42.86 43.16 44.40 42.71 41.22 37.98 37.79 35.85 34.09 34.94 31.70 31.74 32.17 29.28 29.94 31.21 27.45 35.83 31.65 34.72 33.06 34.08 33.80 39.89 43.58 42.87 42.71 43.33 42.48 44.08

GFSGBSN_sfc_wetblb_060.txt.gz
Wetbulb
50.67 51.38 51.83 52.28 52.58 52.57 52.63 52.70 52.67 52.82 52.90 53.04 53.00 52.98 53.19 53.17 53.19 53.38 53.69 53.63 53.36 52.99 52.77 52.93 53.04 53.28 53.01 46.07 43.13 50.25 58.23 60.20 60.12 57.70 53.51 52.75 51.25 50.09 47.12 48.13 49.20 47.48 48.57 49.92 51.00 50.73 50.36
51.27 50.87 51.28 51.53 51.63 51.41 51.46 51.37 51.52 52.18 52.63 53.04 53.42 53.69 53.16 53.06 53.19 53.10 53.73 53.70 53.48 53.25 53.03 52.81 52.98 52.74 49.95 41.90 48.47 52.59 54.51 54.57 55.69 56.02 54.28 53.52 51.67 52.38 49.23 48.33 47.61 48.88 49.40 49.36 50.20 50.76 51.46
50.95 51.17 51.29 51.41 51.51 51.46 51.34 51.52 51.37 51.72 52.44 52.65 53.47 53.65 53.85 53.24 53.15 53.01 53.31 53.40 53.21 53.17 53.21 53.14 52.78 51.92 47.11 45.65 49.81 51.11 50.68 50.52 53.22 54.83 52.52 55.30 54.88 50.76 50.08 47.79 50.38 49.21 46.60 48.76 49.72 50.40 49.80
51.54 50.71 50.83 50.85 51.56 51.51 50.89 50.93 51.69 52.10 52.33 52.41 52.39 53.07 53.23 53.11 53.15 53.05 53.03 52.78 52.82 53.09 53.48 53.08 53.46 51.51 43.86 52.35 52.59 51.19 51.88 50.65 51.67 53.87 54.02 54.48 55.21 51.76 50.13 50.87 48.88 46.48 47.13 43.53 48.57 49.41 50.26
50.17 50.77 50.39 50.49 51.05 50.74 50.97 50.73 51.02 50.92 51.50 51.84 52.15 52.61 52.66 52.60 52.62 52.48 52.44 52.33 52.45 52.64 53.39 52.98 51.08 48.89 43.53 52.57 49.39 51.82 54.16 48.40 49.69 50.97 53.84 54.36 52.83 50.07 49.90 46.04 44.61 46.05 41.78 43.45 45.74 49.78 49.97
50.38 50.12 50.12 50.14 50.22 49.64 49.95 49.96 50.80 51.24 51.25 51.46 51.72 51.82 52.28 52.38 52.28 52.01 51.85 51.90 52.01 52.08 53.18 53.08 51.49 44.35 47.26 43.18 49.00 53.18 54.83 52.66 48.45 48.29 50.37 50.58 49.71 46.20 46.68 44.49 38.87 41.90 42.46 44.12 43.94 47.33 48.55
50.22 49.96 50.17 49.66 49.45 48.95 49.25 49.91 49.94 50.47 50.39 50.64 50.89 51.17 51.45 52.30 52.05 52.02 50.95 51.44 46.89 46.04 45.44 41.72 43.97 44.86 46.58 51.16 54.01 49.23 53.83 51.49 50.09 47.56 44.68 48.25 44.72 41.33 43.52 46.40 45.87 45.19 43.65 42.94 45.35 47.12 46.08
49.55 49.26 49.98 49.60 49.13 49.52 49.69 49.38 49.62 50.00 49.60 49.66 50.11 50.73 50.90 51.67 51.85 51.60 51.05 46.29 42.84 44.31 37.36 45.11 45.05 44.81 47.01 48.08 43.88 47.56 53.19 46.16 46.52 41.78 46.31 45.76 41.68 45.54 46.80 47.05 45.20 44.07 42.51 42.84 45.34 46.79 45.47
49.01 49.53 49.24 48.18 48.96 49.19 48.45 49.05 48.58 48.95 49.14 49.19 49.75 50.15 50.49 51.44 51.46 50.67 48.30 46.80 49.94 48.55 39.15 41.86 46.04 44.36 45.21 46.30 41.47 44.27 49.34 47.94 44.66 43.66 42.48 42.60 43.37 46.66 45.95 44.48 42.92 43.43 42.09 42.80 42.66 44.87 46.13
47.95 48.84 49.30 48.78 49.12 49.12 47.52 48.06 47.14 48.30 48.47 48.70 49.79 50.10 50.43 50.57 47.95 49.57 47.37 50.13 51.53 49.87 34.38 37.36 41.50 44.66 45.79 45.09 39.65 46.87 48.14 46.70 43.28 41.55 43.80 41.98 45.25 43.93 44.98 43.41 44.35 40.58 45.32 44.29 43.65 42.69 38.57
47.90 48.15 48.80 48.73 47.65 48.78 48.80 47.49 47.06 48.06 47.80 48.18 49.65 49.44 50.30 50.11 48.45 46.32 48.41 51.40 51.16 47.55 25.81 39.37 41.89 49.93 46.99 42.32 41.94 43.52 47.94 44.45 38.37 40.20 43.69 41.55 41.80 41.58 42.04 43.67 45.70 42.59 46.03 44.51 44.42 42.95 42.16
47.59 47.44 47.76 48.09 47.86 47.91 48.79 48.00 47.78 47.34 47.29 48.10 48.83 49.19 49.78 49.05 50.41 49.38 51.43 51.27 48.75 34.82 25.07 35.55 41.21 40.63 40.78 42.57 41.49 44.89 43.70 46.30 45.53 40.90 43.84 43.92 47.09 45.31 44.45 45.38 46.21 46.67 44.29 44.17 44.29 42.87 36.31
46.56 46.74 47.23 47.34 47.61 48.04 47.87 47.52 46.98 47.15 47.17 48.14 48.17 48.59 48.52 49.28 45.66 50.97 50.67 46.69 34.09 27.86 37.64 35.12 36.06 40.02 39.74 38.54 40.10 40.93 40.46 38.44 37.76 33.76 36.42 41.56 42.57 46.18 47.11 42.79 45.98 45.12 42.28 36.47 34.31 35.30 34.53
46.44 46.83 46.71 46.67 46.86 47.58 47.73 47.07 47.28 47.41 47.18 47.54 47.84 48.33 48.80 48.42 51.02 50.61 46.30 38.69 26.67 31.88 33.66 39.88 38.32 38.74 36.38 39.82 40.17 40.31 39.12 36.66 41.34 39.73 37.67 34.53 33.66 42.26 46.37 44.23 42.18 42.50 42.56 37.87 30.56 32.94 37.64
46.12 46.23 46.36 46.21 46.45 46.58 47.17 47.16 47.29 47.29 46.93 47.09 47.45 47.31 46.42 48.62 50.91 50.26 39.59 29.95 30.63 33.07 36.87 36.10 38.05 34.61 35.43 38.52 38.39 39.15 38.73 37.93 39.58 41.83 35.67 35.19 36.37 44.47 45.56 46.70 45.78 42.44 39.51 44.74 38.83 40.19 38.06
45.44 45.55 45.66 45.68 45.84 46.25 47.22 47.27 46.67 46.41 46.16 46.45 45.11 44.05 43.42 49.71 51.84 46.03 35.09 29.22 33.24 37.97 38.06 37.09 31.94 35.48 31.96 35.43 35.90 38.37 38.06 39.89 39.51 43.12 43.81 40.72 34.97 42.37 44.47 46.97 47.06 45.48 47.07 38.29 39.97 31.81 31.00
45.18 44.99 44.86 45.05 45.33 45.62 45.61 46.14 46.23 45.84 45.65 45.83 43.23 37.98 45.70 50.03 49.81 38.74 28.57 30.78 35.36 39.09 39.16 35.53 34.19 33.68 34.54 33.74 35.71 35.49 37.85 39.69 40.44 40.67 44.26 41.38 40.32 39.93 43.62 42.14 41.88 42.68 41.62 42.96 43.06 40.34 34.51
44.37 44.41 44.50 44.82 44.90 44.96 45.39 45.66 45.94 45.79 45.56 44.20 41.17 31.91 47.40 49.47 34.68 34.92 30.02 33.98 37.65 37.03 39.81 38.07 38.05 36.56 35.19 35.87 34.37 34.61 34.02 38.76 41.41 42.66 39.63 41.67 39.57 36.71 39.83 43.92 46.08 45.65 43.17 43.26 37.59 36.65 39.70
43.72 43.93 44.32 44.80 44.64 44.63 45.07 45.66 45.60 45.77 45.53 44.21 36.30 35.58 46.02 46.48 28.89 30.07 34.59 34.76 36.99 35.93 36.95 36.59 36.02 37.58 38.43 35.09 32.09 35.41 36.72 41.23 41.55 40.13 41.34 44.36 38.50 31.86 34.65 40.11 42.82 41.52 43.00 43.23 44.04 43.12 38.59
43.84 43.89 44.01 44.18 44.13 44.52 44.69 45.23 45.29 45.43 45.66 43.97 36.79 30.95 37.06 39.77 38.43 33.84 32.59 32.48 32.69 38.63 37.40 38.26 36.84 38.37 36.41 34.55 37.60 34.63 36.10 39.13 41.47 42.12 43.22 45.95 41.48 36.98 32.81 36.68 41.68 39.21 41.50 43.01 42.34 37.86 38.26
43.39 43.70 43.85 44.17 44.30 44.26 44.52 44.86 45.13 45.42 45.71 43.63 36.12 32.85 37.12 30.77 31.55 33.03 34.00 34.18 32.39 32.34 37.39 38.31 35.46 35.82 34.46 31.06 33.83 33.38 36.73 38.40 39.83 41.43 42.96 42.70 35.86 39.28 39.84 40.44 41.08 40.43 40.53 41.59 41.11 41.90 38.10
43.06 43.19 43.49 43.70 43.98 44.05 44.22 44.18 44.88 44.65 45.41 40.44 32.56 32.18 36.90 35.28 36.29 32.79 31.61 31.71 32.22 34.63 35.02 33.98 33.72 36.06 36.35 33.16 34.64 32.64 35.99 36.53 35.77 39.21 38.28 40.93 35.84 37.74 35.46 39.13 39.50 37.17 40.02 41.10 41.26 42.60 42.72
43.09 43.08 43.54 43.31 43.42 43.74 43.91 44.59 44.85 44.99 45.14 38.53 39.48 40.60 35.61 33.79 33.67 32.27 32.30 33.25 34.06 36.77 36.80 38.31 37.28 35.15 34.92 36.58 39.34 40.28 40.49 40.39 39.69 37.52 35.86 36.60 37.98 35.32 31.23 36.94 36.55 32.97 38.21 39.98 42.20 44.05 43.76
42.72 42.91 43.21 43.26 43.51 43.81 44.22 44.71 45.01 45.51 45.63 42.13 40.67 39.50 33.01 27.34 32.66 32.89 34.25 35.23 34.68 35.39 35.23 37.94 38.37 35.28 38.93 42.75 42.80 42.07 41.04 39.44 39.82 39.55 40.20 35.55 36.90 37.76 32.19 33.92 25.43 38.06 44.36 44.16 42.93 43.83 45.45
43.77 43.32 43.69 44.10 44.66 44.72 44.92 45.02 45.15 45.44 46.19 42.41 42.28 40.63 34.59 28.92 33.14 33.16 34.53 34.96 36.85 38.18 37.02 37.07 38.59 40.67 41.35 39.00 34.69 32.76 33.28 34.27 36.06 38.77 39.14 39.45 36.93 34.56 31.05 31.28 35.05 37.55 40.46 40.70 41.42 40.36 44.29
44.44 44.29 44.29 44.82 44.89 44.85 45.16 45.32 45.72 45.98 46.35 43.66 42.98 43.99 39.16 34.14 32.35 36.00 34.53 35.74 33.34 34.37 35.47 37.46 40.24 42.13 40.25 36.73 33.66 27.51 26.92 31.27 30.58 33.20 39.28 39.10 39.46 35.75 33.30 28.31 26.00 37.08 42.66 45.69 44.45 35.40 44.88
45.19 45.09 45.04 45.13 45.06 45.21 45.19 45.32 45.72 46.12 46.63 44.73 40.21 45.67 41.02 32.73 36.19 37.75 34.65 35.08 37.34 36.74 34.66 36.34 37.25 36.38 38.61 35.12 30.57 29.58 29.88 35.14 29.86 30.64 30.59 31.71 34.38 31.28 32.08 30.89 34.22 41.59 43.49 46.36 33.56 36.99 45.74
45.21 45.35 45.26 45.24 45.38 45.42 45.40 45.70 45.95 46.14 46.26 44.93 41.78 44.48 41.59 35.30 36.11 39.79 40.76 37.73 37.99 37.46 33.77 37.07 35.92 36.17 34.53 32.56 31.56 31.96 31.73 34.63 33.48 36.10 33.30 32.62 31.56 31.21 32.95 29.70 27.57 43.89 43.42 37.90 43.34 46.48 46.61
45.37 45.40 45.64 45.80 45.78 45.61 45.69 45.68 45.80 46.19 46.60 46.17 38.98 45.07 45.81 38.38 36.75 43.07 43.48 44.61 43.17 42.19 39.25 38.75 37.29 37.87 38.46 34.57 35.46 35.97 33.22 36.72 34.49 30.54 39.79 33.44 37.28 35.08 36.42 36.29 44.53 46.45 45.27 46.16 46.56 45.10 44.52

GFSGBSN_sfc_wetblb_063.txt.gz
Wetbulb
52.08 51.50 51.78 52.07 51.77 51.89 51.77 52.17 51.86 51.88 52.24 52.61 52.74 53.04 53.40 53.54 53.56 53.59 54.01 53.84 54.17 53.88 53.58 53.61 53.64 53.63 52.09 49.26 50.30 56.33 58.68 59.95 61.05 57.99 55.58 53.66 52.24 51.86 48.99 49.48 49.94 48.84 49.75 50.93 51.52 51.03 51.26
51.41 51.41 51.86 51.72 51.45 51.65 51.13 51.47 51.57 52.25 52.05 52.48 53.15 53.50 53.42 53.23 52.99 52.90 53.47 53.59 53.53 53.67 53.70 53.29 53.51 52.78 50.11 42.80 55.32 56.14 53.01 51.21 50.88 56.17 55.84 54.77 52.92 53.56 50.92 49.84 49.42 50.62 50.19 50.44 50.93 50.94 51.54
51.66 51.57 51.12 51.64 51.49 51.41 51.79 51.23 51.20 52.04 52.41 52.69 52.57 52.79 52.95 52.79 52.62 52.70 53.08 53.16 53.10 53.30 53.45 53.15 53.36 52.93 47.92 46.13 54.46 54.80 52.98 50.69 49.86 48.65 51.01 56.35 55.89 52.73 52.70 49.71 51.73 50.55 47.46 49.21 49.89 50.52 49.70
51.10 50.87 50.97 50.72 50.98 52.03 50.89 51.27 51.02 50.87 51.51 51.84 52.11 52.16 52.79 52.79 52.73 52.90 52.96 52.75 52.67 52.89 53.34 53.25 53.70 53.24 45.27 52.61 55.21 54.44 54.79 52.13 52.13 51.10 50.28 55.12 56.17 54.31 51.72 52.14 50.09 47.54 47.83 44.22 49.31 50.19 50.84
51.47 50.86 50.54 50.93 51.10 51.03 50.66 50.62 50.36 50.48 51.58 51.62 51.68 51.87 52.27 52.30 52.55 52.41 52.39 52.40 52.23 53.04 52.97 53.51 53.20 50.99 45.03 53.72 50.05 52.44 52.88 49.93 51.39 51.28 51.41 51.70 53.96 50.86 51.23 46.91 45.28 47.34 42.74 44.50 46.65 51.15 50.27
50.30 50.90 50.71 50.78 50.64 50.28 49.91 49.86 50.82 50.66 50.36 50.78 50.92 51.09 51.62 51.88 52.16 51.92 51.79 51.51 53.06 52.66 53.08 55.03 53.33 46.75 49.77 46.24 49.49 53.29 56.46 54.20 50.79 49.91 48.42 47.44 49.26 47.17 46.08 44.68 37.78 42.47 43.78 45.69 45.70 49.10 49.26
50.85 50.36 50.19 49.97 50.62 49.51 49.92 49.92 50.41 50.70 50.05 50.01 49.99 50.46 50.76 51.29 51.59 51.58 51.38 53.49 48.95 48.97 49.69 44.81 45.82 47.09 47.09 51.52 53.41 52.18 54.63 53.27 51.00 47.82 41.44 45.43 42.89 42.60 44.68 45.44 45.36 45.97 46.09 45.38 47.83 49.79 48.02
49.38 49.92 50.18 49.43 49.63 49.39 49.72 50.00 49.94 49.40 48.45 49.41 49.60 49.87 50.51 50.58 51.25 51.31 52.14 47.63 46.58 47.04 40.25 46.73 47.10 47.24 49.13 49.29 44.02 48.77 54.45 47.91 46.45 41.74 44.04 41.60 40.80 45.74 47.05 46.47 45.46 45.61 44.61 44.53 47.32 48.48 46.91
48.86 48.88 48.72 49.66 49.73 48.47 49.66 49.51 49.18 48.62 48.51 48.96 48.81 49.44 50.18 50.69 51.04 51.11 50.20 49.01 52.90 50.47 40.98 44.37 47.50 46.95 47.39 48.02 43.20 45.35 50.10 49.08 45.03 41.50 42.55 38.52 43.53 46.87 45.40 44.88 43.72 45.40 44.28 44.57 44.52 47.48 47.76
48.57 48.61 48.20 49.03 49.61 49.12 48.61 49.26 48.48 47.75 48.33 48.70 48.53 49.13 50.25 50.22 47.87 50.26 47.77 51.99 53.71 51.46 36.83 41.14 43.96 47.16 48.28 46.26 41.21 47.79 50.62 48.57 45.15 41.63 42.96 43.05 45.48 44.71 44.18 43.34 45.45 42.35 47.20 46.13 45.14 44.21 40.91
48.55 48.53 48.57 48.29 48.15 48.87 48.89 48.39 48.48 47.56 47.98 47.92 48.76 48.96 50.04 49.71 48.31 46.02 49.62 53.73 53.77 48.41 29.52 40.84 44.32 51.30 48.49 44.01 44.34 44.71 48.44 47.80 42.23 41.99 41.92 41.93 43.43 41.90 42.07 43.88 46.44 44.30 47.65 46.11 45.33 44.10 44.09
48.01 48.07 47.62 47.55 47.63 48.01 48.43 48.53 48.77 47.48 47.57 47.61 47.84 48.54 49.07 48.91 50.54 50.65 52.92 53.17 50.38 35.70 29.10 38.26 42.99 42.40 43.05 44.94 44.24 44.92 44.77 46.79 46.16 40.69 41.83 41.36 45.87 45.95 44.80 45.12 46.47 47.72 45.98 45.77 45.61 44.37 38.43
47.09 47.34 47.11 46.97 47.17 47.57 47.64 48.43 48.21 47.19 47.44 47.14 47.65 48.24 47.62 48.68 44.83 51.81 52.59 47.71 36.50 30.77 39.47 37.45 38.61 41.20 41.37 41.33 42.57 42.54 41.20 39.51 36.35 31.56 34.48 39.33 40.05 44.99 47.56 42.62 45.51 45.18 43.20 36.99 36.02 36.88 35.58
46.24 46.61 46.78 46.99 47.09 47.01 47.62 47.46 47.51 47.57 47.34 46.65 47.50 47.82 48.03 49.29 49.29 52.51 49.47 40.60 29.41 35.01 35.73 41.23 40.33 40.68 38.21 41.30 42.24 42.76 40.60 37.30 40.35 40.64 37.22 34.51 31.90 41.46 46.44 44.26 41.79 43.35 42.79 37.86 31.58 34.30 38.53
45.77 46.04 46.25 46.31 46.48 46.75 46.91 47.25 47.12 47.22 47.38 46.85 46.87 46.39 46.68 49.48 51.44 50.32 42.59 32.47 33.52 36.24 38.81 37.79 38.66 35.91 36.84 40.07 40.50 41.25 41.08 39.88 40.94 41.11 36.13 36.11 36.20 43.88 45.03 46.52 45.33 43.02 40.64 44.93 39.62 41.98 39.12
45.36 45.60 45.59 45.72 46.05 46.06 46.12 46.36 46.52 46.32 46.64 46.15 44.11 44.14 44.46 50.98 51.92 47.42 36.93 31.76 36.70 39.77 40.23 38.95 33.30 36.49 34.31 37.15 38.53 39.95 40.37 42.55 40.73 43.01 43.95 41.34 35.20 42.36 44.23 46.43 46.53 44.06 47.12 39.23 41.02 32.30 31.62
44.93 45.06 45.18 45.52 45.35 45.52 45.81 45.89 45.78 46.16 46.24 45.58 43.13 37.31 47.47 51.18 50.21 40.30 32.13 34.08 37.24 40.70 41.10 37.61 36.28 35.72 37.00 36.37 37.84 38.11 38.58 41.72 42.74 41.97 45.09 42.86 40.70 38.99 43.65 42.03 41.51 41.78 41.52 43.39 42.92 40.64 34.53
44.51 44.45 44.58 44.60 44.78 45.08 45.21 45.25 45.58 45.81 45.58 43.48 41.00 32.53 48.38 49.91 37.50 37.81 32.56 36.18 38.67 39.18 41.38 39.50 39.67 38.60 37.46 38.20 36.71 37.22 36.77 40.07 43.18 42.67 42.54 43.10 40.09 35.29 38.68 44.87 47.18 45.61 43.13 43.99 38.40 36.28 40.72
43.84 43.96 44.03 44.46 44.48 44.52 44.88 45.08 45.49 45.71 45.07 43.85 35.44 37.15 48.12 47.42 31.29 32.93 36.31 36.20 37.69 37.57 38.23 37.97 37.21 39.30 40.44 37.65 33.99 38.08 38.68 42.62 42.87 40.80 40.42 43.74 38.15 32.66 35.50 41.23 44.49 42.71 44.95 45.01 44.60 43.69 38.04
43.91 43.95 44.30 44.44 44.70 44.62 44.64 44.98 44.87 45.25 45.52 43.88 37.37 32.58 38.07 41.77 40.33 35.59 33.32 33.76 34.62 39.49 38.61 39.85 38.79 39.86 38.36 36.73 39.35 36.43 38.12 40.97 42.45 41.35 42.48 43.19 41.63 37.19 32.50 37.60 41.77 39.27 42.45 43.91 42.61 38.19 39.63
43.47 43.30 43.54 43.72 44.10 44.32 44.26 44.31 45.12 45.25 45.21 43.35 37.93 34.07 37.58 31.62 34.85 35.14 36.11 35.57 33.37 33.28 38.83 39.46 36.96 37.56 36.79 33.83 35.33 35.46 38.77 40.23 42.02 41.97 41.91 41.40 36.53 39.65 41.08 42.25 43.02 41.65 41.19 41.81 40.72 41.47 38.06
43.24 43.41 43.33 43.51 44.03 44.24 44.27 44.16 44.59 44.72 45.00 39.85 34.67 34.05 37.98 36.21 37.76 35.28 34.94 32.64 33.37 36.03 36.99 35.48 35.31 37.15 38.00 34.86 36.01 34.41 38.05 39.01 38.45 41.00 39.71 42.33 34.51 37.40 37.19 40.81 41.41 39.87 42.29 43.39 43.20 43.51 43.41
42.91 43.47 43.38 43.29 43.80 44.02 44.10 44.10 44.44 44.61 43.98 38.50 40.74 41.10 38.20 34.20 34.58 33.93 34.13 34.11 34.30 37.36 38.93 39.88 38.35 37.60 36.51 38.17 40.90 41.71 42.72 42.17 40.99 38.92 37.99 38.50 36.63 34.77 30.93 37.56 36.93 34.17 39.67 41.13 42.17 44.48 44.36
43.04 43.13 43.04 43.31 43.73 43.78 43.85 44.12 44.90 45.11 45.10 41.53 40.71 39.48 34.09 30.21 32.73 33.41 34.86 36.08 35.91 37.02 35.86 38.66 40.24 38.11 40.85 45.24 44.26 43.31 41.78 40.25 40.95 40.89 41.83 37.18 37.07 36.25 32.86 34.27 25.18 39.22 44.42 44.99 43.24 45.30 46.37
44.15 43.85 43.97 43.83 44.27 44.34 44.24 44.31 44.32 44.77 44.89 45.62 43.25 40.01 35.93 29.96 33.54 34.11 35.25 35.75 37.62 38.97 37.84 38.23 40.66 43.11 45.24 40.91 34.82 32.64 33.62 34.92 36.98 39.64 40.26 41.21 37.78 34.63 31.13 31.93 36.25 38.30 41.03 42.33 42.22 41.68 45.77
44.71 44.67 45.05 44.73 43.92 44.54 44.53 44.55 44.65 44.96 45.23 45.96 45.93 44.84 39.41 32.37 32.27 36.50 35.05 36.18 34.40 35.45 36.21 38.80 42.58 45.13 41.94 36.38 34.67 28.29 27.78 32.16 31.77 35.38 40.79 40.73 39.93 36.25 34.43 28.63 26.86 38.31 44.11 46.42 46.66 37.78 46.08
45.01 45.67 46.04 45.60 45.45 44.97 44.80 44.96 45.08 45.08 45.49 45.08 42.00 46.76 40.13 33.29 37.70 38.39 35.15 35.12 39.11 37.73 35.92 38.81 37.54 37.05 38.46 34.58 31.81 30.34 30.35 35.93 30.83 30.95 32.15 34.02 34.94 31.50 32.29 31.71 35.94 42.85 44.60 46.40 35.24 37.88 46.72
45.04 45.49 45.35 45.51 45.56 45.37 45.28 45.14 45.06 45.32 45.65 44.08 41.78 44.36 39.71 36.38 37.92 40.58 41.11 39.03 39.42 38.97 34.87 37.80 36.61 36.66 34.96 32.43 32.09 32.99 32.58 34.75 34.72 36.76 35.03 33.19 31.87 31.63 33.64 30.43 28.14 45.37 43.87 39.49 44.26 47.60 47.10
45.05 45.32 45.29 45.44 45.67 45.59 45.54 45.44 45.46 45.63 45.84 45.84 40.09 43.23 43.89 37.78 38.74 43.88 43.68 44.65 43.92 42.50 38.82 37.78 37.24 37.71 39.13 36.08 36.61 36.80 34.00 36.14 35.74 31.53 40.97 32.50 37.36 35.64 36.15 35.95 45.50 47.87 46.44 48.00 48.19 46.66 46.38

GFSGBSN_sfc_wetblb_066.txt.gz
Wetbulb
51.32 52.09 52.11 51.18 51.40 51.54 51.79 51.57 51.73 52.28 52.06 52.40 52.81 53.46 53.38 53.37 53.39 53.23 53.51 53.55 53.73 53.41 53.33 53.48 53.55 53.73 51.46 45.32 46.92 54.97 59.26 60.65 58.68 58.78 54.30 52.14 49.97 49.98 47.15 49.23 49.93 47.85 48.36 49.64 50.67 51.10 50.52
51.92 52.20 51.46 51.49 51.77 51.22 51.40 51.75 51.36 51.77 51.73 52.25 52.73 52.71 52.67 53.10 52.98 52.75 53.07 53.26 53.36 53.30 53.36 53.10 53.32 53.11 48.54 40.15 51.90 54.68 55.28 52.80 50.69 52.66 55.59 54.29 51.54 51.93 49.57 48.98 48.60 50.13 48.97 48.84 50.20 50.22 50.67
51.62 51.58 51.69 51.23 51.07 51.09 51.59 50.99 51.20 51.28 51.07 51.58 51.83 51.98 52.29 52.47 52.12 52.05 52.93 52.82 52.74 53.03 53.36 53.01 53.23 52.23 47.06 44.68 52.00 52.23 52.16 50.74 50.70 49.34 47.12 53.73 55.35 51.85 51.22 48.26 51.29 49.75 46.49 48.43 49.01 49.73 49.14
51.98 52.05 51.01 50.93 51.36 51.27 51.36 50.78 50.57 50.46 50.52 51.40 51.91 51.70 52.07 52.16 52.14 52.39 52.27 52.08 52.17 52.62 53.22 53.45 53.72 51.99 44.43 53.30 54.24 52.33 53.16 52.41 53.93 52.70 50.02 49.97 53.12 52.28 51.03 52.49 49.93 46.80 46.72 42.47 47.59 49.07 49.68
51.42 51.14 51.20 50.88 50.92 51.05 50.64 50.34 50.15 49.91 50.56 50.34 50.92 50.88 51.59 51.73 51.86 51.59 51.63 51.63 51.62 52.80 53.65 54.27 51.53 50.02 45.06 55.68 50.62 51.96 52.61 50.41 51.70 52.08 51.40 50.71 49.45 48.10 49.23 45.93 43.39 44.36 39.84 42.11 44.09 49.37 49.13
50.81 51.20 50.68 50.92 50.61 50.94 50.21 50.19 50.80 50.92 50.44 50.48 50.24 50.01 50.58 51.18 51.32 50.86 50.65 50.93 52.38 53.26 53.69 54.46 53.87 47.28 50.25 47.04 51.51 52.89 55.77 53.28 49.15 50.04 49.23 47.51 45.64 42.57 45.06 42.82 36.60 39.18 40.26 42.74 43.40 47.55 48.77
49.77 50.23 50.91 50.78 49.98 49.98 50.53 49.87 50.81 51.03 49.62 49.16 49.39 49.68 49.97 50.85 50.92 50.78 49.43 49.99 47.53 47.72 50.54 46.24 46.86 46.51 47.96 50.72 51.45 49.83 53.65 52.85 51.52 48.87 43.04 45.62 39.84 36.46 42.38 44.57 45.30 44.00 42.28 41.87 45.49 49.04 48.03
49.54 49.27 49.50 49.82 49.96 50.42 49.89 49.19 50.62 50.27 49.39 48.53 49.08 49.28 49.47 50.45 50.72 50.69 49.83 48.12 47.10 47.58 39.60 46.71 46.93 46.90 48.76 49.90 44.59 46.61 53.16 47.76 47.17 42.11 45.00 41.95 36.82 42.20 44.94 45.65 44.14 43.14 40.99 41.49 46.14 48.89 47.30
49.18 49.10 49.29 49.17 48.77 49.66 50.03 49.55 49.63 49.75 48.85 48.35 48.74 48.98 48.98 50.07 50.56 49.73 50.07 48.38 53.13 51.54 40.17 44.17 47.80 47.10 47.60 48.72 44.50 44.42 48.45 48.66 45.32 42.49 42.60 39.41 40.95 43.69 42.84 43.61 42.78 42.80 41.27 42.14 42.89 46.61 47.86
49.00 48.93 48.91 49.23 48.79 48.80 49.43 49.35 48.62 48.78 48.61 48.65 48.52 48.29 49.64 49.74 46.60 49.65 46.91 52.02 53.44 51.85 35.00 42.76 44.46 47.78 49.12 47.08 42.54 48.61 48.57 47.06 45.10 41.13 42.67 40.95 45.27 41.99 40.84 41.92 43.37 39.50 44.79 44.26 44.37 43.44 39.20
48.59 48.88 48.85 48.70 48.48 48.15 48.09 48.81 48.46 48.15 48.32 47.91 48.11 47.77 49.34 48.86 45.68 44.91 49.31 52.63 52.73 48.97 27.39 42.41 44.56 51.86 49.28 44.83 45.45 45.35 48.33 46.52 42.58 41.88 41.94 39.46 41.74 39.10 38.53 40.84 45.04 41.64 46.79 45.02 44.91 42.72 42.37
46.90 47.41 48.05 48.02 47.76 47.60 47.85 48.07 48.46 47.96 48.17 47.58 47.54 47.66 48.71 46.56 47.66 48.81 51.84 52.27 49.20 34.00 28.10 38.59 44.19 43.71 43.81 45.65 45.38 45.74 43.96 46.67 47.83 43.36 43.03 41.13 45.16 43.05 41.86 43.92 45.54 46.59 43.66 44.03 44.61 42.61 35.70
46.23 46.31 46.73 47.29 47.35 47.50 47.76 47.93 47.86 48.02 47.72 47.34 47.32 47.51 47.11 47.34 42.72 50.18 51.21 46.41 34.19 28.69 40.53 37.89 39.40 41.55 41.18 40.82 42.83 43.32 40.85 38.04 36.72 33.41 33.98 38.64 39.58 43.57 44.79 40.79 44.15 43.36 39.40 33.18 32.82 33.89 33.31
45.85 45.73 46.05 46.69 47.11 47.21 47.37 47.27 47.87 47.42 47.43 47.20 47.60 47.58 46.90 46.93 48.52 50.65 46.95 38.12 27.44 36.16 38.49 41.95 40.42 40.53 36.94 39.88 42.23 42.89 40.57 37.56 39.73 38.45 35.32 32.99 31.79 40.82 44.46 42.05 39.83 40.15 38.61 34.29 28.85 31.78 35.31
45.10 45.63 45.95 46.20 46.26 46.51 46.81 47.10 47.07 46.98 46.86 46.74 47.00 44.97 44.96 47.73 50.64 49.64 39.47 30.02 31.70 36.23 39.68 38.29 39.16 35.63 36.24 39.59 39.99 41.57 41.39 40.10 41.57 40.51 33.76 33.76 33.85 43.99 44.45 44.91 44.44 39.70 35.67 42.52 37.85 38.96 35.20
44.97 44.57 45.32 45.56 45.90 46.02 45.95 46.23 46.49 46.26 46.37 46.52 43.27 42.11 41.84 50.52 51.40 45.48 34.59 30.13 35.97 41.03 40.64 40.13 33.59 36.46 34.72 37.58 37.41 39.38 40.11 42.42 41.24 43.21 43.73 38.93 32.14 41.17 43.34 44.94 44.61 43.16 44.76 35.70 38.21 29.51 29.35
44.45 44.68 45.10 45.09 45.16 45.44 45.52 45.66 45.98 46.12 45.73 45.72 41.27 35.98 44.53 50.62 48.22 39.44 28.49 32.01 37.14 41.70 41.48 37.85 36.37 35.42 36.85 36.42 37.83 37.57 39.43 42.00 43.21 41.32 43.20 41.77 38.18 37.46 42.80 40.07 39.41 40.57 39.26 40.21 40.24 38.16 33.22
43.59 44.12 44.54 44.74 44.75 44.89 45.12 45.22 45.46 45.60 45.62 43.71 39.74 31.74 46.80 50.24 36.42 35.68 30.60 35.53 39.65 39.62 41.84 39.30 39.56 37.97 37.20 37.78 36.94 36.90 37.32 40.36 43.24 42.46 39.19 42.65 39.62 34.08 36.87 44.15 44.74 43.49 40.64 41.04 35.06 34.75 38.27
44.09 44.20 44.33 44.54 44.48 44.45 44.78 44.90 44.95 45.41 45.38 42.42 36.48 36.25 45.46 46.42 30.21 32.37 35.98 35.68 38.11 37.49 38.03 37.90 37.00 38.78 39.94 37.13 33.75 37.31 38.85 42.99 42.96 40.59 37.97 38.77 37.19 31.35 33.64 39.43 42.97 40.61 42.34 42.55 42.24 40.34 35.98
43.89 44.01 44.15 44.23 44.50 44.68 44.74 44.90 45.13 45.35 45.45 43.29 36.09 30.91 36.80 41.50 39.56 35.05 32.89 33.85 33.77 39.32 37.71 39.00 38.29 39.78 37.59 35.86 38.44 35.82 37.71 41.78 42.89 42.58 41.64 41.06 37.55 35.77 30.85 34.65 39.53 38.39 40.98 42.29 41.75 35.91 36.95
43.76 43.78 43.78 43.57 43.55 44.10 44.30 44.60 44.85 45.23 45.12 42.40 36.07 32.57 36.14 31.38 33.99 34.42 35.25 35.11 33.10 33.06 38.86 39.06 36.62 37.32 36.43 33.29 35.12 35.04 38.15 39.17 41.35 42.87 41.35 39.52 34.31 37.66 38.43 40.62 41.36 39.73 39.71 41.52 38.83 40.16 36.36
43.46 43.21 43.48 43.48 43.63 43.79 44.17 44.47 44.65 44.63 44.90 38.89 32.88 33.46 36.64 33.19 35.43 34.18 34.53 32.94 32.79 35.17 36.32 35.48 34.99 37.06 37.80 34.41 35.65 33.87 37.14 37.67 37.40 41.60 39.55 40.21 34.65 36.17 35.03 40.59 40.95 39.24 40.81 41.53 42.03 42.42 41.44
43.24 43.46 43.49 43.41 43.12 43.51 44.10 44.37 44.73 44.85 44.26 37.61 39.23 39.44 37.34 33.60 33.66 32.44 33.31 33.80 34.14 36.66 37.89 39.61 38.11 37.34 36.02 37.90 40.54 41.70 42.23 41.76 40.20 38.42 37.87 36.79 35.40 33.40 31.15 36.46 36.68 34.43 39.79 40.72 41.52 42.70 43.56
43.36 43.50 43.58 43.68 43.76 43.45 43.75 44.43 44.75 44.67 44.36 42.24 40.39 39.21 33.85 28.89 31.32 31.61 34.42 35.26 34.94 35.97 34.67 38.24 40.11 36.41 41.06 44.55 44.49 42.93 41.61 40.73 40.31 39.82 40.98 36.14 34.49 34.13 31.15 33.08 25.85 39.09 44.99 44.63 42.73 43.00 44.51
43.09 43.38 43.97 44.19 44.68 44.21 44.42 44.43 44.48 44.75 44.62 44.17 42.70 37.52 35.42 29.70 32.22 32.85 33.87 34.83 36.85 38.16 36.17 37.68 40.05 41.88 45.13 41.88 35.31 31.93 33.04 33.91 36.01 38.46 38.56 40.18 36.12 31.38 30.70 30.53 34.56 37.40 40.88 41.42 41.60 40.82 44.15
43.48 43.65 44.14 45.03 45.06 45.12 44.00 44.32 44.43 44.17 44.41 44.47 43.76 44.58 38.88 33.09 31.10 35.48 33.70 35.23 32.97 34.29 35.60 38.06 42.01 44.99 43.23 37.90 32.67 25.86 25.19 30.77 30.42 33.98 40.06 39.34 39.90 33.38 32.39 27.95 25.66 37.94 43.56 45.89 46.01 36.24 45.09
43.94 44.11 44.84 45.08 45.53 45.53 44.86 44.30 44.63 44.58 44.27 44.10 41.59 45.29 39.57 34.16 36.27 37.03 33.58 33.94 37.37 35.97 34.41 37.66 38.42 37.59 40.48 34.02 28.81 27.52 27.76 34.51 29.14 30.31 31.77 32.87 33.94 30.36 30.71 29.39 34.22 41.83 44.68 46.31 34.92 36.68 46.11
44.06 44.49 44.88 45.22 45.60 45.53 45.42 44.87 44.79 44.84 44.98 44.15 41.35 45.48 39.70 34.63 35.86 38.80 39.39 36.11 37.03 38.04 33.60 37.60 36.39 36.80 34.06 30.04 31.18 31.32 31.43 33.55 32.84 35.02 34.35 32.08 30.64 30.67 31.58 29.24 27.23 44.94 43.75 38.73 43.46 46.22 46.45
44.05 44.40 44.97 45.20 45.28 45.55 45.60 45.48 45.29 45.09 45.29 45.25 39.76 45.41 46.01 37.60 36.81 42.59 42.99 43.88 41.91 41.61 38.89 39.13 36.81 37.08 37.61 34.45 35.47 36.16 32.95 36.41 34.11 29.32 38.35 31.84 36.45 34.06 34.70 34.13 44.98 47.18 45.82 47.40 47.54 45.41 45.78

GFSGBSN_sfc_wetblb_069.txt.gz
Wetbulb
52.02 51.87 51.89 52.02 52.00 51.81 51.47 51.81 52.11 52.46 52.14 51.62 51.91 52.46 52.63 52.56 52.43 52.53 52.97 52.92 52.86 52.56 52.72 53.01 53.50 53.49 49.35 42.61 42.94 50.63 58.98 60.01 58.37 56.95 53.04 51.34 45.88 43.35 41.58 44.74 46.93 45.46 46.40 47.89 48.65 48.58 48.19
51.53 51.55 52.10 52.05 51.40 51.55 51.62 51.81 51.48 52.03 51.51 51.46 52.37 52.43 52.18 52.27 52.18 51.99 52.30 52.34 52.47 52.55 52.28 52.74 53.25 52.74 46.25 36.71 48.72 50.23 50.36 49.63 51.19 47.77 50.90 50.72 49.58 47.56 46.40 45.82 44.50 47.48 47.40 47.71 48.56 47.81 47.50
51.63 52.33 51.75 51.69 51.42 51.43 51.03 51.47 51.20 50.82 50.95 51.03 51.27 51.67 51.59 51.31 51.36 51.29 51.65 51.74 51.49 51.88 51.82 52.28 53.35 50.78 44.58 41.27 49.44 50.14 50.14 48.26 48.39 46.64 44.81 46.70 46.49 46.59 47.85 45.29 48.51 47.90 44.17 46.21 46.92 46.58 45.90
51.50 51.65 51.80 51.52 51.75 52.05 51.80 51.02 50.62 50.33 51.00 50.75 50.55 50.87 51.36 51.13 51.36 51.64 51.54 51.17 51.03 51.53 51.76 52.55 53.43 49.79 41.82 51.68 51.37 50.91 50.19 48.77 50.12 49.08 48.46 48.77 47.32 45.60 46.52 48.71 47.61 44.41 43.39 38.59 44.99 46.70 47.42
51.20 51.52 51.25 50.98 51.73 51.77 51.76 50.87 50.78 50.51 50.17 50.82 50.75 50.62 51.04 50.77 50.78 51.08 51.02 50.87 50.90 51.67 52.77 53.75 49.51 46.83 42.43 54.87 49.63 51.58 50.62 47.59 48.77 49.86 49.06 51.13 46.66 43.20 45.27 41.51 39.05 41.44 34.76 37.83 42.15 46.95 45.97
50.35 50.28 50.77 51.37 51.34 50.76 50.42 51.02 51.20 51.59 50.79 50.02 49.58 50.24 50.37 50.37 50.27 50.13 50.25 50.13 50.60 51.95 51.99 52.74 51.21 45.04 48.01 47.06 49.51 50.12 51.11 52.89 47.55 46.19 46.79 44.56 41.78 37.98 39.41 37.90 31.05 35.28 36.97 37.68 39.02 43.87 45.32
49.94 50.03 49.70 49.77 50.17 50.57 50.73 50.56 50.50 50.79 50.43 49.58 48.80 49.06 49.40 50.06 49.97 49.83 48.06 43.91 42.46 42.59 43.93 43.39 44.82 45.32 47.40 50.07 49.12 46.71 48.82 51.04 49.23 43.88 38.58 42.50 36.46 33.19 37.03 40.95 42.57 41.75 40.54 38.87 40.88 45.19 43.72
49.74 49.68 49.67 49.47 49.45 49.58 49.67 50.68 50.46 50.64 49.81 48.88 48.54 48.54 48.80 49.50 50.03 49.71 46.49 42.76 45.14 44.11 37.78 44.80 44.58 44.50 46.82 47.17 42.68 46.22 47.59 42.92 44.75 38.79 41.62 39.51 34.49 40.63 43.56 42.73 40.10 41.38 39.38 38.50 42.70 45.87 44.76
49.56 49.70 49.56 49.44 49.55 49.04 49.22 49.43 50.19 49.92 49.94 49.32 48.95 48.67 48.61 49.38 49.45 46.58 44.87 45.40 51.25 47.58 36.29 39.98 45.05 44.39 45.34 47.15 42.63 43.18 44.60 44.66 42.15 39.59 40.19 38.43 40.19 43.96 42.01 39.35 37.84 39.17 39.30 39.34 40.13 43.92 44.76
49.10 48.84 49.19 49.77 49.45 49.38 48.75 48.54 48.82 49.05 48.80 49.51 48.85 48.73 48.71 49.46 44.35 43.11 41.38 49.79 50.62 49.02 32.64 36.57 42.30 45.41 47.51 46.49 41.19 47.14 46.39 43.49 41.77 39.16 41.40 40.77 44.08 42.09 39.15 37.79 39.70 35.93 43.94 43.49 41.94 39.99 33.81
48.24 47.85 48.03 48.66 48.64 48.39 48.21 47.77 48.08 48.60 48.39 48.81 48.68 48.37 48.58 48.31 42.15 39.55 44.56 49.98 49.85 44.88 20.30 43.05 43.38 50.75 48.70 42.79 43.64 42.89 46.15 43.11 37.99 41.04 40.79 38.16 40.84 40.48 38.87 39.22 41.72 38.92 44.73 42.15 41.45 38.46 37.80
47.32 46.87 46.58 47.07 47.60 48.04 47.93 48.07 47.96 48.18 48.37 48.26 48.68 48.14 48.33 44.00 42.37 43.52 46.87 47.69 46.68 33.10 21.96 38.03 43.44 41.68 41.98 42.93 43.83 43.21 41.83 43.40 44.03 42.13 41.69 41.03 44.39 42.56 41.48 42.78 43.28 44.14 42.13 42.05 41.33 38.37 30.48
46.49 46.55 45.97 46.20 46.65 47.23 47.46 47.66 48.06 47.91 47.62 47.71 48.56 47.82 45.23 45.18 37.90 45.26 45.25 42.86 30.14 23.65 39.26 36.57 38.36 41.67 40.77 39.33 41.21 40.85 37.19 34.82 33.58 30.94 32.46 38.05 39.15 41.97 43.52 38.87 42.59 41.70 37.73 32.01 30.28 28.92 28.00
46.15 45.80 45.64 46.16 46.59 46.50 46.94 47.46 47.66 47.81 47.37 47.21 47.87 47.74 45.27 44.40 43.13 43.76 42.45 36.32 24.12 33.11 35.23 42.16 40.19 39.47 36.09 38.45 38.88 40.19 36.12 31.23 35.87 35.08 31.41 31.31 29.54 38.48 42.43 39.34 37.49 38.14 37.29 32.14 26.98 27.91 31.85
45.85 45.65 45.02 45.25 45.78 46.07 46.48 46.50 46.59 46.67 46.90 46.77 47.40 40.80 40.20 42.38 44.08 42.22 37.91 26.08 26.88 32.02 37.80 37.55 38.21 34.77 34.16 37.37 38.30 39.24 37.01 35.70 36.28 36.55 30.54 31.33 33.00 41.73 43.44 43.96 42.77 37.97 34.26 40.16 33.16 34.91 31.27
45.19 44.93 44.92 45.04 45.23 45.53 45.85 46.01 46.00 46.30 46.31 46.67 38.93 37.83 38.58 43.75 44.70 40.15 33.44 26.89 30.60 37.12 38.36 38.40 32.54 35.63 31.76 36.17 36.07 35.59 37.01 41.25 40.25 40.39 39.81 36.58 30.45 39.94 42.76 43.92 44.07 40.91 42.51 33.05 33.56 28.13 26.91
44.93 44.66 44.42 44.91 45.13 45.18 45.24 45.32 45.55 45.76 46.11 45.88 37.35 33.02 38.87 43.39 44.51 36.54 25.51 27.91 32.18 37.54 38.27 36.26 34.88 33.82 34.40 34.42 35.29 34.73 38.31 40.89 41.29 40.06 41.04 38.14 35.86 35.09 40.57 38.64 37.27 38.39 36.68 37.48 37.38 35.42 30.13
43.64 43.62 43.77 44.27 44.70 44.81 44.92 44.99 45.09 45.43 45.32 42.14 36.64 28.95 40.32 46.14 32.43 33.32 27.40 31.27 36.18 34.70 38.62 37.05 37.41 35.79 34.04 34.78 34.12 34.75 35.20 39.42 42.21 40.45 36.51 38.55 35.75 31.67 34.97 41.76 43.42 41.80 39.08 38.34 33.04 33.05 35.51
43.35 43.95 44.43 44.58 44.76 44.75 44.78 44.77 44.96 45.06 44.86 39.17 34.15 32.46 40.24 41.57 27.57 27.98 32.06 32.16 33.86 32.95 34.29 36.13 35.33 37.44 37.33 33.54 30.92 35.39 36.81 42.11 41.50 39.17 36.09 37.89 33.96 29.23 31.47 37.49 41.34 38.13 40.18 40.87 39.60 38.61 34.97
44.03 43.95 44.45 44.38 44.26 44.49 44.59 44.93 44.96 45.24 45.33 40.20 34.20 27.52 31.34 34.92 33.92 32.03 30.43 30.03 31.17 37.16 35.69 37.25 35.52 36.84 35.02 33.18 35.73 32.81 35.44 40.95 41.46 40.28 42.20 40.67 35.12 32.60 28.78 33.33 38.31 34.90 38.67 40.69 38.94 34.38 35.22
43.86 43.95 44.12 44.14 44.12 44.03 44.17 44.39 44.68 45.13 44.91 40.10 34.61 26.77 31.64 21.36 25.78 30.11 31.58 32.63 31.54 31.01 36.48 37.31 33.76 34.15 33.10 30.47 32.75 31.90 36.36 37.51 40.30 42.40 40.02 38.69 31.91 35.30 35.82 36.71 38.52 38.83 36.47 39.20 37.29 38.01 36.28
43.50 43.71 43.54 43.33 43.66 43.85 43.94 44.04 44.30 44.78 44.79 38.02 31.35 27.61 31.47 30.06 32.52 30.28 29.50 29.49 30.22 32.14 33.41 33.30 33.39 35.11 35.12 32.19 32.52 30.72 35.37 36.02 35.66 39.13 37.41 38.75 32.22 34.31 32.32 37.54 37.78 36.84 39.50 40.01 40.72 40.63 40.19
43.18 43.43 43.60 43.73 43.64 43.73 44.05 43.82 44.12 44.58 43.74 33.79 34.69 37.48 33.04 29.01 30.13 28.92 30.10 31.54 31.66 34.04 35.89 36.58 36.19 34.64 33.80 36.09 37.77 37.89 38.24 38.18 37.89 36.11 34.87 35.88 33.28 31.54 27.98 34.97 34.28 31.20 37.33 39.36 40.88 42.13 41.10
43.26 43.31 43.62 43.70 43.95 44.22 44.19 44.34 44.56 44.49 43.80 37.49 35.96 37.19 29.41 23.27 27.55 28.85 30.60 32.29 33.22 33.75 32.69 36.51 36.76 35.17 39.29 42.71 41.42 39.67 38.29 38.00 37.62 36.71 38.10 34.13 33.63 32.72 28.13 31.57 24.58 37.27 42.28 43.75 41.42 42.87 42.91
42.68 43.08 43.70 43.75 43.75 44.41 44.82 44.72 44.82 44.92 44.69 39.45 38.80 36.74 32.61 25.50 28.89 29.42 30.99 31.37 34.16 34.30 34.04 34.86 37.84 41.05 42.66 40.80 33.32 29.27 27.25 29.63 32.89 35.95 35.70 36.55 32.96 27.30 25.18 28.13 33.06 36.59 39.98 39.15 39.47 37.81 43.56
43.13 43.20 43.18 43.55 44.21 44.77 44.99 44.91 44.35 44.36 44.36 40.60 39.51 39.60 36.67 28.88 26.17 33.27 30.81 32.07 28.82 30.82 32.82 35.12 40.39 42.01 40.48 35.57 27.83 23.51 21.73 27.66 27.61 32.13 37.14 36.04 34.77 28.87 27.50 24.85 25.48 36.51 42.05 45.18 44.77 34.20 43.07
42.78 42.91 43.24 43.66 44.34 44.84 45.20 45.41 45.65 43.40 44.29 40.93 37.75 40.50 36.33 31.74 32.00 32.95 29.18 29.74 35.17 33.31 30.88 33.49 35.26 35.88 38.60 28.23 26.40 23.02 22.51 31.55 24.54 28.10 29.53 28.52 28.92 27.23 25.96 25.62 31.38 40.29 43.40 45.32 32.82 35.48 44.50
43.32 43.69 43.96 43.84 44.47 44.85 45.32 45.69 45.48 44.04 44.02 41.53 37.72 40.62 36.26 29.28 33.04 34.90 35.03 31.69 33.17 34.00 31.05 35.50 34.59 35.57 33.31 23.12 25.60 25.52 23.98 29.17 28.84 32.31 32.20 29.83 26.60 26.92 28.33 25.00 23.87 43.42 43.43 37.80 40.84 43.80 43.66
43.61 43.76 43.93 44.08 44.45 44.87 45.37 45.53 45.60 44.67 44.60 43.80 34.81 40.69 40.95 35.85 33.06 38.73 38.79 39.82 38.04 38.41 35.63 36.96 35.78 34.72 35.97 29.68 29.03 29.57 26.49 29.35 31.12 26.96 37.53 30.55 31.98 29.01 31.12 29.15 41.28 44.45 43.26 45.45 45.06 42.41 41.61

GFSGBSN_sfc_wetblb_072.txt.gz
Wetbulb
51.61 51.79 52.22 52.06 51.31 51.66 51.88 51.96 51.92 51.79 51.43 51.12 51.16 51.96 52.19 52.13 51.97 51.79 52.16 52.30 52.05 51.34 51.41 51.59 52.24 53.03 48.99 41.98 41.73 48.91 57.32 55.25 57.64 55.65 53.33 51.48 47.03 41.95 38.28 40.88 42.63 42.81 45.24 47.49 48.17 47.32 46.97
51.76 51.79 52.04 51.29 51.99 51.12 51.29 51.12 51.60 51.34 50.95 50.70 50.92 51.16 51.44 51.19 51.11 50.88 51.21 51.65 51.69 51.38 50.77 51.07 51.92 52.48 45.57 35.46 46.22 48.68 48.47 48.90 50.14 49.68 48.29 50.11 47.99 46.35 42.34 42.39 41.10 44.77 45.87 46.65 47.45 46.55 46.92
51.43 51.81 51.99 51.82 51.20 51.03 51.33 51.12 50.93 50.86 50.89 50.32 50.93 50.80 50.89 50.69 50.17 49.96 50.58 51.04 50.94 51.24 50.74 51.13 51.77 50.26 43.64 39.37 47.39 45.93 48.31 47.31 47.00 46.22 43.36 45.49 45.38 41.65 43.59 43.19 47.51 46.00 41.59 44.04 44.74 44.62 44.45
51.47 51.68 51.61 51.56 51.93 52.19 51.72 51.44 51.08 50.75 50.97 50.51 50.86 50.43 50.62 50.72 50.30 50.39 50.66 50.26 50.31 51.04 50.83 51.47 51.97 48.79 40.73 50.15 48.49 48.64 47.70 47.55 48.83 48.37 46.37 46.79 47.01 42.98 41.97 46.11 45.33 42.20 41.33 36.91 43.25 44.57 46.01
50.76 50.74 50.53 51.42 51.66 51.75 51.31 51.50 51.01 50.76 50.93 50.90 50.31 50.04 50.53 50.52 50.51 50.25 49.91 49.99 49.97 51.32 52.00 52.04 49.40 45.81 40.02 53.69 48.83 50.86 49.54 46.97 47.69 48.23 47.04 50.34 45.49 40.61 41.55 38.78 36.27 39.05 33.68 35.86 39.02 45.00 44.65
50.09 50.19 50.03 50.04 50.12 50.67 50.93 51.09 51.35 51.07 50.73 49.79 49.77 49.26 49.81 50.07 49.94 49.59 49.46 49.52 49.94 51.95 51.45 51.73 50.25 44.25 46.40 45.51 48.73 47.79 47.80 48.76 47.19 45.08 45.31 42.82 39.61 35.45 35.42 35.05 29.39 33.46 34.37 34.12 35.45 42.24 43.69
49.75 49.76 49.80 49.82 49.65 49.75 50.20 49.87 50.84 50.96 50.26 49.34 49.30 48.82 49.03 49.75 49.63 49.48 47.15 43.55 42.27 40.95 42.96 42.21 43.66 43.90 46.14 49.17 49.10 45.56 47.56 45.68 47.83 41.55 36.34 40.31 34.31 30.68 33.85 36.55 39.13 38.62 37.14 36.00 39.11 44.29 41.56
49.94 50.01 49.90 49.73 49.54 49.63 49.55 49.58 49.79 50.39 49.32 49.59 49.31 48.80 48.69 49.15 49.44 49.27 46.11 42.61 44.40 44.07 36.73 43.58 43.56 43.14 45.92 46.65 41.40 44.65 47.22 40.48 42.32 37.24 38.75 37.26 33.01 37.91 40.40 40.51 39.46 38.32 36.10 35.29 40.51 44.39 42.18
48.85 48.91 49.04 49.45 49.86 49.67 49.54 49.26 48.82 49.10 49.34 48.93 49.27 48.80 48.41 49.05 49.03 45.52 40.87 43.99 48.88 47.39 35.56 39.06 42.55 41.81 42.95 44.37 39.83 40.90 44.06 41.00 40.21 38.42 37.92 34.87 38.44 42.13 40.66 39.24 37.98 37.08 36.04 36.73 38.07 42.39 41.83
48.60 48.69 48.37 48.76 49.14 49.34 49.19 48.77 48.10 48.10 48.80 48.83 49.12 49.32 48.97 48.82 42.67 41.52 40.43 45.75 46.65 47.07 31.30 34.51 39.80 43.90 44.85 45.19 39.60 45.89 44.95 42.28 40.54 37.67 39.73 39.07 42.48 41.23 38.62 37.53 39.22 33.77 40.94 41.48 40.26 38.42 31.41
47.75 47.32 46.98 46.98 47.50 48.11 48.58 48.42 48.08 47.77 48.13 48.51 48.98 49.32 48.54 47.65 41.03 38.28 43.03 45.05 45.73 43.78 18.89 39.78 42.22 49.34 46.61 41.73 42.08 41.88 44.92 41.71 37.10 40.10 39.95 36.44 39.39 38.99 38.38 38.17 40.09 36.80 42.51 40.62 40.64 36.17 34.66
46.65 46.81 46.95 46.27 46.49 46.81 47.23 47.73 47.86 47.99 48.19 47.86 47.96 48.64 48.08 42.90 39.49 41.88 43.14 43.41 43.32 30.29 19.53 36.51 42.94 41.21 40.69 41.71 42.08 40.82 40.35 42.12 41.69 40.56 40.47 38.89 42.92 41.55 40.20 43.24 43.18 42.40 40.55 40.63 40.17 36.76 28.86
46.01 46.18 46.35 45.93 46.16 46.36 46.68 47.39 47.50 47.82 47.80 47.50 47.61 47.88 45.56 44.24 35.75 41.26 42.37 39.73 26.50 22.69 36.10 35.95 37.52 40.70 39.60 38.57 39.65 38.13 35.72 34.05 32.45 30.04 31.28 35.70 37.96 40.33 43.27 38.60 41.70 40.38 37.30 31.01 29.60 28.94 26.76
45.69 46.13 45.66 45.14 45.59 46.14 46.50 46.50 46.84 46.97 47.02 47.01 47.17 47.46 44.47 43.60 41.34 40.01 39.32 33.04 21.62 29.64 32.21 38.72 37.47 38.91 36.33 38.04 37.83 37.37 33.58 30.21 34.12 33.62 29.09 27.29 26.65 37.62 41.79 39.18 36.98 37.85 37.30 31.87 24.81 25.95 29.58
44.70 45.55 45.90 45.15 44.97 45.18 45.71 46.01 46.29 46.21 46.54 46.62 46.37 39.08 38.72 39.96 41.49 40.02 36.25 23.37 24.31 29.69 34.91 33.47 35.25 34.11 33.56 36.87 36.29 36.70 33.13 31.71 33.50 34.87 28.80 28.05 30.74 39.17 41.09 42.32 40.66 36.87 34.30 39.60 33.48 34.15 30.11
44.51 45.44 45.05 44.63 44.90 45.08 45.40 45.34 45.67 45.85 45.95 46.17 37.13 35.48 35.89 41.57 40.88 40.32 31.95 23.53 27.96 34.18 35.08 33.47 28.39 34.74 30.16 32.92 33.44 34.82 35.02 39.41 37.32 37.26 37.45 33.84 28.23 37.24 40.88 43.48 43.18 40.45 41.95 32.53 34.34 26.54 26.33
44.59 43.72 44.62 44.21 44.04 44.72 45.04 45.08 45.14 45.40 45.69 45.51 35.19 30.11 36.58 40.09 41.10 36.14 23.66 25.25 30.33 35.28 35.92 32.39 30.86 30.28 32.39 31.79 32.59 33.47 36.65 39.58 39.81 38.79 39.87 36.49 33.45 32.72 39.56 37.48 36.29 38.14 36.83 37.34 36.42 34.53 30.00
43.60 43.41 43.68 43.79 44.22 44.60 44.64 44.72 44.87 45.00 45.08 40.72 32.61 24.65 37.15 43.89 29.60 32.39 26.69 29.52 34.42 32.39 35.71 33.88 34.96 34.26 32.55 33.79 31.65 33.28 35.20 38.65 41.13 40.53 35.96 36.58 34.01 29.46 33.62 41.55 42.69 40.83 37.86 37.72 33.86 31.47 33.80
43.20 43.14 44.03 44.33 44.42 44.54 44.72 45.06 45.05 44.85 44.46 36.07 33.18 32.18 36.93 38.08 25.85 25.50 29.63 31.14 33.13 31.78 31.79 31.86 33.21 35.00 35.08 31.96 29.37 34.32 36.93 41.04 40.27 37.89 34.59 36.28 32.43 27.41 30.29 36.17 39.69 37.28 39.58 39.34 38.66 37.49 34.12
43.16 43.98 43.93 44.04 44.43 44.50 44.33 44.43 44.54 44.96 44.79 38.76 33.29 22.97 27.71 31.79 30.24 27.31 28.65 29.33 29.27 35.08 33.31 33.93 33.49 35.33 33.09 31.48 33.89 31.15 34.48 40.38 41.48 39.65 42.16 39.38 33.11 30.74 27.20 32.23 36.49 35.95 37.43 38.81 38.05 33.42 32.72
43.35 43.73 43.87 43.90 43.94 44.01 44.33 44.22 44.22 44.52 43.99 39.96 34.35 25.71 28.12 19.78 29.12 29.81 29.31 28.90 27.33 27.09 34.34 35.97 32.53 33.48 31.93 28.28 30.26 30.00 35.48 36.76 40.09 42.02 39.29 36.32 28.78 33.23 35.14 35.85 35.90 37.01 37.23 38.02 36.89 37.04 34.33
43.27 43.47 43.62 43.67 43.56 43.53 43.83 44.12 44.09 44.23 43.97 37.70 29.38 24.84 29.30 27.70 30.09 27.54 28.08 26.34 25.82 29.29 32.97 31.40 31.22 34.09 34.58 30.90 31.96 29.82 34.51 34.55 34.61 38.15 36.16 36.91 29.35 31.89 31.14 36.07 36.09 33.71 37.19 38.80 37.62 38.84 38.28
43.05 43.30 43.41 43.55 43.85 44.16 43.71 43.95 44.05 44.12 42.88 35.92 35.72 33.87 30.04 27.42 26.04 22.76 27.66 28.89 28.38 31.15 34.33 34.68 33.86 33.19 32.19 34.95 37.06 36.68 37.27 37.26 36.95 34.46 33.70 33.77 31.39 28.98 25.75 32.43 32.53 30.09 35.55 38.41 38.37 40.82 40.12
43.10 43.74 43.67 43.40 43.58 44.04 44.24 44.36 44.50 43.94 43.16 38.91 33.95 32.36 27.92 22.00 25.51 25.16 28.04 29.59 28.97 30.57 31.11 34.66 36.25 33.80 37.82 42.42 40.85 39.05 37.75 37.25 36.74 35.94 36.72 32.43 31.27 30.18 26.29 29.10 22.57 35.14 39.10 40.18 40.01 41.89 43.14
43.18 43.28 43.23 43.20 43.65 43.82 44.12 44.33 44.52 44.28 44.26 38.17 36.86 36.18 31.86 23.92 26.64 27.77 29.34 29.72 31.85 32.53 32.13 33.60 36.53 39.57 42.05 38.03 31.43 28.67 26.74 28.91 31.43 34.39 34.28 35.56 31.15 24.45 23.40 24.22 29.16 33.48 39.23 39.31 39.01 38.41 43.14
43.15 43.35 43.69 43.48 43.40 44.09 44.14 44.12 44.57 44.55 44.53 41.19 38.72 37.56 36.06 27.38 24.06 30.73 28.20 30.75 28.24 30.33 31.57 34.62 38.92 39.88 38.98 33.45 30.32 23.42 21.67 26.60 26.05 30.87 35.24 34.10 32.60 26.99 26.73 21.98 20.94 34.09 40.56 44.19 44.12 34.39 43.40
42.51 42.44 42.52 42.82 43.63 44.00 44.16 44.24 44.52 45.02 44.98 41.27 38.17 38.74 36.03 29.88 31.94 32.47 28.27 29.68 34.04 32.28 30.21 34.19 33.46 34.56 35.78 29.81 24.46 23.61 21.85 29.98 22.88 26.22 27.28 26.91 27.26 25.17 24.52 22.97 27.41 37.39 42.65 44.89 32.64 35.21 44.77
42.33 42.29 42.68 43.26 43.66 43.88 44.07 44.34 44.84 45.27 45.78 41.84 38.76 39.21 35.72 31.52 31.55 33.57 33.98 30.06 29.92 31.19 27.51 32.96 32.34 34.91 32.26 23.93 25.21 24.98 22.51 27.43 27.10 30.08 29.97 27.68 26.47 23.85 25.04 23.02 21.31 40.05 42.73 35.56 41.31 43.39 44.23
42.09 42.75 43.51 43.83 44.11 43.92 44.01 44.68 44.91 45.22 45.27 43.32 36.70 39.16 39.52 34.91 30.00 37.57 37.66 37.40 35.27 35.03 32.42 34.60 32.87 32.90 36.12 31.22 27.64 28.12 23.62 24.21 28.81 24.18 36.31 28.33 32.80 29.02 28.57 27.79 39.05 42.12 42.19 44.16 43.30 40.44 41.09

GFSGBSN_sfc_wetblb_075.txt.gz
Wetbulb
51.44 51.14 51.17 51.81 51.50 51.04 51.16 51.29 51.25 51.58 51.10 50.98 50.85 50.88 51.25 51.69 51.46 51.05 51.38 51.48 50.96 50.64 50.60 50.92 51.08 51.69 48.52 40.80 40.28 47.19 55.84 52.77 51.03 54.88 52.07 50.66 46.29 41.46 36.84 38.08 39.77 40.78 43.12 45.34 45.91 45.87 44.50
51.53 51.35 51.85 51.73 50.85 51.09 51.10 51.00 51.03 50.85 50.94 50.52 50.58 51.11 51.17 51.03 50.67 50.35 51.00 51.08 51.02 50.77 50.11 50.54 51.01 51.54 45.03 35.01 45.70 46.77 46.80 46.97 46.96 51.32 49.74 49.41 47.06 45.91 41.62 39.75 38.05 41.56 42.69 43.41 44.77 45.34 45.41
51.64 51.00 51.38 51.47 51.27 50.90 50.94 51.06 51.01 50.70 50.62 50.83 50.83 50.85 50.41 50.01 49.90 49.79 50.11 50.96 50.62 50.73 50.23 50.81 51.26 49.12 43.59 39.80 46.57 46.21 47.12 45.46 45.71 45.18 42.43 43.66 44.32 40.38 40.70 39.34 44.57 43.86 40.32 42.38 42.53 42.25 42.12
50.92 50.95 51.05 51.39 51.35 51.14 51.14 50.76 51.09 50.80 50.91 50.88 50.81 50.51 50.70 50.19 50.00 50.17 50.50 50.24 50.16 50.85 51.17 51.63 51.53 48.11 40.24 49.68 47.85 47.57 46.68 46.26 47.58 47.14 44.87 45.73 45.05 42.09 39.56 42.24 43.10 40.38 39.66 35.05 41.38 42.84 43.31
50.47 50.21 49.79 49.91 50.18 50.73 51.06 50.88 50.74 50.88 50.23 50.20 49.96 50.13 50.26 50.09 49.95 49.86 49.50 49.47 50.35 51.31 52.62 51.72 48.40 45.87 39.26 51.79 48.75 50.31 48.46 46.14 46.74 46.47 45.75 48.56 44.55 40.09 38.93 35.19 34.01 35.84 32.70 34.35 37.59 43.23 42.09
49.80 49.67 49.62 49.66 49.40 49.42 49.96 49.93 50.80 50.72 49.92 50.00 49.72 49.79 49.89 49.90 49.82 49.40 48.93 49.91 50.65 50.98 51.39 51.27 49.83 42.83 44.56 43.97 48.84 48.68 47.75 48.17 45.08 44.12 43.80 41.70 38.37 34.30 33.26 33.14 27.58 31.11 32.23 31.78 33.93 38.14 40.64
49.75 49.54 49.45 49.27 49.25 49.27 49.57 49.49 49.75 49.92 49.83 49.62 49.62 49.51 49.55 49.76 49.73 48.99 47.49 44.60 42.84 41.24 43.63 41.81 43.12 43.32 44.82 48.59 48.64 45.38 46.88 44.78 46.06 40.95 34.99 38.73 32.60 29.61 31.84 34.47 36.92 36.55 34.98 33.25 35.29 40.81 39.55
48.89 49.16 49.38 49.62 49.50 49.46 49.62 49.27 48.95 48.77 49.17 49.44 49.19 49.01 48.89 49.24 49.21 48.91 43.33 41.82 41.10 41.57 36.93 43.48 42.88 42.71 46.71 47.87 41.30 44.37 46.59 40.45 39.48 36.50 36.70 35.02 31.57 36.41 37.62 37.10 36.55 36.49 34.18 33.66 37.96 41.53 41.65
47.95 48.32 48.52 48.58 48.80 49.30 49.75 49.16 48.52 48.08 48.34 48.61 48.93 48.54 48.70 48.78 48.78 42.48 38.74 41.91 45.00 42.97 35.31 38.30 41.85 41.28 42.38 44.14 39.46 40.28 43.37 40.49 38.41 36.20 36.01 32.21 35.86 41.13 38.45 36.78 35.69 35.72 33.83 34.56 35.21 40.46 41.82
47.36 47.76 47.60 47.53 47.82 48.33 48.66 48.61 48.34 48.06 47.78 47.89 48.34 48.63 49.29 48.44 40.09 39.87 38.60 43.35 43.12 42.84 29.34 33.00 38.39 41.59 43.50 43.32 37.15 43.79 44.63 41.14 38.35 36.81 37.48 36.18 40.14 39.76 37.31 36.44 37.39 32.66 38.70 38.44 38.46 36.82 31.12
45.90 46.93 46.45 46.10 46.42 46.60 46.92 47.35 47.92 47.87 47.96 48.25 48.16 47.84 48.74 47.44 38.57 36.43 40.84 42.16 43.15 42.07 17.79 37.04 41.50 48.56 45.18 40.39 41.27 41.27 44.36 40.78 36.87 39.42 39.25 35.40 38.02 37.68 36.60 37.53 39.53 35.78 40.59 39.24 39.06 36.32 35.10
45.22 46.05 46.08 45.68 45.48 45.86 46.20 46.55 47.18 47.54 47.69 47.94 47.61 47.56 48.31 41.77 38.29 39.12 40.61 41.70 41.04 26.73 17.29 33.88 41.80 40.11 39.41 41.37 41.36 40.19 40.30 41.89 41.10 39.26 39.41 37.47 41.46 40.41 39.04 41.02 41.22 41.77 39.89 39.19 38.50 36.68 29.94
44.73 45.95 45.48 45.21 45.23 45.86 46.53 46.78 46.55 46.88 47.10 47.02 47.08 47.10 45.53 43.70 35.05 39.20 39.68 37.39 24.97 21.75 33.68 32.69 34.39 37.13 38.32 37.70 38.74 37.64 35.56 33.96 31.97 29.52 29.94 34.52 36.72 39.08 41.93 36.64 40.33 40.50 36.36 29.33 27.99 28.39 27.18
44.52 45.16 45.71 44.40 44.41 44.99 45.48 45.82 46.08 46.16 46.24 46.38 46.40 46.60 43.58 42.84 40.01 39.50 36.97 30.45 19.77 26.97 29.90 36.03 34.74 34.29 33.49 37.97 37.68 36.58 33.23 29.91 33.52 33.21 28.51 26.76 24.27 36.38 40.61 37.43 36.02 36.89 35.76 30.10 23.71 25.12 26.90
43.90 43.96 44.85 44.75 44.56 44.81 44.90 45.29 45.68 45.95 45.95 46.25 44.85 37.93 36.60 38.11 40.14 38.74 34.04 19.69 22.09 27.16 32.74 30.05 32.81 32.90 32.64 35.15 33.82 34.62 32.23 30.92 32.58 34.02 28.48 26.46 27.87 37.65 39.98 40.58 39.85 37.28 33.37 38.64 33.56 33.81 28.12
43.60 44.16 44.68 44.32 43.96 44.46 44.70 45.15 45.05 45.23 45.65 45.53 36.37 33.72 34.18 38.84 40.38 39.82 29.81 22.60 25.63 32.47 32.59 31.74 27.12 32.00 27.74 30.43 30.60 31.46 31.65 36.76 35.13 35.59 35.49 32.29 26.91 35.18 38.63 40.98 40.68 39.16 41.32 32.38 34.46 25.65 24.23
44.84 43.87 42.91 43.66 43.67 43.72 44.31 44.75 44.95 44.89 44.90 44.45 33.79 28.32 34.57 39.07 40.03 35.15 23.25 23.37 28.72 33.53 33.28 30.14 29.06 29.03 30.21 29.58 31.86 30.88 34.19 37.99 38.13 37.45 37.14 35.51 31.24 30.97 38.32 35.85 35.47 37.54 36.40 36.68 36.15 33.77 28.65
44.03 43.00 42.94 43.04 43.53 44.15 44.33 44.40 44.48 44.54 44.19 39.23 30.89 19.05 34.88 39.09 30.82 27.15 22.49 28.53 33.77 31.54 33.77 31.71 32.57 31.50 31.40 30.91 30.75 31.44 32.56 37.65 41.79 39.90 35.91 36.87 33.46 28.83 31.73 38.21 41.14 39.84 37.38 37.43 32.29 30.30 32.05
43.69 42.76 42.87 43.65 44.10 44.31 44.36 44.39 44.64 44.66 43.59 34.60 29.31 28.25 37.60 39.66 20.36 23.46 28.15 29.12 31.76 30.11 31.05 31.21 29.93 31.73 34.84 30.85 27.45 32.35 35.15 40.80 39.85 37.59 35.79 37.35 31.44 25.50 28.32 34.25 38.32 36.39 38.51 38.75 37.91 36.38 32.74
42.85 42.93 43.58 43.90 43.84 44.04 44.39 44.35 44.18 44.08 44.06 37.76 32.37 16.30 24.78 30.59 28.48 23.57 21.03 24.99 26.83 33.99 31.20 32.72 31.82 33.25 31.42 29.72 32.44 31.00 32.11 38.24 41.02 39.67 42.18 38.77 31.89 28.91 23.87 30.08 35.84 33.28 36.44 38.66 37.63 32.91 32.92
42.83 42.81 43.64 43.59 43.99 43.65 43.62 43.87 44.09 43.76 43.37 38.73 33.96 23.88 26.20 15.72 28.29 28.53 29.51 28.70 24.74 25.49 31.58 33.40 30.58 31.40 30.77 27.49 29.59 28.70 34.84 36.80 39.42 41.19 38.37 34.40 27.78 31.55 33.34 34.30 34.51 33.95 33.93 36.46 35.13 36.44 33.86
42.18 42.66 43.62 43.47 43.82 43.55 43.42 43.53 43.80 43.77 43.76 37.48 30.55 27.09 30.11 26.93 28.38 25.32 27.17 25.83 25.51 28.51 29.29 28.87 29.34 31.50 32.22 30.50 31.17 28.65 33.25 33.99 33.85 36.65 34.80 35.74 28.52 30.44 28.88 33.41 33.57 30.61 33.48 35.02 36.03 37.89 37.40
43.49 42.78 43.20 43.35 43.52 43.53 43.89 43.77 43.65 43.90 41.63 33.72 36.74 36.62 30.07 26.14 25.85 20.10 18.72 26.71 26.42 29.72 31.25 33.39 32.69 32.23 30.03 31.97 36.37 36.72 35.55 35.91 34.62 32.65 32.61 32.73 30.44 27.48 23.19 29.00 29.11 26.29 32.64 32.99 35.67 39.82 38.56
42.44 42.59 43.13 43.54 43.76 43.68 43.67 44.10 44.42 44.44 41.86 36.09 32.58 31.92 28.24 20.76 24.09 24.52 26.35 27.52 26.39 28.14 27.41 31.64 34.01 32.41 35.56 39.97 39.56 38.50 36.31 35.49 34.89 34.49 36.12 31.99 30.68 28.40 23.96 26.75 18.34 31.59 36.31 39.90 37.59 40.00 41.38
42.90 43.17 43.57 43.54 43.18 43.32 43.77 44.06 44.32 44.16 44.05 39.35 38.27 36.07 29.46 22.04 26.47 26.36 26.93 28.19 28.72 31.67 29.90 31.63 34.82 38.40 41.84 37.68 30.24 28.85 27.20 28.62 30.58 33.05 33.38 34.59 30.27 24.73 21.00 21.95 26.18 29.74 37.47 38.16 37.78 38.57 43.46
43.19 43.30 43.27 43.44 43.54 43.96 43.74 43.96 43.76 44.40 44.09 41.28 37.45 39.35 35.44 26.65 23.90 29.17 26.33 28.92 26.37 28.92 30.13 32.76 37.38 40.00 40.02 33.40 29.78 23.39 21.69 25.96 25.69 29.21 33.63 32.96 31.84 26.44 25.14 20.10 17.18 30.66 37.01 42.87 41.45 34.03 43.01
42.84 43.12 43.20 42.74 42.85 43.71 43.98 43.91 43.99 44.32 44.54 42.67 39.56 40.57 36.48 30.17 30.33 31.32 27.98 27.81 32.04 31.37 28.79 32.03 31.77 34.62 35.77 29.13 24.52 23.43 23.34 29.32 22.74 25.60 26.69 26.42 26.84 24.80 23.06 21.65 25.21 34.22 37.51 41.16 29.13 34.95 43.84
42.48 42.32 42.27 42.38 42.78 43.55 43.57 43.80 43.84 44.21 44.40 43.24 36.37 41.18 35.90 29.77 29.28 33.47 34.31 30.01 30.36 29.62 27.70 31.76 31.26 31.89 32.31 25.64 26.18 25.56 23.39 26.95 26.66 28.65 28.54 28.03 25.34 21.77 23.99 23.25 20.12 38.87 40.17 33.53 37.69 42.61 41.45
41.93 42.03 42.09 42.84 43.22 43.62 43.51 43.66 43.92 44.18 44.74 44.01 36.96 40.96 40.08 32.55 28.53 35.31 36.59 37.34 35.16 34.06 31.64 32.70 30.95 32.95 32.64 29.68 29.78 30.07 22.90 22.29 26.43 22.38 33.54 21.16 30.12 28.91 28.02 27.12 37.01 38.13 39.03 40.40 42.05 40.10 39.44

GFSGBSN_sfc_wetblb_078.txt.gz
Wetbulb
51.53 51.34 51.43 51.58 51.90 51.46 51.58 51.34 51.10 50.88 51.00 50.82 50.61 50.78 51.28 51.11 50.74 50.29 50.17 50.72 50.00 50.13 50.36 50.66 50.58 50.95 47.19 39.28 38.65 45.57 52.77 50.32 51.21 52.87 49.31 49.65 44.63 41.40 36.45 37.03 37.49 37.54 39.97 42.85 43.98 44.40 43.43
51.53 51.00 51.31 52.01 51.45 51.32 51.27 51.09 51.06 51.09 50.90 50.75 51.00 50.94 50.81 50.54 50.08 49.66 49.44 50.29 50.55 50.02 50.15 50.42 50.89 50.50 44.00 34.49 45.69 45.13 46.20 46.03 45.37 51.09 49.75 49.36 46.28 45.55 41.06 38.95 37.10 39.35 39.67 39.80 41.67 42.48 44.11
51.77 50.87 51.00 50.94 51.04 51.14 51.12 51.15 50.94 51.26 50.85 50.92 50.69 50.66 50.44 50.04 49.64 49.42 49.52 50.32 50.26 50.64 50.46 51.18 51.29 48.45 43.30 39.24 47.59 47.04 47.22 44.95 44.36 44.60 43.24 44.51 45.48 41.16 39.48 36.75 41.23 41.88 38.28 40.70 40.66 40.81 41.13
51.55 51.06 50.41 50.39 51.00 51.29 51.38 50.95 50.54 50.86 51.04 50.43 50.34 50.17 50.25 50.00 49.51 49.98 50.11 49.88 49.98 51.09 51.94 52.71 51.54 47.33 40.03 49.74 48.94 47.63 47.00 46.28 46.79 46.73 45.07 45.04 43.84 41.14 38.28 39.89 40.05 37.46 36.91 32.52 39.21 40.60 41.83
50.17 50.12 49.75 49.60 49.73 49.61 50.09 50.49 50.31 50.82 50.64 50.29 50.08 49.82 50.00 50.35 50.16 49.87 49.59 49.58 50.50 52.02 52.28 51.96 47.08 44.54 38.98 51.82 47.47 50.24 48.61 45.78 46.38 45.24 44.50 47.52 43.25 39.35 37.86 33.01 30.17 32.94 28.70 32.35 36.06 42.23 40.90
50.02 49.68 49.46 49.33 49.27 49.23 49.32 49.63 49.64 49.97 50.10 49.78 49.70 49.42 49.50 49.94 49.72 49.30 48.81 49.63 49.94 50.92 50.87 50.77 49.27 41.90 44.23 43.01 49.22 48.92 47.63 48.08 44.99 43.99 43.08 40.83 36.94 33.41 32.38 30.76 23.45 27.93 30.29 30.23 31.14 36.60 37.75
49.84 49.54 49.46 49.07 49.10 48.99 49.32 49.25 49.16 48.96 48.96 49.14 49.03 48.88 48.69 49.15 49.00 48.98 46.68 44.08 39.07 38.37 40.45 38.49 40.45 42.15 43.07 47.83 49.13 45.60 47.13 44.87 44.72 41.34 34.86 37.53 32.36 29.57 30.57 33.93 34.44 34.31 32.34 31.18 32.58 39.02 37.52
48.75 48.69 48.90 48.86 48.93 49.21 49.79 49.47 48.97 48.12 48.20 48.38 48.45 48.39 48.06 48.26 48.60 47.59 41.04 39.89 38.52 38.72 32.46 40.67 41.37 41.93 44.80 46.26 40.80 44.47 46.92 40.05 40.58 36.84 36.83 34.57 30.38 34.80 36.14 35.38 33.96 32.72 31.01 31.56 35.92 39.29 38.46
47.92 47.90 48.38 48.27 48.22 48.51 48.96 49.16 48.63 48.02 48.08 47.71 47.85 48.12 47.90 48.15 47.47 40.36 37.81 39.27 41.80 40.46 33.52 37.53 41.23 40.33 41.84 43.30 38.36 39.65 42.74 40.60 37.34 35.19 35.13 31.78 34.77 39.35 37.00 35.27 33.49 33.33 32.05 32.61 33.17 37.39 39.20
47.43 47.73 47.60 47.09 47.07 47.18 47.25 47.60 47.98 47.71 47.66 47.88 48.24 47.80 48.14 48.34 39.08 38.14 37.29 41.48 40.85 39.89 27.79 31.28 37.17 40.91 42.74 42.90 36.68 44.07 44.18 40.97 37.55 34.67 37.15 35.38 39.03 37.75 36.71 35.15 35.43 30.79 37.38 36.75 35.28 34.76 28.41
46.45 47.04 46.48 45.88 45.92 45.90 46.13 46.27 46.88 47.41 47.44 47.87 47.82 47.42 47.62 46.68 37.76 34.88 38.86 41.08 41.33 39.49 15.43 34.30 39.54 46.75 43.40 38.55 40.81 39.78 44.03 40.64 35.28 37.92 38.43 34.96 37.87 37.43 35.51 36.21 38.02 34.79 39.13 37.95 37.51 34.11 33.13
45.29 45.66 45.60 45.66 45.04 45.59 46.35 46.83 46.68 46.83 47.08 47.00 46.96 47.10 46.74 41.28 38.18 38.17 39.47 39.41 39.57 23.06 16.28 30.83 39.56 38.21 37.67 40.13 39.83 38.86 39.95 41.73 41.94 39.78 39.35 37.33 41.25 39.97 38.50 40.18 40.33 40.34 38.13 37.71 36.33 33.64 27.57
44.56 45.32 45.47 45.38 44.59 44.81 45.45 45.72 46.10 46.05 46.24 46.17 46.49 46.52 44.16 42.77 34.41 38.10 38.25 36.18 21.52 16.90 31.35 29.85 31.19 33.98 33.74 34.83 37.97 36.78 34.99 33.39 32.23 28.68 29.47 34.00 36.15 39.13 41.26 35.85 39.28 37.83 35.12 26.65 26.63 27.16 25.62
44.80 44.58 45.47 44.87 44.06 44.25 44.68 45.20 45.49 45.63 45.80 45.96 46.21 45.55 41.75 41.33 38.72 38.36 35.67 27.86 16.67 25.31 27.43 33.21 31.25 32.40 30.82 34.96 35.61 35.68 32.37 29.57 32.90 32.43 28.77 27.15 24.78 36.00 39.81 36.86 34.13 35.21 34.32 26.41 22.50 24.61 26.77
43.42 43.52 44.47 44.89 44.09 44.06 44.55 44.87 45.06 45.34 45.68 45.77 44.83 35.74 34.79 37.27 38.45 37.20 29.78 17.14 20.51 25.60 29.34 27.86 29.38 29.82 29.57 33.09 32.01 32.46 31.12 30.01 31.96 34.13 28.62 25.80 26.57 37.05 39.36 39.41 39.06 36.40 34.44 37.39 32.41 32.44 29.63
43.15 43.86 43.91 44.41 43.65 43.51 43.91 44.67 44.81 44.96 45.06 45.29 34.32 32.13 32.06 38.09 38.34 35.35 23.54 21.60 24.61 30.56 30.76 30.61 24.75 31.10 26.69 28.38 28.80 29.12 30.27 34.25 32.95 34.98 35.77 31.70 26.23 34.35 37.59 39.59 39.22 39.02 40.83 32.73 33.54 24.54 24.29
43.17 44.73 43.25 42.69 43.16 43.45 43.39 44.01 44.30 44.61 44.58 43.89 32.11 26.96 34.06 38.21 37.96 29.23 14.16 22.26 26.87 31.98 32.50 28.27 26.84 25.37 27.01 26.94 29.70 29.11 32.24 36.45 38.10 35.89 34.85 33.94 30.94 30.34 37.24 35.05 34.07 36.38 35.51 35.80 36.28 34.28 26.22
42.80 43.73 42.48 42.44 42.84 42.96 43.98 44.32 44.39 44.35 44.07 38.47 29.42 17.53 34.65 37.26 24.56 28.32 19.02 27.28 32.37 30.20 33.17 30.98 30.62 28.58 27.34 30.73 28.58 29.93 30.48 35.51 41.00 38.85 34.87 36.21 33.26 28.07 30.87 37.52 40.17 39.78 36.04 35.70 31.94 29.32 32.49
42.60 43.23 42.23 42.22 43.65 43.85 43.75 43.65 44.24 44.35 43.59 33.09 26.61 26.46 34.47 35.71 15.57 22.03 27.38 28.24 30.23 28.74 29.51 30.15 29.25 30.99 31.29 29.28 26.42 31.00 33.61 38.22 39.18 37.83 36.29 35.46 31.75 25.55 27.54 32.75 37.94 35.95 37.47 37.65 37.14 36.05 29.70
42.22 42.73 42.62 43.37 43.27 43.26 43.50 43.87 43.69 43.82 44.08 34.96 29.72 16.63 24.29 32.19 28.88 25.79 21.82 24.22 25.94 31.33 30.11 31.85 30.37 31.84 29.49 28.33 32.17 29.57 31.11 35.59 38.59 39.69 42.05 38.63 31.97 27.27 23.05 26.90 33.49 31.01 33.97 35.41 35.35 31.55 31.94
43.15 42.57 42.22 43.49 43.19 43.37 43.05 43.32 43.51 43.28 43.73 36.73 31.96 23.63 26.02 15.77 25.64 26.73 27.01 26.83 24.17 24.42 30.32 31.11 28.56 29.78 28.92 25.90 29.25 28.59 32.25 33.75 36.99 40.88 39.13 35.05 28.44 31.17 31.11 32.34 32.89 32.20 31.97 33.00 32.05 34.43 32.11
42.48 41.90 42.35 43.44 43.14 43.58 43.22 43.09 43.17 43.44 43.36 34.27 27.85 24.57 27.49 26.39 27.87 24.63 26.07 24.94 24.85 27.70 28.44 26.59 29.10 29.76 29.24 27.58 29.66 28.38 32.22 31.88 32.03 36.84 35.45 34.86 28.99 29.97 27.66 30.62 30.08 27.35 29.38 30.49 31.61 33.85 35.79
42.28 42.54 42.49 43.11 43.07 43.24 43.37 43.55 43.44 43.39 40.44 33.78 33.19 36.57 28.62 26.14 25.58 19.14 16.99 23.96 25.23 27.36 27.67 30.16 30.14 27.88 27.47 30.22 33.55 34.75 37.00 37.11 35.59 33.50 32.12 32.55 29.78 27.03 23.57 27.79 27.14 22.76 28.49 29.63 31.63 34.66 36.29
42.28 42.61 42.59 42.80 43.15 43.55 43.50 43.65 43.76 43.85 41.26 32.89 31.64 30.71 24.99 20.57 24.71 24.21 25.51 26.11 24.58 25.90 24.80 29.75 31.82 29.13 33.50 39.28 38.73 36.72 37.26 36.73 35.59 34.16 34.96 31.10 29.66 28.01 23.31 25.39 14.80 26.93 33.84 34.13 36.23 38.51 39.06
41.93 42.33 42.71 43.02 43.54 43.31 43.34 43.61 43.91 44.00 43.73 38.34 33.87 32.19 25.51 18.52 25.98 25.55 25.97 25.89 27.41 27.77 26.59 29.14 33.15 36.82 37.53 36.21 32.45 27.86 27.29 28.18 29.47 32.32 32.31 33.60 29.55 24.45 19.85 21.30 24.75 27.99 34.72 34.82 33.25 33.08 41.34
42.29 42.64 43.19 43.56 43.49 43.39 43.51 43.42 43.86 43.91 43.95 40.93 38.93 36.40 33.63 24.38 24.04 28.95 25.70 26.31 24.01 23.87 26.79 30.08 35.84 37.11 37.04 31.43 28.76 22.94 21.17 25.11 24.64 27.17 32.56 31.78 30.54 25.56 24.66 19.22 14.88 26.47 34.37 37.62 37.27 29.40 42.64
42.29 42.94 43.22 43.12 43.19 43.13 43.05 43.69 43.68 43.54 44.01 41.98 40.02 40.14 35.83 28.85 28.74 31.77 26.02 25.43 29.66 28.84 26.37 30.80 30.51 32.17 36.11 29.65 26.67 25.23 22.51 27.09 22.05 24.36 25.82 26.09 26.69 24.39 23.17 20.73 24.58 32.50 37.19 40.12 26.11 29.86 40.65
42.91 42.55 42.78 42.65 42.54 42.49 42.57 42.94 43.41 43.78 44.10 41.85 39.94 41.40 35.63 31.23 29.94 32.61 32.49 29.07 29.98 29.60 25.63 29.54 28.44 29.99 29.11 26.61 27.02 26.51 24.62 26.63 25.93 27.25 27.14 25.75 24.56 22.22 24.84 22.25 19.12 37.90 38.02 31.65 37.20 39.74 37.32
42.35 42.49 42.41 42.35 42.31 42.41 42.63 43.00 43.20 43.57 43.86 43.45 36.51 40.40 40.67 32.91 30.67 33.57 34.37 35.85 35.27 34.86 31.07 31.52 29.75 30.55 32.88 28.41 29.01 30.25 26.16 24.92 26.17 21.91 31.28 22.15 28.01 26.17 27.18 26.29 34.97 35.96 35.31 38.70 40.55 38.84 36.16

GFSGBSN_sfc_wetblb_081.txt.gz
Wetbulb
52.60 52.19 51.20 51.25 51.14 51.18 50.95 51.03 50.95 50.80 50.81 50.70 51.14 51.36 51.29 50.94 51.07 50.48 50.48 50.84 49.99 49.90 50.39 50.76 50.97 50.90 47.98 40.10 39.63 47.11 51.55 50.71 54.71 54.28 49.29 50.75 47.03 43.46 40.73 40.75 40.98 40.99 42.25 44.21 45.79 46.24 46.55
52.25 51.54 51.22 51.11 51.98 50.80 50.62 50.72 50.86 50.92 50.84 50.85 50.89 50.68 50.61 50.78 50.40 50.10 50.05 50.71 50.67 50.13 50.41 51.01 51.16 50.11 44.80 35.09 47.07 46.93 48.02 48.13 48.30 52.29 50.36 51.37 48.81 48.32 44.64 42.44 41.33 42.46 42.41 42.96 43.97 44.90 45.61
52.39 51.71 51.18 50.91 50.79 50.57 50.37 50.68 50.63 50.47 50.82 50.65 50.55 50.35 50.37 50.20 49.77 49.39 49.62 50.44 50.42 50.48 51.01 52.18 51.49 48.46 42.98 40.88 48.94 49.28 48.58 47.36 47.19 48.54 48.19 51.40 50.82 46.25 44.10 39.85 43.35 42.74 39.26 42.20 44.08 44.35 44.10
52.10 51.57 51.74 50.93 50.65 50.37 50.65 50.77 50.27 50.69 50.71 50.54 50.33 50.26 49.92 49.71 49.64 49.33 50.00 49.92 50.22 51.07 52.93 52.75 51.92 47.43 40.59 49.88 51.09 48.83 48.35 47.96 49.08 49.11 46.70 47.44 46.45 44.89 42.29 43.55 41.40 39.23 39.74 35.41 42.62 43.56 45.07
51.61 51.11 50.23 49.74 49.49 48.90 48.95 49.49 49.65 49.88 49.82 49.88 49.71 49.39 49.17 49.87 49.86 49.71 49.53 49.96 50.25 52.10 52.50 52.00 47.26 44.97 38.96 51.84 47.34 51.16 50.01 47.02 47.26 47.38 47.36 48.54 45.57 42.32 40.94 37.78 35.05 35.94 32.45 35.25 38.46 44.98 44.46
50.93 50.58 50.14 49.61 49.34 48.68 48.55 48.83 49.13 48.69 48.74 48.56 48.52 48.59 48.61 48.83 49.17 48.94 49.13 48.89 49.29 51.49 50.77 50.83 48.13 41.06 43.91 42.98 49.39 49.74 49.87 48.72 45.79 44.51 43.78 43.09 41.82 38.20 36.49 35.55 28.40 31.21 32.70 35.29 35.68 41.27 42.30
50.84 50.28 49.89 49.41 49.10 48.65 48.72 48.91 48.61 47.89 47.95 48.19 47.89 48.15 48.13 47.81 48.12 48.80 45.06 42.97 38.54 38.96 39.62 36.78 39.61 41.54 41.96 46.34 49.67 47.45 48.01 46.31 45.55 43.28 38.24 40.61 36.41 33.08 35.48 36.36 37.00 35.81 34.48 33.51 36.67 40.90 39.15
50.39 50.03 49.79 49.45 48.93 48.61 48.98 49.45 48.59 47.78 48.09 47.83 47.87 48.15 47.94 47.64 47.98 46.83 42.94 38.13 36.78 37.58 32.04 39.65 39.05 39.65 42.94 44.74 38.94 43.78 48.34 42.69 41.98 38.04 38.72 37.45 33.52 38.32 38.61 37.54 35.96 35.23 33.14 33.14 37.40 40.49 39.90
48.91 48.57 48.59 48.74 48.46 48.56 48.41 48.42 48.47 48.14 47.66 47.66 48.11 47.96 47.59 47.59 45.96 41.17 39.46 38.65 42.43 40.68 33.49 36.54 41.29 40.48 41.52 43.61 38.50 39.25 43.82 42.00 38.55 37.90 36.64 35.09 37.42 39.74 37.40 36.23 34.43 35.03 33.73 34.50 34.42 38.87 40.86
48.28 48.32 48.61 48.24 47.58 46.85 46.54 46.54 46.75 47.20 47.41 47.41 47.77 47.60 47.38 47.04 40.02 39.02 38.40 41.76 41.74 40.89 28.82 31.09 38.08 41.79 42.94 42.90 36.96 43.95 44.87 41.94 38.93 35.36 37.64 37.06 40.25 38.25 37.31 36.63 37.48 33.38 39.34 38.02 36.71 35.61 31.50
47.50 47.74 47.13 46.66 46.28 45.63 46.09 46.11 46.62 46.60 46.92 46.99 46.86 47.12 47.13 45.67 39.16 36.81 39.07 41.39 41.90 40.35 19.44 33.18 39.61 46.87 43.60 38.96 40.88 39.87 45.09 41.50 36.13 37.12 38.58 35.02 38.79 37.72 35.82 36.88 39.65 36.65 40.53 38.67 38.20 36.14 35.21
46.44 46.59 46.44 46.24 45.54 45.74 45.97 46.47 46.35 46.18 46.18 46.23 46.37 46.41 46.41 41.86 39.58 40.24 40.30 40.22 40.52 25.73 19.42 29.77 37.99 34.94 35.12 39.29 40.41 40.46 40.57 42.56 42.94 39.43 40.57 37.73 43.20 41.58 40.55 41.61 41.65 41.79 38.97 38.64 38.26 35.76 28.48
45.34 45.40 46.07 45.92 45.21 44.77 45.09 45.39 45.54 45.77 45.80 46.02 46.23 46.26 44.12 43.14 34.94 40.06 39.81 37.68 24.35 20.19 31.50 27.99 29.35 32.09 32.39 34.05 36.43 37.69 36.26 35.66 34.27 31.61 32.16 36.13 38.02 41.48 42.47 38.26 41.17 39.97 35.51 28.88 26.81 27.61 27.51
45.40 45.98 46.07 45.42 44.74 44.54 44.33 44.72 45.04 45.44 45.52 45.94 45.72 43.64 40.52 41.06 39.87 39.60 37.70 29.74 19.25 24.88 25.81 32.15 30.09 31.60 31.94 33.52 33.53 33.98 33.89 32.44 35.58 34.97 31.37 29.62 26.88 37.25 41.48 38.79 35.68 37.23 36.17 29.93 22.68 26.10 29.66
44.60 44.43 44.89 45.36 44.48 44.07 44.14 44.42 44.44 44.86 45.04 45.49 42.49 36.39 36.08 38.36 40.40 39.08 32.98 20.03 21.19 25.21 28.59 27.32 28.99 29.38 29.68 31.75 31.54 32.42 31.94 32.31 34.87 36.71 31.30 29.03 28.76 38.74 40.60 41.00 40.67 36.52 33.24 38.44 31.62 33.20 29.52
43.67 44.39 45.27 44.66 44.14 43.33 43.22 44.06 44.60 44.77 44.67 44.68 35.85 33.09 34.69 38.64 40.42 35.84 25.89 22.80 24.79 30.38 31.16 30.16 23.51 28.30 22.96 26.01 27.55 29.79 30.21 36.62 36.28 36.52 38.38 34.54 28.42 36.58 39.01 41.87 41.63 39.69 41.12 33.34 33.97 24.75 24.47
44.18 44.42 44.01 43.83 43.26 42.87 43.11 43.94 44.34 44.31 44.61 43.37 33.09 29.23 36.89 39.41 39.66 30.31 20.17 22.63 26.91 31.86 32.54 28.01 25.91 24.29 25.25 25.38 28.39 28.52 30.51 36.06 37.31 38.23 37.79 36.26 33.63 33.14 38.60 36.31 35.49 37.00 36.12 36.19 35.50 34.12 27.61
42.80 45.04 43.86 42.91 42.34 42.71 43.59 43.69 44.06 44.22 43.76 37.86 31.47 22.84 36.54 40.74 28.63 27.44 24.38 27.66 31.99 30.31 33.31 30.63 31.03 28.91 27.11 28.99 28.86 28.79 29.34 32.34 37.38 36.77 35.16 38.45 34.43 29.58 33.56 39.51 41.52 40.23 36.92 36.70 31.36 29.24 33.24
42.58 44.05 42.84 42.24 42.69 43.36 43.16 43.54 44.08 44.07 42.58 34.28 28.55 28.75 36.22 37.94 22.26 23.85 27.89 27.86 30.00 28.69 29.53 29.92 28.56 30.87 31.52 27.98 24.33 29.77 32.31 36.95 36.35 36.86 35.75 37.78 33.95 28.34 29.94 35.70 39.15 36.13 37.32 38.15 37.32 35.11 29.99
42.65 43.19 42.70 42.44 43.66 43.23 43.76 43.53 43.43 43.78 43.16 35.16 29.14 20.29 27.48 33.18 30.48 27.82 24.28 24.47 26.01 31.34 29.43 31.14 30.17 31.46 29.41 28.28 31.16 28.09 30.85 34.76 36.57 35.75 40.55 38.75 33.15 29.55 26.89 29.66 33.99 31.90 34.25 35.76 34.61 29.78 31.22
42.51 42.87 42.46 42.30 43.33 43.24 43.21 43.14 43.23 43.66 43.85 36.28 31.86 24.13 27.75 21.41 26.86 27.38 27.58 25.94 24.15 24.67 30.50 31.52 28.99 29.70 26.74 25.12 27.14 28.11 31.91 33.51 35.47 36.26 38.90 35.82 29.34 32.58 32.87 33.45 33.96 33.47 32.21 32.51 31.28 33.05 29.33
41.91 42.83 42.43 42.60 43.08 42.88 43.41 42.73 43.16 43.75 42.92 35.62 28.56 26.45 29.36 27.67 28.28 25.62 25.84 24.35 23.69 26.40 27.30 25.12 25.89 28.94 27.80 24.16 25.84 24.62 28.91 30.27 32.01 35.32 34.70 37.23 30.21 31.96 28.87 32.24 30.79 28.72 30.95 30.88 31.68 32.99 33.40
41.80 42.12 41.77 42.23 43.09 42.96 43.16 43.06 43.04 43.66 40.15 32.54 34.18 36.11 30.41 26.85 26.20 22.92 22.38 24.29 24.55 26.87 27.93 29.10 28.56 26.97 25.96 28.40 33.53 34.67 35.38 35.15 35.02 34.01 33.33 33.51 31.88 28.87 24.79 29.63 29.23 25.54 29.90 30.76 32.62 36.99 36.76
41.97 42.03 43.21 42.73 42.94 43.04 43.11 43.13 43.48 43.61 39.52 33.88 33.18 33.48 26.97 21.40 25.42 24.90 25.81 26.48 25.44 26.40 24.89 28.43 30.36 27.51 32.11 37.01 35.70 35.63 35.84 35.08 35.02 34.94 36.54 32.21 31.88 30.27 25.54 27.07 17.55 29.90 35.77 35.90 33.62 37.18 37.90
41.45 42.09 42.35 42.43 42.79 43.08 43.66 43.70 43.39 43.46 42.97 36.28 34.39 32.37 27.21 21.16 26.18 25.77 26.16 26.26 27.81 28.82 26.97 27.44 30.88 35.55 38.10 33.69 29.68 27.34 29.03 29.64 31.72 34.90 34.32 35.36 32.49 27.70 23.47 23.53 27.13 30.73 33.79 32.81 31.47 31.67 42.04
41.66 41.42 42.38 42.70 43.11 43.35 43.13 43.03 43.13 43.26 43.97 41.18 38.49 37.84 33.04 26.09 24.29 28.81 26.57 27.48 24.63 25.71 27.33 29.66 35.59 37.48 35.05 31.40 30.34 23.37 21.38 26.11 25.50 29.17 33.92 33.46 33.66 29.74 26.00 19.92 17.25 28.65 35.86 40.46 39.35 29.89 39.05
41.45 42.08 42.66 42.99 43.26 43.11 43.14 43.02 43.31 43.54 43.68 41.95 39.89 40.42 35.50 28.77 30.28 31.10 27.04 27.21 30.73 28.94 26.54 28.47 29.56 30.18 34.21 29.30 27.13 25.24 24.53 28.98 23.71 25.14 26.36 28.33 29.45 26.59 25.88 23.74 27.13 35.02 38.33 40.98 26.67 30.68 38.35
41.41 42.12 42.76 43.21 42.74 43.16 42.87 42.56 42.85 43.33 43.50 41.39 40.37 40.94 36.16 31.80 31.81 33.52 33.33 29.96 30.19 29.87 25.45 29.50 28.20 29.43 28.30 26.09 27.41 27.40 26.55 28.00 27.83 29.33 28.86 27.79 26.48 26.11 26.70 23.57 20.73 36.65 37.72 32.32 36.06 39.44 36.25
41.66 42.70 42.47 42.78 42.70 42.44 42.32 42.32 42.59 43.26 43.64 43.07 38.24 41.39 40.87 33.43 33.46 35.03 35.88 36.56 35.86 35.35 32.14 31.55 29.06 29.22 30.84 29.31 29.09 30.16 28.23 29.53 28.09 24.59 33.29 27.66 30.95 29.75 29.49 29.39 35.69 35.50 34.80 35.25 38.71 37.50 36.42

GFSGBSN_sfc_wetblb_084.txt.gz
Wetbulb
53.54 53.09 52.57 52.42 52.50 52.18 51.68 50.94 50.63 50.54 50.65 50.88 50.91 50.97 50.93 51.11 51.02 50.61 50.37 50.62 50.11 50.28 50.66 51.11 51.51 51.55 50.78 45.07 44.12 49.67 50.79 51.50 55.92 55.28 52.07 49.73 47.13 46.38 43.75 45.18 45.95 44.44 45.93 47.20 48.16 48.06 48.13
53.44 52.98 52.18 52.22 52.54 51.84 51.49 50.93 50.56 50.25 50.59 50.88 50.84 50.58 50.62 50.70 50.49 50.24 49.98 50.36 50.36 50.06 50.51 51.34 51.82 51.10 48.08 40.73 49.93 50.17 50.11 50.59 51.86 53.62 51.62 52.76 49.80 50.28 47.33 46.75 45.72 47.14 46.55 47.03 47.79 47.65 48.38
53.50 52.59 52.29 51.80 52.16 51.57 50.94 50.66 50.41 50.27 50.67 50.51 50.68 50.51 50.45 50.08 49.87 49.66 49.42 50.17 50.34 50.64 51.10 52.86 52.48 51.11 46.61 44.65 51.45 52.41 51.75 49.67 50.07 51.56 49.56 52.28 53.25 49.09 47.64 44.99 47.80 46.39 42.72 44.79 45.78 46.50 46.19
53.51 52.73 52.22 51.77 51.51 51.19 50.79 50.56 50.15 49.75 49.91 49.91 49.96 49.78 49.48 49.44 49.40 49.08 49.47 50.01 50.31 50.72 52.90 53.10 52.42 50.52 44.69 51.81 54.18 52.46 53.55 51.25 51.33 50.50 49.17 51.06 53.05 49.43 47.19 46.74 43.65 40.47 42.55 38.91 44.10 46.91 47.86
52.96 52.80 52.31 51.35 50.54 49.81 49.41 49.19 49.47 49.29 49.03 48.80 48.69 48.62 48.82 49.40 49.48 49.65 49.66 49.84 49.73 52.18 52.92 52.52 50.23 48.25 43.23 52.58 49.82 53.78 53.80 49.97 50.74 51.31 50.94 49.83 48.77 45.69 45.08 40.86 38.51 39.22 34.64 37.43 41.26 47.09 46.51
52.92 52.36 51.49 50.70 50.20 49.54 49.10 49.05 49.42 47.97 47.94 48.14 47.95 48.14 48.32 48.32 48.88 49.01 49.23 48.51 50.04 52.20 51.96 52.63 51.06 43.53 47.81 45.75 51.31 52.19 54.05 51.78 48.50 48.56 46.25 45.70 45.12 42.29 42.03 39.28 32.60 35.09 35.44 38.83 38.33 43.12 44.13
51.92 51.55 51.05 50.47 50.12 49.56 49.10 49.10 49.35 47.84 47.96 48.08 47.77 48.21 48.28 47.98 48.24 48.61 48.57 49.50 45.31 44.11 43.75 41.08 41.90 42.47 42.94 47.46 50.38 48.71 50.72 49.52 48.26 46.54 39.61 43.31 39.60 36.98 38.45 39.84 40.15 39.26 37.08 35.15 39.11 42.36 41.16
51.34 51.07 50.77 50.40 50.22 49.70 49.14 49.76 49.14 47.73 47.93 47.82 47.91 48.35 48.02 47.79 47.77 46.46 48.73 42.44 39.69 40.74 37.12 42.33 42.83 42.66 45.32 46.32 40.48 44.74 50.43 44.79 44.79 41.20 43.30 40.40 36.58 41.21 41.68 40.35 38.88 38.45 36.86 37.30 40.34 42.60 42.24
50.86 50.44 50.24 49.90 49.57 49.40 48.92 48.73 48.39 47.43 47.32 47.52 47.99 47.84 47.82 47.49 46.35 46.72 44.28 41.31 45.20 44.95 37.53 39.75 43.38 43.52 44.56 45.64 41.88 43.05 46.12 45.94 42.94 41.01 41.66 39.04 40.35 43.10 41.09 39.79 37.62 37.75 36.44 37.28 37.95 42.33 44.04
49.48 49.21 49.59 49.48 48.64 47.73 47.02 46.64 46.44 46.49 46.75 47.00 47.11 47.25 47.35 46.85 43.42 44.29 43.32 44.96 46.15 46.18 36.48 34.96 41.92 43.92 45.35 45.59 41.41 47.27 47.17 44.55 43.03 39.15 40.89 40.93 43.55 40.41 39.14 37.86 39.44 35.19 41.63 40.48 39.62 38.50 35.59
48.79 48.87 48.56 48.08 47.25 46.38 46.44 46.37 46.42 46.28 46.30 46.34 46.35 46.46 46.70 45.54 43.18 42.40 42.73 46.15 46.96 45.16 26.25 37.41 41.69 48.56 43.92 41.44 43.83 43.56 47.38 43.43 38.70 39.86 40.21 37.53 38.62 39.21 37.60 38.21 41.77 38.33 42.57 40.90 40.53 38.33 38.31
48.23 47.99 47.58 47.19 46.46 46.47 46.62 46.45 45.98 45.55 45.50 45.73 46.03 46.28 46.29 44.82 45.17 44.05 46.11 46.67 46.50 33.57 24.66 33.17 39.66 37.04 38.54 41.62 42.67 43.51 42.74 45.12 43.89 40.10 41.34 39.74 44.50 43.60 42.66 43.38 42.50 43.39 40.49 40.22 40.91 38.68 31.51
47.15 47.00 47.16 46.79 46.32 45.83 45.79 45.45 45.12 45.15 45.55 45.94 45.98 45.71 45.11 46.04 41.34 46.42 46.40 44.94 31.94 27.21 34.30 31.19 32.02 34.86 36.30 37.55 39.13 40.68 39.95 39.15 38.32 32.77 34.02 38.06 38.59 42.72 44.52 40.80 43.75 42.13 37.20 31.47 30.60 29.75 31.36
45.97 46.11 46.69 46.40 45.53 45.18 45.11 44.85 44.77 44.80 45.07 45.38 45.14 42.32 42.69 44.75 46.48 46.62 45.47 35.89 25.70 28.23 29.07 34.06 33.02 33.92 32.95 36.02 36.26 38.86 38.03 37.68 41.11 39.45 36.23 33.48 31.14 39.36 43.97 41.07 38.49 39.26 37.69 32.13 25.30 29.14 34.19
46.02 46.63 46.71 45.87 45.34 44.96 44.66 44.48 44.35 44.31 44.65 44.97 42.89 45.43 45.66 45.49 47.28 46.82 39.43 29.51 28.15 28.66 31.05 30.36 31.95 29.60 30.78 33.68 32.47 35.84 36.76 36.54 39.02 40.50 33.94 33.50 32.71 40.93 42.58 43.29 42.34 38.41 35.62 41.08 34.14 35.89 32.10
45.18 45.12 46.15 45.68 44.96 44.15 44.01 44.35 44.23 44.13 44.37 43.65 43.25 42.37 41.81 46.38 47.83 43.08 35.72 27.57 29.72 32.67 32.62 31.64 25.58 29.60 26.50 29.36 29.25 31.34 33.52 38.30 35.78 39.39 40.75 37.63 31.68 39.30 41.94 43.71 43.47 41.44 43.20 33.65 36.14 27.14 26.93
44.38 45.17 45.76 45.21 44.17 43.64 43.86 43.84 43.73 43.78 44.18 42.57 41.89 37.91 42.58 46.74 46.03 39.48 30.21 28.36 29.57 33.82 34.16 30.08 28.10 27.21 28.30 27.91 30.08 30.36 31.56 37.20 36.65 37.07 38.68 40.16 37.21 36.12 40.47 37.88 37.50 38.35 36.43 37.65 37.35 35.20 30.28
44.20 44.99 44.44 43.73 43.25 43.70 44.01 43.81 43.90 44.31 43.50 41.98 40.22 33.79 42.97 45.99 35.95 36.31 30.78 30.53 32.46 32.47 34.56 32.72 33.30 31.75 29.87 30.77 29.83 29.94 30.90 34.70 38.39 36.90 34.19 40.40 37.78 32.72 35.42 40.97 43.82 41.83 38.97 39.07 33.74 31.54 34.80
43.13 45.25 44.04 43.20 43.51 43.64 43.73 43.87 43.77 43.79 42.40 42.33 36.33 36.10 44.10 43.21 30.22 29.77 31.44 30.17 31.85 30.76 31.36 31.03 30.12 32.56 34.02 30.52 26.52 30.57 32.64 37.89 38.64 35.25 33.58 34.29 35.84 30.11 32.07 37.49 40.85 38.32 39.42 39.08 37.71 37.30 32.72
43.21 43.92 43.12 43.05 44.07 44.12 44.19 43.95 43.53 43.62 42.50 43.25 37.31 30.69 37.08 39.73 36.92 30.91 26.17 26.25 27.89 32.97 31.69 32.90 32.38 34.03 31.54 30.04 33.35 29.60 31.42 35.57 37.64 38.00 37.30 36.11 35.47 34.17 29.87 32.68 38.27 35.16 37.37 39.35 37.37 33.50 33.79
42.86 43.31 43.14 42.86 43.82 43.62 43.69 43.62 43.79 43.47 42.92 43.02 37.76 31.64 33.87 28.82 30.25 30.81 30.51 28.01 20.34 25.79 32.20 33.73 30.86 30.64 28.47 25.78 28.60 28.93 32.59 32.65 35.19 37.06 34.05 36.57 32.98 34.52 35.22 35.54 36.02 35.62 35.29 36.17 35.19 36.22 32.13
43.23 42.73 42.96 42.60 43.62 43.75 43.70 43.30 43.91 43.84 42.24 41.50 33.98 33.54 35.82 32.02 31.91 29.62 28.53 27.59 26.10 27.83 27.81 28.23 27.83 30.57 30.95 27.27 28.25 26.78 31.15 31.46 30.89 35.50 33.28 34.96 32.56 33.05 30.05 34.82 33.97 31.69 34.23 34.43 34.59 35.06 36.02
42.92 43.19 42.87 42.67 43.75 43.39 43.94 43.34 43.40 43.99 42.21 40.08 38.29 39.46 37.36 30.03 29.91 29.61 28.49 26.19 26.92 29.40 30.47 31.79 30.69 29.72 28.87 31.44 34.77 35.99 36.22 34.65 32.74 31.56 32.73 34.20 32.98 29.70 25.02 32.30 31.73 28.59 32.97 34.57 35.79 38.75 38.82
42.14 42.57 42.43 42.30 43.54 43.65 43.35 43.40 43.52 43.89 41.62 42.53 41.10 39.30 34.60 28.13 30.42 29.94 28.48 29.46 28.76 29.82 27.96 31.53 33.00 30.15 33.98 39.30 38.98 37.74 37.28 36.06 35.05 34.60 35.91 33.37 33.22 33.26 28.14 29.06 21.00 32.73 39.59 38.03 35.72 39.05 39.95
42.26 41.94 42.74 43.57 43.12 43.08 43.42 43.40 43.37 44.10 42.46 42.73 41.81 39.73 35.67 29.87 31.77 29.46 29.57 29.82 31.64 32.64 30.70 31.36 34.60 37.18 39.79 34.77 28.63 29.01 30.95 31.41 32.82 35.05 35.42 37.57 34.80 30.95 26.78 27.13 30.07 32.89 35.77 35.56 34.37 35.28 40.29
42.11 41.85 42.59 42.94 42.85 43.50 43.54 43.81 43.54 43.67 44.02 43.50 42.22 43.60 38.89 33.03 31.02 31.57 30.28 31.37 29.26 30.16 30.51 31.86 37.19 39.78 36.73 31.77 28.99 24.16 24.13 27.27 27.14 30.79 36.34 37.18 37.56 32.56 29.54 19.33 19.54 33.29 38.25 42.32 41.49 32.25 41.05
41.70 42.13 42.09 42.74 43.07 43.71 43.64 43.30 43.35 43.64 44.37 44.21 41.42 43.24 38.43 31.56 35.39 33.81 29.91 30.09 32.73 31.26 29.46 32.23 32.86 33.23 35.63 29.84 28.10 25.90 25.77 32.07 26.40 26.95 29.30 31.42 32.26 29.22 28.77 26.43 30.66 37.26 39.83 42.34 30.24 31.57 40.57
41.31 41.81 42.37 43.07 43.43 43.65 43.50 43.52 43.64 43.79 44.01 44.02 42.66 43.81 38.17 34.15 35.58 36.00 36.32 33.12 32.75 31.86 28.56 33.26 32.05 32.05 30.27 27.90 28.39 28.92 30.38 32.12 30.73 32.35 31.00 30.57 29.64 29.56 30.48 26.32 23.63 38.85 39.47 33.74 36.30 39.47 37.61
41.45 41.82 42.59 43.31 43.29 43.44 43.30 42.85 43.00 43.35 43.73 43.89 39.59 43.43 41.98 35.95 34.92 39.93 39.91 40.56 39.16 38.23 33.72 34.65 31.33 30.45 32.33 29.90 30.10 32.17 30.75 32.99 31.20 27.17 36.34 30.39 32.74 32.62 33.31 32.52 36.49 36.23 35.70 37.22 37.02 36.30 35.55

GFSGBSN_sfc_wetblb_087.txt.gz
Wetbulb
55.59 54.76 54.13 53.57 53.22 53.01 52.62 52.28 51.83 51.18 51.17 51.20 51.26 51.26 51.29 51.48 51.33 51.16 50.81 50.91 50.34 50.22 50.55 51.29 52.05 52.47 51.85 47.82 47.55 53.52 53.08 54.21 54.90 55.73 54.16 50.79 48.28 47.50 46.02 47.07 47.70 46.87 47.67 49.11 50.21 49.42 49.21
54.81 54.06 53.52 53.36 52.90 53.10 52.78 52.31 51.59 50.95 50.63 51.15 51.11 51.00 50.85 51.04 50.70 50.36 50.13 50.35 50.29 49.97 50.73 51.50 52.19 51.99 49.67 43.38 51.66 51.55 50.53 52.08 52.70 54.35 53.37 52.62 49.97 50.37 47.54 47.28 46.30 47.89 48.31 47.85 49.21 49.05 49.42
54.42 53.93 53.53 52.79 52.61 52.72 52.28 51.81 51.40 50.88 50.83 50.64 50.81 50.51 50.23 49.87 49.78 49.67 49.37 49.67 50.19 50.21 51.12 52.23 53.64 52.54 48.85 47.07 53.18 52.99 52.27 50.87 50.83 52.56 51.34 53.02 53.62 51.07 49.95 46.63 49.00 48.07 44.89 46.24 47.00 47.37 46.88
54.10 54.07 53.15 52.71 52.22 52.41 51.80 51.59 51.42 50.74 49.99 49.68 49.42 49.20 49.09 49.18 49.17 48.89 48.85 49.79 50.11 50.65 52.50 53.61 53.60 53.04 45.69 53.12 54.65 52.45 53.28 51.74 52.28 51.04 50.95 53.47 53.49 51.38 49.12 49.44 46.59 42.53 43.29 39.50 45.18 46.78 47.80
54.37 53.78 53.08 52.58 52.04 51.58 51.08 50.89 50.60 50.08 48.82 48.14 48.06 47.99 48.61 48.72 49.12 49.30 49.32 49.79 50.02 52.48 52.78 52.85 52.72 50.97 46.00 52.32 50.82 54.35 54.64 51.14 50.84 50.05 50.46 50.26 49.63 47.47 47.65 42.92 40.69 41.88 37.13 39.31 41.46 46.06 46.28
54.72 53.78 53.03 52.54 51.41 50.64 50.13 49.97 50.25 49.05 48.07 47.68 47.61 48.00 48.59 48.55 49.06 49.12 49.31 49.00 51.11 51.94 52.97 54.29 53.37 47.24 50.51 47.25 50.72 53.04 54.59 53.50 50.42 49.87 47.66 46.56 45.50 42.50 42.59 41.36 34.44 36.88 38.42 40.43 40.23 43.99 44.98
53.30 52.87 52.89 51.73 51.14 50.46 50.06 50.33 50.25 48.55 47.80 47.85 47.81 48.16 48.35 48.20 48.32 48.79 48.60 50.95 48.64 48.27 48.53 44.43 44.20 44.62 44.18 48.19 50.83 48.15 52.11 50.82 50.32 48.34 43.14 44.79 40.46 38.80 40.31 42.27 41.91 40.78 39.60 38.98 41.33 43.70 41.97
52.27 52.81 52.23 51.56 51.07 50.63 50.27 50.24 50.18 48.61 47.91 47.37 47.83 48.01 48.10 47.91 47.74 48.02 49.67 46.48 44.01 44.56 40.34 44.97 45.59 45.98 48.33 49.36 44.76 47.24 49.84 45.10 45.82 42.22 45.51 42.71 38.71 43.35 43.68 42.95 40.68 39.51 38.64 38.47 41.44 43.74 43.31
51.67 51.48 51.45 51.10 50.91 50.48 50.35 50.05 49.29 48.23 47.35 46.95 47.62 47.54 47.63 47.64 47.54 48.09 46.94 44.83 48.37 47.85 41.55 42.46 46.91 45.98 46.54 48.47 45.21 46.15 47.67 46.28 43.20 41.82 42.75 40.84 42.74 45.18 42.37 40.98 39.37 39.25 37.68 38.78 39.14 42.06 44.64
50.73 51.16 51.21 51.09 50.54 49.84 49.07 48.61 47.98 47.26 46.67 46.50 46.79 47.03 47.03 47.06 44.68 47.40 46.59 47.01 49.07 49.06 39.77 38.63 43.92 45.56 46.07 46.94 44.49 49.60 49.52 46.38 43.74 40.79 42.62 42.57 45.54 43.25 41.43 40.30 41.35 37.32 42.29 40.85 39.41 38.97 35.66
50.33 50.11 49.97 49.83 49.00 47.86 47.20 46.89 46.98 46.64 46.26 45.97 46.28 46.51 46.70 46.79 46.38 45.93 45.45 48.53 50.01 47.25 29.28 39.60 43.75 50.09 45.38 43.98 44.85 46.11 49.06 45.98 40.97 41.75 42.09 39.87 41.68 41.00 40.19 40.74 42.39 38.94 43.59 42.09 41.70 40.15 39.53
48.92 49.28 48.98 48.34 47.47 47.06 46.99 46.98 46.70 45.98 45.46 45.53 46.12 46.48 46.96 48.15 48.31 47.30 48.65 49.05 48.69 37.42 27.26 36.17 41.15 38.62 39.23 42.17 43.44 45.73 45.59 47.24 45.98 40.95 42.19 41.79 45.78 43.81 43.13 43.96 43.40 44.10 42.02 41.74 40.97 39.99 33.09
48.51 48.25 48.13 47.32 47.09 46.58 46.50 46.18 45.55 45.24 45.46 45.67 45.91 45.89 45.24 47.64 45.51 49.18 49.50 46.85 36.30 29.54 36.54 34.40 35.24 36.94 36.85 37.92 39.71 41.06 40.62 41.36 39.68 36.04 36.37 39.93 40.55 43.83 44.49 41.35 44.58 41.78 38.36 31.39 30.77 30.82 30.07
47.51 47.70 47.60 46.95 46.42 45.80 45.64 45.22 45.11 45.08 44.94 45.17 45.43 43.68 44.76 48.06 49.72 50.01 47.91 40.26 28.52 32.57 32.87 37.07 35.81 36.05 33.67 37.04 37.63 37.51 37.94 37.46 41.79 41.12 37.69 35.47 33.57 41.15 43.41 41.75 40.08 39.86 38.95 31.90 25.24 28.06 32.31
46.24 46.55 47.07 46.45 45.78 45.36 45.10 45.01 44.67 44.38 44.45 44.89 44.03 46.72 48.62 48.86 50.57 49.19 42.52 32.55 32.43 33.50 34.41 33.04 34.51 32.40 33.48 35.58 34.19 34.90 36.13 37.46 40.75 41.31 34.69 35.27 35.37 42.57 43.74 45.12 43.39 39.39 35.83 41.71 34.99 36.55 32.79
46.52 47.00 46.66 46.23 45.66 44.75 44.28 44.78 44.28 44.36 44.40 44.71 45.20 45.29 45.06 49.08 50.06 46.33 38.62 31.22 33.03 35.54 35.15 34.30 28.96 31.95 29.98 32.59 31.63 33.29 33.15 40.00 38.38 40.70 41.56 39.09 33.64 41.75 43.27 45.42 44.79 42.01 43.07 34.44 36.32 27.10 26.95
45.41 45.70 46.66 45.78 44.83 44.02 44.08 43.88 43.85 43.86 44.28 43.83 43.85 41.18 45.01 49.11 49.07 41.93 33.82 33.24 32.95 35.99 35.77 32.63 31.13 30.27 31.32 30.65 32.06 32.07 32.57 37.98 39.59 38.63 39.70 39.37 37.46 37.51 42.44 39.64 38.15 39.12 37.58 38.71 38.42 36.43 30.44
45.02 45.49 46.12 45.19 44.12 43.97 44.16 43.65 43.85 44.02 44.52 42.24 43.81 38.54 46.00 48.04 40.33 39.83 36.20 33.76 32.78 34.50 36.34 34.71 35.10 33.85 32.19 32.85 31.43 31.63 31.85 35.55 40.40 39.57 33.33 36.00 35.34 33.38 36.60 42.91 44.51 42.03 39.34 39.79 33.45 32.94 36.54
44.52 45.41 44.72 43.85 43.58 44.10 44.11 43.82 43.84 43.88 43.13 44.58 41.13 40.21 46.27 45.59 34.87 35.58 34.37 33.38 34.33 33.22 33.65 33.38 32.48 34.18 35.43 32.25 28.22 32.50 33.59 38.41 39.88 37.85 34.67 34.39 32.47 29.57 33.97 38.23 42.11 39.11 40.80 40.86 40.17 39.09 34.07
44.85 45.18 44.11 43.67 44.03 44.04 44.14 43.69 43.42 43.83 43.41 43.76 41.68 35.54 40.56 43.24 41.14 34.96 29.51 30.74 30.78 35.03 33.93 34.72 34.07 35.63 33.55 31.41 34.39 31.27 32.64 36.78 39.24 38.37 38.23 36.20 32.31 30.88 30.07 33.73 38.26 36.66 38.93 40.65 39.41 34.33 34.80
44.57 43.97 43.38 43.34 44.43 44.50 44.47 43.81 43.54 43.41 43.90 43.68 41.71 36.65 38.35 33.13 35.66 34.73 33.61 31.24 28.62 28.83 33.98 35.36 33.03 32.88 30.81 27.94 30.06 30.12 33.01 34.55 36.90 37.93 36.90 35.83 27.89 31.53 36.77 37.94 38.24 37.40 37.26 38.64 37.16 38.23 34.39
43.67 43.88 43.42 43.39 44.09 43.86 43.81 43.34 43.66 43.64 43.55 43.30 36.80 38.67 38.16 35.60 33.51 32.83 29.51 30.72 29.02 30.40 30.84 30.88 30.43 32.65 33.06 29.04 30.45 29.03 32.16 32.99 31.62 36.02 33.39 34.41 29.85 29.61 34.09 37.35 37.13 34.84 37.38 37.35 36.85 36.63 36.32
43.53 43.54 43.40 42.95 43.77 44.04 43.83 43.36 43.49 43.56 42.80 42.79 43.10 43.74 40.11 32.91 34.06 32.65 32.51 30.43 29.85 31.72 32.65 33.85 32.97 31.95 30.77 33.02 35.76 36.74 37.66 37.50 35.97 33.06 31.84 30.67 30.61 31.43 29.20 34.04 33.88 30.01 35.13 35.63 36.91 39.53 39.95
43.22 43.71 43.27 42.87 43.61 43.67 44.06 43.68 43.19 43.36 42.46 44.89 44.24 43.03 37.83 31.90 34.52 33.15 31.53 32.01 31.21 32.38 30.60 33.97 34.94 32.17 35.93 40.56 39.82 38.86 37.89 37.20 36.92 35.19 35.53 30.54 30.07 31.32 28.53 30.20 21.57 33.69 40.34 39.47 37.23 40.27 40.83
43.12 43.11 43.02 42.53 43.26 43.84 43.68 43.51 43.63 43.63 43.22 44.13 44.67 41.64 38.32 34.08 35.34 32.46 32.20 32.58 33.95 35.20 33.86 34.26 35.73 38.08 40.98 37.40 30.16 29.41 31.73 32.73 33.68 35.76 35.18 35.17 32.84 31.06 27.83 25.66 29.95 34.62 37.41 37.33 36.48 36.46 40.50
42.78 42.41 42.73 43.55 43.51 43.34 43.39 43.81 43.64 43.83 43.99 44.02 43.81 44.06 39.48 35.22 34.12 34.60 33.51 33.75 31.66 32.19 33.30 34.08 38.48 41.14 38.79 33.16 28.28 24.20 23.87 28.89 28.12 31.18 37.64 37.29 37.05 32.80 31.45 24.51 21.83 32.54 39.77 42.41 41.91 32.72 40.03
42.78 42.30 42.65 43.04 43.36 43.70 43.65 43.75 44.02 43.78 44.44 44.76 44.07 46.32 41.40 34.74 39.22 37.04 33.39 32.02 35.09 33.28 31.18 34.35 34.93 34.20 37.85 31.29 28.00 26.82 26.67 33.38 27.17 27.53 29.36 31.54 32.77 29.92 30.28 28.39 32.51 38.69 41.35 42.96 30.72 32.40 39.09
42.63 42.43 42.74 42.91 43.11 43.82 43.78 43.58 43.46 43.85 43.83 44.55 43.56 45.86 41.33 37.69 38.43 39.45 38.54 34.01 34.57 34.58 29.85 34.67 33.59 33.50 32.86 29.43 29.87 29.99 30.45 32.52 31.71 33.16 31.96 31.45 30.16 30.14 31.86 28.25 25.21 39.68 40.44 34.91 35.54 39.27 37.32
42.00 42.23 42.86 42.91 43.59 43.41 43.89 43.83 43.78 43.87 43.90 44.05 40.36 46.16 43.96 36.78 37.72 42.17 42.20 42.67 40.20 38.38 35.77 36.19 33.45 32.45 34.03 29.99 30.67 31.09 30.98 33.95 32.02 27.79 37.02 31.21 34.12 33.19 34.65 32.30 37.08 38.08 35.82 37.22 36.76 34.09 34.62

GFSGBSN_sfc_wetblb_090.txt.gz
Wetbulb
57.79 58.30 57.29 56.36 55.37 54.06 53.72 53.39 52.87 52.42 51.88 51.62 51.73 51.67 51.81 51.73 51.71 51.43 51.13 51.25 50.64 50.66 50.65 51.30 52.05 52.79 51.23 47.17 48.33 53.51 57.36 57.57 55.40 52.82 53.00 51.26 48.05 46.64 44.13 46.09 47.84 46.59 47.80 49.28 50.14 50.03 49.97
57.35 57.40 56.65 55.57 55.01 53.89 53.69 53.13 52.90 52.07 51.68 51.59 51.79 51.65 51.57 51.27 51.00 50.54 50.27 50.63 50.38 49.95 50.55 51.56 52.24 52.32 48.79 40.99 52.49 53.05 51.41 51.53 51.80 52.72 51.76 52.36 49.59 49.38 46.32 45.65 45.24 47.13 46.40 46.56 47.61 48.05 47.76
57.63 56.99 55.88 54.79 54.41 53.87 53.70 53.65 53.13 51.88 51.53 51.77 51.74 51.06 50.63 50.04 49.74 49.61 49.63 49.50 50.04 49.99 50.86 52.29 52.90 52.52 48.00 45.85 52.96 54.11 52.07 50.09 50.11 50.11 49.78 52.88 52.39 49.59 49.32 46.12 48.81 47.76 43.96 45.99 46.88 47.43 46.60
57.40 56.19 54.98 53.90 53.64 52.96 53.33 53.07 52.09 51.68 51.52 51.03 50.64 49.55 49.01 48.85 49.02 49.03 49.15 49.72 49.96 50.35 52.14 54.00 54.42 52.79 44.31 53.33 54.47 51.81 52.35 50.98 51.91 51.14 49.66 51.70 52.89 50.21 48.78 50.06 47.23 43.51 43.36 38.32 43.82 44.97 45.80
57.15 55.90 54.52 53.76 52.99 52.56 52.93 52.08 51.83 51.67 51.11 50.18 48.93 48.28 48.42 48.77 49.35 49.60 49.71 50.02 50.21 51.20 53.81 53.33 51.79 50.73 44.11 53.77 49.85 53.10 54.61 51.32 52.31 51.37 50.08 49.63 48.68 46.42 46.91 42.85 40.11 41.30 36.05 38.18 40.23 45.15 45.06
56.78 54.92 54.40 53.30 52.16 52.21 52.12 51.85 51.39 50.84 49.83 49.10 48.55 48.29 48.50 48.74 49.34 49.22 49.38 49.57 51.52 52.18 52.50 54.28 53.40 47.46 49.80 47.60 51.01 52.40 54.44 53.19 50.45 49.45 46.33 45.34 43.92 40.62 41.18 39.42 33.48 36.78 37.63 39.18 38.90 42.91 43.75
56.22 55.15 54.07 52.98 52.29 51.87 51.45 50.76 50.69 50.33 49.14 48.75 48.57 48.24 48.50 48.57 48.55 48.86 48.11 50.98 47.35 47.50 50.62 47.04 47.01 46.80 47.51 47.84 51.54 48.58 49.30 49.97 50.35 47.72 42.42 44.81 39.35 36.08 39.54 41.31 40.99 40.58 39.25 38.65 41.02 43.89 41.64
55.41 54.80 53.82 53.00 52.27 51.54 50.93 50.58 50.71 49.80 48.96 48.87 47.80 48.00 48.01 47.92 47.91 48.99 47.96 46.58 44.44 44.94 39.22 46.79 45.52 45.75 48.64 50.13 45.71 49.02 49.92 44.60 44.42 41.11 44.59 42.53 37.76 42.16 43.41 43.39 41.80 40.42 38.31 37.27 40.19 42.70 41.86
54.60 54.33 53.06 52.58 51.89 51.12 50.80 50.67 50.88 49.87 49.03 48.13 47.57 47.33 47.49 47.32 47.60 46.61 46.74 45.19 48.67 48.17 39.78 43.95 46.83 47.12 47.23 48.95 46.28 46.79 48.04 45.14 41.90 40.60 41.67 39.52 42.50 45.19 43.24 41.52 40.12 39.56 37.73 37.34 37.02 40.23 42.00
52.63 52.79 52.28 51.57 51.35 50.78 50.71 50.44 50.13 49.18 48.20 47.29 46.69 46.97 46.98 47.45 44.37 46.74 46.62 47.33 49.41 49.28 37.20 39.50 42.59 46.22 47.58 46.78 44.58 50.60 50.32 46.70 43.98 40.30 41.37 40.74 44.50 43.07 42.14 40.52 41.54 36.81 42.27 40.91 39.47 37.57 32.31
52.00 51.39 51.15 51.06 50.83 50.31 49.30 48.97 48.03 47.35 46.71 46.31 46.36 46.57 46.71 46.92 45.37 45.21 46.06 48.62 49.66 48.12 27.58 40.55 43.94 50.28 45.60 43.18 44.75 46.08 50.36 46.79 41.04 41.36 42.18 39.15 41.02 40.65 40.19 41.13 43.35 39.10 42.98 40.61 40.39 38.38 37.51
50.40 50.42 50.76 50.28 48.89 47.76 47.29 47.12 46.99 46.37 45.60 45.54 46.13 46.38 46.58 46.82 47.47 47.89 48.97 49.30 47.60 36.63 27.26 36.66 42.12 40.55 38.75 41.75 42.89 45.68 45.80 48.16 46.86 41.86 42.12 40.75 44.86 43.47 42.58 43.95 43.50 43.87 40.71 40.30 40.17 38.07 30.37
49.13 49.47 49.11 48.28 47.64 47.04 47.14 46.93 46.45 45.51 45.38 45.80 45.74 45.89 44.10 46.77 45.08 49.66 49.60 46.11 35.91 30.10 37.88 35.57 36.66 38.18 37.34 36.45 38.51 40.90 40.13 40.28 38.33 35.29 36.14 40.25 39.95 42.97 44.33 40.35 43.39 42.39 37.79 29.50 27.96 29.11 28.49
48.39 48.30 47.46 47.09 46.72 46.83 46.53 45.85 45.10 45.20 44.98 45.24 45.47 45.06 47.07 48.31 49.87 50.39 47.93 40.38 28.77 34.34 34.67 38.57 36.74 36.58 33.81 36.30 36.67 38.54 36.58 34.96 39.33 40.80 37.00 33.93 32.63 40.87 43.72 41.00 38.51 39.32 38.09 30.32 23.59 26.14 30.16
47.00 47.46 47.39 47.30 46.41 45.90 45.23 45.09 44.91 44.36 44.39 45.01 44.68 45.97 47.68 49.42 50.33 49.27 42.20 32.63 32.55 34.83 36.18 34.15 34.70 32.78 33.68 36.50 36.08 35.19 35.01 34.57 39.43 40.98 34.34 33.96 34.55 43.63 44.31 44.11 41.91 38.32 34.65 40.24 33.92 34.82 30.35
46.29 46.48 47.08 46.12 45.61 45.36 44.63 44.73 44.52 44.30 44.26 44.64 43.06 44.67 45.00 48.66 50.05 46.41 38.76 32.97 34.48 37.22 36.26 35.21 29.47 33.10 30.30 33.32 32.48 33.20 33.63 38.23 38.44 41.06 41.11 37.35 30.67 39.53 41.84 43.06 43.80 40.97 43.09 33.85 35.04 25.62 24.14
46.41 47.20 46.49 46.00 45.43 44.54 44.12 44.41 44.01 43.82 44.51 44.51 42.32 40.47 45.48 48.59 49.15 42.07 34.26 34.44 35.10 37.57 36.55 33.35 32.37 31.43 32.15 31.28 32.62 32.05 32.62 36.66 39.87 38.90 39.82 37.59 34.65 34.33 39.56 37.61 37.58 38.51 37.31 37.91 37.09 34.46 27.54
45.81 46.76 46.38 45.53 44.62 44.11 44.37 43.85 43.90 44.16 44.58 42.75 43.24 37.52 45.83 48.23 39.09 39.09 34.88 35.49 32.99 35.62 37.17 35.24 35.22 33.94 32.31 33.13 31.37 31.42 31.21 34.73 39.10 39.10 33.60 36.45 32.37 28.26 33.32 41.23 43.20 39.04 39.14 38.82 30.96 30.52 34.25
45.49 46.35 45.81 44.83 44.32 44.20 44.19 44.18 44.03 44.30 43.64 43.17 39.97 39.68 45.25 45.29 34.84 34.51 35.90 34.78 35.27 34.25 34.65 34.25 33.28 34.66 35.55 32.13 28.50 32.36 33.40 38.44 39.27 37.45 34.15 35.65 30.28 25.03 31.13 36.25 39.29 37.76 39.65 39.32 38.85 37.70 32.91
45.43 45.48 44.32 43.83 43.69 44.20 44.11 43.66 43.35 43.87 44.26 42.49 40.82 36.20 39.83 41.51 40.18 35.98 32.97 32.00 32.01 36.26 34.27 35.16 34.38 35.68 33.73 32.13 34.62 31.29 32.59 35.92 38.77 37.82 38.53 36.61 31.05 27.76 24.42 29.48 33.31 31.69 37.06 39.87 37.84 32.99 32.93
45.53 44.72 44.02 43.95 44.06 44.09 43.96 43.78 43.59 43.79 44.33 42.52 41.13 38.00 39.09 33.59 35.23 35.56 34.37 32.32 30.07 29.95 34.96 35.81 33.45 33.50 31.98 28.33 30.09 29.89 32.97 34.09 36.63 37.33 36.31 34.21 27.81 30.90 32.83 33.75 33.47 34.15 35.69 38.18 36.55 36.94 32.95
44.61 43.93 43.57 44.11 44.37 44.74 43.85 43.31 43.61 43.83 44.14 42.07 37.20 37.65 38.22 36.48 34.84 34.06 30.37 32.29 30.77 31.99 32.02 31.23 31.61 33.57 33.52 29.75 30.63 28.17 31.64 32.13 31.35 35.52 34.96 34.79 26.44 30.05 27.66 33.26 34.13 32.71 37.06 36.66 35.76 36.47 36.78
44.51 43.95 43.46 43.98 44.20 43.74 43.61 43.06 43.38 43.82 43.37 41.98 41.80 43.22 40.57 34.19 34.77 33.36 32.83 32.25 31.38 33.06 33.99 34.68 33.69 32.23 30.76 32.55 35.18 35.87 36.24 35.78 34.75 32.84 31.54 31.31 28.55 27.64 23.78 30.37 33.39 30.57 35.29 36.86 37.25 39.17 38.67
43.71 43.80 43.41 43.29 44.06 43.87 43.60 43.03 43.08 43.65 43.20 42.45 43.23 41.85 38.05 31.70 34.45 33.47 32.90 33.49 32.45 33.66 31.73 34.66 35.45 32.43 35.87 40.52 39.36 37.60 36.19 35.51 35.35 35.35 36.51 30.76 29.16 28.73 23.98 27.16 23.71 34.63 40.63 39.77 38.23 38.33 39.47
43.38 44.00 43.44 42.97 43.88 44.08 43.97 43.70 43.30 43.77 43.80 43.08 44.29 41.42 38.68 34.16 35.74 33.78 33.16 33.59 35.15 36.01 34.36 34.83 37.07 38.26 40.16 36.67 30.39 27.78 29.86 31.51 32.95 35.28 34.89 35.17 30.36 26.88 25.74 26.03 31.48 34.50 37.76 37.37 36.51 35.06 38.36
43.64 43.55 43.29 43.07 43.90 44.04 43.94 43.55 43.05 43.55 44.14 44.49 43.65 44.97 40.40 36.54 33.37 36.44 33.84 34.53 32.02 31.82 32.64 35.00 39.42 40.87 38.68 33.38 28.66 22.17 21.96 27.60 27.31 30.77 36.27 34.99 33.56 28.82 29.78 24.22 21.73 33.45 38.82 42.40 41.25 32.05 37.58
43.62 42.93 43.03 43.60 43.86 43.70 43.47 43.43 43.65 43.20 43.80 43.55 44.60 46.50 40.94 34.90 38.71 37.85 34.31 32.54 35.64 33.58 31.29 33.87 34.93 35.09 37.72 30.40 26.53 25.40 25.78 32.52 26.18 26.77 27.42 29.30 30.12 28.29 28.60 27.02 31.15 35.13 39.36 41.73 29.50 30.44 35.87
43.82 43.35 43.42 43.77 43.57 43.65 43.75 43.82 43.74 43.40 43.27 43.93 44.17 46.50 41.64 37.29 38.15 39.89 39.61 35.85 35.13 34.14 29.90 34.02 32.67 32.94 32.36 28.39 28.20 27.74 26.60 31.29 30.68 33.01 30.72 29.57 28.36 28.83 30.76 27.67 24.61 36.91 37.58 31.93 33.17 35.48 34.69
43.65 43.08 43.21 43.33 43.73 43.56 43.53 43.74 43.48 43.42 43.35 43.87 42.10 45.28 45.10 39.60 37.64 42.42 42.16 42.63 40.89 39.89 35.38 35.53 33.17 32.88 33.59 29.66 29.90 29.36 28.23 32.73 31.48 26.89 36.63 29.77 33.34 32.23 32.45 29.99 35.09 36.28 34.47 35.26 35.77 33.67 33.60

GFSGBSN_sfc_wetblb_093.txt.gz
Wetbulb
59.69 59.35 58.28 57.96 57.97 56.98 56.06 55.26 54.66 54.02 53.69 52.87 52.10 52.05 52.01 52.12 52.24 52.00 51.88 51.92 50.93 50.88 50.67 50.88 51.54 52.44 49.58 44.19 45.48 54.16 59.41 58.34 53.10 50.29 48.20 47.43 45.95 43.79 39.19 41.96 43.39 42.95 44.84 46.57 47.04 47.38 47.23
59.38 58.84 58.01 57.59 57.46 56.70 55.79 55.04 54.48 53.91 53.51 52.71 52.54 52.08 51.98 51.81 51.51 50.98 50.45 50.81 50.68 50.11 50.19 51.02 51.80 51.97 46.48 38.72 49.08 53.17 52.40 52.06 50.30 50.23 49.59 50.07 48.20 47.99 43.85 42.49 40.87 43.33 43.41 43.72 44.28 44.22 44.51
59.72 58.64 57.60 57.60 56.76 56.05 55.22 54.62 54.39 53.82 53.28 52.25 51.96 51.91 51.42 50.83 49.92 49.62 49.57 49.87 50.42 49.93 50.42 51.40 52.63 50.53 46.14 42.80 49.88 48.87 50.23 46.86 46.89 46.53 45.04 47.88 49.76 45.92 45.45 42.64 46.64 45.06 40.65 42.31 42.54 42.74 43.25
59.74 58.73 57.85 57.29 56.09 55.02 54.44 54.22 53.91 53.40 52.56 51.98 51.98 51.27 50.32 49.08 48.95 49.29 49.48 50.04 50.05 49.87 50.85 52.02 54.43 50.17 43.01 52.13 49.66 49.83 49.00 47.75 49.11 48.79 47.53 46.94 46.79 44.82 44.00 45.42 44.18 40.03 39.47 34.34 40.58 42.43 43.63
59.66 58.98 57.71 56.91 55.41 54.62 54.27 54.03 53.58 52.82 52.16 52.05 51.21 50.00 49.23 49.66 49.62 49.71 49.54 49.90 49.77 50.15 51.76 53.75 49.47 47.97 42.48 54.17 49.20 51.00 48.66 47.58 49.58 49.24 47.31 49.22 44.80 40.71 42.48 37.44 34.43 36.10 31.40 33.74 37.37 42.49 41.99
59.88 58.81 57.68 56.66 55.11 54.27 53.23 52.88 52.85 52.38 52.55 51.71 50.03 48.89 48.64 49.51 49.82 49.77 49.41 49.45 49.14 50.28 52.01 52.50 51.03 44.73 48.28 46.52 48.65 50.22 49.89 51.22 48.88 47.97 44.98 42.24 38.53 34.96 34.41 31.98 26.94 30.62 32.01 32.54 33.31 37.24 39.13
60.22 58.87 57.47 56.06 54.66 53.50 53.02 53.10 52.19 52.46 51.71 50.17 48.98 48.53 48.64 48.81 49.43 49.03 47.64 44.57 43.00 42.97 46.16 44.63 45.42 44.38 46.88 46.92 49.40 47.33 48.38 46.54 46.52 45.06 38.01 39.88 32.45 29.92 32.88 35.42 36.85 36.20 34.83 33.52 36.26 39.91 37.92
59.19 58.33 57.02 55.71 54.29 52.77 52.82 52.44 51.44 50.94 50.06 49.14 48.75 48.27 48.21 48.34 48.30 48.73 45.56 41.72 41.34 40.73 34.34 44.75 48.10 47.02 46.22 46.89 44.12 47.73 48.84 41.57 40.17 38.08 40.52 37.93 32.69 38.21 39.83 39.21 38.08 36.95 34.56 33.60 36.98 40.02 37.84
57.62 57.04 55.85 55.39 53.60 52.67 52.17 51.46 50.81 50.73 49.46 49.33 48.16 47.84 47.66 47.61 47.86 45.37 42.96 42.36 46.31 46.06 35.32 41.53 44.14 44.35 46.38 48.16 44.24 45.51 46.38 42.60 39.03 37.01 37.14 34.11 38.86 43.25 40.58 38.58 37.55 36.96 34.95 34.23 34.86 37.11 37.77
56.66 55.23 54.93 54.30 53.01 52.14 51.32 50.92 51.11 50.48 49.36 48.38 47.27 47.10 47.23 47.74 43.53 43.96 42.63 45.23 47.11 46.85 33.24 38.73 40.05 44.81 46.47 46.97 42.38 49.26 49.31 45.00 41.54 36.77 38.00 36.97 40.77 40.30 39.36 38.38 39.26 33.93 39.66 39.21 38.08 34.83 28.47
55.55 54.25 53.90 53.15 51.84 51.26 50.83 50.82 50.64 49.48 48.19 47.04 46.21 46.69 47.02 46.42 40.60 40.75 43.27 45.51 45.66 44.32 24.54 38.97 41.68 49.19 45.53 42.26 42.63 44.98 49.03 44.59 38.67 38.57 38.48 35.71 37.85 37.41 36.96 37.97 40.54 37.30 41.63 39.27 37.24 33.24 32.49
53.43 52.80 52.00 50.97 50.28 50.33 49.82 48.62 47.81 47.46 46.40 45.56 45.57 46.33 46.59 44.44 42.96 44.85 46.11 44.99 43.29 33.23 24.05 36.03 42.02 40.56 38.60 40.06 40.46 44.76 44.47 45.27 44.21 39.55 39.15 37.71 41.62 39.39 38.35 41.25 41.25 42.10 38.87 38.38 35.34 32.50 26.19
50.46 50.22 50.48 50.02 48.86 47.96 47.67 47.36 47.09 46.07 45.68 45.67 45.71 46.13 43.84 44.77 40.98 45.80 45.04 41.81 32.16 26.31 38.69 34.04 35.85 38.13 36.69 35.28 36.31 36.87 38.22 35.49 33.93 29.49 30.63 36.91 38.16 41.00 41.10 36.68 39.97 37.87 33.31 23.93 22.40 22.75 23.89
49.14 48.78 48.37 47.90 47.32 47.16 46.98 46.80 45.94 45.51 44.72 44.85 45.34 45.28 44.97 43.91 46.30 46.37 43.97 35.91 26.00 34.58 33.42 37.66 35.30 34.72 32.07 34.44 34.67 36.18 33.73 30.14 34.70 36.86 32.98 30.10 27.76 37.23 42.37 37.98 34.99 35.28 33.67 26.57 20.22 21.08 25.97
47.93 47.15 47.04 46.86 46.79 46.58 46.05 44.89 44.45 44.41 44.28 44.68 44.88 40.50 42.57 45.99 46.21 45.27 37.81 28.63 27.60 32.41 34.46 32.52 33.70 31.08 31.55 35.11 34.34 33.46 31.66 31.47 36.67 36.96 30.40 30.25 30.99 39.55 40.57 42.17 39.88 35.08 32.19 38.18 31.33 31.67 26.90
47.26 46.98 47.23 46.72 45.81 44.87 44.51 44.61 44.22 44.05 44.25 44.36 39.46 41.08 41.36 44.97 45.56 41.88 33.27 31.09 32.51 35.76 35.25 34.67 28.49 32.57 28.51 30.30 30.09 30.30 30.96 35.68 36.52 37.84 37.66 33.76 26.55 36.39 38.91 42.05 41.09 37.68 39.49 28.66 31.35 25.34 22.23
46.16 47.14 46.12 45.18 44.94 44.34 43.84 44.99 44.17 43.92 44.33 44.15 38.23 36.11 41.45 44.67 44.57 37.39 26.93 31.22 34.48 36.98 36.08 32.12 30.40 29.34 29.93 29.02 30.07 29.19 30.75 34.68 35.90 35.64 35.89 33.77 31.16 29.89 34.92 34.21 34.69 36.76 34.16 35.94 35.24 31.52 24.04
46.87 46.82 46.11 45.44 45.08 44.36 44.26 43.92 43.56 43.88 44.17 41.57 37.78 32.01 42.24 43.47 34.70 35.89 29.33 34.45 35.42 35.28 37.04 34.77 34.95 33.01 30.82 31.23 29.31 28.93 28.98 33.44 38.48 37.08 31.08 34.52 30.13 24.64 27.46 34.84 37.21 39.00 36.32 35.05 28.39 28.03 32.10
46.73 46.69 45.69 44.99 44.53 44.57 44.07 44.17 43.77 43.89 44.09 38.69 35.26 34.66 41.28 41.07 27.59 28.38 33.97 34.05 34.82 33.87 34.26 33.56 32.28 34.27 33.84 29.78 25.34 30.59 32.00 37.38 38.72 35.56 31.31 33.15 26.12 19.79 22.39 30.33 35.77 34.05 34.57 34.53 34.16 36.25 29.34
46.39 46.11 45.28 44.69 44.51 44.51 44.21 43.52 43.40 43.95 44.21 39.94 36.15 28.69 33.64 36.52 34.24 31.56 29.85 31.40 31.22 35.97 33.56 34.35 32.92 33.96 31.22 30.21 32.36 29.58 30.41 35.86 37.38 37.05 38.29 34.70 28.64 24.41 18.52 24.49 30.58 28.29 31.93 33.69 33.22 30.70 31.74
45.78 44.79 44.24 43.70 44.12 44.09 43.92 43.55 43.64 43.93 44.33 39.65 36.85 31.75 34.19 26.57 29.19 31.35 32.31 32.10 30.04 29.52 34.28 34.63 31.80 32.79 30.79 25.84 27.55 26.47 30.80 31.74 34.73 37.94 34.55 30.75 24.60 27.55 28.75 30.05 30.52 30.56 31.02 32.36 31.86 35.09 31.23
45.03 44.51 44.26 44.48 44.26 44.14 43.56 43.44 44.08 44.23 44.48 37.36 32.27 32.58 32.83 31.00 32.92 31.22 29.13 30.20 30.22 31.20 31.28 29.25 28.54 31.02 30.05 26.01 27.31 24.83 28.19 28.01 27.80 32.10 30.48 32.56 24.79 25.40 24.36 29.15 30.48 28.66 31.55 33.81 33.93 35.21 35.42
44.43 43.81 44.23 44.42 44.13 43.84 43.34 43.54 43.51 44.03 43.36 36.41 35.91 38.30 35.57 32.31 29.34 26.82 26.67 30.30 30.92 32.35 33.74 34.05 32.22 29.54 28.11 30.03 32.30 32.83 32.39 32.12 31.31 28.58 23.17 26.39 23.72 21.87 17.55 28.50 27.71 25.29 33.45 33.72 34.91 37.00 35.74
44.32 43.71 43.74 44.25 43.99 44.01 43.14 43.17 43.70 43.86 42.96 38.01 37.74 36.88 32.24 24.96 28.60 30.39 32.72 32.99 31.27 32.79 29.04 33.29 33.46 29.21 34.50 37.09 35.49 34.34 33.16 32.40 31.79 30.77 31.55 25.95 25.62 26.15 20.96 24.60 19.73 32.47 39.50 38.35 34.51 34.26 35.86
43.71 43.89 43.27 43.59 43.79 44.11 43.54 43.65 44.07 44.14 44.23 38.75 40.17 37.14 33.21 26.55 31.75 32.07 32.64 32.60 32.87 33.64 31.70 32.90 35.48 36.71 36.55 33.11 26.14 23.78 23.94 26.70 28.91 30.63 30.36 31.38 26.88 24.19 22.21 22.16 30.11 32.27 35.10 34.86 33.84 31.11 34.52
43.54 44.07 43.19 43.59 44.82 44.39 43.58 43.26 43.65 44.07 44.57 41.27 40.13 40.96 35.82 29.31 28.30 35.67 31.14 32.63 26.41 25.58 27.95 31.59 37.21 37.50 34.90 25.24 21.74 20.28 18.92 24.35 26.27 29.35 32.80 32.54 32.02 26.30 26.02 21.94 22.54 29.83 33.96 37.94 39.13 27.53 33.84
43.80 43.58 43.23 43.41 44.51 44.26 43.70 43.31 43.48 43.95 44.37 41.22 40.05 42.07 36.37 27.43 34.36 34.79 29.16 28.08 31.68 28.36 24.31 28.91 31.01 31.18 33.73 21.43 16.91 19.31 22.50 29.68 25.07 25.26 26.25 26.30 27.94 24.29 24.06 23.16 28.23 31.84 34.77 37.92 26.03 27.62 32.42
43.95 43.78 43.34 44.37 44.46 44.05 44.00 44.15 43.80 43.73 43.98 41.67 39.52 41.83 36.34 29.30 33.28 37.52 37.72 31.75 30.91 29.33 22.57 28.91 26.64 29.28 26.57 22.52 26.05 21.69 21.00 27.28 29.62 31.48 29.12 26.94 26.85 27.76 28.16 25.68 21.38 32.91 33.85 29.02 32.53 33.69 32.24
43.86 43.80 44.01 44.22 44.37 44.47 43.90 43.44 43.43 43.49 43.55 42.94 37.50 41.95 42.09 32.32 32.29 37.66 38.17 38.94 36.81 35.04 31.33 30.50 28.55 27.52 29.75 23.74 26.45 27.60 25.32 28.12 29.93 26.14 35.08 28.43 32.39 28.97 30.26 27.94 32.12 32.63 31.90 34.29 34.89 32.86 31.74

GFSGBSN_sfc_wetblb_096.txt.gz
Wetbulb
61.07 60.75 60.03 59.28 58.99 58.49 58.41 57.66 56.59 55.60 54.87 54.71 54.18 53.34 52.80 52.61 52.77 52.60 52.56 52.29 51.29 51.01 50.91 50.75 51.06 52.24 48.36 43.37 43.68 51.17 58.88 57.56 53.57 50.32 46.76 45.67 43.66 41.55 37.19 38.41 39.77 40.05 42.63 44.78 45.67 45.84 45.59
60.82 60.28 59.83 59.28 58.81 58.25 58.46 57.36 56.30 55.27 54.59 54.49 53.64 53.41 52.58 52.53 52.39 52.34 51.46 51.37 50.92 50.40 50.21 50.46 51.38 51.56 45.31 35.51 46.67 50.57 54.69 53.28 51.02 46.57 47.51 47.30 46.90 46.61 43.12 41.55 37.98 41.35 41.79 41.32 42.31 42.58 42.61
61.41 60.41 59.79 59.09 58.33 57.81 58.02 56.66 55.77 55.10 54.54 54.22 53.49 53.16 52.75 52.32 51.75 50.68 50.02 50.27 50.71 50.33 50.08 50.73 51.46 50.25 44.81 40.68 47.38 47.38 50.67 47.24 47.90 48.03 46.01 46.43 47.19 42.89 42.94 40.71 44.37 43.25 39.13 40.48 39.99 40.65 40.14
61.15 60.95 60.23 58.88 58.04 57.29 57.18 56.12 55.39 54.94 54.35 53.76 52.63 52.95 52.58 51.45 49.97 49.26 49.64 50.22 50.23 49.82 50.07 51.07 52.54 49.34 41.25 51.10 50.14 49.12 48.16 46.41 47.07 46.36 45.76 46.50 45.00 42.03 41.45 43.18 41.99 38.14 37.52 32.37 38.91 40.91 41.80
60.24 60.77 60.43 59.20 58.02 56.98 56.51 55.69 54.92 54.55 53.67 53.26 52.91 52.66 51.38 50.07 50.05 50.03 50.08 49.70 49.41 49.58 50.25 51.87 48.74 47.16 41.64 54.06 49.60 51.89 49.85 46.32 46.62 47.05 45.96 48.56 44.22 39.18 39.42 34.93 32.00 33.75 29.96 32.66 35.66 40.79 39.58
59.11 59.73 60.21 59.31 57.89 57.14 56.43 55.30 54.59 53.84 53.31 52.71 52.31 51.47 49.71 49.67 49.95 49.95 49.74 48.82 49.14 48.81 48.94 51.80 50.13 43.91 45.99 45.77 48.10 49.14 48.60 49.77 47.38 46.75 43.66 41.57 36.90 33.28 32.47 30.60 25.65 28.80 30.37 29.74 31.14 35.74 36.53
58.97 59.46 60.23 59.69 58.09 57.44 56.45 55.40 53.62 53.42 52.84 52.64 51.74 49.75 49.11 48.91 49.33 49.40 46.87 42.16 42.89 41.91 43.41 42.76 42.68 42.88 46.09 47.13 46.78 46.05 47.74 45.07 43.76 42.70 36.25 38.04 31.40 28.80 31.05 32.76 34.84 34.12 33.09 31.49 34.07 37.18 36.18
58.00 59.06 59.85 59.44 58.17 57.07 56.17 54.59 53.52 53.03 52.46 51.74 50.75 49.21 48.44 48.42 48.35 47.92 45.04 39.28 40.16 39.40 33.12 43.36 46.57 46.35 49.25 48.82 42.57 46.22 47.72 40.66 38.65 33.30 38.55 35.34 30.10 36.09 37.52 36.77 34.99 33.81 31.69 31.24 35.45 38.10 36.76
57.44 58.21 59.07 59.10 57.97 55.97 55.40 53.84 53.17 52.45 51.73 50.14 49.73 48.77 47.96 47.35 47.52 44.09 41.32 40.99 45.46 43.67 32.35 38.58 41.89 43.05 45.67 46.40 42.34 44.08 44.59 41.44 37.03 34.95 36.11 33.42 37.15 41.48 38.45 36.61 35.05 34.49 32.20 32.81 33.24 35.81 34.87
57.61 57.48 57.95 58.18 56.39 55.18 54.35 53.86 51.96 51.24 50.75 50.19 49.12 47.82 47.10 46.81 42.62 41.77 41.32 44.92 46.07 44.33 28.16 36.33 39.96 42.85 45.69 46.53 42.03 47.73 47.85 43.71 39.36 35.30 35.85 34.34 39.01 37.62 36.62 36.01 37.60 32.14 37.91 37.17 36.07 32.34 28.50
56.99 56.87 56.83 56.09 54.82 53.40 52.88 51.80 51.03 50.75 49.98 49.25 47.63 46.84 46.38 46.05 39.52 40.70 43.46 43.61 43.64 42.69 20.26 38.68 39.98 48.56 45.95 42.02 41.45 44.10 48.22 44.06 37.83 37.57 36.68 34.11 35.81 35.16 34.19 35.41 37.93 35.04 39.48 37.76 36.23 31.50 29.31
56.49 56.15 55.90 54.38 52.88 52.05 51.47 51.02 50.83 50.03 48.77 47.49 46.51 46.02 45.71 43.23 42.12 43.35 43.87 44.64 43.23 30.27 21.08 35.99 41.65 40.43 38.70 40.32 39.64 43.63 43.50 44.38 42.87 38.09 37.46 35.90 39.35 37.54 35.98 38.78 38.39 39.55 37.17 35.00 33.70 30.68 25.09
54.29 54.10 53.11 51.92 51.27 50.74 50.32 49.39 48.44 47.11 46.27 45.43 45.35 44.98 43.96 44.00 40.27 44.85 44.40 41.22 31.09 26.10 38.04 32.82 35.02 37.90 35.76 34.59 35.18 35.43 36.13 34.35 31.59 27.07 27.27 33.18 34.07 37.41 40.44 35.50 37.52 35.79 31.35 23.81 21.82 20.52 23.06
48.07 49.58 49.96 49.81 48.90 48.11 47.56 46.67 45.98 45.72 45.52 44.84 44.26 44.27 43.09 42.77 43.64 44.86 43.01 34.83 26.11 32.13 31.88 36.04 34.65 33.89 31.19 33.21 33.18 33.93 31.71 28.36 35.08 34.56 30.36 28.03 26.45 34.65 38.77 35.92 33.11 32.79 34.00 26.64 20.52 20.69 23.34
48.74 48.57 48.31 48.11 47.71 47.46 46.86 46.19 45.79 45.09 44.36 43.97 43.89 39.73 39.33 43.88 44.33 44.02 37.46 28.41 27.47 31.40 33.67 32.16 33.19 29.36 30.73 33.27 32.53 32.10 30.31 32.31 34.83 33.91 28.54 27.88 28.67 36.28 38.39 38.06 38.28 34.18 29.19 34.83 29.44 30.23 26.68
46.43 46.38 46.55 46.64 46.69 46.14 45.50 45.23 45.18 44.37 43.62 43.50 38.75 39.22 40.64 45.38 44.39 41.59 33.33 30.95 30.64 34.76 34.78 33.92 27.99 30.91 26.57 28.84 28.86 29.22 29.89 35.08 33.69 35.33 34.82 31.98 24.80 34.08 35.80 36.52 37.46 37.73 38.14 27.94 28.27 21.79 20.34
47.35 47.12 46.65 45.72 45.16 44.82 44.67 44.39 44.20 43.80 43.76 43.78 37.54 35.61 41.15 43.81 44.12 36.71 26.58 29.52 32.80 36.00 35.62 31.74 29.79 28.58 28.77 28.22 28.97 28.16 29.66 32.76 34.63 34.40 35.10 31.53 29.06 28.28 32.38 30.26 28.72 29.79 30.85 34.04 33.94 30.43 23.45
46.17 45.77 45.43 45.06 44.48 43.47 45.42 44.70 43.60 43.36 44.16 41.27 36.78 31.40 41.28 43.30 34.70 34.31 29.19 34.02 36.53 34.66 36.19 34.86 33.25 31.99 29.89 29.96 28.08 27.62 27.82 32.53 37.28 35.23 29.49 32.77 27.92 24.05 25.92 32.59 34.14 31.51 30.32 34.72 28.76 27.41 29.47
45.86 45.58 45.02 44.70 44.40 44.10 43.87 43.58 43.63 44.27 43.59 38.53 34.59 33.24 40.27 41.65 27.21 27.03 32.84 33.06 34.50 33.81 33.35 32.80 31.78 33.25 32.57 28.33 24.40 29.20 30.38 37.39 36.97 33.74 29.40 31.57 24.53 19.32 21.78 26.46 32.65 29.87 31.66 33.24 33.27 32.47 28.22
46.58 45.49 44.70 44.90 44.65 44.00 44.02 43.86 43.86 44.16 44.14 39.14 35.31 28.49 32.91 34.89 34.27 30.75 29.41 31.00 30.16 34.73 33.05 33.70 32.07 32.58 29.58 28.36 30.54 27.85 28.83 35.12 36.05 36.31 38.16 33.92 27.46 23.67 18.13 21.91 27.35 25.45 28.79 31.20 31.16 25.70 28.23
45.84 45.09 44.77 44.77 44.69 44.05 43.66 43.74 43.57 43.66 43.79 38.84 34.91 30.06 33.23 25.96 28.78 30.84 31.63 31.10 29.26 28.77 33.27 33.13 30.20 29.91 27.96 25.04 25.84 25.19 28.36 29.42 32.23 37.51 32.95 29.40 22.70 25.87 27.48 27.89 27.60 26.50 26.55 27.75 27.89 30.24 28.68
44.73 44.37 44.01 44.23 44.22 44.06 43.53 43.88 43.73 44.04 44.20 37.29 30.31 29.06 32.38 29.87 32.57 29.18 29.26 29.00 29.35 29.87 30.05 28.31 26.84 29.64 28.24 24.26 25.44 23.66 26.76 25.93 25.82 30.06 29.19 31.66 19.25 25.11 22.91 26.81 27.19 26.11 28.83 30.04 30.51 34.08 34.00
44.56 44.37 44.85 44.52 44.46 43.67 43.63 43.34 43.78 44.23 42.69 35.29 35.63 36.93 32.63 30.27 28.83 27.15 26.12 30.18 30.16 30.90 32.24 32.64 30.77 27.89 26.59 28.44 30.35 30.64 30.78 30.52 29.58 27.22 22.60 26.03 22.03 20.78 16.52 25.19 25.64 20.00 26.83 30.12 33.55 34.56 35.41
44.13 44.44 44.40 43.93 44.11 43.34 43.39 43.75 43.93 44.42 42.35 37.12 36.57 35.58 29.41 24.04 27.89 28.90 31.72 31.96 30.43 31.17 28.13 31.90 32.05 28.04 32.44 35.32 33.64 32.28 30.70 30.36 29.74 29.04 29.67 24.47 20.67 21.32 18.96 23.59 15.10 30.64 37.91 35.92 32.48 32.78 33.61
43.83 43.74 44.40 44.06 44.25 43.58 43.68 43.95 44.26 44.87 45.54 38.88 38.39 35.26 31.27 24.92 30.47 31.41 32.02 30.75 30.64 30.86 29.45 31.52 33.71 35.13 34.75 31.55 25.25 23.40 23.10 25.83 28.13 28.45 27.99 29.07 23.99 20.59 19.34 19.94 24.43 28.56 33.24 32.18 32.12 28.51 31.97
43.97 43.36 43.44 44.05 44.22 43.77 43.33 43.63 44.32 45.06 45.81 40.12 38.38 38.27 34.87 27.97 28.05 34.58 29.54 30.00 24.90 24.35 25.75 29.55 34.92 35.37 32.77 23.13 20.61 19.30 17.92 22.79 23.38 28.51 30.73 28.94 28.94 23.61 23.46 19.73 18.52 27.74 30.73 34.52 36.30 25.04 30.64
44.32 43.75 43.60 44.48 44.12 43.73 43.65 43.70 44.07 44.68 45.71 40.78 38.83 39.19 34.57 27.11 32.79 32.74 27.27 26.66 29.17 25.87 22.57 26.48 29.02 28.87 30.97 17.25 17.62 19.81 20.92 27.87 22.66 24.87 24.55 24.49 25.37 21.50 21.84 21.78 27.06 29.89 31.82 35.45 25.13 25.04 29.57
44.32 44.10 44.17 44.48 43.90 43.83 44.08 43.93 43.81 44.05 44.94 41.05 37.59 39.05 33.94 26.19 31.01 35.96 35.96 29.88 29.02 27.36 21.16 26.91 24.21 25.54 24.82 20.16 20.83 20.44 15.66 25.95 25.05 31.94 28.89 26.21 25.18 25.00 25.17 22.83 20.18 31.31 31.87 28.29 31.39 31.48 29.78
44.03 43.88 43.89 44.30 44.40 44.35 43.56 43.59 43.53 43.83 44.14 42.90 35.65 39.94 39.31 30.67 31.60 35.81 36.08 36.91 35.40 34.39 29.41 28.64 26.88 27.00 29.53 22.56 26.49 26.64 24.53 26.44 27.83 23.10 32.73 25.51 29.00 26.17 27.59 23.83 30.63 32.05 30.96 33.99 33.53 30.52 30.17